<?xml version="1.0" encoding="UTF-8" standalone="no" ?>
<gpx xmlns="http://www.topografix.com/GPX/1/1" xmlns:xsi="http://www.w3.org/2001/XMLSchema-instance" xsi:schemaLocation="http://www.topografix.com/GPX/1/1 http://www.topografix.com/GPX/1/1/gpx.xsd" version="1.1" creator="VisuGPX - https://www.visugpx.com">
  <metadata>
    <name>83 - D+   Tourves </name>
    <desc><![CDATA[83 - D+   Tourves : St Probace - Caramiy
2022-11-13]]></desc>
  </metadata>
  <trk>
    <name><![CDATA[Tourves St Probace Carami  2022-11-13]]></name>
    <trkseg>
      <trkpt lat="43.39061" lon="5.93201">
        <ele>273.2</ele>
        <time>2022-11-13T07:54:10Z</time>
      </trkpt>
      <trkpt lat="43.39061" lon="5.93201">
        <ele>273.2</ele>
        <time>2022-11-13T07:54:10Z</time>
      </trkpt>
      <trkpt lat="43.39059" lon="5.93202">
        <ele>273.6</ele>
        <time>2022-11-13T07:54:11Z</time>
      </trkpt>
      <trkpt lat="43.39059" lon="5.93203">
        <ele>273.6</ele>
        <time>2022-11-13T07:54:12Z</time>
      </trkpt>
      <trkpt lat="43.3906" lon="5.93202">
        <ele>273.3</ele>
        <time>2022-11-13T07:54:13Z</time>
      </trkpt>
      <trkpt lat="43.39066" lon="5.93196">
        <ele>274</ele>
        <time>2022-11-13T07:54:19Z</time>
      </trkpt>
      <trkpt lat="43.39066" lon="5.93196">
        <ele>274.7</ele>
        <time>2022-11-13T07:54:22Z</time>
      </trkpt>
      <trkpt lat="43.39067" lon="5.93196">
        <ele>275.5</ele>
        <time>2022-11-13T07:54:26Z</time>
      </trkpt>
      <trkpt lat="43.39067" lon="5.93195">
        <ele>275.5</ele>
        <time>2022-11-13T07:54:28Z</time>
      </trkpt>
      <trkpt lat="43.39067" lon="5.93195">
        <ele>275.5</ele>
        <time>2022-11-13T07:54:29Z</time>
      </trkpt>
      <trkpt lat="43.39068" lon="5.93195">
        <ele>276</ele>
        <time>2022-11-13T07:54:31Z</time>
      </trkpt>
      <trkpt lat="43.39066" lon="5.93195">
        <ele>277.6</ele>
        <time>2022-11-13T07:54:37Z</time>
      </trkpt>
      <trkpt lat="43.39066" lon="5.93195">
        <ele>277.8</ele>
        <time>2022-11-13T07:54:43Z</time>
      </trkpt>
      <trkpt lat="43.39066" lon="5.93195">
        <ele>277.6</ele>
        <time>2022-11-13T07:54:44Z</time>
      </trkpt>
      <trkpt lat="43.39066" lon="5.93196">
        <ele>277.7</ele>
        <time>2022-11-13T07:54:45Z</time>
      </trkpt>
      <trkpt lat="43.39066" lon="5.93195">
        <ele>276.8</ele>
        <time>2022-11-13T07:54:50Z</time>
      </trkpt>
      <trkpt lat="43.39066" lon="5.93195">
        <ele>276.9</ele>
        <time>2022-11-13T07:54:53Z</time>
      </trkpt>
      <trkpt lat="43.39063" lon="5.93192">
        <ele>277.7</ele>
        <time>2022-11-13T07:55:05Z</time>
      </trkpt>
      <trkpt lat="43.39063" lon="5.93192">
        <ele>277.8</ele>
        <time>2022-11-13T07:55:06Z</time>
      </trkpt>
      <trkpt lat="43.39062" lon="5.93192">
        <ele>279.7</ele>
        <time>2022-11-13T07:55:13Z</time>
      </trkpt>
      <trkpt lat="43.39062" lon="5.93191">
        <ele>279.9</ele>
        <time>2022-11-13T07:55:14Z</time>
      </trkpt>
      <trkpt lat="43.39063" lon="5.93191">
        <ele>280.2</ele>
        <time>2022-11-13T07:55:16Z</time>
      </trkpt>
      <trkpt lat="43.39063" lon="5.93191">
        <ele>280.2</ele>
        <time>2022-11-13T07:55:22Z</time>
      </trkpt>
      <trkpt lat="43.39063" lon="5.93191">
        <ele>280.2</ele>
        <time>2022-11-13T07:55:23Z</time>
      </trkpt>
      <trkpt lat="43.39062" lon="5.93191">
        <ele>280.4</ele>
        <time>2022-11-13T07:55:33Z</time>
      </trkpt>
      <trkpt lat="43.39062" lon="5.93191">
        <ele>280.4</ele>
        <time>2022-11-13T07:55:34Z</time>
      </trkpt>
      <trkpt lat="43.39062" lon="5.93192">
        <ele>280.5</ele>
        <time>2022-11-13T07:55:36Z</time>
      </trkpt>
      <trkpt lat="43.39062" lon="5.93192">
        <ele>280.7</ele>
        <time>2022-11-13T07:55:38Z</time>
      </trkpt>
      <trkpt lat="43.39062" lon="5.93193">
        <ele>280.8</ele>
        <time>2022-11-13T07:55:39Z</time>
      </trkpt>
      <trkpt lat="43.39063" lon="5.93193">
        <ele>281.5</ele>
        <time>2022-11-13T07:55:45Z</time>
      </trkpt>
      <trkpt lat="43.39063" lon="5.93193">
        <ele>281.6</ele>
        <time>2022-11-13T07:55:47Z</time>
      </trkpt>
      <trkpt lat="43.39062" lon="5.93192">
        <ele>281.4</ele>
        <time>2022-11-13T07:55:49Z</time>
      </trkpt>
      <trkpt lat="43.39063" lon="5.93192">
        <ele>281.1</ele>
        <time>2022-11-13T07:55:50Z</time>
      </trkpt>
      <trkpt lat="43.39071" lon="5.93187">
        <ele>279.3</ele>
        <time>2022-11-13T07:56:12Z</time>
      </trkpt>
      <trkpt lat="43.3907" lon="5.93187">
        <ele>279.4</ele>
        <time>2022-11-13T07:56:13Z</time>
      </trkpt>
      <trkpt lat="43.39069" lon="5.93187">
        <ele>281</ele>
        <time>2022-11-13T07:56:18Z</time>
      </trkpt>
      <trkpt lat="43.39069" lon="5.93187">
        <ele>281.4</ele>
        <time>2022-11-13T07:56:22Z</time>
      </trkpt>
      <trkpt lat="43.39069" lon="5.93187">
        <ele>281.5</ele>
        <time>2022-11-13T07:56:23Z</time>
      </trkpt>
      <trkpt lat="43.39069" lon="5.93187">
        <ele>281.7</ele>
        <time>2022-11-13T07:56:26Z</time>
      </trkpt>
      <trkpt lat="43.39069" lon="5.93187">
        <ele>281.7</ele>
        <time>2022-11-13T07:56:27Z</time>
      </trkpt>
      <trkpt lat="43.39069" lon="5.93187">
        <ele>281.7</ele>
        <time>2022-11-13T07:56:29Z</time>
      </trkpt>
      <trkpt lat="43.39069" lon="5.93187">
        <ele>281.7</ele>
        <time>2022-11-13T07:56:30Z</time>
      </trkpt>
      <trkpt lat="43.39069" lon="5.93187">
        <ele>281.9</ele>
        <time>2022-11-13T07:56:33Z</time>
      </trkpt>
      <trkpt lat="43.39068" lon="5.93187">
        <ele>282.1</ele>
        <time>2022-11-13T07:56:35Z</time>
      </trkpt>
      <trkpt lat="43.39068" lon="5.93187">
        <ele>282</ele>
        <time>2022-11-13T07:56:43Z</time>
      </trkpt>
      <trkpt lat="43.39067" lon="5.93189">
        <ele>281.6</ele>
        <time>2022-11-13T07:56:49Z</time>
      </trkpt>
      <trkpt lat="43.39067" lon="5.93189">
        <ele>281.3</ele>
        <time>2022-11-13T07:56:57Z</time>
      </trkpt>
      <trkpt lat="43.39067" lon="5.93189">
        <ele>281.2</ele>
        <time>2022-11-13T07:56:58Z</time>
      </trkpt>
      <trkpt lat="43.39067" lon="5.93189">
        <ele>281.2</ele>
        <time>2022-11-13T07:57:00Z</time>
      </trkpt>
      <trkpt lat="43.39067" lon="5.93189">
        <ele>280.6</ele>
        <time>2022-11-13T07:57:02Z</time>
      </trkpt>
      <trkpt lat="43.39067" lon="5.9319">
        <ele>280.5</ele>
        <time>2022-11-13T07:57:08Z</time>
      </trkpt>
      <trkpt lat="43.39058" lon="5.9319">
        <ele>280.7</ele>
        <time>2022-11-13T07:57:24Z</time>
      </trkpt>
      <trkpt lat="43.39049" lon="5.93185">
        <ele>281.2</ele>
        <time>2022-11-13T07:57:34Z</time>
      </trkpt>
      <trkpt lat="43.3904" lon="5.93186">
        <ele>282.1</ele>
        <time>2022-11-13T07:57:45Z</time>
      </trkpt>
      <trkpt lat="43.39031" lon="5.93185">
        <ele>281.8</ele>
        <time>2022-11-13T07:57:58Z</time>
      </trkpt>
      <trkpt lat="43.39023" lon="5.93179">
        <ele>280.8</ele>
        <time>2022-11-13T07:58:08Z</time>
      </trkpt>
      <trkpt lat="43.39015" lon="5.93171">
        <ele>279.9</ele>
        <time>2022-11-13T07:58:16Z</time>
      </trkpt>
      <trkpt lat="43.39007" lon="5.93164">
        <ele>279.3</ele>
        <time>2022-11-13T07:58:26Z</time>
      </trkpt>
      <trkpt lat="43.38999" lon="5.93158">
        <ele>279.5</ele>
        <time>2022-11-13T07:58:35Z</time>
      </trkpt>
      <trkpt lat="43.3899" lon="5.93151">
        <ele>278.9</ele>
        <time>2022-11-13T07:58:45Z</time>
      </trkpt>
      <trkpt lat="43.38982" lon="5.93144">
        <ele>278.3</ele>
        <time>2022-11-13T07:58:54Z</time>
      </trkpt>
      <trkpt lat="43.38973" lon="5.93138">
        <ele>277.9</ele>
        <time>2022-11-13T07:59:01Z</time>
      </trkpt>
      <trkpt lat="43.38965" lon="5.93132">
        <ele>278.1</ele>
        <time>2022-11-13T07:59:10Z</time>
      </trkpt>
      <trkpt lat="43.38957" lon="5.93123">
        <ele>277.9</ele>
        <time>2022-11-13T07:59:19Z</time>
      </trkpt>
      <trkpt lat="43.38949" lon="5.9313">
        <ele>276.9</ele>
        <time>2022-11-13T07:59:29Z</time>
      </trkpt>
      <trkpt lat="43.38942" lon="5.93139">
        <ele>277.1</ele>
        <time>2022-11-13T07:59:39Z</time>
      </trkpt>
      <trkpt lat="43.38935" lon="5.93149">
        <ele>277.3</ele>
        <time>2022-11-13T07:59:50Z</time>
      </trkpt>
      <trkpt lat="43.38927" lon="5.93155">
        <ele>278.4</ele>
        <time>2022-11-13T08:00:02Z</time>
      </trkpt>
      <trkpt lat="43.38918" lon="5.93152">
        <ele>282.8</ele>
        <time>2022-11-13T08:00:59Z</time>
      </trkpt>
      <trkpt lat="43.38916" lon="5.9315">
        <ele>283.1</ele>
        <time>2022-11-13T08:01:05Z</time>
      </trkpt>
      <trkpt lat="43.38916" lon="5.9315">
        <ele>283.2</ele>
        <time>2022-11-13T08:01:07Z</time>
      </trkpt>
      <trkpt lat="43.38909" lon="5.93142">
        <ele>283.8</ele>
        <time>2022-11-13T08:01:21Z</time>
      </trkpt>
      <trkpt lat="43.389" lon="5.93138">
        <ele>283.1</ele>
        <time>2022-11-13T08:01:31Z</time>
      </trkpt>
      <trkpt lat="43.38893" lon="5.93128">
        <ele>282.6</ele>
        <time>2022-11-13T08:01:40Z</time>
      </trkpt>
      <trkpt lat="43.38886" lon="5.93119">
        <ele>281.2</ele>
        <time>2022-11-13T08:01:46Z</time>
      </trkpt>
      <trkpt lat="43.38878" lon="5.93111">
        <ele>279.9</ele>
        <time>2022-11-13T08:01:53Z</time>
      </trkpt>
      <trkpt lat="43.38871" lon="5.93102">
        <ele>279.8</ele>
        <time>2022-11-13T08:02:01Z</time>
      </trkpt>
      <trkpt lat="43.38862" lon="5.93096">
        <ele>279.9</ele>
        <time>2022-11-13T08:02:09Z</time>
      </trkpt>
      <trkpt lat="43.38853" lon="5.9309">
        <ele>280.5</ele>
        <time>2022-11-13T08:02:16Z</time>
      </trkpt>
      <trkpt lat="43.38845" lon="5.93083">
        <ele>280.8</ele>
        <time>2022-11-13T08:02:24Z</time>
      </trkpt>
      <trkpt lat="43.38841" lon="5.93072">
        <ele>282.8</ele>
        <time>2022-11-13T08:02:34Z</time>
      </trkpt>
      <trkpt lat="43.3884" lon="5.93071">
        <ele>282.7</ele>
        <time>2022-11-13T08:02:38Z</time>
      </trkpt>
      <trkpt lat="43.3884" lon="5.93071">
        <ele>282.7</ele>
        <time>2022-11-13T08:02:39Z</time>
      </trkpt>
      <trkpt lat="43.38835" lon="5.9306">
        <ele>284.2</ele>
        <time>2022-11-13T08:02:52Z</time>
      </trkpt>
      <trkpt lat="43.38834" lon="5.93053">
        <ele>284.9</ele>
        <time>2022-11-13T08:02:59Z</time>
      </trkpt>
      <trkpt lat="43.38834" lon="5.93052">
        <ele>284.9</ele>
        <time>2022-11-13T08:03:00Z</time>
      </trkpt>
      <trkpt lat="43.38826" lon="5.93043">
        <ele>284.4</ele>
        <time>2022-11-13T08:03:07Z</time>
      </trkpt>
      <trkpt lat="43.38818" lon="5.93037">
        <ele>283.6</ele>
        <time>2022-11-13T08:03:12Z</time>
      </trkpt>
      <trkpt lat="43.38808" lon="5.9303">
        <ele>282.9</ele>
        <time>2022-11-13T08:03:19Z</time>
      </trkpt>
      <trkpt lat="43.38798" lon="5.93026">
        <ele>282.6</ele>
        <time>2022-11-13T08:03:25Z</time>
      </trkpt>
      <trkpt lat="43.38788" lon="5.93024">
        <ele>282.9</ele>
        <time>2022-11-13T08:03:32Z</time>
      </trkpt>
      <trkpt lat="43.38779" lon="5.93018">
        <ele>283.5</ele>
        <time>2022-11-13T08:03:40Z</time>
      </trkpt>
      <trkpt lat="43.38771" lon="5.93025">
        <ele>284.3</ele>
        <time>2022-11-13T08:03:48Z</time>
      </trkpt>
      <trkpt lat="43.38766" lon="5.93035">
        <ele>286.6</ele>
        <time>2022-11-13T08:03:58Z</time>
      </trkpt>
      <trkpt lat="43.38759" lon="5.93044">
        <ele>290.1</ele>
        <time>2022-11-13T08:04:11Z</time>
      </trkpt>
      <trkpt lat="43.38752" lon="5.93051">
        <ele>292.1</ele>
        <time>2022-11-13T08:04:24Z</time>
      </trkpt>
      <trkpt lat="43.38743" lon="5.93057">
        <ele>292.1</ele>
        <time>2022-11-13T08:04:37Z</time>
      </trkpt>
      <trkpt lat="43.38738" lon="5.93061">
        <ele>292.5</ele>
        <time>2022-11-13T08:04:45Z</time>
      </trkpt>
      <trkpt lat="43.38738" lon="5.93061">
        <ele>292.3</ele>
        <time>2022-11-13T08:04:46Z</time>
      </trkpt>
      <trkpt lat="43.38737" lon="5.93074">
        <ele>293.6</ele>
        <time>2022-11-13T08:04:58Z</time>
      </trkpt>
      <trkpt lat="43.38735" lon="5.93086">
        <ele>295.5</ele>
        <time>2022-11-13T08:05:12Z</time>
      </trkpt>
      <trkpt lat="43.3873" lon="5.93097">
        <ele>297</ele>
        <time>2022-11-13T08:05:27Z</time>
      </trkpt>
      <trkpt lat="43.38721" lon="5.93103">
        <ele>300.3</ele>
        <time>2022-11-13T08:05:43Z</time>
      </trkpt>
      <trkpt lat="43.38713" lon="5.9311">
        <ele>302.5</ele>
        <time>2022-11-13T08:05:54Z</time>
      </trkpt>
      <trkpt lat="43.38711" lon="5.93115">
        <ele>303</ele>
        <time>2022-11-13T08:06:02Z</time>
      </trkpt>
      <trkpt lat="43.3871" lon="5.93116">
        <ele>303</ele>
        <time>2022-11-13T08:06:04Z</time>
      </trkpt>
      <trkpt lat="43.38701" lon="5.9312">
        <ele>304.4</ele>
        <time>2022-11-13T08:06:17Z</time>
      </trkpt>
      <trkpt lat="43.38692" lon="5.93116">
        <ele>306.6</ele>
        <time>2022-11-13T08:06:32Z</time>
      </trkpt>
      <trkpt lat="43.38684" lon="5.93123">
        <ele>310.8</ele>
        <time>2022-11-13T08:06:50Z</time>
      </trkpt>
      <trkpt lat="43.38675" lon="5.93124">
        <ele>313.4</ele>
        <time>2022-11-13T08:07:07Z</time>
      </trkpt>
      <trkpt lat="43.38669" lon="5.93133">
        <ele>316</ele>
        <time>2022-11-13T08:07:21Z</time>
      </trkpt>
      <trkpt lat="43.38659" lon="5.93134">
        <ele>319.9</ele>
        <time>2022-11-13T08:07:49Z</time>
      </trkpt>
      <trkpt lat="43.38652" lon="5.93143">
        <ele>324.9</ele>
        <time>2022-11-13T08:08:13Z</time>
      </trkpt>
      <trkpt lat="43.38643" lon="5.93148">
        <ele>328.7</ele>
        <time>2022-11-13T08:08:30Z</time>
      </trkpt>
      <trkpt lat="43.38637" lon="5.93158">
        <ele>330</ele>
        <time>2022-11-13T08:08:44Z</time>
      </trkpt>
      <trkpt lat="43.38631" lon="5.93167">
        <ele>331</ele>
        <time>2022-11-13T08:08:55Z</time>
      </trkpt>
      <trkpt lat="43.38621" lon="5.93169">
        <ele>332.2</ele>
        <time>2022-11-13T08:09:06Z</time>
      </trkpt>
      <trkpt lat="43.38612" lon="5.93173">
        <ele>333.4</ele>
        <time>2022-11-13T08:09:16Z</time>
      </trkpt>
      <trkpt lat="43.38605" lon="5.93181">
        <ele>334.6</ele>
        <time>2022-11-13T08:09:26Z</time>
      </trkpt>
      <trkpt lat="43.38596" lon="5.93181">
        <ele>335.1</ele>
        <time>2022-11-13T08:09:37Z</time>
      </trkpt>
      <trkpt lat="43.38587" lon="5.93176">
        <ele>336</ele>
        <time>2022-11-13T08:09:47Z</time>
      </trkpt>
      <trkpt lat="43.3858" lon="5.93168">
        <ele>336.2</ele>
        <time>2022-11-13T08:09:56Z</time>
      </trkpt>
      <trkpt lat="43.38572" lon="5.93168">
        <ele>335.5</ele>
        <time>2022-11-13T08:10:08Z</time>
      </trkpt>
      <trkpt lat="43.38573" lon="5.93168">
        <ele>335.4</ele>
        <time>2022-11-13T08:10:09Z</time>
      </trkpt>
      <trkpt lat="43.38572" lon="5.93168">
        <ele>335.4</ele>
        <time>2022-11-13T08:10:11Z</time>
      </trkpt>
      <trkpt lat="43.38572" lon="5.93169">
        <ele>335.2</ele>
        <time>2022-11-13T08:10:18Z</time>
      </trkpt>
      <trkpt lat="43.38572" lon="5.93169">
        <ele>334.9</ele>
        <time>2022-11-13T08:10:20Z</time>
      </trkpt>
      <trkpt lat="43.38572" lon="5.93169">
        <ele>334.7</ele>
        <time>2022-11-13T08:10:31Z</time>
      </trkpt>
      <trkpt lat="43.38571" lon="5.9317">
        <ele>334.3</ele>
        <time>2022-11-13T08:10:35Z</time>
      </trkpt>
      <trkpt lat="43.38571" lon="5.9317">
        <ele>334.2</ele>
        <time>2022-11-13T08:10:36Z</time>
      </trkpt>
      <trkpt lat="43.38571" lon="5.9317">
        <ele>334.2</ele>
        <time>2022-11-13T08:10:37Z</time>
      </trkpt>
      <trkpt lat="43.38571" lon="5.9317">
        <ele>334.1</ele>
        <time>2022-11-13T08:11:03Z</time>
      </trkpt>
      <trkpt lat="43.38571" lon="5.9317">
        <ele>334.1</ele>
        <time>2022-11-13T08:11:04Z</time>
      </trkpt>
      <trkpt lat="43.38571" lon="5.9317">
        <ele>334.3</ele>
        <time>2022-11-13T08:11:26Z</time>
      </trkpt>
      <trkpt lat="43.38571" lon="5.9317">
        <ele>334.5</ele>
        <time>2022-11-13T08:11:28Z</time>
      </trkpt>
      <trkpt lat="43.3857" lon="5.9317">
        <ele>334.6</ele>
        <time>2022-11-13T08:11:31Z</time>
      </trkpt>
      <trkpt lat="43.38571" lon="5.9317">
        <ele>334.6</ele>
        <time>2022-11-13T08:11:33Z</time>
      </trkpt>
      <trkpt lat="43.3857" lon="5.9317">
        <ele>334.7</ele>
        <time>2022-11-13T08:11:44Z</time>
      </trkpt>
      <trkpt lat="43.3857" lon="5.9317">
        <ele>334.7</ele>
        <time>2022-11-13T08:11:45Z</time>
      </trkpt>
      <trkpt lat="43.38571" lon="5.93169">
        <ele>334.7</ele>
        <time>2022-11-13T08:12:06Z</time>
      </trkpt>
      <trkpt lat="43.38571" lon="5.93169">
        <ele>334.7</ele>
        <time>2022-11-13T08:12:07Z</time>
      </trkpt>
      <trkpt lat="43.3857" lon="5.93169">
        <ele>334.6</ele>
        <time>2022-11-13T08:12:15Z</time>
      </trkpt>
      <trkpt lat="43.3857" lon="5.93169">
        <ele>334.7</ele>
        <time>2022-11-13T08:12:16Z</time>
      </trkpt>
      <trkpt lat="43.3857" lon="5.93169">
        <ele>334.5</ele>
        <time>2022-11-13T08:12:20Z</time>
      </trkpt>
      <trkpt lat="43.38569" lon="5.9317">
        <ele>333.5</ele>
        <time>2022-11-13T08:12:25Z</time>
      </trkpt>
      <trkpt lat="43.38569" lon="5.9317">
        <ele>333.4</ele>
        <time>2022-11-13T08:12:30Z</time>
      </trkpt>
      <trkpt lat="43.38567" lon="5.93169">
        <ele>333.6</ele>
        <time>2022-11-13T08:12:36Z</time>
      </trkpt>
      <trkpt lat="43.38567" lon="5.9317">
        <ele>333.6</ele>
        <time>2022-11-13T08:12:38Z</time>
      </trkpt>
      <trkpt lat="43.3856" lon="5.93163">
        <ele>336</ele>
        <time>2022-11-13T08:12:51Z</time>
      </trkpt>
      <trkpt lat="43.38552" lon="5.93154">
        <ele>339.2</ele>
        <time>2022-11-13T08:13:04Z</time>
      </trkpt>
      <trkpt lat="43.38545" lon="5.93147">
        <ele>340.7</ele>
        <time>2022-11-13T08:13:15Z</time>
      </trkpt>
      <trkpt lat="43.38538" lon="5.93138">
        <ele>343.7</ele>
        <time>2022-11-13T08:13:27Z</time>
      </trkpt>
      <trkpt lat="43.38531" lon="5.93131">
        <ele>346.9</ele>
        <time>2022-11-13T08:13:39Z</time>
      </trkpt>
      <trkpt lat="43.38523" lon="5.93123">
        <ele>349.3</ele>
        <time>2022-11-13T08:13:49Z</time>
      </trkpt>
      <trkpt lat="43.38515" lon="5.93117">
        <ele>351.8</ele>
        <time>2022-11-13T08:14:01Z</time>
      </trkpt>
      <trkpt lat="43.38506" lon="5.93114">
        <ele>353.2</ele>
        <time>2022-11-13T08:14:11Z</time>
      </trkpt>
      <trkpt lat="43.38496" lon="5.93113">
        <ele>355.2</ele>
        <time>2022-11-13T08:14:25Z</time>
      </trkpt>
      <trkpt lat="43.38488" lon="5.93108">
        <ele>357.2</ele>
        <time>2022-11-13T08:14:39Z</time>
      </trkpt>
      <trkpt lat="43.38479" lon="5.93102">
        <ele>361.1</ele>
        <time>2022-11-13T08:14:54Z</time>
      </trkpt>
      <trkpt lat="43.38472" lon="5.93094">
        <ele>362.7</ele>
        <time>2022-11-13T08:15:07Z</time>
      </trkpt>
      <trkpt lat="43.38465" lon="5.93084">
        <ele>364.2</ele>
        <time>2022-11-13T08:15:17Z</time>
      </trkpt>
      <trkpt lat="43.38459" lon="5.93075">
        <ele>365.5</ele>
        <time>2022-11-13T08:15:31Z</time>
      </trkpt>
      <trkpt lat="43.38452" lon="5.93067">
        <ele>366.2</ele>
        <time>2022-11-13T08:15:41Z</time>
      </trkpt>
      <trkpt lat="43.38443" lon="5.93061">
        <ele>367.9</ele>
        <time>2022-11-13T08:15:51Z</time>
      </trkpt>
      <trkpt lat="43.38434" lon="5.93061">
        <ele>368.8</ele>
        <time>2022-11-13T08:16:02Z</time>
      </trkpt>
      <trkpt lat="43.38425" lon="5.93062">
        <ele>369.6</ele>
        <time>2022-11-13T08:16:13Z</time>
      </trkpt>
      <trkpt lat="43.38415" lon="5.93066">
        <ele>370.7</ele>
        <time>2022-11-13T08:16:24Z</time>
      </trkpt>
      <trkpt lat="43.38406" lon="5.93063">
        <ele>372.6</ele>
        <time>2022-11-13T08:16:37Z</time>
      </trkpt>
      <trkpt lat="43.38396" lon="5.93061">
        <ele>374.3</ele>
        <time>2022-11-13T08:16:48Z</time>
      </trkpt>
      <trkpt lat="43.38387" lon="5.93058">
        <ele>374.3</ele>
        <time>2022-11-13T08:16:58Z</time>
      </trkpt>
      <trkpt lat="43.38377" lon="5.93061">
        <ele>374.4</ele>
        <time>2022-11-13T08:17:08Z</time>
      </trkpt>
      <trkpt lat="43.38367" lon="5.93058">
        <ele>374.4</ele>
        <time>2022-11-13T08:17:17Z</time>
      </trkpt>
      <trkpt lat="43.38358" lon="5.93059">
        <ele>375.3</ele>
        <time>2022-11-13T08:17:25Z</time>
      </trkpt>
      <trkpt lat="43.38349" lon="5.93057">
        <ele>375.6</ele>
        <time>2022-11-13T08:17:33Z</time>
      </trkpt>
      <trkpt lat="43.38345" lon="5.93057">
        <ele>375.4</ele>
        <time>2022-11-13T08:17:40Z</time>
      </trkpt>
      <trkpt lat="43.38345" lon="5.93058">
        <ele>375.5</ele>
        <time>2022-11-13T08:17:50Z</time>
      </trkpt>
      <trkpt lat="43.38345" lon="5.9306">
        <ele>375.1</ele>
        <time>2022-11-13T08:17:54Z</time>
      </trkpt>
      <trkpt lat="43.38345" lon="5.9306">
        <ele>374.9</ele>
        <time>2022-11-13T08:18:11Z</time>
      </trkpt>
      <trkpt lat="43.38344" lon="5.9306">
        <ele>374.5</ele>
        <time>2022-11-13T08:18:15Z</time>
      </trkpt>
      <trkpt lat="43.38344" lon="5.9306">
        <ele>374.6</ele>
        <time>2022-11-13T08:18:16Z</time>
      </trkpt>
      <trkpt lat="43.38342" lon="5.93059">
        <ele>374.4</ele>
        <time>2022-11-13T08:18:25Z</time>
      </trkpt>
      <trkpt lat="43.38341" lon="5.9306">
        <ele>374.5</ele>
        <time>2022-11-13T08:18:26Z</time>
      </trkpt>
      <trkpt lat="43.38341" lon="5.9306">
        <ele>374.5</ele>
        <time>2022-11-13T08:18:27Z</time>
      </trkpt>
      <trkpt lat="43.38341" lon="5.9306">
        <ele>374.4</ele>
        <time>2022-11-13T08:18:28Z</time>
      </trkpt>
      <trkpt lat="43.38341" lon="5.9306">
        <ele>374.4</ele>
        <time>2022-11-13T08:18:29Z</time>
      </trkpt>
      <trkpt lat="43.38341" lon="5.9306">
        <ele>374.5</ele>
        <time>2022-11-13T08:18:31Z</time>
      </trkpt>
      <trkpt lat="43.3834" lon="5.9306">
        <ele>374.7</ele>
        <time>2022-11-13T08:18:35Z</time>
      </trkpt>
      <trkpt lat="43.3834" lon="5.9306">
        <ele>374.7</ele>
        <time>2022-11-13T08:18:44Z</time>
      </trkpt>
      <trkpt lat="43.3834" lon="5.93061">
        <ele>374</ele>
        <time>2022-11-13T08:18:50Z</time>
      </trkpt>
      <trkpt lat="43.3834" lon="5.93061">
        <ele>374</ele>
        <time>2022-11-13T08:18:53Z</time>
      </trkpt>
      <trkpt lat="43.3834" lon="5.93061">
        <ele>374</ele>
        <time>2022-11-13T08:18:54Z</time>
      </trkpt>
      <trkpt lat="43.38341" lon="5.93062">
        <ele>373.5</ele>
        <time>2022-11-13T08:19:22Z</time>
      </trkpt>
      <trkpt lat="43.38342" lon="5.93061">
        <ele>372.4</ele>
        <time>2022-11-13T08:19:28Z</time>
      </trkpt>
      <trkpt lat="43.38342" lon="5.93061">
        <ele>372.4</ele>
        <time>2022-11-13T08:19:29Z</time>
      </trkpt>
      <trkpt lat="43.38333" lon="5.93061">
        <ele>372.1</ele>
        <time>2022-11-13T08:19:43Z</time>
      </trkpt>
      <trkpt lat="43.38324" lon="5.93061">
        <ele>373.2</ele>
        <time>2022-11-13T08:19:56Z</time>
      </trkpt>
      <trkpt lat="43.38314" lon="5.93058">
        <ele>374.5</ele>
        <time>2022-11-13T08:20:06Z</time>
      </trkpt>
      <trkpt lat="43.38305" lon="5.93055">
        <ele>375</ele>
        <time>2022-11-13T08:20:17Z</time>
      </trkpt>
      <trkpt lat="43.38297" lon="5.9305">
        <ele>374.9</ele>
        <time>2022-11-13T08:20:26Z</time>
      </trkpt>
      <trkpt lat="43.38288" lon="5.93044">
        <ele>375.2</ele>
        <time>2022-11-13T08:20:35Z</time>
      </trkpt>
      <trkpt lat="43.3828" lon="5.93039">
        <ele>374.7</ele>
        <time>2022-11-13T08:20:47Z</time>
      </trkpt>
      <trkpt lat="43.38271" lon="5.93034">
        <ele>373.5</ele>
        <time>2022-11-13T08:21:00Z</time>
      </trkpt>
      <trkpt lat="43.38262" lon="5.9303">
        <ele>373.8</ele>
        <time>2022-11-13T08:21:08Z</time>
      </trkpt>
      <trkpt lat="43.38252" lon="5.93027">
        <ele>373.4</ele>
        <time>2022-11-13T08:21:16Z</time>
      </trkpt>
      <trkpt lat="43.38243" lon="5.93025">
        <ele>373.2</ele>
        <time>2022-11-13T08:21:24Z</time>
      </trkpt>
      <trkpt lat="43.38234" lon="5.93021">
        <ele>373</ele>
        <time>2022-11-13T08:21:33Z</time>
      </trkpt>
      <trkpt lat="43.38224" lon="5.93021">
        <ele>372.5</ele>
        <time>2022-11-13T08:21:45Z</time>
      </trkpt>
      <trkpt lat="43.38215" lon="5.93019">
        <ele>373.1</ele>
        <time>2022-11-13T08:21:55Z</time>
      </trkpt>
      <trkpt lat="43.38205" lon="5.93014">
        <ele>372.9</ele>
        <time>2022-11-13T08:22:06Z</time>
      </trkpt>
      <trkpt lat="43.38199" lon="5.93006">
        <ele>372.2</ele>
        <time>2022-11-13T08:22:15Z</time>
      </trkpt>
      <trkpt lat="43.38189" lon="5.93003">
        <ele>371.6</ele>
        <time>2022-11-13T08:22:22Z</time>
      </trkpt>
      <trkpt lat="43.3818" lon="5.93003">
        <ele>370.6</ele>
        <time>2022-11-13T08:22:31Z</time>
      </trkpt>
      <trkpt lat="43.38171" lon="5.92996">
        <ele>370.7</ele>
        <time>2022-11-13T08:22:41Z</time>
      </trkpt>
      <trkpt lat="43.38165" lon="5.92985">
        <ele>370.4</ele>
        <time>2022-11-13T08:22:50Z</time>
      </trkpt>
      <trkpt lat="43.3816" lon="5.92974">
        <ele>370.8</ele>
        <time>2022-11-13T08:23:01Z</time>
      </trkpt>
      <trkpt lat="43.38154" lon="5.92965">
        <ele>371.4</ele>
        <time>2022-11-13T08:23:09Z</time>
      </trkpt>
      <trkpt lat="43.38148" lon="5.92955">
        <ele>370.9</ele>
        <time>2022-11-13T08:23:18Z</time>
      </trkpt>
      <trkpt lat="43.38149" lon="5.92942">
        <ele>370.4</ele>
        <time>2022-11-13T08:23:29Z</time>
      </trkpt>
      <trkpt lat="43.38141" lon="5.92933">
        <ele>371.1</ele>
        <time>2022-11-13T08:23:38Z</time>
      </trkpt>
      <trkpt lat="43.38136" lon="5.92921">
        <ele>371.5</ele>
        <time>2022-11-13T08:23:47Z</time>
      </trkpt>
      <trkpt lat="43.38128" lon="5.92915">
        <ele>371.4</ele>
        <time>2022-11-13T08:23:54Z</time>
      </trkpt>
      <trkpt lat="43.38119" lon="5.92909">
        <ele>372</ele>
        <time>2022-11-13T08:24:04Z</time>
      </trkpt>
      <trkpt lat="43.38112" lon="5.92901">
        <ele>372.1</ele>
        <time>2022-11-13T08:24:12Z</time>
      </trkpt>
      <trkpt lat="43.38103" lon="5.92893">
        <ele>372.4</ele>
        <time>2022-11-13T08:24:20Z</time>
      </trkpt>
      <trkpt lat="43.38096" lon="5.92885">
        <ele>371.7</ele>
        <time>2022-11-13T08:24:28Z</time>
      </trkpt>
      <trkpt lat="43.3809" lon="5.92876">
        <ele>372</ele>
        <time>2022-11-13T08:24:36Z</time>
      </trkpt>
      <trkpt lat="43.38087" lon="5.92863">
        <ele>372.4</ele>
        <time>2022-11-13T08:24:46Z</time>
      </trkpt>
      <trkpt lat="43.38082" lon="5.9285">
        <ele>372.6</ele>
        <time>2022-11-13T08:24:56Z</time>
      </trkpt>
      <trkpt lat="43.38074" lon="5.92843">
        <ele>373.2</ele>
        <time>2022-11-13T08:25:03Z</time>
      </trkpt>
      <trkpt lat="43.38069" lon="5.92834">
        <ele>372.8</ele>
        <time>2022-11-13T08:25:11Z</time>
      </trkpt>
      <trkpt lat="43.38066" lon="5.92821">
        <ele>373.5</ele>
        <time>2022-11-13T08:25:19Z</time>
      </trkpt>
      <trkpt lat="43.38063" lon="5.92808">
        <ele>373.8</ele>
        <time>2022-11-13T08:25:27Z</time>
      </trkpt>
      <trkpt lat="43.38056" lon="5.92798">
        <ele>373.9</ele>
        <time>2022-11-13T08:25:34Z</time>
      </trkpt>
      <trkpt lat="43.38054" lon="5.92785">
        <ele>374.1</ele>
        <time>2022-11-13T08:25:46Z</time>
      </trkpt>
      <trkpt lat="43.3805" lon="5.92774">
        <ele>374.2</ele>
        <time>2022-11-13T08:25:54Z</time>
      </trkpt>
      <trkpt lat="43.38042" lon="5.92765">
        <ele>374.1</ele>
        <time>2022-11-13T08:26:00Z</time>
      </trkpt>
      <trkpt lat="43.38038" lon="5.92753">
        <ele>373.5</ele>
        <time>2022-11-13T08:26:09Z</time>
      </trkpt>
      <trkpt lat="43.3804" lon="5.9274">
        <ele>372.8</ele>
        <time>2022-11-13T08:26:18Z</time>
      </trkpt>
      <trkpt lat="43.38042" lon="5.92727">
        <ele>372.7</ele>
        <time>2022-11-13T08:26:27Z</time>
      </trkpt>
      <trkpt lat="43.38044" lon="5.92714">
        <ele>373</ele>
        <time>2022-11-13T08:26:37Z</time>
      </trkpt>
      <trkpt lat="43.38042" lon="5.92701">
        <ele>372.8</ele>
        <time>2022-11-13T08:26:46Z</time>
      </trkpt>
      <trkpt lat="43.38038" lon="5.9269">
        <ele>372.8</ele>
        <time>2022-11-13T08:26:55Z</time>
      </trkpt>
      <trkpt lat="43.38032" lon="5.92679">
        <ele>373.8</ele>
        <time>2022-11-13T08:27:03Z</time>
      </trkpt>
      <trkpt lat="43.38025" lon="5.92671">
        <ele>374.5</ele>
        <time>2022-11-13T08:27:12Z</time>
      </trkpt>
      <trkpt lat="43.38019" lon="5.92662">
        <ele>376.2</ele>
        <time>2022-11-13T08:27:23Z</time>
      </trkpt>
      <trkpt lat="43.38017" lon="5.92649">
        <ele>377.5</ele>
        <time>2022-11-13T08:27:38Z</time>
      </trkpt>
      <trkpt lat="43.38018" lon="5.92637">
        <ele>378.2</ele>
        <time>2022-11-13T08:27:46Z</time>
      </trkpt>
      <trkpt lat="43.38018" lon="5.92624">
        <ele>379.2</ele>
        <time>2022-11-13T08:27:56Z</time>
      </trkpt>
      <trkpt lat="43.38017" lon="5.9261">
        <ele>378.3</ele>
        <time>2022-11-13T08:28:05Z</time>
      </trkpt>
      <trkpt lat="43.38017" lon="5.92597">
        <ele>377.8</ele>
        <time>2022-11-13T08:28:12Z</time>
      </trkpt>
      <trkpt lat="43.38009" lon="5.92587">
        <ele>379.3</ele>
        <time>2022-11-13T08:28:20Z</time>
      </trkpt>
      <trkpt lat="43.38004" lon="5.92577">
        <ele>380.7</ele>
        <time>2022-11-13T08:28:29Z</time>
      </trkpt>
      <trkpt lat="43.37994" lon="5.9257">
        <ele>381.6</ele>
        <time>2022-11-13T08:28:36Z</time>
      </trkpt>
      <trkpt lat="43.37984" lon="5.92568">
        <ele>381.9</ele>
        <time>2022-11-13T08:28:43Z</time>
      </trkpt>
      <trkpt lat="43.37975" lon="5.92571">
        <ele>381.5</ele>
        <time>2022-11-13T08:28:51Z</time>
      </trkpt>
      <trkpt lat="43.37968" lon="5.92579">
        <ele>381.6</ele>
        <time>2022-11-13T08:29:00Z</time>
      </trkpt>
      <trkpt lat="43.37961" lon="5.9257">
        <ele>382.5</ele>
        <time>2022-11-13T08:29:23Z</time>
      </trkpt>
      <trkpt lat="43.37961" lon="5.92557">
        <ele>383.1</ele>
        <time>2022-11-13T08:29:35Z</time>
      </trkpt>
      <trkpt lat="43.37964" lon="5.92545">
        <ele>382.8</ele>
        <time>2022-11-13T08:29:43Z</time>
      </trkpt>
      <trkpt lat="43.3796" lon="5.92533">
        <ele>382.1</ele>
        <time>2022-11-13T08:29:50Z</time>
      </trkpt>
      <trkpt lat="43.37959" lon="5.9252">
        <ele>382.3</ele>
        <time>2022-11-13T08:29:58Z</time>
      </trkpt>
      <trkpt lat="43.37956" lon="5.92507">
        <ele>381.4</ele>
        <time>2022-11-13T08:30:06Z</time>
      </trkpt>
      <trkpt lat="43.37951" lon="5.92497">
        <ele>381.2</ele>
        <time>2022-11-13T08:30:14Z</time>
      </trkpt>
      <trkpt lat="43.37942" lon="5.92491">
        <ele>382.1</ele>
        <time>2022-11-13T08:30:23Z</time>
      </trkpt>
      <trkpt lat="43.37934" lon="5.92483">
        <ele>383.7</ele>
        <time>2022-11-13T08:30:35Z</time>
      </trkpt>
      <trkpt lat="43.37929" lon="5.92473">
        <ele>385.7</ele>
        <time>2022-11-13T08:30:47Z</time>
      </trkpt>
      <trkpt lat="43.37922" lon="5.92465">
        <ele>386.6</ele>
        <time>2022-11-13T08:30:59Z</time>
      </trkpt>
      <trkpt lat="43.37921" lon="5.92463">
        <ele>387.3</ele>
        <time>2022-11-13T08:31:03Z</time>
      </trkpt>
      <trkpt lat="43.37921" lon="5.92463">
        <ele>387.4</ele>
        <time>2022-11-13T08:31:04Z</time>
      </trkpt>
      <trkpt lat="43.37917" lon="5.92451">
        <ele>389.7</ele>
        <time>2022-11-13T08:31:15Z</time>
      </trkpt>
      <trkpt lat="43.37914" lon="5.92439">
        <ele>391.1</ele>
        <time>2022-11-13T08:31:25Z</time>
      </trkpt>
      <trkpt lat="43.37906" lon="5.92429">
        <ele>392.4</ele>
        <time>2022-11-13T08:31:33Z</time>
      </trkpt>
      <trkpt lat="43.37901" lon="5.92418">
        <ele>394</ele>
        <time>2022-11-13T08:31:44Z</time>
      </trkpt>
      <trkpt lat="43.37902" lon="5.92405">
        <ele>395.6</ele>
        <time>2022-11-13T08:31:55Z</time>
      </trkpt>
      <trkpt lat="43.37898" lon="5.92393">
        <ele>397.1</ele>
        <time>2022-11-13T08:32:06Z</time>
      </trkpt>
      <trkpt lat="43.37894" lon="5.92381">
        <ele>398</ele>
        <time>2022-11-13T08:32:15Z</time>
      </trkpt>
      <trkpt lat="43.3789" lon="5.9237">
        <ele>399.4</ele>
        <time>2022-11-13T08:32:26Z</time>
      </trkpt>
      <trkpt lat="43.37887" lon="5.92357">
        <ele>401</ele>
        <time>2022-11-13T08:32:36Z</time>
      </trkpt>
      <trkpt lat="43.3788" lon="5.92347">
        <ele>402.6</ele>
        <time>2022-11-13T08:32:43Z</time>
      </trkpt>
      <trkpt lat="43.37874" lon="5.92337">
        <ele>404.1</ele>
        <time>2022-11-13T08:32:52Z</time>
      </trkpt>
      <trkpt lat="43.37865" lon="5.92332">
        <ele>405.5</ele>
        <time>2022-11-13T08:33:01Z</time>
      </trkpt>
      <trkpt lat="43.37857" lon="5.92327">
        <ele>406.6</ele>
        <time>2022-11-13T08:33:10Z</time>
      </trkpt>
      <trkpt lat="43.37848" lon="5.92321">
        <ele>408.6</ele>
        <time>2022-11-13T08:33:19Z</time>
      </trkpt>
      <trkpt lat="43.37839" lon="5.92316">
        <ele>411.7</ele>
        <time>2022-11-13T08:33:30Z</time>
      </trkpt>
      <trkpt lat="43.37831" lon="5.92309">
        <ele>413.3</ele>
        <time>2022-11-13T08:33:42Z</time>
      </trkpt>
      <trkpt lat="43.37821" lon="5.92305">
        <ele>414.4</ele>
        <time>2022-11-13T08:33:50Z</time>
      </trkpt>
      <trkpt lat="43.37812" lon="5.92301">
        <ele>415.2</ele>
        <time>2022-11-13T08:33:59Z</time>
      </trkpt>
      <trkpt lat="43.37804" lon="5.92296">
        <ele>415.7</ele>
        <time>2022-11-13T08:34:09Z</time>
      </trkpt>
      <trkpt lat="43.37795" lon="5.92289">
        <ele>418</ele>
        <time>2022-11-13T08:34:19Z</time>
      </trkpt>
      <trkpt lat="43.37788" lon="5.92281">
        <ele>419.1</ele>
        <time>2022-11-13T08:34:28Z</time>
      </trkpt>
      <trkpt lat="43.3778" lon="5.92276">
        <ele>421.2</ele>
        <time>2022-11-13T08:34:37Z</time>
      </trkpt>
      <trkpt lat="43.37771" lon="5.92274">
        <ele>422.7</ele>
        <time>2022-11-13T08:34:45Z</time>
      </trkpt>
      <trkpt lat="43.37761" lon="5.92273">
        <ele>423.5</ele>
        <time>2022-11-13T08:34:53Z</time>
      </trkpt>
      <trkpt lat="43.37752" lon="5.92273">
        <ele>423.8</ele>
        <time>2022-11-13T08:35:01Z</time>
      </trkpt>
      <trkpt lat="43.37742" lon="5.92273">
        <ele>424</ele>
        <time>2022-11-13T08:35:10Z</time>
      </trkpt>
      <trkpt lat="43.37733" lon="5.92276">
        <ele>425.7</ele>
        <time>2022-11-13T08:35:19Z</time>
      </trkpt>
      <trkpt lat="43.37723" lon="5.92277">
        <ele>426.3</ele>
        <time>2022-11-13T08:35:27Z</time>
      </trkpt>
      <trkpt lat="43.37714" lon="5.92273">
        <ele>428</ele>
        <time>2022-11-13T08:35:37Z</time>
      </trkpt>
      <trkpt lat="43.37707" lon="5.92265">
        <ele>429.3</ele>
        <time>2022-11-13T08:35:47Z</time>
      </trkpt>
      <trkpt lat="43.377" lon="5.92256">
        <ele>431</ele>
        <time>2022-11-13T08:35:55Z</time>
      </trkpt>
      <trkpt lat="43.37691" lon="5.92257">
        <ele>431.7</ele>
        <time>2022-11-13T08:36:03Z</time>
      </trkpt>
      <trkpt lat="43.37681" lon="5.92257">
        <ele>431.8</ele>
        <time>2022-11-13T08:36:11Z</time>
      </trkpt>
      <trkpt lat="43.37673" lon="5.92264">
        <ele>431.6</ele>
        <time>2022-11-13T08:36:18Z</time>
      </trkpt>
      <trkpt lat="43.37669" lon="5.92275">
        <ele>431.3</ele>
        <time>2022-11-13T08:36:24Z</time>
      </trkpt>
      <trkpt lat="43.37662" lon="5.92283">
        <ele>430.8</ele>
        <time>2022-11-13T08:36:31Z</time>
      </trkpt>
      <trkpt lat="43.37652" lon="5.92288">
        <ele>430.2</ele>
        <time>2022-11-13T08:36:39Z</time>
      </trkpt>
      <trkpt lat="43.37643" lon="5.92292">
        <ele>430.2</ele>
        <time>2022-11-13T08:36:47Z</time>
      </trkpt>
      <trkpt lat="43.37633" lon="5.92295">
        <ele>430.1</ele>
        <time>2022-11-13T08:36:56Z</time>
      </trkpt>
      <trkpt lat="43.37625" lon="5.92298">
        <ele>430.1</ele>
        <time>2022-11-13T08:37:04Z</time>
      </trkpt>
      <trkpt lat="43.37615" lon="5.923">
        <ele>430.7</ele>
        <time>2022-11-13T08:37:12Z</time>
      </trkpt>
      <trkpt lat="43.37609" lon="5.92313">
        <ele>430.4</ele>
        <time>2022-11-13T08:37:19Z</time>
      </trkpt>
      <trkpt lat="43.37606" lon="5.92325">
        <ele>430.3</ele>
        <time>2022-11-13T08:37:25Z</time>
      </trkpt>
      <trkpt lat="43.37602" lon="5.92337">
        <ele>429.7</ele>
        <time>2022-11-13T08:37:32Z</time>
      </trkpt>
      <trkpt lat="43.37599" lon="5.92349">
        <ele>428.3</ele>
        <time>2022-11-13T08:37:40Z</time>
      </trkpt>
      <trkpt lat="43.37593" lon="5.9236">
        <ele>428.1</ele>
        <time>2022-11-13T08:37:48Z</time>
      </trkpt>
      <trkpt lat="43.37586" lon="5.9237">
        <ele>428.4</ele>
        <time>2022-11-13T08:37:56Z</time>
      </trkpt>
      <trkpt lat="43.37581" lon="5.92379">
        <ele>428.5</ele>
        <time>2022-11-13T08:38:03Z</time>
      </trkpt>
      <trkpt lat="43.37575" lon="5.9239">
        <ele>428.6</ele>
        <time>2022-11-13T08:38:10Z</time>
      </trkpt>
      <trkpt lat="43.37572" lon="5.92402">
        <ele>428</ele>
        <time>2022-11-13T08:38:15Z</time>
      </trkpt>
      <trkpt lat="43.37565" lon="5.92412">
        <ele>428</ele>
        <time>2022-11-13T08:38:23Z</time>
      </trkpt>
      <trkpt lat="43.3756" lon="5.92424">
        <ele>427.7</ele>
        <time>2022-11-13T08:38:31Z</time>
      </trkpt>
      <trkpt lat="43.37552" lon="5.92433">
        <ele>427.3</ele>
        <time>2022-11-13T08:38:39Z</time>
      </trkpt>
      <trkpt lat="43.37544" lon="5.92439">
        <ele>427.6</ele>
        <time>2022-11-13T08:38:47Z</time>
      </trkpt>
      <trkpt lat="43.37538" lon="5.92449">
        <ele>427.4</ele>
        <time>2022-11-13T08:38:54Z</time>
      </trkpt>
      <trkpt lat="43.37531" lon="5.92459">
        <ele>427.5</ele>
        <time>2022-11-13T08:39:02Z</time>
      </trkpt>
      <trkpt lat="43.37525" lon="5.9247">
        <ele>427.6</ele>
        <time>2022-11-13T08:39:09Z</time>
      </trkpt>
      <trkpt lat="43.37521" lon="5.92481">
        <ele>427.8</ele>
        <time>2022-11-13T08:39:15Z</time>
      </trkpt>
      <trkpt lat="43.37518" lon="5.92494">
        <ele>428.1</ele>
        <time>2022-11-13T08:39:23Z</time>
      </trkpt>
      <trkpt lat="43.37515" lon="5.92506">
        <ele>428.6</ele>
        <time>2022-11-13T08:39:30Z</time>
      </trkpt>
      <trkpt lat="43.37512" lon="5.92518">
        <ele>428.8</ele>
        <time>2022-11-13T08:39:37Z</time>
      </trkpt>
      <trkpt lat="43.37506" lon="5.9253">
        <ele>428.5</ele>
        <time>2022-11-13T08:39:45Z</time>
      </trkpt>
      <trkpt lat="43.37501" lon="5.92542">
        <ele>428.4</ele>
        <time>2022-11-13T08:39:53Z</time>
      </trkpt>
      <trkpt lat="43.37497" lon="5.92554">
        <ele>428.4</ele>
        <time>2022-11-13T08:40:01Z</time>
      </trkpt>
      <trkpt lat="43.3749" lon="5.92562">
        <ele>428.2</ele>
        <time>2022-11-13T08:40:10Z</time>
      </trkpt>
      <trkpt lat="43.37485" lon="5.92574">
        <ele>427.9</ele>
        <time>2022-11-13T08:40:18Z</time>
      </trkpt>
      <trkpt lat="43.3748" lon="5.92584">
        <ele>427.8</ele>
        <time>2022-11-13T08:40:25Z</time>
      </trkpt>
      <trkpt lat="43.37475" lon="5.92594">
        <ele>427.5</ele>
        <time>2022-11-13T08:40:32Z</time>
      </trkpt>
      <trkpt lat="43.37469" lon="5.92607">
        <ele>427.3</ele>
        <time>2022-11-13T08:40:40Z</time>
      </trkpt>
      <trkpt lat="43.37465" lon="5.9262">
        <ele>426.7</ele>
        <time>2022-11-13T08:40:46Z</time>
      </trkpt>
      <trkpt lat="43.37459" lon="5.9263">
        <ele>426.4</ele>
        <time>2022-11-13T08:40:54Z</time>
      </trkpt>
      <trkpt lat="43.37453" lon="5.92638">
        <ele>426</ele>
        <time>2022-11-13T08:41:01Z</time>
      </trkpt>
      <trkpt lat="43.37446" lon="5.92647">
        <ele>426.4</ele>
        <time>2022-11-13T08:41:12Z</time>
      </trkpt>
      <trkpt lat="43.37436" lon="5.92647">
        <ele>426.2</ele>
        <time>2022-11-13T08:41:20Z</time>
      </trkpt>
      <trkpt lat="43.37428" lon="5.92654">
        <ele>425.6</ele>
        <time>2022-11-13T08:41:28Z</time>
      </trkpt>
      <trkpt lat="43.37423" lon="5.92665">
        <ele>425</ele>
        <time>2022-11-13T08:41:34Z</time>
      </trkpt>
      <trkpt lat="43.3742" lon="5.92677">
        <ele>425.2</ele>
        <time>2022-11-13T08:41:41Z</time>
      </trkpt>
      <trkpt lat="43.37413" lon="5.92685">
        <ele>424.8</ele>
        <time>2022-11-13T08:41:48Z</time>
      </trkpt>
      <trkpt lat="43.37404" lon="5.92689">
        <ele>424.1</ele>
        <time>2022-11-13T08:41:57Z</time>
      </trkpt>
      <trkpt lat="43.37396" lon="5.92683">
        <ele>424.2</ele>
        <time>2022-11-13T08:42:07Z</time>
      </trkpt>
      <trkpt lat="43.3739" lon="5.92672">
        <ele>425.4</ele>
        <time>2022-11-13T08:42:16Z</time>
      </trkpt>
      <trkpt lat="43.37381" lon="5.92666">
        <ele>425.7</ele>
        <time>2022-11-13T08:42:24Z</time>
      </trkpt>
      <trkpt lat="43.37371" lon="5.92662">
        <ele>425.7</ele>
        <time>2022-11-13T08:42:32Z</time>
      </trkpt>
      <trkpt lat="43.37362" lon="5.92658">
        <ele>425.2</ele>
        <time>2022-11-13T08:42:40Z</time>
      </trkpt>
      <trkpt lat="43.37353" lon="5.9265">
        <ele>424.6</ele>
        <time>2022-11-13T08:42:49Z</time>
      </trkpt>
      <trkpt lat="43.37345" lon="5.92647">
        <ele>424.2</ele>
        <time>2022-11-13T08:42:56Z</time>
      </trkpt>
      <trkpt lat="43.37335" lon="5.92647">
        <ele>423.7</ele>
        <time>2022-11-13T08:43:03Z</time>
      </trkpt>
      <trkpt lat="43.37327" lon="5.92654">
        <ele>423.3</ele>
        <time>2022-11-13T08:43:10Z</time>
      </trkpt>
      <trkpt lat="43.37321" lon="5.92665">
        <ele>422</ele>
        <time>2022-11-13T08:43:18Z</time>
      </trkpt>
      <trkpt lat="43.37318" lon="5.92677">
        <ele>421.3</ele>
        <time>2022-11-13T08:43:24Z</time>
      </trkpt>
      <trkpt lat="43.37314" lon="5.92688">
        <ele>421.7</ele>
        <time>2022-11-13T08:43:33Z</time>
      </trkpt>
      <trkpt lat="43.37309" lon="5.927">
        <ele>421.6</ele>
        <time>2022-11-13T08:43:41Z</time>
      </trkpt>
      <trkpt lat="43.37307" lon="5.92712">
        <ele>420.8</ele>
        <time>2022-11-13T08:43:46Z</time>
      </trkpt>
      <trkpt lat="43.37306" lon="5.92725">
        <ele>420.4</ele>
        <time>2022-11-13T08:43:53Z</time>
      </trkpt>
      <trkpt lat="43.37308" lon="5.92738">
        <ele>420</ele>
        <time>2022-11-13T08:44:00Z</time>
      </trkpt>
      <trkpt lat="43.37304" lon="5.9275">
        <ele>420</ele>
        <time>2022-11-13T08:44:09Z</time>
      </trkpt>
      <trkpt lat="43.37298" lon="5.9276">
        <ele>420</ele>
        <time>2022-11-13T08:44:17Z</time>
      </trkpt>
      <trkpt lat="43.37297" lon="5.92771">
        <ele>418.5</ele>
        <time>2022-11-13T08:44:31Z</time>
      </trkpt>
      <trkpt lat="43.37297" lon="5.92771">
        <ele>418.4</ele>
        <time>2022-11-13T08:44:33Z</time>
      </trkpt>
      <trkpt lat="43.37297" lon="5.92771">
        <ele>418.4</ele>
        <time>2022-11-13T08:44:34Z</time>
      </trkpt>
      <trkpt lat="43.37297" lon="5.92771">
        <ele>418.4</ele>
        <time>2022-11-13T08:44:57Z</time>
      </trkpt>
      <trkpt lat="43.37297" lon="5.92771">
        <ele>418.4</ele>
        <time>2022-11-13T08:44:58Z</time>
      </trkpt>
      <trkpt lat="43.37297" lon="5.92771">
        <ele>418.4</ele>
        <time>2022-11-13T08:45:24Z</time>
      </trkpt>
      <trkpt lat="43.37297" lon="5.92771">
        <ele>418.4</ele>
        <time>2022-11-13T08:45:25Z</time>
      </trkpt>
      <trkpt lat="43.37297" lon="5.92771">
        <ele>418.5</ele>
        <time>2022-11-13T08:45:28Z</time>
      </trkpt>
      <trkpt lat="43.37297" lon="5.92771">
        <ele>418.6</ele>
        <time>2022-11-13T08:45:29Z</time>
      </trkpt>
      <trkpt lat="43.37297" lon="5.92771">
        <ele>418.6</ele>
        <time>2022-11-13T08:45:36Z</time>
      </trkpt>
      <trkpt lat="43.37297" lon="5.92771">
        <ele>418.7</ele>
        <time>2022-11-13T08:45:37Z</time>
      </trkpt>
      <trkpt lat="43.37297" lon="5.92771">
        <ele>418.9</ele>
        <time>2022-11-13T08:45:40Z</time>
      </trkpt>
      <trkpt lat="43.37297" lon="5.92771">
        <ele>418.9</ele>
        <time>2022-11-13T08:45:41Z</time>
      </trkpt>
      <trkpt lat="43.37297" lon="5.9277">
        <ele>418.9</ele>
        <time>2022-11-13T08:45:42Z</time>
      </trkpt>
      <trkpt lat="43.37296" lon="5.92769">
        <ele>419.4</ele>
        <time>2022-11-13T08:45:49Z</time>
      </trkpt>
      <trkpt lat="43.37296" lon="5.92769">
        <ele>419.4</ele>
        <time>2022-11-13T08:45:52Z</time>
      </trkpt>
      <trkpt lat="43.37295" lon="5.92768">
        <ele>419.6</ele>
        <time>2022-11-13T08:45:56Z</time>
      </trkpt>
      <trkpt lat="43.37295" lon="5.92768">
        <ele>419.7</ele>
        <time>2022-11-13T08:45:58Z</time>
      </trkpt>
      <trkpt lat="43.37295" lon="5.92768">
        <ele>419.8</ele>
        <time>2022-11-13T08:45:59Z</time>
      </trkpt>
      <trkpt lat="43.37295" lon="5.92768">
        <ele>419.9</ele>
        <time>2022-11-13T08:46:04Z</time>
      </trkpt>
      <trkpt lat="43.37295" lon="5.92768">
        <ele>419.9</ele>
        <time>2022-11-13T08:46:06Z</time>
      </trkpt>
      <trkpt lat="43.37295" lon="5.92768">
        <ele>419.9</ele>
        <time>2022-11-13T08:46:13Z</time>
      </trkpt>
      <trkpt lat="43.37295" lon="5.92768">
        <ele>420</ele>
        <time>2022-11-13T08:46:14Z</time>
      </trkpt>
      <trkpt lat="43.37295" lon="5.92768">
        <ele>420.1</ele>
        <time>2022-11-13T08:46:15Z</time>
      </trkpt>
      <trkpt lat="43.37295" lon="5.92768">
        <ele>420.3</ele>
        <time>2022-11-13T08:46:17Z</time>
      </trkpt>
      <trkpt lat="43.37295" lon="5.92768">
        <ele>420.4</ele>
        <time>2022-11-13T08:46:26Z</time>
      </trkpt>
      <trkpt lat="43.37295" lon="5.92768">
        <ele>420.4</ele>
        <time>2022-11-13T08:46:27Z</time>
      </trkpt>
      <trkpt lat="43.37295" lon="5.92768">
        <ele>420.4</ele>
        <time>2022-11-13T08:46:28Z</time>
      </trkpt>
      <trkpt lat="43.37295" lon="5.92768">
        <ele>420.4</ele>
        <time>2022-11-13T08:46:31Z</time>
      </trkpt>
      <trkpt lat="43.37295" lon="5.92769">
        <ele>420.3</ele>
        <time>2022-11-13T08:46:32Z</time>
      </trkpt>
      <trkpt lat="43.37297" lon="5.92772">
        <ele>420.1</ele>
        <time>2022-11-13T08:46:49Z</time>
      </trkpt>
      <trkpt lat="43.37297" lon="5.92773">
        <ele>420.2</ele>
        <time>2022-11-13T08:46:56Z</time>
      </trkpt>
      <trkpt lat="43.37297" lon="5.92773">
        <ele>420.2</ele>
        <time>2022-11-13T08:46:57Z</time>
      </trkpt>
      <trkpt lat="43.37297" lon="5.92773">
        <ele>420.3</ele>
        <time>2022-11-13T08:47:01Z</time>
      </trkpt>
      <trkpt lat="43.37297" lon="5.92773">
        <ele>420.3</ele>
        <time>2022-11-13T08:47:02Z</time>
      </trkpt>
      <trkpt lat="43.37297" lon="5.92773">
        <ele>420.3</ele>
        <time>2022-11-13T08:47:03Z</time>
      </trkpt>
      <trkpt lat="43.37298" lon="5.92772">
        <ele>419.4</ele>
        <time>2022-11-13T08:47:10Z</time>
      </trkpt>
      <trkpt lat="43.37298" lon="5.92772">
        <ele>419</ele>
        <time>2022-11-13T08:47:27Z</time>
      </trkpt>
      <trkpt lat="43.37298" lon="5.92772">
        <ele>418.8</ele>
        <time>2022-11-13T08:47:29Z</time>
      </trkpt>
      <trkpt lat="43.37298" lon="5.92773">
        <ele>418.9</ele>
        <time>2022-11-13T08:47:30Z</time>
      </trkpt>
      <trkpt lat="43.37299" lon="5.92776">
        <ele>418.9</ele>
        <time>2022-11-13T08:47:34Z</time>
      </trkpt>
      <trkpt lat="43.37299" lon="5.92776">
        <ele>418.9</ele>
        <time>2022-11-13T08:47:36Z</time>
      </trkpt>
      <trkpt lat="43.37299" lon="5.92773">
        <ele>418.8</ele>
        <time>2022-11-13T08:47:40Z</time>
      </trkpt>
      <trkpt lat="43.37299" lon="5.92773">
        <ele>418.6</ele>
        <time>2022-11-13T08:47:52Z</time>
      </trkpt>
      <trkpt lat="43.373" lon="5.92773">
        <ele>418.5</ele>
        <time>2022-11-13T08:48:01Z</time>
      </trkpt>
      <trkpt lat="43.373" lon="5.92773">
        <ele>418.4</ele>
        <time>2022-11-13T08:48:03Z</time>
      </trkpt>
      <trkpt lat="43.373" lon="5.92771">
        <ele>418.2</ele>
        <time>2022-11-13T08:48:06Z</time>
      </trkpt>
      <trkpt lat="43.373" lon="5.92771">
        <ele>418.1</ele>
        <time>2022-11-13T08:48:11Z</time>
      </trkpt>
      <trkpt lat="43.373" lon="5.92771">
        <ele>418.1</ele>
        <time>2022-11-13T08:48:12Z</time>
      </trkpt>
      <trkpt lat="43.373" lon="5.92771">
        <ele>418</ele>
        <time>2022-11-13T08:48:16Z</time>
      </trkpt>
      <trkpt lat="43.373" lon="5.92772">
        <ele>417.5</ele>
        <time>2022-11-13T08:48:22Z</time>
      </trkpt>
      <trkpt lat="43.373" lon="5.92773">
        <ele>417.3</ele>
        <time>2022-11-13T08:48:26Z</time>
      </trkpt>
      <trkpt lat="43.373" lon="5.92774">
        <ele>416.6</ele>
        <time>2022-11-13T08:48:29Z</time>
      </trkpt>
      <trkpt lat="43.373" lon="5.92774">
        <ele>416.5</ele>
        <time>2022-11-13T08:48:40Z</time>
      </trkpt>
      <trkpt lat="43.373" lon="5.92774">
        <ele>416.5</ele>
        <time>2022-11-13T08:48:42Z</time>
      </trkpt>
      <trkpt lat="43.373" lon="5.92774">
        <ele>416.7</ele>
        <time>2022-11-13T08:48:49Z</time>
      </trkpt>
      <trkpt lat="43.373" lon="5.92774">
        <ele>416.9</ele>
        <time>2022-11-13T08:48:50Z</time>
      </trkpt>
      <trkpt lat="43.373" lon="5.92774">
        <ele>417.4</ele>
        <time>2022-11-13T08:48:53Z</time>
      </trkpt>
      <trkpt lat="43.373" lon="5.92774">
        <ele>417.5</ele>
        <time>2022-11-13T08:48:54Z</time>
      </trkpt>
      <trkpt lat="43.373" lon="5.92774">
        <ele>417.7</ele>
        <time>2022-11-13T08:48:55Z</time>
      </trkpt>
      <trkpt lat="43.37299" lon="5.92775">
        <ele>418.1</ele>
        <time>2022-11-13T08:48:58Z</time>
      </trkpt>
      <trkpt lat="43.37299" lon="5.92774">
        <ele>418.1</ele>
        <time>2022-11-13T08:49:19Z</time>
      </trkpt>
      <trkpt lat="43.37299" lon="5.92775">
        <ele>417.7</ele>
        <time>2022-11-13T08:49:24Z</time>
      </trkpt>
      <trkpt lat="43.37299" lon="5.92774">
        <ele>417.7</ele>
        <time>2022-11-13T08:49:25Z</time>
      </trkpt>
      <trkpt lat="43.37299" lon="5.92774">
        <ele>417.7</ele>
        <time>2022-11-13T08:49:26Z</time>
      </trkpt>
      <trkpt lat="43.37299" lon="5.92774">
        <ele>417.6</ele>
        <time>2022-11-13T08:49:28Z</time>
      </trkpt>
      <trkpt lat="43.37299" lon="5.92775">
        <ele>417.6</ele>
        <time>2022-11-13T08:49:29Z</time>
      </trkpt>
      <trkpt lat="43.37299" lon="5.92775">
        <ele>417.5</ele>
        <time>2022-11-13T08:49:31Z</time>
      </trkpt>
      <trkpt lat="43.37299" lon="5.92774">
        <ele>417.6</ele>
        <time>2022-11-13T08:49:33Z</time>
      </trkpt>
      <trkpt lat="43.37299" lon="5.92774">
        <ele>417.7</ele>
        <time>2022-11-13T08:49:34Z</time>
      </trkpt>
      <trkpt lat="43.37299" lon="5.92773">
        <ele>417.7</ele>
        <time>2022-11-13T08:49:42Z</time>
      </trkpt>
      <trkpt lat="43.37299" lon="5.92773">
        <ele>417.7</ele>
        <time>2022-11-13T08:49:43Z</time>
      </trkpt>
      <trkpt lat="43.37299" lon="5.92773">
        <ele>417.8</ele>
        <time>2022-11-13T08:49:44Z</time>
      </trkpt>
      <trkpt lat="43.37298" lon="5.92772">
        <ele>417.9</ele>
        <time>2022-11-13T08:49:45Z</time>
      </trkpt>
      <trkpt lat="43.37301" lon="5.92771">
        <ele>417.2</ele>
        <time>2022-11-13T08:49:57Z</time>
      </trkpt>
      <trkpt lat="43.37301" lon="5.92771">
        <ele>417</ele>
        <time>2022-11-13T08:49:59Z</time>
      </trkpt>
      <trkpt lat="43.37301" lon="5.92771">
        <ele>416.9</ele>
        <time>2022-11-13T08:50:00Z</time>
      </trkpt>
      <trkpt lat="43.37301" lon="5.92771">
        <ele>416.9</ele>
        <time>2022-11-13T08:50:05Z</time>
      </trkpt>
      <trkpt lat="43.37301" lon="5.9277">
        <ele>417</ele>
        <time>2022-11-13T08:50:08Z</time>
      </trkpt>
      <trkpt lat="43.37301" lon="5.9277">
        <ele>417</ele>
        <time>2022-11-13T08:50:09Z</time>
      </trkpt>
      <trkpt lat="43.37301" lon="5.9277">
        <ele>417</ele>
        <time>2022-11-13T08:50:10Z</time>
      </trkpt>
      <trkpt lat="43.37301" lon="5.9277">
        <ele>417</ele>
        <time>2022-11-13T08:50:11Z</time>
      </trkpt>
      <trkpt lat="43.37301" lon="5.9277">
        <ele>417</ele>
        <time>2022-11-13T08:50:12Z</time>
      </trkpt>
      <trkpt lat="43.37301" lon="5.9277">
        <ele>417.1</ele>
        <time>2022-11-13T08:50:13Z</time>
      </trkpt>
      <trkpt lat="43.37301" lon="5.9277">
        <ele>417.1</ele>
        <time>2022-11-13T08:50:14Z</time>
      </trkpt>
      <trkpt lat="43.37301" lon="5.9277">
        <ele>417.1</ele>
        <time>2022-11-13T08:50:21Z</time>
      </trkpt>
      <trkpt lat="43.37301" lon="5.92771">
        <ele>417.1</ele>
        <time>2022-11-13T08:50:23Z</time>
      </trkpt>
      <trkpt lat="43.37301" lon="5.92771">
        <ele>417.2</ele>
        <time>2022-11-13T08:50:28Z</time>
      </trkpt>
      <trkpt lat="43.37301" lon="5.92772">
        <ele>417.4</ele>
        <time>2022-11-13T08:50:32Z</time>
      </trkpt>
      <trkpt lat="43.37301" lon="5.92772">
        <ele>417.3</ele>
        <time>2022-11-13T08:50:50Z</time>
      </trkpt>
      <trkpt lat="43.37301" lon="5.92772">
        <ele>417.3</ele>
        <time>2022-11-13T08:50:51Z</time>
      </trkpt>
      <trkpt lat="43.37301" lon="5.92772">
        <ele>417.2</ele>
        <time>2022-11-13T08:50:55Z</time>
      </trkpt>
      <trkpt lat="43.373" lon="5.92773">
        <ele>416.9</ele>
        <time>2022-11-13T08:51:00Z</time>
      </trkpt>
      <trkpt lat="43.373" lon="5.92774">
        <ele>417</ele>
        <time>2022-11-13T08:51:08Z</time>
      </trkpt>
      <trkpt lat="43.37298" lon="5.92775">
        <ele>416.9</ele>
        <time>2022-11-13T08:51:11Z</time>
      </trkpt>
      <trkpt lat="43.37298" lon="5.92776">
        <ele>416.8</ele>
        <time>2022-11-13T08:51:12Z</time>
      </trkpt>
      <trkpt lat="43.37298" lon="5.92775">
        <ele>416.7</ele>
        <time>2022-11-13T08:51:13Z</time>
      </trkpt>
      <trkpt lat="43.37298" lon="5.92776">
        <ele>416.8</ele>
        <time>2022-11-13T08:51:18Z</time>
      </trkpt>
      <trkpt lat="43.37298" lon="5.92776">
        <ele>416.8</ele>
        <time>2022-11-13T08:51:19Z</time>
      </trkpt>
      <trkpt lat="43.37297" lon="5.92776">
        <ele>417</ele>
        <time>2022-11-13T08:51:26Z</time>
      </trkpt>
      <trkpt lat="43.37296" lon="5.92778">
        <ele>417.3</ele>
        <time>2022-11-13T08:51:30Z</time>
      </trkpt>
      <trkpt lat="43.37296" lon="5.92778">
        <ele>417.3</ele>
        <time>2022-11-13T08:51:44Z</time>
      </trkpt>
      <trkpt lat="43.37296" lon="5.92778">
        <ele>417.2</ele>
        <time>2022-11-13T08:51:46Z</time>
      </trkpt>
      <trkpt lat="43.37296" lon="5.92778">
        <ele>417.3</ele>
        <time>2022-11-13T08:52:29Z</time>
      </trkpt>
      <trkpt lat="43.37296" lon="5.92778">
        <ele>417.3</ele>
        <time>2022-11-13T08:52:30Z</time>
      </trkpt>
      <trkpt lat="43.37296" lon="5.92778">
        <ele>416.9</ele>
        <time>2022-11-13T08:52:48Z</time>
      </trkpt>
      <trkpt lat="43.37296" lon="5.92778">
        <ele>416.9</ele>
        <time>2022-11-13T08:52:49Z</time>
      </trkpt>
      <trkpt lat="43.37297" lon="5.92777">
        <ele>416.9</ele>
        <time>2022-11-13T08:53:01Z</time>
      </trkpt>
      <trkpt lat="43.37297" lon="5.92777">
        <ele>416.8</ele>
        <time>2022-11-13T08:53:02Z</time>
      </trkpt>
      <trkpt lat="43.37296" lon="5.92777">
        <ele>416.9</ele>
        <time>2022-11-13T08:53:03Z</time>
      </trkpt>
      <trkpt lat="43.37296" lon="5.92777">
        <ele>416.9</ele>
        <time>2022-11-13T08:53:04Z</time>
      </trkpt>
      <trkpt lat="43.37296" lon="5.92778">
        <ele>417.1</ele>
        <time>2022-11-13T08:53:12Z</time>
      </trkpt>
      <trkpt lat="43.37296" lon="5.92778">
        <ele>417.1</ele>
        <time>2022-11-13T08:53:13Z</time>
      </trkpt>
      <trkpt lat="43.37296" lon="5.92778">
        <ele>417.3</ele>
        <time>2022-11-13T08:53:25Z</time>
      </trkpt>
      <trkpt lat="43.37296" lon="5.92778">
        <ele>417.4</ele>
        <time>2022-11-13T08:53:26Z</time>
      </trkpt>
      <trkpt lat="43.37296" lon="5.92778">
        <ele>417.5</ele>
        <time>2022-11-13T08:53:35Z</time>
      </trkpt>
      <trkpt lat="43.37296" lon="5.92778">
        <ele>417.5</ele>
        <time>2022-11-13T08:53:37Z</time>
      </trkpt>
      <trkpt lat="43.37296" lon="5.92778">
        <ele>417.5</ele>
        <time>2022-11-13T08:53:38Z</time>
      </trkpt>
      <trkpt lat="43.37296" lon="5.92778">
        <ele>417.4</ele>
        <time>2022-11-13T08:53:41Z</time>
      </trkpt>
      <trkpt lat="43.37296" lon="5.92778">
        <ele>417.4</ele>
        <time>2022-11-13T08:53:42Z</time>
      </trkpt>
      <trkpt lat="43.37296" lon="5.92778">
        <ele>417.3</ele>
        <time>2022-11-13T08:53:43Z</time>
      </trkpt>
      <trkpt lat="43.37296" lon="5.92778">
        <ele>417.3</ele>
        <time>2022-11-13T08:53:44Z</time>
      </trkpt>
      <trkpt lat="43.37295" lon="5.92778">
        <ele>417.2</ele>
        <time>2022-11-13T08:53:47Z</time>
      </trkpt>
      <trkpt lat="43.37295" lon="5.92778">
        <ele>417.1</ele>
        <time>2022-11-13T08:53:48Z</time>
      </trkpt>
      <trkpt lat="43.37295" lon="5.92778">
        <ele>417</ele>
        <time>2022-11-13T08:53:49Z</time>
      </trkpt>
      <trkpt lat="43.37295" lon="5.92778">
        <ele>416.8</ele>
        <time>2022-11-13T08:53:51Z</time>
      </trkpt>
      <trkpt lat="43.37295" lon="5.92777">
        <ele>416.6</ele>
        <time>2022-11-13T08:53:52Z</time>
      </trkpt>
      <trkpt lat="43.37296" lon="5.92777">
        <ele>416.3</ele>
        <time>2022-11-13T08:53:56Z</time>
      </trkpt>
      <trkpt lat="43.37296" lon="5.92777">
        <ele>416.2</ele>
        <time>2022-11-13T08:53:57Z</time>
      </trkpt>
      <trkpt lat="43.37295" lon="5.92777">
        <ele>416.4</ele>
        <time>2022-11-13T08:54:03Z</time>
      </trkpt>
      <trkpt lat="43.37295" lon="5.92777">
        <ele>416.4</ele>
        <time>2022-11-13T08:54:04Z</time>
      </trkpt>
      <trkpt lat="43.37295" lon="5.92777">
        <ele>416.6</ele>
        <time>2022-11-13T08:54:11Z</time>
      </trkpt>
      <trkpt lat="43.37296" lon="5.92777">
        <ele>416.8</ele>
        <time>2022-11-13T08:54:14Z</time>
      </trkpt>
      <trkpt lat="43.37296" lon="5.92776">
        <ele>416.8</ele>
        <time>2022-11-13T08:54:15Z</time>
      </trkpt>
      <trkpt lat="43.37296" lon="5.92776">
        <ele>416.8</ele>
        <time>2022-11-13T08:54:17Z</time>
      </trkpt>
      <trkpt lat="43.37296" lon="5.92776">
        <ele>416.7</ele>
        <time>2022-11-13T08:54:50Z</time>
      </trkpt>
      <trkpt lat="43.37295" lon="5.92776">
        <ele>416.7</ele>
        <time>2022-11-13T08:54:52Z</time>
      </trkpt>
      <trkpt lat="43.37295" lon="5.92776">
        <ele>416.7</ele>
        <time>2022-11-13T08:54:53Z</time>
      </trkpt>
      <trkpt lat="43.37295" lon="5.92776">
        <ele>416.7</ele>
        <time>2022-11-13T08:54:54Z</time>
      </trkpt>
      <trkpt lat="43.37295" lon="5.92776">
        <ele>416.8</ele>
        <time>2022-11-13T08:55:01Z</time>
      </trkpt>
      <trkpt lat="43.37294" lon="5.92776">
        <ele>416.7</ele>
        <time>2022-11-13T08:55:07Z</time>
      </trkpt>
      <trkpt lat="43.37294" lon="5.92776">
        <ele>416.6</ele>
        <time>2022-11-13T08:55:08Z</time>
      </trkpt>
      <trkpt lat="43.37294" lon="5.92779">
        <ele>417.5</ele>
        <time>2022-11-13T08:55:13Z</time>
      </trkpt>
      <trkpt lat="43.37294" lon="5.92779">
        <ele>417.5</ele>
        <time>2022-11-13T08:55:16Z</time>
      </trkpt>
      <trkpt lat="43.37294" lon="5.92779">
        <ele>417.5</ele>
        <time>2022-11-13T08:55:17Z</time>
      </trkpt>
      <trkpt lat="43.37293" lon="5.92779">
        <ele>417.5</ele>
        <time>2022-11-13T08:55:18Z</time>
      </trkpt>
      <trkpt lat="43.37292" lon="5.92791">
        <ele>418.1</ele>
        <time>2022-11-13T08:55:28Z</time>
      </trkpt>
      <trkpt lat="43.37293" lon="5.92804">
        <ele>418</ele>
        <time>2022-11-13T08:55:36Z</time>
      </trkpt>
      <trkpt lat="43.3729" lon="5.92817">
        <ele>418.4</ele>
        <time>2022-11-13T08:55:46Z</time>
      </trkpt>
      <trkpt lat="43.37284" lon="5.92826">
        <ele>418.7</ele>
        <time>2022-11-13T08:55:55Z</time>
      </trkpt>
      <trkpt lat="43.37278" lon="5.92837">
        <ele>419.2</ele>
        <time>2022-11-13T08:56:04Z</time>
      </trkpt>
      <trkpt lat="43.3727" lon="5.92845">
        <ele>419.5</ele>
        <time>2022-11-13T08:56:15Z</time>
      </trkpt>
      <trkpt lat="43.37263" lon="5.92853">
        <ele>420.1</ele>
        <time>2022-11-13T08:56:22Z</time>
      </trkpt>
      <trkpt lat="43.3726" lon="5.92865">
        <ele>419.9</ele>
        <time>2022-11-13T08:56:30Z</time>
      </trkpt>
      <trkpt lat="43.37255" lon="5.92877">
        <ele>418.6</ele>
        <time>2022-11-13T08:56:37Z</time>
      </trkpt>
      <trkpt lat="43.37249" lon="5.92886">
        <ele>418.1</ele>
        <time>2022-11-13T08:56:45Z</time>
      </trkpt>
      <trkpt lat="43.37241" lon="5.92894">
        <ele>418.3</ele>
        <time>2022-11-13T08:56:54Z</time>
      </trkpt>
      <trkpt lat="43.37231" lon="5.92897">
        <ele>418.1</ele>
        <time>2022-11-13T08:57:03Z</time>
      </trkpt>
      <trkpt lat="43.37222" lon="5.92898">
        <ele>417.5</ele>
        <time>2022-11-13T08:57:11Z</time>
      </trkpt>
      <trkpt lat="43.37213" lon="5.92892">
        <ele>417</ele>
        <time>2022-11-13T08:57:20Z</time>
      </trkpt>
      <trkpt lat="43.37205" lon="5.92887">
        <ele>416.5</ele>
        <time>2022-11-13T08:57:29Z</time>
      </trkpt>
      <trkpt lat="43.37196" lon="5.92881">
        <ele>416.5</ele>
        <time>2022-11-13T08:57:38Z</time>
      </trkpt>
      <trkpt lat="43.37187" lon="5.92878">
        <ele>415.7</ele>
        <time>2022-11-13T08:57:48Z</time>
      </trkpt>
      <trkpt lat="43.37178" lon="5.92879">
        <ele>415.1</ele>
        <time>2022-11-13T08:57:57Z</time>
      </trkpt>
      <trkpt lat="43.3717" lon="5.92885">
        <ele>413.6</ele>
        <time>2022-11-13T08:58:05Z</time>
      </trkpt>
      <trkpt lat="43.37162" lon="5.92892">
        <ele>413.3</ele>
        <time>2022-11-13T08:58:14Z</time>
      </trkpt>
      <trkpt lat="43.37153" lon="5.92895">
        <ele>412.9</ele>
        <time>2022-11-13T08:58:23Z</time>
      </trkpt>
      <trkpt lat="43.37143" lon="5.92898">
        <ele>412.1</ele>
        <time>2022-11-13T08:58:32Z</time>
      </trkpt>
      <trkpt lat="43.37134" lon="5.92901">
        <ele>411.5</ele>
        <time>2022-11-13T08:58:41Z</time>
      </trkpt>
      <trkpt lat="43.37125" lon="5.92903">
        <ele>411</ele>
        <time>2022-11-13T08:58:50Z</time>
      </trkpt>
      <trkpt lat="43.37116" lon="5.92905">
        <ele>410.7</ele>
        <time>2022-11-13T08:58:59Z</time>
      </trkpt>
      <trkpt lat="43.37107" lon="5.92906">
        <ele>409.4</ele>
        <time>2022-11-13T08:59:06Z</time>
      </trkpt>
      <trkpt lat="43.37098" lon="5.92908">
        <ele>407.8</ele>
        <time>2022-11-13T08:59:13Z</time>
      </trkpt>
      <trkpt lat="43.37088" lon="5.9291">
        <ele>406.5</ele>
        <time>2022-11-13T08:59:20Z</time>
      </trkpt>
      <trkpt lat="43.37079" lon="5.92912">
        <ele>405.4</ele>
        <time>2022-11-13T08:59:28Z</time>
      </trkpt>
      <trkpt lat="43.3707" lon="5.92907">
        <ele>404.6</ele>
        <time>2022-11-13T08:59:43Z</time>
      </trkpt>
      <trkpt lat="43.37068" lon="5.92894">
        <ele>404.7</ele>
        <time>2022-11-13T08:59:55Z</time>
      </trkpt>
      <trkpt lat="43.37069" lon="5.92882">
        <ele>404.7</ele>
        <time>2022-11-13T09:00:07Z</time>
      </trkpt>
      <trkpt lat="43.37065" lon="5.9287">
        <ele>404.1</ele>
        <time>2022-11-13T09:00:15Z</time>
      </trkpt>
      <trkpt lat="43.37058" lon="5.92861">
        <ele>403.7</ele>
        <time>2022-11-13T09:00:23Z</time>
      </trkpt>
      <trkpt lat="43.37048" lon="5.92858">
        <ele>401.4</ele>
        <time>2022-11-13T09:00:29Z</time>
      </trkpt>
      <trkpt lat="43.37041" lon="5.92849">
        <ele>400</ele>
        <time>2022-11-13T09:00:37Z</time>
      </trkpt>
      <trkpt lat="43.37034" lon="5.92839">
        <ele>399.7</ele>
        <time>2022-11-13T09:00:46Z</time>
      </trkpt>
      <trkpt lat="43.3703" lon="5.92826">
        <ele>400</ele>
        <time>2022-11-13T09:00:53Z</time>
      </trkpt>
      <trkpt lat="43.37024" lon="5.92816">
        <ele>399.9</ele>
        <time>2022-11-13T09:01:01Z</time>
      </trkpt>
      <trkpt lat="43.37018" lon="5.92805">
        <ele>399.8</ele>
        <time>2022-11-13T09:01:11Z</time>
      </trkpt>
      <trkpt lat="43.37014" lon="5.92794">
        <ele>399.8</ele>
        <time>2022-11-13T09:01:24Z</time>
      </trkpt>
      <trkpt lat="43.37011" lon="5.92781">
        <ele>399.8</ele>
        <time>2022-11-13T09:01:36Z</time>
      </trkpt>
      <trkpt lat="43.37003" lon="5.92774">
        <ele>398.5</ele>
        <time>2022-11-13T09:01:44Z</time>
      </trkpt>
      <trkpt lat="43.36993" lon="5.92771">
        <ele>397.1</ele>
        <time>2022-11-13T09:01:51Z</time>
      </trkpt>
      <trkpt lat="43.36984" lon="5.92768">
        <ele>396.1</ele>
        <time>2022-11-13T09:01:59Z</time>
      </trkpt>
      <trkpt lat="43.3698" lon="5.92757">
        <ele>396.7</ele>
        <time>2022-11-13T09:02:09Z</time>
      </trkpt>
      <trkpt lat="43.36985" lon="5.92745">
        <ele>397.3</ele>
        <time>2022-11-13T09:02:19Z</time>
      </trkpt>
      <trkpt lat="43.36984" lon="5.92731">
        <ele>397.1</ele>
        <time>2022-11-13T09:02:30Z</time>
      </trkpt>
      <trkpt lat="43.36984" lon="5.92718">
        <ele>395.9</ele>
        <time>2022-11-13T09:02:39Z</time>
      </trkpt>
      <trkpt lat="43.36984" lon="5.92704">
        <ele>396</ele>
        <time>2022-11-13T09:02:46Z</time>
      </trkpt>
      <trkpt lat="43.36983" lon="5.92692">
        <ele>396.4</ele>
        <time>2022-11-13T09:02:53Z</time>
      </trkpt>
      <trkpt lat="43.36978" lon="5.9268">
        <ele>396.5</ele>
        <time>2022-11-13T09:03:01Z</time>
      </trkpt>
      <trkpt lat="43.36974" lon="5.92669">
        <ele>396.7</ele>
        <time>2022-11-13T09:03:08Z</time>
      </trkpt>
      <trkpt lat="43.36971" lon="5.92657">
        <ele>397</ele>
        <time>2022-11-13T09:03:17Z</time>
      </trkpt>
      <trkpt lat="43.36971" lon="5.92643">
        <ele>397.2</ele>
        <time>2022-11-13T09:03:25Z</time>
      </trkpt>
      <trkpt lat="43.36971" lon="5.9263">
        <ele>397.4</ele>
        <time>2022-11-13T09:03:34Z</time>
      </trkpt>
      <trkpt lat="43.36972" lon="5.92616">
        <ele>398.3</ele>
        <time>2022-11-13T09:03:43Z</time>
      </trkpt>
      <trkpt lat="43.36973" lon="5.92603">
        <ele>398.2</ele>
        <time>2022-11-13T09:03:52Z</time>
      </trkpt>
      <trkpt lat="43.36974" lon="5.9259">
        <ele>398.7</ele>
        <time>2022-11-13T09:04:00Z</time>
      </trkpt>
      <trkpt lat="43.36979" lon="5.92579">
        <ele>398</ele>
        <time>2022-11-13T09:04:09Z</time>
      </trkpt>
      <trkpt lat="43.36985" lon="5.92567">
        <ele>397.2</ele>
        <time>2022-11-13T09:04:17Z</time>
      </trkpt>
      <trkpt lat="43.3699" lon="5.92557">
        <ele>395.9</ele>
        <time>2022-11-13T09:04:25Z</time>
      </trkpt>
      <trkpt lat="43.36993" lon="5.92545">
        <ele>395.9</ele>
        <time>2022-11-13T09:04:33Z</time>
      </trkpt>
      <trkpt lat="43.36992" lon="5.92531">
        <ele>395.6</ele>
        <time>2022-11-13T09:04:40Z</time>
      </trkpt>
      <trkpt lat="43.36986" lon="5.92521">
        <ele>395.5</ele>
        <time>2022-11-13T09:04:48Z</time>
      </trkpt>
      <trkpt lat="43.36981" lon="5.92512">
        <ele>395.7</ele>
        <time>2022-11-13T09:04:59Z</time>
      </trkpt>
      <trkpt lat="43.36972" lon="5.92506">
        <ele>395.5</ele>
        <time>2022-11-13T09:05:06Z</time>
      </trkpt>
      <trkpt lat="43.36963" lon="5.92501">
        <ele>394.8</ele>
        <time>2022-11-13T09:05:13Z</time>
      </trkpt>
      <trkpt lat="43.36954" lon="5.92498">
        <ele>394.2</ele>
        <time>2022-11-13T09:05:20Z</time>
      </trkpt>
      <trkpt lat="43.36945" lon="5.92493">
        <ele>392.7</ele>
        <time>2022-11-13T09:05:27Z</time>
      </trkpt>
      <trkpt lat="43.36937" lon="5.92485">
        <ele>390.9</ele>
        <time>2022-11-13T09:05:37Z</time>
      </trkpt>
      <trkpt lat="43.36929" lon="5.92481">
        <ele>389.6</ele>
        <time>2022-11-13T09:05:44Z</time>
      </trkpt>
      <trkpt lat="43.3692" lon="5.92473">
        <ele>388.7</ele>
        <time>2022-11-13T09:05:52Z</time>
      </trkpt>
      <trkpt lat="43.36912" lon="5.92466">
        <ele>387.8</ele>
        <time>2022-11-13T09:06:00Z</time>
      </trkpt>
      <trkpt lat="43.36907" lon="5.92465">
        <ele>386.3</ele>
        <time>2022-11-13T09:06:11Z</time>
      </trkpt>
      <trkpt lat="43.36907" lon="5.92465">
        <ele>386.2</ele>
        <time>2022-11-13T09:06:12Z</time>
      </trkpt>
      <trkpt lat="43.36904" lon="5.92452">
        <ele>386.1</ele>
        <time>2022-11-13T09:06:22Z</time>
      </trkpt>
      <trkpt lat="43.36901" lon="5.92439">
        <ele>385.9</ele>
        <time>2022-11-13T09:06:31Z</time>
      </trkpt>
      <trkpt lat="43.36893" lon="5.92429">
        <ele>385.2</ele>
        <time>2022-11-13T09:06:40Z</time>
      </trkpt>
      <trkpt lat="43.36883" lon="5.92426">
        <ele>383</ele>
        <time>2022-11-13T09:06:48Z</time>
      </trkpt>
      <trkpt lat="43.36874" lon="5.92426">
        <ele>381.9</ele>
        <time>2022-11-13T09:06:56Z</time>
      </trkpt>
      <trkpt lat="43.36865" lon="5.92426">
        <ele>381.2</ele>
        <time>2022-11-13T09:07:03Z</time>
      </trkpt>
      <trkpt lat="43.36855" lon="5.92428">
        <ele>380</ele>
        <time>2022-11-13T09:07:11Z</time>
      </trkpt>
      <trkpt lat="43.36846" lon="5.92428">
        <ele>378.9</ele>
        <time>2022-11-13T09:07:19Z</time>
      </trkpt>
      <trkpt lat="43.36837" lon="5.92425">
        <ele>377.5</ele>
        <time>2022-11-13T09:07:33Z</time>
      </trkpt>
      <trkpt lat="43.36835" lon="5.92422">
        <ele>376.8</ele>
        <time>2022-11-13T09:07:41Z</time>
      </trkpt>
      <trkpt lat="43.36835" lon="5.92422">
        <ele>376.7</ele>
        <time>2022-11-13T09:07:46Z</time>
      </trkpt>
      <trkpt lat="43.36835" lon="5.92421">
        <ele>376.5</ele>
        <time>2022-11-13T09:07:50Z</time>
      </trkpt>
      <trkpt lat="43.36835" lon="5.92421">
        <ele>376.4</ele>
        <time>2022-11-13T09:07:53Z</time>
      </trkpt>
      <trkpt lat="43.36835" lon="5.92421">
        <ele>376.4</ele>
        <time>2022-11-13T09:07:54Z</time>
      </trkpt>
      <trkpt lat="43.36835" lon="5.92421">
        <ele>376.3</ele>
        <time>2022-11-13T09:08:18Z</time>
      </trkpt>
      <trkpt lat="43.36835" lon="5.92421">
        <ele>376.3</ele>
        <time>2022-11-13T09:08:19Z</time>
      </trkpt>
      <trkpt lat="43.36835" lon="5.92421">
        <ele>376.3</ele>
        <time>2022-11-13T09:08:27Z</time>
      </trkpt>
      <trkpt lat="43.36835" lon="5.92421">
        <ele>376.3</ele>
        <time>2022-11-13T09:08:28Z</time>
      </trkpt>
      <trkpt lat="43.36835" lon="5.92421">
        <ele>376.2</ele>
        <time>2022-11-13T09:08:34Z</time>
      </trkpt>
      <trkpt lat="43.36835" lon="5.92421">
        <ele>376.2</ele>
        <time>2022-11-13T09:08:35Z</time>
      </trkpt>
      <trkpt lat="43.36834" lon="5.92421">
        <ele>376.1</ele>
        <time>2022-11-13T09:08:42Z</time>
      </trkpt>
      <trkpt lat="43.36834" lon="5.92421">
        <ele>375.9</ele>
        <time>2022-11-13T09:08:44Z</time>
      </trkpt>
      <trkpt lat="43.36834" lon="5.92421">
        <ele>375.9</ele>
        <time>2022-11-13T09:08:46Z</time>
      </trkpt>
      <trkpt lat="43.36834" lon="5.92421">
        <ele>375.9</ele>
        <time>2022-11-13T09:08:47Z</time>
      </trkpt>
      <trkpt lat="43.36833" lon="5.92421">
        <ele>375.5</ele>
        <time>2022-11-13T09:08:56Z</time>
      </trkpt>
      <trkpt lat="43.36832" lon="5.92422">
        <ele>375</ele>
        <time>2022-11-13T09:09:00Z</time>
      </trkpt>
      <trkpt lat="43.36832" lon="5.92422">
        <ele>374.9</ele>
        <time>2022-11-13T09:09:01Z</time>
      </trkpt>
      <trkpt lat="43.36832" lon="5.92423">
        <ele>374.9</ele>
        <time>2022-11-13T09:09:03Z</time>
      </trkpt>
      <trkpt lat="43.36832" lon="5.92423">
        <ele>374.8</ele>
        <time>2022-11-13T09:09:16Z</time>
      </trkpt>
      <trkpt lat="43.36832" lon="5.92423">
        <ele>374.7</ele>
        <time>2022-11-13T09:09:17Z</time>
      </trkpt>
      <trkpt lat="43.36832" lon="5.92424">
        <ele>374.4</ele>
        <time>2022-11-13T09:09:19Z</time>
      </trkpt>
      <trkpt lat="43.36832" lon="5.92424">
        <ele>374.3</ele>
        <time>2022-11-13T09:09:20Z</time>
      </trkpt>
      <trkpt lat="43.36832" lon="5.92424">
        <ele>374.2</ele>
        <time>2022-11-13T09:09:40Z</time>
      </trkpt>
      <trkpt lat="43.36832" lon="5.92424">
        <ele>374.2</ele>
        <time>2022-11-13T09:09:41Z</time>
      </trkpt>
      <trkpt lat="43.36832" lon="5.92424">
        <ele>374.2</ele>
        <time>2022-11-13T09:09:47Z</time>
      </trkpt>
      <trkpt lat="43.36832" lon="5.92424">
        <ele>374.2</ele>
        <time>2022-11-13T09:09:48Z</time>
      </trkpt>
      <trkpt lat="43.36832" lon="5.92424">
        <ele>374.1</ele>
        <time>2022-11-13T09:09:56Z</time>
      </trkpt>
      <trkpt lat="43.36832" lon="5.92424">
        <ele>374.1</ele>
        <time>2022-11-13T09:09:57Z</time>
      </trkpt>
      <trkpt lat="43.36832" lon="5.92424">
        <ele>374.1</ele>
        <time>2022-11-13T09:09:59Z</time>
      </trkpt>
      <trkpt lat="43.36832" lon="5.92424">
        <ele>374.1</ele>
        <time>2022-11-13T09:10:00Z</time>
      </trkpt>
      <trkpt lat="43.36832" lon="5.92424">
        <ele>374.1</ele>
        <time>2022-11-13T09:10:01Z</time>
      </trkpt>
      <trkpt lat="43.36832" lon="5.92424">
        <ele>374.1</ele>
        <time>2022-11-13T09:10:02Z</time>
      </trkpt>
      <trkpt lat="43.36832" lon="5.92424">
        <ele>373.9</ele>
        <time>2022-11-13T09:10:36Z</time>
      </trkpt>
      <trkpt lat="43.36832" lon="5.92424">
        <ele>373.9</ele>
        <time>2022-11-13T09:10:37Z</time>
      </trkpt>
      <trkpt lat="43.36832" lon="5.92425">
        <ele>373.8</ele>
        <time>2022-11-13T09:10:56Z</time>
      </trkpt>
      <trkpt lat="43.36832" lon="5.92425">
        <ele>373.7</ele>
        <time>2022-11-13T09:10:57Z</time>
      </trkpt>
      <trkpt lat="43.36832" lon="5.92425">
        <ele>373.7</ele>
        <time>2022-11-13T09:10:58Z</time>
      </trkpt>
      <trkpt lat="43.36832" lon="5.92425">
        <ele>373.6</ele>
        <time>2022-11-13T09:10:59Z</time>
      </trkpt>
      <trkpt lat="43.36832" lon="5.92425">
        <ele>373.7</ele>
        <time>2022-11-13T09:11:04Z</time>
      </trkpt>
      <trkpt lat="43.36832" lon="5.92425">
        <ele>373.7</ele>
        <time>2022-11-13T09:11:06Z</time>
      </trkpt>
      <trkpt lat="43.36832" lon="5.92425">
        <ele>373.5</ele>
        <time>2022-11-13T09:11:07Z</time>
      </trkpt>
      <trkpt lat="43.36832" lon="5.92425">
        <ele>373.4</ele>
        <time>2022-11-13T09:11:08Z</time>
      </trkpt>
      <trkpt lat="43.36832" lon="5.92425">
        <ele>373.2</ele>
        <time>2022-11-13T09:11:23Z</time>
      </trkpt>
      <trkpt lat="43.36832" lon="5.92425">
        <ele>373.2</ele>
        <time>2022-11-13T09:11:24Z</time>
      </trkpt>
      <trkpt lat="43.36831" lon="5.92425">
        <ele>373.3</ele>
        <time>2022-11-13T09:11:37Z</time>
      </trkpt>
      <trkpt lat="43.36831" lon="5.92425">
        <ele>373.3</ele>
        <time>2022-11-13T09:11:38Z</time>
      </trkpt>
      <trkpt lat="43.36831" lon="5.92425">
        <ele>373.3</ele>
        <time>2022-11-13T09:12:20Z</time>
      </trkpt>
      <trkpt lat="43.36831" lon="5.92425">
        <ele>373.3</ele>
        <time>2022-11-13T09:12:21Z</time>
      </trkpt>
      <trkpt lat="43.36831" lon="5.92425">
        <ele>373.3</ele>
        <time>2022-11-13T09:12:51Z</time>
      </trkpt>
      <trkpt lat="43.36831" lon="5.92425">
        <ele>373.2</ele>
        <time>2022-11-13T09:12:53Z</time>
      </trkpt>
      <trkpt lat="43.36831" lon="5.92424">
        <ele>373.1</ele>
        <time>2022-11-13T09:12:55Z</time>
      </trkpt>
      <trkpt lat="43.36829" lon="5.92424">
        <ele>373.1</ele>
        <time>2022-11-13T09:13:01Z</time>
      </trkpt>
      <trkpt lat="43.36829" lon="5.92424">
        <ele>373.1</ele>
        <time>2022-11-13T09:13:13Z</time>
      </trkpt>
      <trkpt lat="43.36829" lon="5.92424">
        <ele>373</ele>
        <time>2022-11-13T09:13:16Z</time>
      </trkpt>
      <trkpt lat="43.36828" lon="5.92424">
        <ele>373.1</ele>
        <time>2022-11-13T09:13:22Z</time>
      </trkpt>
      <trkpt lat="43.36828" lon="5.92425">
        <ele>373.1</ele>
        <time>2022-11-13T09:13:23Z</time>
      </trkpt>
      <trkpt lat="43.36828" lon="5.92425">
        <ele>373.1</ele>
        <time>2022-11-13T09:13:49Z</time>
      </trkpt>
      <trkpt lat="43.36828" lon="5.92425">
        <ele>373.1</ele>
        <time>2022-11-13T09:13:50Z</time>
      </trkpt>
      <trkpt lat="43.36828" lon="5.92425">
        <ele>373.1</ele>
        <time>2022-11-13T09:14:14Z</time>
      </trkpt>
      <trkpt lat="43.36828" lon="5.92425">
        <ele>373.1</ele>
        <time>2022-11-13T09:14:15Z</time>
      </trkpt>
      <trkpt lat="43.36828" lon="5.92424">
        <ele>373.2</ele>
        <time>2022-11-13T09:14:16Z</time>
      </trkpt>
      <trkpt lat="43.36828" lon="5.92424">
        <ele>373.3</ele>
        <time>2022-11-13T09:14:17Z</time>
      </trkpt>
      <trkpt lat="43.36828" lon="5.92425">
        <ele>373.4</ele>
        <time>2022-11-13T09:14:18Z</time>
      </trkpt>
      <trkpt lat="43.36828" lon="5.92425">
        <ele>373.3</ele>
        <time>2022-11-13T09:14:19Z</time>
      </trkpt>
      <trkpt lat="43.36828" lon="5.92425">
        <ele>373.3</ele>
        <time>2022-11-13T09:14:21Z</time>
      </trkpt>
      <trkpt lat="43.36828" lon="5.92425">
        <ele>373.3</ele>
        <time>2022-11-13T09:14:22Z</time>
      </trkpt>
      <trkpt lat="43.36828" lon="5.92425">
        <ele>373.3</ele>
        <time>2022-11-13T09:14:25Z</time>
      </trkpt>
      <trkpt lat="43.36828" lon="5.92425">
        <ele>373.3</ele>
        <time>2022-11-13T09:14:26Z</time>
      </trkpt>
      <trkpt lat="43.36828" lon="5.92424">
        <ele>373.3</ele>
        <time>2022-11-13T09:14:27Z</time>
      </trkpt>
      <trkpt lat="43.36828" lon="5.92425">
        <ele>373.2</ele>
        <time>2022-11-13T09:14:30Z</time>
      </trkpt>
      <trkpt lat="43.36828" lon="5.92425">
        <ele>373.1</ele>
        <time>2022-11-13T09:14:38Z</time>
      </trkpt>
      <trkpt lat="43.36828" lon="5.92425">
        <ele>373.1</ele>
        <time>2022-11-13T09:14:39Z</time>
      </trkpt>
      <trkpt lat="43.36828" lon="5.92425">
        <ele>372.9</ele>
        <time>2022-11-13T09:14:53Z</time>
      </trkpt>
      <trkpt lat="43.36828" lon="5.92425">
        <ele>372.9</ele>
        <time>2022-11-13T09:14:54Z</time>
      </trkpt>
      <trkpt lat="43.36827" lon="5.92425">
        <ele>372.8</ele>
        <time>2022-11-13T09:15:19Z</time>
      </trkpt>
      <trkpt lat="43.36827" lon="5.92425">
        <ele>372.8</ele>
        <time>2022-11-13T09:15:20Z</time>
      </trkpt>
      <trkpt lat="43.36827" lon="5.92425">
        <ele>372.7</ele>
        <time>2022-11-13T09:15:37Z</time>
      </trkpt>
      <trkpt lat="43.36827" lon="5.92425">
        <ele>372.7</ele>
        <time>2022-11-13T09:15:38Z</time>
      </trkpt>
      <trkpt lat="43.36827" lon="5.92426">
        <ele>372.7</ele>
        <time>2022-11-13T09:16:16Z</time>
      </trkpt>
      <trkpt lat="43.36827" lon="5.92426">
        <ele>372.7</ele>
        <time>2022-11-13T09:16:17Z</time>
      </trkpt>
      <trkpt lat="43.36827" lon="5.92425">
        <ele>372.6</ele>
        <time>2022-11-13T09:16:32Z</time>
      </trkpt>
      <trkpt lat="43.36817" lon="5.92428">
        <ele>371.9</ele>
        <time>2022-11-13T09:16:44Z</time>
      </trkpt>
      <trkpt lat="43.36807" lon="5.92428">
        <ele>371.3</ele>
        <time>2022-11-13T09:16:54Z</time>
      </trkpt>
      <trkpt lat="43.36798" lon="5.92426">
        <ele>370.1</ele>
        <time>2022-11-13T09:17:05Z</time>
      </trkpt>
      <trkpt lat="43.36789" lon="5.92423">
        <ele>369.1</ele>
        <time>2022-11-13T09:17:14Z</time>
      </trkpt>
      <trkpt lat="43.3678" lon="5.92419">
        <ele>367.8</ele>
        <time>2022-11-13T09:17:24Z</time>
      </trkpt>
      <trkpt lat="43.36771" lon="5.92414">
        <ele>367</ele>
        <time>2022-11-13T09:17:33Z</time>
      </trkpt>
      <trkpt lat="43.36767" lon="5.92411">
        <ele>365.8</ele>
        <time>2022-11-13T09:17:41Z</time>
      </trkpt>
      <trkpt lat="43.36767" lon="5.92411">
        <ele>365.6</ele>
        <time>2022-11-13T09:17:42Z</time>
      </trkpt>
      <trkpt lat="43.36774" lon="5.92409">
        <ele>363.5</ele>
        <time>2022-11-13T09:17:56Z</time>
      </trkpt>
      <trkpt lat="43.36774" lon="5.92409">
        <ele>363.4</ele>
        <time>2022-11-13T09:17:57Z</time>
      </trkpt>
      <trkpt lat="43.36784" lon="5.92407">
        <ele>361.6</ele>
        <time>2022-11-13T09:18:16Z</time>
      </trkpt>
      <trkpt lat="43.36792" lon="5.92402">
        <ele>359.7</ele>
        <time>2022-11-13T09:18:27Z</time>
      </trkpt>
      <trkpt lat="43.36801" lon="5.92396">
        <ele>358</ele>
        <time>2022-11-13T09:18:36Z</time>
      </trkpt>
      <trkpt lat="43.36796" lon="5.92385">
        <ele>353.3</ele>
        <time>2022-11-13T09:18:49Z</time>
      </trkpt>
      <trkpt lat="43.36787" lon="5.92379">
        <ele>351.5</ele>
        <time>2022-11-13T09:19:03Z</time>
      </trkpt>
      <trkpt lat="43.36778" lon="5.92373">
        <ele>351</ele>
        <time>2022-11-13T09:19:14Z</time>
      </trkpt>
      <trkpt lat="43.3677" lon="5.92369">
        <ele>350.4</ele>
        <time>2022-11-13T09:19:25Z</time>
      </trkpt>
      <trkpt lat="43.36761" lon="5.92368">
        <ele>349.4</ele>
        <time>2022-11-13T09:19:38Z</time>
      </trkpt>
      <trkpt lat="43.36752" lon="5.92368">
        <ele>347.4</ele>
        <time>2022-11-13T09:19:55Z</time>
      </trkpt>
      <trkpt lat="43.36752" lon="5.92368">
        <ele>347.3</ele>
        <time>2022-11-13T09:19:58Z</time>
      </trkpt>
      <trkpt lat="43.36753" lon="5.92369">
        <ele>347.4</ele>
        <time>2022-11-13T09:20:06Z</time>
      </trkpt>
      <trkpt lat="43.36753" lon="5.92369">
        <ele>347.4</ele>
        <time>2022-11-13T09:20:07Z</time>
      </trkpt>
      <trkpt lat="43.36752" lon="5.92369">
        <ele>346.5</ele>
        <time>2022-11-13T09:20:17Z</time>
      </trkpt>
      <trkpt lat="43.36752" lon="5.92369">
        <ele>346.4</ele>
        <time>2022-11-13T09:20:18Z</time>
      </trkpt>
      <trkpt lat="43.36747" lon="5.92369">
        <ele>344.8</ele>
        <time>2022-11-13T09:20:30Z</time>
      </trkpt>
      <trkpt lat="43.36747" lon="5.92369">
        <ele>344.7</ele>
        <time>2022-11-13T09:20:31Z</time>
      </trkpt>
      <trkpt lat="43.36747" lon="5.92369">
        <ele>344.2</ele>
        <time>2022-11-13T09:20:39Z</time>
      </trkpt>
      <trkpt lat="43.36747" lon="5.92369">
        <ele>344.2</ele>
        <time>2022-11-13T09:20:42Z</time>
      </trkpt>
      <trkpt lat="43.36747" lon="5.9237">
        <ele>344</ele>
        <time>2022-11-13T09:20:45Z</time>
      </trkpt>
      <trkpt lat="43.36747" lon="5.9237">
        <ele>343.6</ele>
        <time>2022-11-13T09:20:56Z</time>
      </trkpt>
      <trkpt lat="43.36746" lon="5.92371">
        <ele>342.6</ele>
        <time>2022-11-13T09:21:00Z</time>
      </trkpt>
      <trkpt lat="43.36746" lon="5.92371">
        <ele>342.4</ele>
        <time>2022-11-13T09:21:02Z</time>
      </trkpt>
      <trkpt lat="43.36746" lon="5.92371">
        <ele>342.2</ele>
        <time>2022-11-13T09:21:03Z</time>
      </trkpt>
      <trkpt lat="43.36746" lon="5.92371">
        <ele>342.1</ele>
        <time>2022-11-13T09:21:04Z</time>
      </trkpt>
      <trkpt lat="43.36736" lon="5.92369">
        <ele>341.3</ele>
        <time>2022-11-13T09:21:18Z</time>
      </trkpt>
      <trkpt lat="43.3673" lon="5.92371">
        <ele>341.3</ele>
        <time>2022-11-13T09:21:36Z</time>
      </trkpt>
      <trkpt lat="43.3673" lon="5.92371">
        <ele>341.2</ele>
        <time>2022-11-13T09:21:37Z</time>
      </trkpt>
      <trkpt lat="43.3673" lon="5.92372">
        <ele>340.7</ele>
        <time>2022-11-13T09:21:39Z</time>
      </trkpt>
      <trkpt lat="43.3673" lon="5.92372">
        <ele>340.7</ele>
        <time>2022-11-13T09:21:40Z</time>
      </trkpt>
      <trkpt lat="43.36722" lon="5.92365">
        <ele>338.9</ele>
        <time>2022-11-13T09:22:02Z</time>
      </trkpt>
      <trkpt lat="43.36721" lon="5.92365">
        <ele>337.9</ele>
        <time>2022-11-13T09:22:08Z</time>
      </trkpt>
      <trkpt lat="43.36721" lon="5.92364">
        <ele>337.6</ele>
        <time>2022-11-13T09:22:11Z</time>
      </trkpt>
      <trkpt lat="43.36721" lon="5.92364">
        <ele>337.5</ele>
        <time>2022-11-13T09:22:13Z</time>
      </trkpt>
      <trkpt lat="43.36721" lon="5.92364">
        <ele>337.4</ele>
        <time>2022-11-13T09:22:14Z</time>
      </trkpt>
      <trkpt lat="43.36715" lon="5.92361">
        <ele>337.5</ele>
        <time>2022-11-13T09:22:27Z</time>
      </trkpt>
      <trkpt lat="43.36715" lon="5.92362">
        <ele>337.4</ele>
        <time>2022-11-13T09:22:29Z</time>
      </trkpt>
      <trkpt lat="43.36715" lon="5.92362">
        <ele>337.3</ele>
        <time>2022-11-13T09:22:31Z</time>
      </trkpt>
      <trkpt lat="43.36716" lon="5.92362">
        <ele>337.4</ele>
        <time>2022-11-13T09:22:33Z</time>
      </trkpt>
      <trkpt lat="43.36716" lon="5.92362">
        <ele>337.3</ele>
        <time>2022-11-13T09:22:35Z</time>
      </trkpt>
      <trkpt lat="43.36716" lon="5.92362">
        <ele>337.2</ele>
        <time>2022-11-13T09:22:38Z</time>
      </trkpt>
      <trkpt lat="43.36716" lon="5.92362">
        <ele>337.2</ele>
        <time>2022-11-13T09:22:39Z</time>
      </trkpt>
      <trkpt lat="43.36716" lon="5.92361">
        <ele>337.4</ele>
        <time>2022-11-13T09:22:42Z</time>
      </trkpt>
      <trkpt lat="43.36707" lon="5.92356">
        <ele>336.4</ele>
        <time>2022-11-13T09:22:59Z</time>
      </trkpt>
      <trkpt lat="43.36706" lon="5.92356">
        <ele>336.1</ele>
        <time>2022-11-13T09:23:03Z</time>
      </trkpt>
      <trkpt lat="43.36706" lon="5.92357">
        <ele>335.9</ele>
        <time>2022-11-13T09:23:11Z</time>
      </trkpt>
      <trkpt lat="43.36706" lon="5.92357">
        <ele>335.7</ele>
        <time>2022-11-13T09:23:14Z</time>
      </trkpt>
      <trkpt lat="43.36706" lon="5.92357">
        <ele>335.7</ele>
        <time>2022-11-13T09:23:17Z</time>
      </trkpt>
      <trkpt lat="43.36707" lon="5.9236">
        <ele>336.2</ele>
        <time>2022-11-13T09:23:23Z</time>
      </trkpt>
      <trkpt lat="43.36707" lon="5.9236">
        <ele>336.2</ele>
        <time>2022-11-13T09:23:32Z</time>
      </trkpt>
      <trkpt lat="43.36708" lon="5.9236">
        <ele>336.2</ele>
        <time>2022-11-13T09:23:35Z</time>
      </trkpt>
      <trkpt lat="43.36707" lon="5.92359">
        <ele>336.3</ele>
        <time>2022-11-13T09:23:36Z</time>
      </trkpt>
      <trkpt lat="43.36699" lon="5.92353">
        <ele>336.4</ele>
        <time>2022-11-13T09:23:49Z</time>
      </trkpt>
      <trkpt lat="43.36698" lon="5.92352">
        <ele>336.2</ele>
        <time>2022-11-13T09:23:55Z</time>
      </trkpt>
      <trkpt lat="43.36699" lon="5.92352">
        <ele>335.8</ele>
        <time>2022-11-13T09:24:02Z</time>
      </trkpt>
      <trkpt lat="43.36699" lon="5.92352">
        <ele>335.8</ele>
        <time>2022-11-13T09:24:03Z</time>
      </trkpt>
      <trkpt lat="43.36699" lon="5.92353">
        <ele>335.5</ele>
        <time>2022-11-13T09:24:08Z</time>
      </trkpt>
      <trkpt lat="43.367" lon="5.92353">
        <ele>335.5</ele>
        <time>2022-11-13T09:24:11Z</time>
      </trkpt>
      <trkpt lat="43.367" lon="5.92352">
        <ele>335.5</ele>
        <time>2022-11-13T09:24:12Z</time>
      </trkpt>
      <trkpt lat="43.36691" lon="5.92347">
        <ele>335.6</ele>
        <time>2022-11-13T09:24:26Z</time>
      </trkpt>
      <trkpt lat="43.36691" lon="5.92347">
        <ele>335.2</ele>
        <time>2022-11-13T09:24:31Z</time>
      </trkpt>
      <trkpt lat="43.36691" lon="5.92347">
        <ele>335.2</ele>
        <time>2022-11-13T09:24:35Z</time>
      </trkpt>
      <trkpt lat="43.36691" lon="5.92347">
        <ele>335.2</ele>
        <time>2022-11-13T09:24:36Z</time>
      </trkpt>
      <trkpt lat="43.3669" lon="5.92347">
        <ele>335.2</ele>
        <time>2022-11-13T09:24:37Z</time>
      </trkpt>
      <trkpt lat="43.36688" lon="5.92348">
        <ele>334.9</ele>
        <time>2022-11-13T09:24:43Z</time>
      </trkpt>
      <trkpt lat="43.36688" lon="5.92348">
        <ele>334.8</ele>
        <time>2022-11-13T09:24:51Z</time>
      </trkpt>
      <trkpt lat="43.36687" lon="5.9235">
        <ele>334.3</ele>
        <time>2022-11-13T09:24:58Z</time>
      </trkpt>
      <trkpt lat="43.36687" lon="5.9235">
        <ele>334.1</ele>
        <time>2022-11-13T09:24:59Z</time>
      </trkpt>
      <trkpt lat="43.36685" lon="5.92354">
        <ele>333.7</ele>
        <time>2022-11-13T09:25:11Z</time>
      </trkpt>
      <trkpt lat="43.36685" lon="5.92354">
        <ele>333.8</ele>
        <time>2022-11-13T09:25:21Z</time>
      </trkpt>
      <trkpt lat="43.36685" lon="5.92354">
        <ele>333.7</ele>
        <time>2022-11-13T09:25:22Z</time>
      </trkpt>
      <trkpt lat="43.36686" lon="5.92354">
        <ele>333.6</ele>
        <time>2022-11-13T09:25:25Z</time>
      </trkpt>
      <trkpt lat="43.36685" lon="5.92355">
        <ele>333.4</ele>
        <time>2022-11-13T09:25:30Z</time>
      </trkpt>
      <trkpt lat="43.36685" lon="5.92355">
        <ele>333.4</ele>
        <time>2022-11-13T09:25:33Z</time>
      </trkpt>
      <trkpt lat="43.36685" lon="5.92355">
        <ele>333.4</ele>
        <time>2022-11-13T09:25:34Z</time>
      </trkpt>
      <trkpt lat="43.36685" lon="5.92356">
        <ele>333.4</ele>
        <time>2022-11-13T09:25:36Z</time>
      </trkpt>
      <trkpt lat="43.36686" lon="5.9236">
        <ele>332.6</ele>
        <time>2022-11-13T09:25:58Z</time>
      </trkpt>
      <trkpt lat="43.36687" lon="5.9236">
        <ele>332.5</ele>
        <time>2022-11-13T09:25:59Z</time>
      </trkpt>
      <trkpt lat="43.36693" lon="5.92365">
        <ele>330.4</ele>
        <time>2022-11-13T09:26:23Z</time>
      </trkpt>
      <trkpt lat="43.36693" lon="5.92366">
        <ele>330.4</ele>
        <time>2022-11-13T09:26:24Z</time>
      </trkpt>
      <trkpt lat="43.36693" lon="5.92366">
        <ele>330.3</ele>
        <time>2022-11-13T09:26:25Z</time>
      </trkpt>
      <trkpt lat="43.36694" lon="5.92366">
        <ele>330.4</ele>
        <time>2022-11-13T09:26:26Z</time>
      </trkpt>
      <trkpt lat="43.36695" lon="5.92366">
        <ele>330.4</ele>
        <time>2022-11-13T09:26:30Z</time>
      </trkpt>
      <trkpt lat="43.36695" lon="5.92366">
        <ele>330.4</ele>
        <time>2022-11-13T09:26:31Z</time>
      </trkpt>
      <trkpt lat="43.36695" lon="5.92366">
        <ele>330.5</ele>
        <time>2022-11-13T09:26:32Z</time>
      </trkpt>
      <trkpt lat="43.36696" lon="5.92366">
        <ele>330.5</ele>
        <time>2022-11-13T09:26:33Z</time>
      </trkpt>
      <trkpt lat="43.36705" lon="5.92364">
        <ele>331.4</ele>
        <time>2022-11-13T09:26:44Z</time>
      </trkpt>
      <trkpt lat="43.36707" lon="5.92363">
        <ele>331.4</ele>
        <time>2022-11-13T09:26:47Z</time>
      </trkpt>
      <trkpt lat="43.36707" lon="5.92363">
        <ele>331.5</ele>
        <time>2022-11-13T09:26:48Z</time>
      </trkpt>
      <trkpt lat="43.36714" lon="5.92358">
        <ele>333.5</ele>
        <time>2022-11-13T09:27:03Z</time>
      </trkpt>
      <trkpt lat="43.36713" lon="5.92359">
        <ele>333.8</ele>
        <time>2022-11-13T09:27:05Z</time>
      </trkpt>
      <trkpt lat="43.36712" lon="5.92358">
        <ele>334.6</ele>
        <time>2022-11-13T09:27:12Z</time>
      </trkpt>
      <trkpt lat="43.36712" lon="5.92358">
        <ele>334.6</ele>
        <time>2022-11-13T09:27:19Z</time>
      </trkpt>
      <trkpt lat="43.3671" lon="5.92358">
        <ele>334.8</ele>
        <time>2022-11-13T09:27:25Z</time>
      </trkpt>
      <trkpt lat="43.36711" lon="5.92358">
        <ele>334.9</ele>
        <time>2022-11-13T09:27:26Z</time>
      </trkpt>
      <trkpt lat="43.36717" lon="5.92351">
        <ele>335.9</ele>
        <time>2022-11-13T09:27:41Z</time>
      </trkpt>
      <trkpt lat="43.36717" lon="5.92351">
        <ele>336.1</ele>
        <time>2022-11-13T09:27:44Z</time>
      </trkpt>
      <trkpt lat="43.36717" lon="5.92351">
        <ele>336.3</ele>
        <time>2022-11-13T09:27:45Z</time>
      </trkpt>
      <trkpt lat="43.36717" lon="5.92351">
        <ele>336.5</ele>
        <time>2022-11-13T09:27:46Z</time>
      </trkpt>
      <trkpt lat="43.36726" lon="5.92354">
        <ele>336.3</ele>
        <time>2022-11-13T09:28:12Z</time>
      </trkpt>
      <trkpt lat="43.36725" lon="5.92355">
        <ele>335.5</ele>
        <time>2022-11-13T09:28:15Z</time>
      </trkpt>
      <trkpt lat="43.36725" lon="5.92355">
        <ele>335.6</ele>
        <time>2022-11-13T09:28:18Z</time>
      </trkpt>
      <trkpt lat="43.36725" lon="5.92354">
        <ele>334.6</ele>
        <time>2022-11-13T09:28:23Z</time>
      </trkpt>
      <trkpt lat="43.36725" lon="5.92353">
        <ele>334.5</ele>
        <time>2022-11-13T09:28:24Z</time>
      </trkpt>
      <trkpt lat="43.36725" lon="5.92353">
        <ele>334.5</ele>
        <time>2022-11-13T09:28:25Z</time>
      </trkpt>
      <trkpt lat="43.36726" lon="5.92352">
        <ele>334.1</ele>
        <time>2022-11-13T09:28:26Z</time>
      </trkpt>
      <trkpt lat="43.36726" lon="5.92352">
        <ele>333.9</ele>
        <time>2022-11-13T09:28:27Z</time>
      </trkpt>
      <trkpt lat="43.36726" lon="5.92352">
        <ele>333.6</ele>
        <time>2022-11-13T09:28:28Z</time>
      </trkpt>
      <trkpt lat="43.36726" lon="5.92352">
        <ele>333.5</ele>
        <time>2022-11-13T09:28:29Z</time>
      </trkpt>
      <trkpt lat="43.36726" lon="5.92351">
        <ele>333.3</ele>
        <time>2022-11-13T09:28:33Z</time>
      </trkpt>
      <trkpt lat="43.36728" lon="5.92346">
        <ele>328.3</ele>
        <time>2022-11-13T09:28:40Z</time>
      </trkpt>
      <trkpt lat="43.36728" lon="5.92346">
        <ele>328.1</ele>
        <time>2022-11-13T09:28:41Z</time>
      </trkpt>
      <trkpt lat="43.36726" lon="5.92341">
        <ele>327.8</ele>
        <time>2022-11-13T09:29:00Z</time>
      </trkpt>
      <trkpt lat="43.36726" lon="5.92341">
        <ele>327.9</ele>
        <time>2022-11-13T09:29:01Z</time>
      </trkpt>
      <trkpt lat="43.36722" lon="5.92331">
        <ele>333</ele>
        <time>2022-11-13T09:29:23Z</time>
      </trkpt>
      <trkpt lat="43.36723" lon="5.9233">
        <ele>333.1</ele>
        <time>2022-11-13T09:29:24Z</time>
      </trkpt>
      <trkpt lat="43.36718" lon="5.92318">
        <ele>334</ele>
        <time>2022-11-13T09:29:37Z</time>
      </trkpt>
      <trkpt lat="43.36712" lon="5.9231">
        <ele>334.9</ele>
        <time>2022-11-13T09:29:51Z</time>
      </trkpt>
      <trkpt lat="43.36711" lon="5.92309">
        <ele>335.3</ele>
        <time>2022-11-13T09:29:54Z</time>
      </trkpt>
      <trkpt lat="43.36711" lon="5.92309">
        <ele>336.2</ele>
        <time>2022-11-13T09:29:57Z</time>
      </trkpt>
      <trkpt lat="43.36703" lon="5.92303">
        <ele>338.7</ele>
        <time>2022-11-13T09:30:13Z</time>
      </trkpt>
      <trkpt lat="43.36695" lon="5.92298">
        <ele>340</ele>
        <time>2022-11-13T09:30:28Z</time>
      </trkpt>
      <trkpt lat="43.36692" lon="5.92287">
        <ele>341</ele>
        <time>2022-11-13T09:30:43Z</time>
      </trkpt>
      <trkpt lat="43.36692" lon="5.92287">
        <ele>341.1</ele>
        <time>2022-11-13T09:30:44Z</time>
      </trkpt>
      <trkpt lat="43.36692" lon="5.92287">
        <ele>341.2</ele>
        <time>2022-11-13T09:30:45Z</time>
      </trkpt>
      <trkpt lat="43.36692" lon="5.92287">
        <ele>341.2</ele>
        <time>2022-11-13T09:30:48Z</time>
      </trkpt>
      <trkpt lat="43.36685" lon="5.92297">
        <ele>343.1</ele>
        <time>2022-11-13T09:31:11Z</time>
      </trkpt>
      <trkpt lat="43.36685" lon="5.92298">
        <ele>343.1</ele>
        <time>2022-11-13T09:31:14Z</time>
      </trkpt>
      <trkpt lat="43.36685" lon="5.92299">
        <ele>343.2</ele>
        <time>2022-11-13T09:31:15Z</time>
      </trkpt>
      <trkpt lat="43.36682" lon="5.92313">
        <ele>344.2</ele>
        <time>2022-11-13T09:31:21Z</time>
      </trkpt>
      <trkpt lat="43.3668" lon="5.92325">
        <ele>344.9</ele>
        <time>2022-11-13T09:31:25Z</time>
      </trkpt>
      <trkpt lat="43.36673" lon="5.92338">
        <ele>345.8</ele>
        <time>2022-11-13T09:31:33Z</time>
      </trkpt>
      <trkpt lat="43.36671" lon="5.92334">
        <ele>350</ele>
        <time>2022-11-13T09:31:44Z</time>
      </trkpt>
      <trkpt lat="43.36671" lon="5.92332">
        <ele>350.5</ele>
        <time>2022-11-13T09:31:45Z</time>
      </trkpt>
      <trkpt lat="43.36672" lon="5.92319">
        <ele>353.1</ele>
        <time>2022-11-13T09:31:54Z</time>
      </trkpt>
      <trkpt lat="43.36676" lon="5.92307">
        <ele>356.9</ele>
        <time>2022-11-13T09:32:04Z</time>
      </trkpt>
      <trkpt lat="43.36676" lon="5.92302">
        <ele>357.2</ele>
        <time>2022-11-13T09:32:08Z</time>
      </trkpt>
      <trkpt lat="43.36676" lon="5.92301">
        <ele>357.1</ele>
        <time>2022-11-13T09:32:13Z</time>
      </trkpt>
      <trkpt lat="43.36679" lon="5.92292">
        <ele>356.4</ele>
        <time>2022-11-13T09:32:20Z</time>
      </trkpt>
      <trkpt lat="43.36679" lon="5.92292">
        <ele>356.2</ele>
        <time>2022-11-13T09:32:22Z</time>
      </trkpt>
      <trkpt lat="43.36677" lon="5.92287">
        <ele>353.2</ele>
        <time>2022-11-13T09:32:35Z</time>
      </trkpt>
      <trkpt lat="43.36677" lon="5.92286">
        <ele>353.3</ele>
        <time>2022-11-13T09:32:36Z</time>
      </trkpt>
      <trkpt lat="43.36676" lon="5.92288">
        <ele>353.7</ele>
        <time>2022-11-13T09:32:41Z</time>
      </trkpt>
      <trkpt lat="43.36676" lon="5.92287">
        <ele>353.6</ele>
        <time>2022-11-13T09:32:42Z</time>
      </trkpt>
      <trkpt lat="43.36677" lon="5.92287">
        <ele>353.6</ele>
        <time>2022-11-13T09:32:45Z</time>
      </trkpt>
      <trkpt lat="43.36676" lon="5.92288">
        <ele>353.7</ele>
        <time>2022-11-13T09:32:46Z</time>
      </trkpt>
      <trkpt lat="43.36676" lon="5.92288">
        <ele>353.7</ele>
        <time>2022-11-13T09:32:47Z</time>
      </trkpt>
      <trkpt lat="43.36676" lon="5.92289">
        <ele>354</ele>
        <time>2022-11-13T09:32:48Z</time>
      </trkpt>
      <trkpt lat="43.36676" lon="5.92289">
        <ele>354</ele>
        <time>2022-11-13T09:32:49Z</time>
      </trkpt>
      <trkpt lat="43.36676" lon="5.9229">
        <ele>354.1</ele>
        <time>2022-11-13T09:32:50Z</time>
      </trkpt>
      <trkpt lat="43.36674" lon="5.92288">
        <ele>354.5</ele>
        <time>2022-11-13T09:33:05Z</time>
      </trkpt>
      <trkpt lat="43.36675" lon="5.92289">
        <ele>354.4</ele>
        <time>2022-11-13T09:33:06Z</time>
      </trkpt>
      <trkpt lat="43.36675" lon="5.92289">
        <ele>353.7</ele>
        <time>2022-11-13T09:33:13Z</time>
      </trkpt>
      <trkpt lat="43.36675" lon="5.9229">
        <ele>353.5</ele>
        <time>2022-11-13T09:33:18Z</time>
      </trkpt>
      <trkpt lat="43.36674" lon="5.92289">
        <ele>353.3</ele>
        <time>2022-11-13T09:33:23Z</time>
      </trkpt>
      <trkpt lat="43.36675" lon="5.9229">
        <ele>353.2</ele>
        <time>2022-11-13T09:33:27Z</time>
      </trkpt>
      <trkpt lat="43.36671" lon="5.9229">
        <ele>354</ele>
        <time>2022-11-13T09:33:35Z</time>
      </trkpt>
      <trkpt lat="43.36671" lon="5.9229">
        <ele>354.1</ele>
        <time>2022-11-13T09:33:36Z</time>
      </trkpt>
      <trkpt lat="43.36669" lon="5.92283">
        <ele>355.9</ele>
        <time>2022-11-13T09:33:48Z</time>
      </trkpt>
      <trkpt lat="43.36669" lon="5.92283">
        <ele>355.8</ele>
        <time>2022-11-13T09:33:49Z</time>
      </trkpt>
      <trkpt lat="43.36664" lon="5.92287">
        <ele>355.4</ele>
        <time>2022-11-13T09:34:01Z</time>
      </trkpt>
      <trkpt lat="43.36664" lon="5.92287">
        <ele>355.3</ele>
        <time>2022-11-13T09:34:02Z</time>
      </trkpt>
      <trkpt lat="43.36658" lon="5.92283">
        <ele>354.3</ele>
        <time>2022-11-13T09:34:26Z</time>
      </trkpt>
      <trkpt lat="43.36658" lon="5.92283">
        <ele>354.2</ele>
        <time>2022-11-13T09:34:27Z</time>
      </trkpt>
      <trkpt lat="43.36656" lon="5.92285">
        <ele>354.7</ele>
        <time>2022-11-13T09:34:33Z</time>
      </trkpt>
      <trkpt lat="43.36656" lon="5.92285">
        <ele>354.5</ele>
        <time>2022-11-13T09:34:34Z</time>
      </trkpt>
      <trkpt lat="43.36656" lon="5.92285">
        <ele>354.4</ele>
        <time>2022-11-13T09:34:35Z</time>
      </trkpt>
      <trkpt lat="43.36655" lon="5.92285">
        <ele>354</ele>
        <time>2022-11-13T09:34:36Z</time>
      </trkpt>
      <trkpt lat="43.36655" lon="5.92286">
        <ele>353.8</ele>
        <time>2022-11-13T09:34:40Z</time>
      </trkpt>
      <trkpt lat="43.36655" lon="5.92285">
        <ele>353.5</ele>
        <time>2022-11-13T09:34:50Z</time>
      </trkpt>
      <trkpt lat="43.36656" lon="5.92285">
        <ele>353.7</ele>
        <time>2022-11-13T09:34:52Z</time>
      </trkpt>
      <trkpt lat="43.36655" lon="5.92285">
        <ele>353.7</ele>
        <time>2022-11-13T09:34:53Z</time>
      </trkpt>
      <trkpt lat="43.3665" lon="5.9229">
        <ele>350.9</ele>
        <time>2022-11-13T09:35:11Z</time>
      </trkpt>
      <trkpt lat="43.36651" lon="5.9229">
        <ele>350.8</ele>
        <time>2022-11-13T09:35:12Z</time>
      </trkpt>
      <trkpt lat="43.36651" lon="5.92289">
        <ele>350.9</ele>
        <time>2022-11-13T09:35:13Z</time>
      </trkpt>
      <trkpt lat="43.36651" lon="5.92289">
        <ele>350.9</ele>
        <time>2022-11-13T09:35:14Z</time>
      </trkpt>
      <trkpt lat="43.36651" lon="5.92289">
        <ele>350.9</ele>
        <time>2022-11-13T09:35:15Z</time>
      </trkpt>
      <trkpt lat="43.36651" lon="5.92289">
        <ele>350.8</ele>
        <time>2022-11-13T09:35:18Z</time>
      </trkpt>
      <trkpt lat="43.3665" lon="5.92289">
        <ele>350.6</ele>
        <time>2022-11-13T09:35:22Z</time>
      </trkpt>
      <trkpt lat="43.36649" lon="5.9229">
        <ele>350.5</ele>
        <time>2022-11-13T09:35:30Z</time>
      </trkpt>
      <trkpt lat="43.36649" lon="5.9229">
        <ele>350.7</ele>
        <time>2022-11-13T09:35:31Z</time>
      </trkpt>
      <trkpt lat="43.36649" lon="5.9229">
        <ele>350.7</ele>
        <time>2022-11-13T09:35:42Z</time>
      </trkpt>
      <trkpt lat="43.36647" lon="5.92289">
        <ele>351</ele>
        <time>2022-11-13T09:35:54Z</time>
      </trkpt>
      <trkpt lat="43.36647" lon="5.92288">
        <ele>350.9</ele>
        <time>2022-11-13T09:35:55Z</time>
      </trkpt>
      <trkpt lat="43.36648" lon="5.92292">
        <ele>351.3</ele>
        <time>2022-11-13T09:36:15Z</time>
      </trkpt>
      <trkpt lat="43.36648" lon="5.92292">
        <ele>351.3</ele>
        <time>2022-11-13T09:36:29Z</time>
      </trkpt>
      <trkpt lat="43.36648" lon="5.92292">
        <ele>351.3</ele>
        <time>2022-11-13T09:36:30Z</time>
      </trkpt>
      <trkpt lat="43.36648" lon="5.92292">
        <ele>351.3</ele>
        <time>2022-11-13T09:36:42Z</time>
      </trkpt>
      <trkpt lat="43.36648" lon="5.92292">
        <ele>351.3</ele>
        <time>2022-11-13T09:36:43Z</time>
      </trkpt>
      <trkpt lat="43.36648" lon="5.92292">
        <ele>351.2</ele>
        <time>2022-11-13T09:36:49Z</time>
      </trkpt>
      <trkpt lat="43.36647" lon="5.92293">
        <ele>350.9</ele>
        <time>2022-11-13T09:36:52Z</time>
      </trkpt>
      <trkpt lat="43.36647" lon="5.92293">
        <ele>350.9</ele>
        <time>2022-11-13T09:36:56Z</time>
      </trkpt>
      <trkpt lat="43.36647" lon="5.92293">
        <ele>350.8</ele>
        <time>2022-11-13T09:36:57Z</time>
      </trkpt>
      <trkpt lat="43.36647" lon="5.92294">
        <ele>350.8</ele>
        <time>2022-11-13T09:36:58Z</time>
      </trkpt>
      <trkpt lat="43.36647" lon="5.92294">
        <ele>350.8</ele>
        <time>2022-11-13T09:36:59Z</time>
      </trkpt>
      <trkpt lat="43.36646" lon="5.92294">
        <ele>350.7</ele>
        <time>2022-11-13T09:37:02Z</time>
      </trkpt>
      <trkpt lat="43.36646" lon="5.92294">
        <ele>350.7</ele>
        <time>2022-11-13T09:37:03Z</time>
      </trkpt>
      <trkpt lat="43.36646" lon="5.92293">
        <ele>350.4</ele>
        <time>2022-11-13T09:37:06Z</time>
      </trkpt>
      <trkpt lat="43.36646" lon="5.92293">
        <ele>350.3</ele>
        <time>2022-11-13T09:37:07Z</time>
      </trkpt>
      <trkpt lat="43.36646" lon="5.92294">
        <ele>350.2</ele>
        <time>2022-11-13T09:37:16Z</time>
      </trkpt>
      <trkpt lat="43.36646" lon="5.92294">
        <ele>350.2</ele>
        <time>2022-11-13T09:37:17Z</time>
      </trkpt>
      <trkpt lat="43.36646" lon="5.92294">
        <ele>350.3</ele>
        <time>2022-11-13T09:37:21Z</time>
      </trkpt>
      <trkpt lat="43.36645" lon="5.92294">
        <ele>349.7</ele>
        <time>2022-11-13T09:37:25Z</time>
      </trkpt>
      <trkpt lat="43.36645" lon="5.92294">
        <ele>349.5</ele>
        <time>2022-11-13T09:37:36Z</time>
      </trkpt>
      <trkpt lat="43.36645" lon="5.92294">
        <ele>349.5</ele>
        <time>2022-11-13T09:37:37Z</time>
      </trkpt>
      <trkpt lat="43.36645" lon="5.92294">
        <ele>349.5</ele>
        <time>2022-11-13T09:37:44Z</time>
      </trkpt>
      <trkpt lat="43.36641" lon="5.92292">
        <ele>348.6</ele>
        <time>2022-11-13T09:38:07Z</time>
      </trkpt>
      <trkpt lat="43.36642" lon="5.92292">
        <ele>348.5</ele>
        <time>2022-11-13T09:38:08Z</time>
      </trkpt>
      <trkpt lat="43.36643" lon="5.92291">
        <ele>347.9</ele>
        <time>2022-11-13T09:38:15Z</time>
      </trkpt>
      <trkpt lat="43.36644" lon="5.9229">
        <ele>347.8</ele>
        <time>2022-11-13T09:38:16Z</time>
      </trkpt>
      <trkpt lat="43.36644" lon="5.9229">
        <ele>347.7</ele>
        <time>2022-11-13T09:38:18Z</time>
      </trkpt>
      <trkpt lat="43.36644" lon="5.9229">
        <ele>347.6</ele>
        <time>2022-11-13T09:38:19Z</time>
      </trkpt>
      <trkpt lat="43.36642" lon="5.92293">
        <ele>346.1</ele>
        <time>2022-11-13T09:38:26Z</time>
      </trkpt>
      <trkpt lat="43.36642" lon="5.92294">
        <ele>346</ele>
        <time>2022-11-13T09:38:29Z</time>
      </trkpt>
      <trkpt lat="43.36635" lon="5.92301">
        <ele>344.6</ele>
        <time>2022-11-13T09:38:44Z</time>
      </trkpt>
      <trkpt lat="43.36635" lon="5.92301">
        <ele>344.6</ele>
        <time>2022-11-13T09:38:45Z</time>
      </trkpt>
      <trkpt lat="43.36635" lon="5.92301">
        <ele>344.6</ele>
        <time>2022-11-13T09:38:46Z</time>
      </trkpt>
      <trkpt lat="43.36635" lon="5.923">
        <ele>344.5</ele>
        <time>2022-11-13T09:38:47Z</time>
      </trkpt>
      <trkpt lat="43.36636" lon="5.923">
        <ele>344.4</ele>
        <time>2022-11-13T09:38:51Z</time>
      </trkpt>
      <trkpt lat="43.36636" lon="5.92301">
        <ele>344.3</ele>
        <time>2022-11-13T09:38:52Z</time>
      </trkpt>
      <trkpt lat="43.3664" lon="5.92301">
        <ele>343.9</ele>
        <time>2022-11-13T09:39:07Z</time>
      </trkpt>
      <trkpt lat="43.3664" lon="5.92301">
        <ele>343.9</ele>
        <time>2022-11-13T09:39:10Z</time>
      </trkpt>
      <trkpt lat="43.3664" lon="5.92301">
        <ele>343.9</ele>
        <time>2022-11-13T09:39:11Z</time>
      </trkpt>
      <trkpt lat="43.36641" lon="5.92301">
        <ele>343.9</ele>
        <time>2022-11-13T09:39:31Z</time>
      </trkpt>
      <trkpt lat="43.36641" lon="5.92301">
        <ele>344</ele>
        <time>2022-11-13T09:39:33Z</time>
      </trkpt>
      <trkpt lat="43.36642" lon="5.92301">
        <ele>343.8</ele>
        <time>2022-11-13T09:39:54Z</time>
      </trkpt>
      <trkpt lat="43.36642" lon="5.923">
        <ele>343.7</ele>
        <time>2022-11-13T09:39:56Z</time>
      </trkpt>
      <trkpt lat="43.36642" lon="5.92299">
        <ele>343.7</ele>
        <time>2022-11-13T09:40:27Z</time>
      </trkpt>
      <trkpt lat="43.36642" lon="5.92299">
        <ele>343.7</ele>
        <time>2022-11-13T09:40:28Z</time>
      </trkpt>
      <trkpt lat="43.36642" lon="5.92299">
        <ele>343.6</ele>
        <time>2022-11-13T09:40:52Z</time>
      </trkpt>
      <trkpt lat="43.36642" lon="5.92299">
        <ele>343.4</ele>
        <time>2022-11-13T09:40:55Z</time>
      </trkpt>
      <trkpt lat="43.36642" lon="5.92299">
        <ele>343.3</ele>
        <time>2022-11-13T09:41:44Z</time>
      </trkpt>
      <trkpt lat="43.36642" lon="5.92299">
        <ele>343.4</ele>
        <time>2022-11-13T09:41:47Z</time>
      </trkpt>
      <trkpt lat="43.36642" lon="5.923">
        <ele>343.5</ele>
        <time>2022-11-13T09:42:23Z</time>
      </trkpt>
      <trkpt lat="43.36642" lon="5.923">
        <ele>343.6</ele>
        <time>2022-11-13T09:42:24Z</time>
      </trkpt>
      <trkpt lat="43.36642" lon="5.92299">
        <ele>343.5</ele>
        <time>2022-11-13T09:44:20Z</time>
      </trkpt>
      <trkpt lat="43.36642" lon="5.92299">
        <ele>343.3</ele>
        <time>2022-11-13T09:44:21Z</time>
      </trkpt>
      <trkpt lat="43.36642" lon="5.92299">
        <ele>343.5</ele>
        <time>2022-11-13T09:44:22Z</time>
      </trkpt>
      <trkpt lat="43.36642" lon="5.92299">
        <ele>343.5</ele>
        <time>2022-11-13T09:44:25Z</time>
      </trkpt>
      <trkpt lat="43.36643" lon="5.92299">
        <ele>343.5</ele>
        <time>2022-11-13T09:44:26Z</time>
      </trkpt>
      <trkpt lat="43.36643" lon="5.92298">
        <ele>343.7</ele>
        <time>2022-11-13T09:44:28Z</time>
      </trkpt>
      <trkpt lat="43.36643" lon="5.92298">
        <ele>343.8</ele>
        <time>2022-11-13T09:44:29Z</time>
      </trkpt>
      <trkpt lat="43.36642" lon="5.92298">
        <ele>343.9</ele>
        <time>2022-11-13T09:44:31Z</time>
      </trkpt>
      <trkpt lat="43.36643" lon="5.92297">
        <ele>343.9</ele>
        <time>2022-11-13T09:44:33Z</time>
      </trkpt>
      <trkpt lat="43.36644" lon="5.92295">
        <ele>345.4</ele>
        <time>2022-11-13T09:44:38Z</time>
      </trkpt>
      <trkpt lat="43.36644" lon="5.92294">
        <ele>345.5</ele>
        <time>2022-11-13T09:44:40Z</time>
      </trkpt>
      <trkpt lat="43.36643" lon="5.92296">
        <ele>345.6</ele>
        <time>2022-11-13T09:45:26Z</time>
      </trkpt>
      <trkpt lat="43.36643" lon="5.92295">
        <ele>345.6</ele>
        <time>2022-11-13T09:45:27Z</time>
      </trkpt>
      <trkpt lat="43.36644" lon="5.92292">
        <ele>344.5</ele>
        <time>2022-11-13T09:45:36Z</time>
      </trkpt>
      <trkpt lat="43.36644" lon="5.92292">
        <ele>344.3</ele>
        <time>2022-11-13T09:45:37Z</time>
      </trkpt>
      <trkpt lat="43.36646" lon="5.9229">
        <ele>343.6</ele>
        <time>2022-11-13T09:45:48Z</time>
      </trkpt>
      <trkpt lat="43.36646" lon="5.92289">
        <ele>343.7</ele>
        <time>2022-11-13T09:45:49Z</time>
      </trkpt>
      <trkpt lat="43.36646" lon="5.92289">
        <ele>343.9</ele>
        <time>2022-11-13T09:45:51Z</time>
      </trkpt>
      <trkpt lat="43.36646" lon="5.92288">
        <ele>344</ele>
        <time>2022-11-13T09:45:52Z</time>
      </trkpt>
      <trkpt lat="43.36653" lon="5.9228">
        <ele>344</ele>
        <time>2022-11-13T09:46:06Z</time>
      </trkpt>
      <trkpt lat="43.36659" lon="5.92281">
        <ele>343.3</ele>
        <time>2022-11-13T09:46:21Z</time>
      </trkpt>
      <trkpt lat="43.3666" lon="5.92281">
        <ele>343.2</ele>
        <time>2022-11-13T09:46:22Z</time>
      </trkpt>
      <trkpt lat="43.36658" lon="5.92293">
        <ele>343.3</ele>
        <time>2022-11-13T09:46:53Z</time>
      </trkpt>
      <trkpt lat="43.36668" lon="5.92289">
        <ele>343.5</ele>
        <time>2022-11-13T09:47:06Z</time>
      </trkpt>
      <trkpt lat="43.36668" lon="5.92275">
        <ele>343</ele>
        <time>2022-11-13T09:47:10Z</time>
      </trkpt>
      <trkpt lat="43.36667" lon="5.92283">
        <ele>342.8</ele>
        <time>2022-11-13T09:47:38Z</time>
      </trkpt>
      <trkpt lat="43.36667" lon="5.92284">
        <ele>342.8</ele>
        <time>2022-11-13T09:47:39Z</time>
      </trkpt>
      <trkpt lat="43.36667" lon="5.92284">
        <ele>342.8</ele>
        <time>2022-11-13T09:47:40Z</time>
      </trkpt>
      <trkpt lat="43.36667" lon="5.92285">
        <ele>343</ele>
        <time>2022-11-13T09:47:41Z</time>
      </trkpt>
      <trkpt lat="43.36674" lon="5.92288">
        <ele>344.3</ele>
        <time>2022-11-13T09:48:00Z</time>
      </trkpt>
      <trkpt lat="43.36674" lon="5.92288">
        <ele>344.3</ele>
        <time>2022-11-13T09:48:02Z</time>
      </trkpt>
      <trkpt lat="43.36676" lon="5.92288">
        <ele>346.5</ele>
        <time>2022-11-13T09:48:26Z</time>
      </trkpt>
      <trkpt lat="43.36676" lon="5.92286">
        <ele>346.7</ele>
        <time>2022-11-13T09:48:30Z</time>
      </trkpt>
      <trkpt lat="43.36676" lon="5.92288">
        <ele>346.6</ele>
        <time>2022-11-13T09:48:33Z</time>
      </trkpt>
      <trkpt lat="43.36676" lon="5.92289">
        <ele>346.4</ele>
        <time>2022-11-13T09:48:36Z</time>
      </trkpt>
      <trkpt lat="43.36682" lon="5.92298">
        <ele>346</ele>
        <time>2022-11-13T09:48:49Z</time>
      </trkpt>
      <trkpt lat="43.36683" lon="5.92297">
        <ele>346.2</ele>
        <time>2022-11-13T09:48:52Z</time>
      </trkpt>
      <trkpt lat="43.36683" lon="5.92297">
        <ele>346.3</ele>
        <time>2022-11-13T09:48:53Z</time>
      </trkpt>
      <trkpt lat="43.36683" lon="5.92296">
        <ele>346.8</ele>
        <time>2022-11-13T09:48:55Z</time>
      </trkpt>
      <trkpt lat="43.36683" lon="5.92297">
        <ele>347</ele>
        <time>2022-11-13T09:48:59Z</time>
      </trkpt>
      <trkpt lat="43.36691" lon="5.92301">
        <ele>344.8</ele>
        <time>2022-11-13T09:49:17Z</time>
      </trkpt>
      <trkpt lat="43.36691" lon="5.92301">
        <ele>344.8</ele>
        <time>2022-11-13T09:49:18Z</time>
      </trkpt>
      <trkpt lat="43.36691" lon="5.92302">
        <ele>344.7</ele>
        <time>2022-11-13T09:49:19Z</time>
      </trkpt>
      <trkpt lat="43.3669" lon="5.92302">
        <ele>344.5</ele>
        <time>2022-11-13T09:49:20Z</time>
      </trkpt>
      <trkpt lat="43.3669" lon="5.92302">
        <ele>344.4</ele>
        <time>2022-11-13T09:49:21Z</time>
      </trkpt>
      <trkpt lat="43.3669" lon="5.92302">
        <ele>344.2</ele>
        <time>2022-11-13T09:49:22Z</time>
      </trkpt>
      <trkpt lat="43.36699" lon="5.92301">
        <ele>343.6</ele>
        <time>2022-11-13T09:49:36Z</time>
      </trkpt>
      <trkpt lat="43.36708" lon="5.92297">
        <ele>344.8</ele>
        <time>2022-11-13T09:49:51Z</time>
      </trkpt>
      <trkpt lat="43.36716" lon="5.92292">
        <ele>347.2</ele>
        <time>2022-11-13T09:50:08Z</time>
      </trkpt>
      <trkpt lat="43.36723" lon="5.92283">
        <ele>348.9</ele>
        <time>2022-11-13T09:50:22Z</time>
      </trkpt>
      <trkpt lat="43.36723" lon="5.92282">
        <ele>349</ele>
        <time>2022-11-13T09:50:25Z</time>
      </trkpt>
      <trkpt lat="43.36723" lon="5.92282">
        <ele>349</ele>
        <time>2022-11-13T09:50:26Z</time>
      </trkpt>
      <trkpt lat="43.36726" lon="5.92276">
        <ele>349.7</ele>
        <time>2022-11-13T09:50:36Z</time>
      </trkpt>
      <trkpt lat="43.36726" lon="5.92275">
        <ele>349.8</ele>
        <time>2022-11-13T09:50:37Z</time>
      </trkpt>
      <trkpt lat="43.36726" lon="5.92275">
        <ele>349.8</ele>
        <time>2022-11-13T09:50:38Z</time>
      </trkpt>
      <trkpt lat="43.36726" lon="5.92275">
        <ele>349.9</ele>
        <time>2022-11-13T09:50:39Z</time>
      </trkpt>
      <trkpt lat="43.36733" lon="5.92267">
        <ele>353.2</ele>
        <time>2022-11-13T09:50:54Z</time>
      </trkpt>
      <trkpt lat="43.36739" lon="5.92257">
        <ele>356.7</ele>
        <time>2022-11-13T09:51:08Z</time>
      </trkpt>
      <trkpt lat="43.36746" lon="5.92249">
        <ele>359.6</ele>
        <time>2022-11-13T09:51:23Z</time>
      </trkpt>
      <trkpt lat="43.36748" lon="5.92248">
        <ele>359.7</ele>
        <time>2022-11-13T09:51:30Z</time>
      </trkpt>
      <trkpt lat="43.36749" lon="5.92246">
        <ele>359.2</ele>
        <time>2022-11-13T09:51:32Z</time>
      </trkpt>
      <trkpt lat="43.36753" lon="5.92235">
        <ele>358.6</ele>
        <time>2022-11-13T09:51:47Z</time>
      </trkpt>
      <trkpt lat="43.36753" lon="5.92235">
        <ele>358.6</ele>
        <time>2022-11-13T09:51:48Z</time>
      </trkpt>
      <trkpt lat="43.36752" lon="5.92235">
        <ele>358.6</ele>
        <time>2022-11-13T09:51:49Z</time>
      </trkpt>
      <trkpt lat="43.36752" lon="5.92235">
        <ele>358.6</ele>
        <time>2022-11-13T09:51:50Z</time>
      </trkpt>
      <trkpt lat="43.36753" lon="5.92235">
        <ele>358.4</ele>
        <time>2022-11-13T09:51:51Z</time>
      </trkpt>
      <trkpt lat="43.36755" lon="5.92231">
        <ele>359.3</ele>
        <time>2022-11-13T09:52:01Z</time>
      </trkpt>
      <trkpt lat="43.36755" lon="5.92231">
        <ele>359.4</ele>
        <time>2022-11-13T09:52:02Z</time>
      </trkpt>
      <trkpt lat="43.36755" lon="5.92231">
        <ele>359.4</ele>
        <time>2022-11-13T09:52:03Z</time>
      </trkpt>
      <trkpt lat="43.36755" lon="5.92231">
        <ele>359.3</ele>
        <time>2022-11-13T09:52:16Z</time>
      </trkpt>
      <trkpt lat="43.36755" lon="5.9223">
        <ele>358.7</ele>
        <time>2022-11-13T09:52:20Z</time>
      </trkpt>
      <trkpt lat="43.36755" lon="5.92229">
        <ele>358.2</ele>
        <time>2022-11-13T09:52:27Z</time>
      </trkpt>
      <trkpt lat="43.36755" lon="5.92229">
        <ele>358</ele>
        <time>2022-11-13T09:52:28Z</time>
      </trkpt>
      <trkpt lat="43.36755" lon="5.92228">
        <ele>357.7</ele>
        <time>2022-11-13T09:52:32Z</time>
      </trkpt>
      <trkpt lat="43.36755" lon="5.92228">
        <ele>357.4</ele>
        <time>2022-11-13T09:52:34Z</time>
      </trkpt>
      <trkpt lat="43.36755" lon="5.92228">
        <ele>357.2</ele>
        <time>2022-11-13T09:52:35Z</time>
      </trkpt>
      <trkpt lat="43.36755" lon="5.92227">
        <ele>356.8</ele>
        <time>2022-11-13T09:52:38Z</time>
      </trkpt>
      <trkpt lat="43.36755" lon="5.92227">
        <ele>356.7</ele>
        <time>2022-11-13T09:52:41Z</time>
      </trkpt>
      <trkpt lat="43.36755" lon="5.92227">
        <ele>356.6</ele>
        <time>2022-11-13T09:52:43Z</time>
      </trkpt>
      <trkpt lat="43.36755" lon="5.92227">
        <ele>356.5</ele>
        <time>2022-11-13T09:52:44Z</time>
      </trkpt>
      <trkpt lat="43.36755" lon="5.92226">
        <ele>356.5</ele>
        <time>2022-11-13T09:52:46Z</time>
      </trkpt>
      <trkpt lat="43.36755" lon="5.92227">
        <ele>356.2</ele>
        <time>2022-11-13T09:52:50Z</time>
      </trkpt>
      <trkpt lat="43.36755" lon="5.92229">
        <ele>355.7</ele>
        <time>2022-11-13T09:53:04Z</time>
      </trkpt>
      <trkpt lat="43.36755" lon="5.92229">
        <ele>355.7</ele>
        <time>2022-11-13T09:53:05Z</time>
      </trkpt>
      <trkpt lat="43.36746" lon="5.92234">
        <ele>355</ele>
        <time>2022-11-13T09:53:19Z</time>
      </trkpt>
      <trkpt lat="43.36739" lon="5.92243">
        <ele>354.9</ele>
        <time>2022-11-13T09:53:30Z</time>
      </trkpt>
      <trkpt lat="43.36734" lon="5.92253">
        <ele>354.8</ele>
        <time>2022-11-13T09:53:42Z</time>
      </trkpt>
      <trkpt lat="43.36728" lon="5.9226">
        <ele>352.7</ele>
        <time>2022-11-13T09:54:06Z</time>
      </trkpt>
      <trkpt lat="43.36728" lon="5.92262">
        <ele>352.3</ele>
        <time>2022-11-13T09:54:08Z</time>
      </trkpt>
      <trkpt lat="43.36728" lon="5.92262">
        <ele>352.2</ele>
        <time>2022-11-13T09:54:09Z</time>
      </trkpt>
      <trkpt lat="43.36728" lon="5.92262">
        <ele>352.2</ele>
        <time>2022-11-13T09:54:11Z</time>
      </trkpt>
      <trkpt lat="43.36728" lon="5.92262">
        <ele>352.1</ele>
        <time>2022-11-13T09:54:12Z</time>
      </trkpt>
      <trkpt lat="43.36728" lon="5.92263">
        <ele>352.1</ele>
        <time>2022-11-13T09:54:13Z</time>
      </trkpt>
      <trkpt lat="43.36727" lon="5.92263">
        <ele>352.2</ele>
        <time>2022-11-13T09:54:15Z</time>
      </trkpt>
      <trkpt lat="43.36727" lon="5.92263">
        <ele>352.1</ele>
        <time>2022-11-13T09:54:17Z</time>
      </trkpt>
      <trkpt lat="43.36727" lon="5.92263">
        <ele>352.1</ele>
        <time>2022-11-13T09:54:18Z</time>
      </trkpt>
      <trkpt lat="43.36727" lon="5.92263">
        <ele>352</ele>
        <time>2022-11-13T09:54:21Z</time>
      </trkpt>
      <trkpt lat="43.36727" lon="5.92264">
        <ele>351.6</ele>
        <time>2022-11-13T09:54:23Z</time>
      </trkpt>
      <trkpt lat="43.36727" lon="5.92264">
        <ele>351.5</ele>
        <time>2022-11-13T09:54:24Z</time>
      </trkpt>
      <trkpt lat="43.36728" lon="5.92267">
        <ele>350.2</ele>
        <time>2022-11-13T09:54:31Z</time>
      </trkpt>
      <trkpt lat="43.36727" lon="5.92268">
        <ele>350.1</ele>
        <time>2022-11-13T09:54:34Z</time>
      </trkpt>
      <trkpt lat="43.3672" lon="5.92275">
        <ele>349.8</ele>
        <time>2022-11-13T09:54:49Z</time>
      </trkpt>
      <trkpt lat="43.36713" lon="5.92284">
        <ele>347.9</ele>
        <time>2022-11-13T09:55:04Z</time>
      </trkpt>
      <trkpt lat="43.36704" lon="5.9229">
        <ele>346.5</ele>
        <time>2022-11-13T09:55:26Z</time>
      </trkpt>
      <trkpt lat="43.36696" lon="5.92298">
        <ele>345.5</ele>
        <time>2022-11-13T09:55:37Z</time>
      </trkpt>
      <trkpt lat="43.36696" lon="5.92298">
        <ele>345.5</ele>
        <time>2022-11-13T09:55:38Z</time>
      </trkpt>
      <trkpt lat="43.36696" lon="5.92298">
        <ele>345.4</ele>
        <time>2022-11-13T09:55:39Z</time>
      </trkpt>
      <trkpt lat="43.36693" lon="5.92301">
        <ele>342.8</ele>
        <time>2022-11-13T09:55:53Z</time>
      </trkpt>
      <trkpt lat="43.36693" lon="5.92302">
        <ele>342.5</ele>
        <time>2022-11-13T09:55:55Z</time>
      </trkpt>
      <trkpt lat="43.36696" lon="5.92303">
        <ele>341.5</ele>
        <time>2022-11-13T09:56:07Z</time>
      </trkpt>
      <trkpt lat="43.36696" lon="5.92303">
        <ele>341.4</ele>
        <time>2022-11-13T09:56:12Z</time>
      </trkpt>
      <trkpt lat="43.36699" lon="5.92304">
        <ele>340.9</ele>
        <time>2022-11-13T09:56:19Z</time>
      </trkpt>
      <trkpt lat="43.36699" lon="5.92304">
        <ele>341</ele>
        <time>2022-11-13T09:56:20Z</time>
      </trkpt>
      <trkpt lat="43.36707" lon="5.92311">
        <ele>339.9</ele>
        <time>2022-11-13T09:56:45Z</time>
      </trkpt>
      <trkpt lat="43.36709" lon="5.92316">
        <ele>338.5</ele>
        <time>2022-11-13T09:56:57Z</time>
      </trkpt>
      <trkpt lat="43.36709" lon="5.92316">
        <ele>338.3</ele>
        <time>2022-11-13T09:56:58Z</time>
      </trkpt>
      <trkpt lat="43.36712" lon="5.92326">
        <ele>335.7</ele>
        <time>2022-11-13T09:57:22Z</time>
      </trkpt>
      <trkpt lat="43.36712" lon="5.92327">
        <ele>335.6</ele>
        <time>2022-11-13T09:57:23Z</time>
      </trkpt>
      <trkpt lat="43.36717" lon="5.92338">
        <ele>336.5</ele>
        <time>2022-11-13T09:57:41Z</time>
      </trkpt>
      <trkpt lat="43.36725" lon="5.92344">
        <ele>335.2</ele>
        <time>2022-11-13T09:57:53Z</time>
      </trkpt>
      <trkpt lat="43.36733" lon="5.92336">
        <ele>334.9</ele>
        <time>2022-11-13T09:58:07Z</time>
      </trkpt>
      <trkpt lat="43.36742" lon="5.92331">
        <ele>335.9</ele>
        <time>2022-11-13T09:58:21Z</time>
      </trkpt>
      <trkpt lat="43.36751" lon="5.92325">
        <ele>335.8</ele>
        <time>2022-11-13T09:58:39Z</time>
      </trkpt>
      <trkpt lat="43.3676" lon="5.92326">
        <ele>335.1</ele>
        <time>2022-11-13T09:59:01Z</time>
      </trkpt>
      <trkpt lat="43.36769" lon="5.92322">
        <ele>335</ele>
        <time>2022-11-13T09:59:11Z</time>
      </trkpt>
      <trkpt lat="43.36777" lon="5.92315">
        <ele>334.2</ele>
        <time>2022-11-13T09:59:26Z</time>
      </trkpt>
      <trkpt lat="43.36783" lon="5.92306">
        <ele>332.6</ele>
        <time>2022-11-13T09:59:40Z</time>
      </trkpt>
      <trkpt lat="43.36783" lon="5.92306">
        <ele>332.5</ele>
        <time>2022-11-13T09:59:44Z</time>
      </trkpt>
      <trkpt lat="43.36784" lon="5.92306">
        <ele>332.5</ele>
        <time>2022-11-13T09:59:45Z</time>
      </trkpt>
      <trkpt lat="43.36789" lon="5.92295">
        <ele>332.1</ele>
        <time>2022-11-13T09:59:57Z</time>
      </trkpt>
      <trkpt lat="43.36789" lon="5.92293">
        <ele>332.1</ele>
        <time>2022-11-13T10:00:00Z</time>
      </trkpt>
      <trkpt lat="43.36789" lon="5.92293">
        <ele>332.1</ele>
        <time>2022-11-13T10:00:01Z</time>
      </trkpt>
      <trkpt lat="43.36794" lon="5.92293">
        <ele>331.5</ele>
        <time>2022-11-13T10:00:14Z</time>
      </trkpt>
      <trkpt lat="43.36794" lon="5.92292">
        <ele>331.4</ele>
        <time>2022-11-13T10:00:15Z</time>
      </trkpt>
      <trkpt lat="43.36804" lon="5.92288">
        <ele>332.3</ele>
        <time>2022-11-13T10:00:28Z</time>
      </trkpt>
      <trkpt lat="43.36813" lon="5.92288">
        <ele>334.1</ele>
        <time>2022-11-13T10:00:43Z</time>
      </trkpt>
      <trkpt lat="43.36822" lon="5.92291">
        <ele>337.6</ele>
        <time>2022-11-13T10:01:01Z</time>
      </trkpt>
      <trkpt lat="43.36827" lon="5.92297">
        <ele>339.2</ele>
        <time>2022-11-13T10:01:14Z</time>
      </trkpt>
      <trkpt lat="43.36827" lon="5.92297">
        <ele>339.1</ele>
        <time>2022-11-13T10:01:15Z</time>
      </trkpt>
      <trkpt lat="43.36823" lon="5.92299">
        <ele>339.5</ele>
        <time>2022-11-13T10:01:19Z</time>
      </trkpt>
      <trkpt lat="43.36823" lon="5.923">
        <ele>339.7</ele>
        <time>2022-11-13T10:01:20Z</time>
      </trkpt>
      <trkpt lat="43.36814" lon="5.92299">
        <ele>341</ele>
        <time>2022-11-13T10:01:32Z</time>
      </trkpt>
      <trkpt lat="43.36807" lon="5.92289">
        <ele>340.7</ele>
        <time>2022-11-13T10:01:37Z</time>
      </trkpt>
      <trkpt lat="43.36803" lon="5.92278">
        <ele>340.2</ele>
        <time>2022-11-13T10:01:49Z</time>
      </trkpt>
      <trkpt lat="43.36798" lon="5.92274">
        <ele>338.6</ele>
        <time>2022-11-13T10:02:07Z</time>
      </trkpt>
      <trkpt lat="43.36798" lon="5.92274">
        <ele>338.6</ele>
        <time>2022-11-13T10:02:09Z</time>
      </trkpt>
      <trkpt lat="43.36798" lon="5.92274">
        <ele>338.6</ele>
        <time>2022-11-13T10:02:10Z</time>
      </trkpt>
      <trkpt lat="43.36797" lon="5.92274">
        <ele>338.4</ele>
        <time>2022-11-13T10:02:15Z</time>
      </trkpt>
      <trkpt lat="43.36796" lon="5.92279">
        <ele>336.2</ele>
        <time>2022-11-13T10:02:24Z</time>
      </trkpt>
      <trkpt lat="43.36797" lon="5.92279">
        <ele>336.2</ele>
        <time>2022-11-13T10:02:28Z</time>
      </trkpt>
      <trkpt lat="43.36797" lon="5.92279">
        <ele>336.2</ele>
        <time>2022-11-13T10:02:29Z</time>
      </trkpt>
      <trkpt lat="43.36797" lon="5.92279">
        <ele>335.8</ele>
        <time>2022-11-13T10:02:55Z</time>
      </trkpt>
      <trkpt lat="43.36797" lon="5.92279">
        <ele>335.5</ele>
        <time>2022-11-13T10:03:00Z</time>
      </trkpt>
      <trkpt lat="43.36797" lon="5.92279">
        <ele>335.6</ele>
        <time>2022-11-13T10:03:02Z</time>
      </trkpt>
      <trkpt lat="43.36797" lon="5.92279">
        <ele>335.6</ele>
        <time>2022-11-13T10:03:03Z</time>
      </trkpt>
      <trkpt lat="43.36796" lon="5.9228">
        <ele>335.7</ele>
        <time>2022-11-13T10:03:06Z</time>
      </trkpt>
      <trkpt lat="43.36796" lon="5.9228">
        <ele>335.7</ele>
        <time>2022-11-13T10:03:07Z</time>
      </trkpt>
      <trkpt lat="43.36796" lon="5.9228">
        <ele>335.7</ele>
        <time>2022-11-13T10:03:08Z</time>
      </trkpt>
      <trkpt lat="43.36796" lon="5.9228">
        <ele>335.7</ele>
        <time>2022-11-13T10:03:09Z</time>
      </trkpt>
      <trkpt lat="43.36796" lon="5.9228">
        <ele>335.7</ele>
        <time>2022-11-13T10:03:11Z</time>
      </trkpt>
      <trkpt lat="43.36801" lon="5.92291">
        <ele>335.5</ele>
        <time>2022-11-13T10:03:30Z</time>
      </trkpt>
      <trkpt lat="43.3681" lon="5.92293">
        <ele>336.5</ele>
        <time>2022-11-13T10:03:44Z</time>
      </trkpt>
      <trkpt lat="43.3682" lon="5.92291">
        <ele>337.7</ele>
        <time>2022-11-13T10:04:01Z</time>
      </trkpt>
      <trkpt lat="43.36832" lon="5.92287">
        <ele>337.2</ele>
        <time>2022-11-13T10:04:05Z</time>
      </trkpt>
      <trkpt lat="43.3684" lon="5.92281">
        <ele>337</ele>
        <time>2022-11-13T10:04:09Z</time>
      </trkpt>
      <trkpt lat="43.3685" lon="5.92277">
        <ele>336.8</ele>
        <time>2022-11-13T10:04:14Z</time>
      </trkpt>
      <trkpt lat="43.36855" lon="5.92265">
        <ele>340.1</ele>
        <time>2022-11-13T10:04:49Z</time>
      </trkpt>
      <trkpt lat="43.36858" lon="5.92256">
        <ele>335.7</ele>
        <time>2022-11-13T10:05:03Z</time>
      </trkpt>
      <trkpt lat="43.36857" lon="5.92256">
        <ele>335.8</ele>
        <time>2022-11-13T10:05:04Z</time>
      </trkpt>
      <trkpt lat="43.36854" lon="5.92254">
        <ele>334.8</ele>
        <time>2022-11-13T10:05:18Z</time>
      </trkpt>
      <trkpt lat="43.36854" lon="5.92254">
        <ele>334.7</ele>
        <time>2022-11-13T10:05:19Z</time>
      </trkpt>
      <trkpt lat="43.36855" lon="5.92252">
        <ele>333.8</ele>
        <time>2022-11-13T10:05:36Z</time>
      </trkpt>
      <trkpt lat="43.36856" lon="5.92253">
        <ele>333.7</ele>
        <time>2022-11-13T10:05:37Z</time>
      </trkpt>
      <trkpt lat="43.36858" lon="5.92248">
        <ele>333.3</ele>
        <time>2022-11-13T10:05:50Z</time>
      </trkpt>
      <trkpt lat="43.36858" lon="5.92248">
        <ele>333.4</ele>
        <time>2022-11-13T10:05:51Z</time>
      </trkpt>
      <trkpt lat="43.36867" lon="5.92244">
        <ele>332.4</ele>
        <time>2022-11-13T10:06:16Z</time>
      </trkpt>
      <trkpt lat="43.36871" lon="5.92245">
        <ele>330.9</ele>
        <time>2022-11-13T10:06:23Z</time>
      </trkpt>
      <trkpt lat="43.36872" lon="5.92245">
        <ele>330.8</ele>
        <time>2022-11-13T10:06:24Z</time>
      </trkpt>
      <trkpt lat="43.36872" lon="5.92244">
        <ele>330.6</ele>
        <time>2022-11-13T10:06:26Z</time>
      </trkpt>
      <trkpt lat="43.36871" lon="5.92244">
        <ele>330.5</ele>
        <time>2022-11-13T10:06:27Z</time>
      </trkpt>
      <trkpt lat="43.36871" lon="5.92244">
        <ele>330.4</ele>
        <time>2022-11-13T10:06:28Z</time>
      </trkpt>
      <trkpt lat="43.36871" lon="5.92245">
        <ele>330.4</ele>
        <time>2022-11-13T10:06:30Z</time>
      </trkpt>
      <trkpt lat="43.36871" lon="5.92245">
        <ele>330.5</ele>
        <time>2022-11-13T10:06:31Z</time>
      </trkpt>
      <trkpt lat="43.36871" lon="5.92245">
        <ele>330.6</ele>
        <time>2022-11-13T10:06:32Z</time>
      </trkpt>
      <trkpt lat="43.36871" lon="5.92245">
        <ele>330.8</ele>
        <time>2022-11-13T10:06:35Z</time>
      </trkpt>
      <trkpt lat="43.36872" lon="5.92245">
        <ele>330.8</ele>
        <time>2022-11-13T10:06:39Z</time>
      </trkpt>
      <trkpt lat="43.36872" lon="5.92245">
        <ele>330.9</ele>
        <time>2022-11-13T10:06:40Z</time>
      </trkpt>
      <trkpt lat="43.36872" lon="5.92245">
        <ele>330.9</ele>
        <time>2022-11-13T10:06:41Z</time>
      </trkpt>
      <trkpt lat="43.36881" lon="5.92241">
        <ele>330.9</ele>
        <time>2022-11-13T10:06:51Z</time>
      </trkpt>
      <trkpt lat="43.3688" lon="5.92242">
        <ele>330.9</ele>
        <time>2022-11-13T10:06:53Z</time>
      </trkpt>
      <trkpt lat="43.3688" lon="5.92243">
        <ele>331</ele>
        <time>2022-11-13T10:06:54Z</time>
      </trkpt>
      <trkpt lat="43.3689" lon="5.92241">
        <ele>330.7</ele>
        <time>2022-11-13T10:07:08Z</time>
      </trkpt>
      <trkpt lat="43.36894" lon="5.9224">
        <ele>330.6</ele>
        <time>2022-11-13T10:07:17Z</time>
      </trkpt>
      <trkpt lat="43.36894" lon="5.9224">
        <ele>330.5</ele>
        <time>2022-11-13T10:07:18Z</time>
      </trkpt>
      <trkpt lat="43.36903" lon="5.92233">
        <ele>330.1</ele>
        <time>2022-11-13T10:07:30Z</time>
      </trkpt>
      <trkpt lat="43.3691" lon="5.92226">
        <ele>330.4</ele>
        <time>2022-11-13T10:07:40Z</time>
      </trkpt>
      <trkpt lat="43.36914" lon="5.92215">
        <ele>329.8</ele>
        <time>2022-11-13T10:08:01Z</time>
      </trkpt>
      <trkpt lat="43.36914" lon="5.92215">
        <ele>329.9</ele>
        <time>2022-11-13T10:08:05Z</time>
      </trkpt>
      <trkpt lat="43.36916" lon="5.92207">
        <ele>330.4</ele>
        <time>2022-11-13T10:08:17Z</time>
      </trkpt>
      <trkpt lat="43.36915" lon="5.92207">
        <ele>330.4</ele>
        <time>2022-11-13T10:08:19Z</time>
      </trkpt>
      <trkpt lat="43.36917" lon="5.92206">
        <ele>330.5</ele>
        <time>2022-11-13T10:08:22Z</time>
      </trkpt>
      <trkpt lat="43.36917" lon="5.92206">
        <ele>330.5</ele>
        <time>2022-11-13T10:08:24Z</time>
      </trkpt>
      <trkpt lat="43.36917" lon="5.92206">
        <ele>330.5</ele>
        <time>2022-11-13T10:08:25Z</time>
      </trkpt>
      <trkpt lat="43.36917" lon="5.92206">
        <ele>330.5</ele>
        <time>2022-11-13T10:08:26Z</time>
      </trkpt>
      <trkpt lat="43.36917" lon="5.92206">
        <ele>330.4</ele>
        <time>2022-11-13T10:08:27Z</time>
      </trkpt>
      <trkpt lat="43.36917" lon="5.92207">
        <ele>330.2</ele>
        <time>2022-11-13T10:08:29Z</time>
      </trkpt>
      <trkpt lat="43.36915" lon="5.92208">
        <ele>329.3</ele>
        <time>2022-11-13T10:08:36Z</time>
      </trkpt>
      <trkpt lat="43.36915" lon="5.92208">
        <ele>329.3</ele>
        <time>2022-11-13T10:08:37Z</time>
      </trkpt>
      <trkpt lat="43.36914" lon="5.92209">
        <ele>329.4</ele>
        <time>2022-11-13T10:08:44Z</time>
      </trkpt>
      <trkpt lat="43.36914" lon="5.92208">
        <ele>329.6</ele>
        <time>2022-11-13T10:08:46Z</time>
      </trkpt>
      <trkpt lat="43.36914" lon="5.92208">
        <ele>329.9</ele>
        <time>2022-11-13T10:08:47Z</time>
      </trkpt>
      <trkpt lat="43.36914" lon="5.92208">
        <ele>330</ele>
        <time>2022-11-13T10:08:48Z</time>
      </trkpt>
      <trkpt lat="43.36915" lon="5.92208">
        <ele>330.5</ele>
        <time>2022-11-13T10:08:55Z</time>
      </trkpt>
      <trkpt lat="43.36915" lon="5.92208">
        <ele>330.5</ele>
        <time>2022-11-13T10:08:57Z</time>
      </trkpt>
      <trkpt lat="43.36918" lon="5.92205">
        <ele>331.4</ele>
        <time>2022-11-13T10:09:10Z</time>
      </trkpt>
      <trkpt lat="43.36918" lon="5.92203">
        <ele>331.4</ele>
        <time>2022-11-13T10:09:11Z</time>
      </trkpt>
      <trkpt lat="43.36917" lon="5.92203">
        <ele>331.5</ele>
        <time>2022-11-13T10:09:13Z</time>
      </trkpt>
      <trkpt lat="43.36917" lon="5.92203">
        <ele>331.6</ele>
        <time>2022-11-13T10:09:15Z</time>
      </trkpt>
      <trkpt lat="43.36917" lon="5.92203">
        <ele>331.6</ele>
        <time>2022-11-13T10:09:16Z</time>
      </trkpt>
      <trkpt lat="43.36917" lon="5.92203">
        <ele>331.6</ele>
        <time>2022-11-13T10:09:19Z</time>
      </trkpt>
      <trkpt lat="43.36917" lon="5.92203">
        <ele>331.6</ele>
        <time>2022-11-13T10:09:20Z</time>
      </trkpt>
      <trkpt lat="43.36916" lon="5.92203">
        <ele>331.6</ele>
        <time>2022-11-13T10:09:21Z</time>
      </trkpt>
      <trkpt lat="43.36915" lon="5.92204">
        <ele>331.9</ele>
        <time>2022-11-13T10:09:27Z</time>
      </trkpt>
      <trkpt lat="43.36915" lon="5.92204">
        <ele>331.6</ele>
        <time>2022-11-13T10:09:29Z</time>
      </trkpt>
      <trkpt lat="43.36918" lon="5.92202">
        <ele>331.3</ele>
        <time>2022-11-13T10:09:44Z</time>
      </trkpt>
      <trkpt lat="43.36918" lon="5.92202">
        <ele>331.4</ele>
        <time>2022-11-13T10:09:46Z</time>
      </trkpt>
      <trkpt lat="43.36918" lon="5.92202">
        <ele>331.4</ele>
        <time>2022-11-13T10:09:47Z</time>
      </trkpt>
      <trkpt lat="43.36918" lon="5.92202">
        <ele>331.4</ele>
        <time>2022-11-13T10:09:48Z</time>
      </trkpt>
      <trkpt lat="43.3692" lon="5.922">
        <ele>331</ele>
        <time>2022-11-13T10:09:53Z</time>
      </trkpt>
      <trkpt lat="43.3692" lon="5.92201">
        <ele>331.1</ele>
        <time>2022-11-13T10:09:56Z</time>
      </trkpt>
      <trkpt lat="43.36922" lon="5.92199">
        <ele>330.8</ele>
        <time>2022-11-13T10:10:06Z</time>
      </trkpt>
      <trkpt lat="43.36922" lon="5.92199">
        <ele>330.7</ele>
        <time>2022-11-13T10:10:07Z</time>
      </trkpt>
      <trkpt lat="43.36922" lon="5.92199">
        <ele>330.9</ele>
        <time>2022-11-13T10:10:10Z</time>
      </trkpt>
      <trkpt lat="43.36922" lon="5.92199">
        <ele>331</ele>
        <time>2022-11-13T10:10:21Z</time>
      </trkpt>
      <trkpt lat="43.36922" lon="5.92199">
        <ele>330.9</ele>
        <time>2022-11-13T10:10:24Z</time>
      </trkpt>
      <trkpt lat="43.36922" lon="5.92198">
        <ele>331.1</ele>
        <time>2022-11-13T10:10:37Z</time>
      </trkpt>
      <trkpt lat="43.36923" lon="5.92197">
        <ele>331</ele>
        <time>2022-11-13T10:10:40Z</time>
      </trkpt>
      <trkpt lat="43.36923" lon="5.92197">
        <ele>331</ele>
        <time>2022-11-13T10:10:41Z</time>
      </trkpt>
      <trkpt lat="43.36923" lon="5.92196">
        <ele>331.1</ele>
        <time>2022-11-13T10:10:49Z</time>
      </trkpt>
      <trkpt lat="43.36923" lon="5.92196">
        <ele>331.1</ele>
        <time>2022-11-13T10:10:51Z</time>
      </trkpt>
      <trkpt lat="43.36923" lon="5.92195">
        <ele>331.1</ele>
        <time>2022-11-13T10:10:54Z</time>
      </trkpt>
      <trkpt lat="43.36923" lon="5.92195">
        <ele>331</ele>
        <time>2022-11-13T10:10:59Z</time>
      </trkpt>
      <trkpt lat="43.36923" lon="5.92194">
        <ele>331.1</ele>
        <time>2022-11-13T10:11:01Z</time>
      </trkpt>
      <trkpt lat="43.36923" lon="5.92194">
        <ele>331.1</ele>
        <time>2022-11-13T10:11:02Z</time>
      </trkpt>
      <trkpt lat="43.36924" lon="5.92193">
        <ele>330.6</ele>
        <time>2022-11-13T10:11:05Z</time>
      </trkpt>
      <trkpt lat="43.36924" lon="5.92192">
        <ele>330.4</ele>
        <time>2022-11-13T10:11:07Z</time>
      </trkpt>
      <trkpt lat="43.36924" lon="5.92192">
        <ele>330.3</ele>
        <time>2022-11-13T10:11:08Z</time>
      </trkpt>
      <trkpt lat="43.36924" lon="5.92191">
        <ele>330.2</ele>
        <time>2022-11-13T10:11:11Z</time>
      </trkpt>
      <trkpt lat="43.36924" lon="5.9219">
        <ele>329.5</ele>
        <time>2022-11-13T10:11:21Z</time>
      </trkpt>
      <trkpt lat="43.36925" lon="5.9219">
        <ele>329.5</ele>
        <time>2022-11-13T10:11:23Z</time>
      </trkpt>
      <trkpt lat="43.36924" lon="5.9219">
        <ele>329.5</ele>
        <time>2022-11-13T10:11:25Z</time>
      </trkpt>
      <trkpt lat="43.36925" lon="5.92189">
        <ele>329.6</ele>
        <time>2022-11-13T10:11:29Z</time>
      </trkpt>
      <trkpt lat="43.36924" lon="5.92191">
        <ele>330</ele>
        <time>2022-11-13T10:11:33Z</time>
      </trkpt>
      <trkpt lat="43.36924" lon="5.92191">
        <ele>330</ele>
        <time>2022-11-13T10:11:35Z</time>
      </trkpt>
      <trkpt lat="43.36925" lon="5.92185">
        <ele>329.4</ele>
        <time>2022-11-13T10:11:59Z</time>
      </trkpt>
      <trkpt lat="43.36925" lon="5.92184">
        <ele>329.5</ele>
        <time>2022-11-13T10:12:01Z</time>
      </trkpt>
      <trkpt lat="43.36927" lon="5.92185">
        <ele>329.9</ele>
        <time>2022-11-13T10:12:11Z</time>
      </trkpt>
      <trkpt lat="43.36926" lon="5.92185">
        <ele>329.9</ele>
        <time>2022-11-13T10:12:12Z</time>
      </trkpt>
      <trkpt lat="43.36927" lon="5.92184">
        <ele>329.6</ele>
        <time>2022-11-13T10:12:16Z</time>
      </trkpt>
      <trkpt lat="43.36927" lon="5.92184">
        <ele>329.6</ele>
        <time>2022-11-13T10:12:21Z</time>
      </trkpt>
      <trkpt lat="43.36928" lon="5.92184">
        <ele>329.5</ele>
        <time>2022-11-13T10:12:23Z</time>
      </trkpt>
      <trkpt lat="43.36928" lon="5.92184">
        <ele>329.4</ele>
        <time>2022-11-13T10:12:27Z</time>
      </trkpt>
      <trkpt lat="43.36927" lon="5.92185">
        <ele>330.1</ele>
        <time>2022-11-13T10:12:34Z</time>
      </trkpt>
      <trkpt lat="43.36928" lon="5.92185">
        <ele>330.4</ele>
        <time>2022-11-13T10:12:36Z</time>
      </trkpt>
      <trkpt lat="43.36935" lon="5.92186">
        <ele>330.3</ele>
        <time>2022-11-13T10:12:54Z</time>
      </trkpt>
      <trkpt lat="43.36935" lon="5.92186">
        <ele>330.1</ele>
        <time>2022-11-13T10:12:55Z</time>
      </trkpt>
      <trkpt lat="43.36944" lon="5.92182">
        <ele>329.5</ele>
        <time>2022-11-13T10:13:14Z</time>
      </trkpt>
      <trkpt lat="43.36952" lon="5.92177">
        <ele>329.9</ele>
        <time>2022-11-13T10:13:28Z</time>
      </trkpt>
      <trkpt lat="43.36959" lon="5.92173">
        <ele>330.5</ele>
        <time>2022-11-13T10:13:39Z</time>
      </trkpt>
      <trkpt lat="43.36959" lon="5.92172">
        <ele>330.5</ele>
        <time>2022-11-13T10:13:40Z</time>
      </trkpt>
      <trkpt lat="43.36966" lon="5.92165">
        <ele>330.7</ele>
        <time>2022-11-13T10:13:54Z</time>
      </trkpt>
      <trkpt lat="43.36973" lon="5.92155">
        <ele>331</ele>
        <time>2022-11-13T10:14:04Z</time>
      </trkpt>
      <trkpt lat="43.36979" lon="5.92146">
        <ele>332</ele>
        <time>2022-11-13T10:14:15Z</time>
      </trkpt>
      <trkpt lat="43.36984" lon="5.92135">
        <ele>332</ele>
        <time>2022-11-13T10:14:31Z</time>
      </trkpt>
      <trkpt lat="43.36984" lon="5.92133">
        <ele>331.9</ele>
        <time>2022-11-13T10:14:34Z</time>
      </trkpt>
      <trkpt lat="43.36984" lon="5.92134">
        <ele>332</ele>
        <time>2022-11-13T10:14:35Z</time>
      </trkpt>
      <trkpt lat="43.36985" lon="5.92134">
        <ele>331.9</ele>
        <time>2022-11-13T10:14:39Z</time>
      </trkpt>
      <trkpt lat="43.36985" lon="5.92134">
        <ele>331.9</ele>
        <time>2022-11-13T10:14:40Z</time>
      </trkpt>
      <trkpt lat="43.36985" lon="5.92133">
        <ele>331.5</ele>
        <time>2022-11-13T10:14:42Z</time>
      </trkpt>
      <trkpt lat="43.36985" lon="5.92133">
        <ele>331.4</ele>
        <time>2022-11-13T10:14:43Z</time>
      </trkpt>
      <trkpt lat="43.36985" lon="5.92131">
        <ele>331.2</ele>
        <time>2022-11-13T10:14:49Z</time>
      </trkpt>
      <trkpt lat="43.36985" lon="5.92131">
        <ele>331.3</ele>
        <time>2022-11-13T10:14:50Z</time>
      </trkpt>
      <trkpt lat="43.36987" lon="5.92128">
        <ele>330.6</ele>
        <time>2022-11-13T10:14:54Z</time>
      </trkpt>
      <trkpt lat="43.36987" lon="5.92128">
        <ele>330.4</ele>
        <time>2022-11-13T10:14:56Z</time>
      </trkpt>
      <trkpt lat="43.36986" lon="5.92128">
        <ele>330.2</ele>
        <time>2022-11-13T10:15:00Z</time>
      </trkpt>
      <trkpt lat="43.36986" lon="5.92128">
        <ele>330.2</ele>
        <time>2022-11-13T10:15:05Z</time>
      </trkpt>
      <trkpt lat="43.36986" lon="5.92128">
        <ele>330.2</ele>
        <time>2022-11-13T10:15:06Z</time>
      </trkpt>
      <trkpt lat="43.36987" lon="5.92128">
        <ele>330.1</ele>
        <time>2022-11-13T10:15:10Z</time>
      </trkpt>
      <trkpt lat="43.36987" lon="5.92128">
        <ele>330.1</ele>
        <time>2022-11-13T10:15:11Z</time>
      </trkpt>
      <trkpt lat="43.36986" lon="5.92127">
        <ele>330.1</ele>
        <time>2022-11-13T10:15:14Z</time>
      </trkpt>
      <trkpt lat="43.36986" lon="5.92127">
        <ele>330.1</ele>
        <time>2022-11-13T10:15:15Z</time>
      </trkpt>
      <trkpt lat="43.36987" lon="5.92127">
        <ele>330.1</ele>
        <time>2022-11-13T10:15:17Z</time>
      </trkpt>
      <trkpt lat="43.36987" lon="5.92127">
        <ele>330.1</ele>
        <time>2022-11-13T10:15:18Z</time>
      </trkpt>
      <trkpt lat="43.36987" lon="5.92127">
        <ele>329.9</ele>
        <time>2022-11-13T10:15:48Z</time>
      </trkpt>
      <trkpt lat="43.36987" lon="5.92126">
        <ele>329.7</ele>
        <time>2022-11-13T10:15:50Z</time>
      </trkpt>
      <trkpt lat="43.36988" lon="5.92126">
        <ele>329.7</ele>
        <time>2022-11-13T10:15:51Z</time>
      </trkpt>
      <trkpt lat="43.36994" lon="5.92123">
        <ele>329.9</ele>
        <time>2022-11-13T10:16:01Z</time>
      </trkpt>
      <trkpt lat="43.36994" lon="5.92123">
        <ele>329.9</ele>
        <time>2022-11-13T10:16:02Z</time>
      </trkpt>
      <trkpt lat="43.36995" lon="5.92121">
        <ele>329</ele>
        <time>2022-11-13T10:16:12Z</time>
      </trkpt>
      <trkpt lat="43.36996" lon="5.92121">
        <ele>328.7</ele>
        <time>2022-11-13T10:16:13Z</time>
      </trkpt>
      <trkpt lat="43.36995" lon="5.92123">
        <ele>327.5</ele>
        <time>2022-11-13T10:16:17Z</time>
      </trkpt>
      <trkpt lat="43.36996" lon="5.92123">
        <ele>327.2</ele>
        <time>2022-11-13T10:16:18Z</time>
      </trkpt>
      <trkpt lat="43.37003" lon="5.92116">
        <ele>324.2</ele>
        <time>2022-11-13T10:16:31Z</time>
      </trkpt>
      <trkpt lat="43.37003" lon="5.92115">
        <ele>323.8</ele>
        <time>2022-11-13T10:16:33Z</time>
      </trkpt>
      <trkpt lat="43.37012" lon="5.92108">
        <ele>322</ele>
        <time>2022-11-13T10:16:48Z</time>
      </trkpt>
      <trkpt lat="43.3702" lon="5.92102">
        <ele>321.6</ele>
        <time>2022-11-13T10:17:05Z</time>
      </trkpt>
      <trkpt lat="43.37023" lon="5.92099">
        <ele>322.3</ele>
        <time>2022-11-13T10:17:15Z</time>
      </trkpt>
      <trkpt lat="43.37023" lon="5.92099">
        <ele>322.3</ele>
        <time>2022-11-13T10:17:16Z</time>
      </trkpt>
      <trkpt lat="43.37024" lon="5.92098">
        <ele>322.6</ele>
        <time>2022-11-13T10:17:18Z</time>
      </trkpt>
      <trkpt lat="43.37024" lon="5.92098">
        <ele>322.7</ele>
        <time>2022-11-13T10:17:19Z</time>
      </trkpt>
      <trkpt lat="43.37031" lon="5.92091">
        <ele>322.3</ele>
        <time>2022-11-13T10:17:33Z</time>
      </trkpt>
      <trkpt lat="43.37038" lon="5.92082">
        <ele>323.2</ele>
        <time>2022-11-13T10:17:48Z</time>
      </trkpt>
      <trkpt lat="43.37043" lon="5.92074">
        <ele>324.1</ele>
        <time>2022-11-13T10:18:05Z</time>
      </trkpt>
      <trkpt lat="43.37043" lon="5.92074">
        <ele>324</ele>
        <time>2022-11-13T10:18:11Z</time>
      </trkpt>
      <trkpt lat="43.37043" lon="5.92074">
        <ele>324.1</ele>
        <time>2022-11-13T10:18:13Z</time>
      </trkpt>
      <trkpt lat="43.37043" lon="5.92075">
        <ele>324.2</ele>
        <time>2022-11-13T10:18:15Z</time>
      </trkpt>
      <trkpt lat="43.37047" lon="5.92072">
        <ele>323.7</ele>
        <time>2022-11-13T10:18:24Z</time>
      </trkpt>
      <trkpt lat="43.37047" lon="5.92071">
        <ele>323.8</ele>
        <time>2022-11-13T10:18:25Z</time>
      </trkpt>
      <trkpt lat="43.37049" lon="5.92069">
        <ele>323.3</ele>
        <time>2022-11-13T10:18:32Z</time>
      </trkpt>
      <trkpt lat="43.37049" lon="5.92068">
        <ele>323.2</ele>
        <time>2022-11-13T10:18:33Z</time>
      </trkpt>
      <trkpt lat="43.37052" lon="5.92061">
        <ele>323.1</ele>
        <time>2022-11-13T10:18:46Z</time>
      </trkpt>
      <trkpt lat="43.37053" lon="5.92061">
        <ele>323.1</ele>
        <time>2022-11-13T10:18:48Z</time>
      </trkpt>
      <trkpt lat="43.37052" lon="5.9206">
        <ele>322.9</ele>
        <time>2022-11-13T10:18:51Z</time>
      </trkpt>
      <trkpt lat="43.37052" lon="5.9206">
        <ele>322.9</ele>
        <time>2022-11-13T10:19:02Z</time>
      </trkpt>
      <trkpt lat="43.37052" lon="5.9206">
        <ele>322.9</ele>
        <time>2022-11-13T10:19:03Z</time>
      </trkpt>
      <trkpt lat="43.37053" lon="5.9206">
        <ele>322.9</ele>
        <time>2022-11-13T10:19:04Z</time>
      </trkpt>
      <trkpt lat="43.37054" lon="5.92058">
        <ele>322.2</ele>
        <time>2022-11-13T10:19:09Z</time>
      </trkpt>
      <trkpt lat="43.37054" lon="5.92057">
        <ele>322.2</ele>
        <time>2022-11-13T10:19:13Z</time>
      </trkpt>
      <trkpt lat="43.37055" lon="5.92055">
        <ele>321.6</ele>
        <time>2022-11-13T10:19:21Z</time>
      </trkpt>
      <trkpt lat="43.37054" lon="5.92055">
        <ele>321.7</ele>
        <time>2022-11-13T10:19:25Z</time>
      </trkpt>
      <trkpt lat="43.37054" lon="5.92054">
        <ele>321.7</ele>
        <time>2022-11-13T10:19:27Z</time>
      </trkpt>
      <trkpt lat="43.37054" lon="5.92055">
        <ele>321.6</ele>
        <time>2022-11-13T10:19:28Z</time>
      </trkpt>
      <trkpt lat="43.37056" lon="5.92058">
        <ele>321.6</ele>
        <time>2022-11-13T10:19:32Z</time>
      </trkpt>
      <trkpt lat="43.37056" lon="5.92058">
        <ele>321.6</ele>
        <time>2022-11-13T10:19:34Z</time>
      </trkpt>
      <trkpt lat="43.37056" lon="5.92059">
        <ele>321.7</ele>
        <time>2022-11-13T10:19:39Z</time>
      </trkpt>
      <trkpt lat="43.37055" lon="5.92059">
        <ele>321.7</ele>
        <time>2022-11-13T10:19:40Z</time>
      </trkpt>
      <trkpt lat="43.37055" lon="5.92059">
        <ele>321.7</ele>
        <time>2022-11-13T10:19:41Z</time>
      </trkpt>
      <trkpt lat="43.37055" lon="5.92059">
        <ele>321.7</ele>
        <time>2022-11-13T10:19:44Z</time>
      </trkpt>
      <trkpt lat="43.37055" lon="5.9206">
        <ele>321.7</ele>
        <time>2022-11-13T10:19:47Z</time>
      </trkpt>
      <trkpt lat="43.37055" lon="5.9206">
        <ele>321.6</ele>
        <time>2022-11-13T10:19:48Z</time>
      </trkpt>
      <trkpt lat="43.37055" lon="5.92061">
        <ele>321.7</ele>
        <time>2022-11-13T10:19:52Z</time>
      </trkpt>
      <trkpt lat="43.37056" lon="5.92061">
        <ele>321.7</ele>
        <time>2022-11-13T10:19:57Z</time>
      </trkpt>
      <trkpt lat="43.37056" lon="5.92061">
        <ele>321.7</ele>
        <time>2022-11-13T10:20:00Z</time>
      </trkpt>
      <trkpt lat="43.37056" lon="5.92061">
        <ele>321.4</ele>
        <time>2022-11-13T10:20:07Z</time>
      </trkpt>
      <trkpt lat="43.37057" lon="5.92061">
        <ele>321.6</ele>
        <time>2022-11-13T10:20:09Z</time>
      </trkpt>
      <trkpt lat="43.37057" lon="5.92061">
        <ele>321.6</ele>
        <time>2022-11-13T10:20:10Z</time>
      </trkpt>
      <trkpt lat="43.37059" lon="5.9206">
        <ele>321.2</ele>
        <time>2022-11-13T10:20:13Z</time>
      </trkpt>
      <trkpt lat="43.37059" lon="5.9206">
        <ele>321.1</ele>
        <time>2022-11-13T10:20:17Z</time>
      </trkpt>
      <trkpt lat="43.37058" lon="5.92061">
        <ele>321</ele>
        <time>2022-11-13T10:20:21Z</time>
      </trkpt>
      <trkpt lat="43.37059" lon="5.9206">
        <ele>321</ele>
        <time>2022-11-13T10:20:22Z</time>
      </trkpt>
      <trkpt lat="43.37059" lon="5.92055">
        <ele>320.5</ele>
        <time>2022-11-13T10:20:34Z</time>
      </trkpt>
      <trkpt lat="43.37059" lon="5.92055">
        <ele>320.5</ele>
        <time>2022-11-13T10:20:38Z</time>
      </trkpt>
      <trkpt lat="43.37059" lon="5.92055">
        <ele>319.7</ele>
        <time>2022-11-13T10:20:43Z</time>
      </trkpt>
      <trkpt lat="43.37059" lon="5.92055">
        <ele>319.6</ele>
        <time>2022-11-13T10:20:45Z</time>
      </trkpt>
      <trkpt lat="43.37062" lon="5.92054">
        <ele>318.9</ele>
        <time>2022-11-13T10:20:56Z</time>
      </trkpt>
      <trkpt lat="43.37062" lon="5.92054">
        <ele>318.9</ele>
        <time>2022-11-13T10:20:57Z</time>
      </trkpt>
      <trkpt lat="43.37063" lon="5.92054">
        <ele>319</ele>
        <time>2022-11-13T10:21:04Z</time>
      </trkpt>
      <trkpt lat="43.37064" lon="5.92053">
        <ele>318.8</ele>
        <time>2022-11-13T10:21:06Z</time>
      </trkpt>
      <trkpt lat="43.37065" lon="5.92053">
        <ele>319</ele>
        <time>2022-11-13T10:21:10Z</time>
      </trkpt>
      <trkpt lat="43.37066" lon="5.92053">
        <ele>319.1</ele>
        <time>2022-11-13T10:21:11Z</time>
      </trkpt>
      <trkpt lat="43.37066" lon="5.9205">
        <ele>319</ele>
        <time>2022-11-13T10:21:21Z</time>
      </trkpt>
      <trkpt lat="43.37066" lon="5.9205">
        <ele>319</ele>
        <time>2022-11-13T10:21:22Z</time>
      </trkpt>
      <trkpt lat="43.37066" lon="5.9205">
        <ele>318.9</ele>
        <time>2022-11-13T10:21:24Z</time>
      </trkpt>
      <trkpt lat="43.37066" lon="5.9205">
        <ele>318.9</ele>
        <time>2022-11-13T10:21:25Z</time>
      </trkpt>
      <trkpt lat="43.37066" lon="5.9205">
        <ele>319</ele>
        <time>2022-11-13T10:21:26Z</time>
      </trkpt>
      <trkpt lat="43.37066" lon="5.9205">
        <ele>319.2</ele>
        <time>2022-11-13T10:21:28Z</time>
      </trkpt>
      <trkpt lat="43.37068" lon="5.92049">
        <ele>319.9</ele>
        <time>2022-11-13T10:21:40Z</time>
      </trkpt>
      <trkpt lat="43.37068" lon="5.92049">
        <ele>320</ele>
        <time>2022-11-13T10:21:41Z</time>
      </trkpt>
      <trkpt lat="43.37068" lon="5.92049">
        <ele>320.1</ele>
        <time>2022-11-13T10:21:42Z</time>
      </trkpt>
      <trkpt lat="43.37068" lon="5.92049">
        <ele>320.1</ele>
        <time>2022-11-13T10:21:43Z</time>
      </trkpt>
      <trkpt lat="43.37066" lon="5.92049">
        <ele>320.3</ele>
        <time>2022-11-13T10:21:50Z</time>
      </trkpt>
      <trkpt lat="43.37066" lon="5.92049">
        <ele>320.4</ele>
        <time>2022-11-13T10:21:57Z</time>
      </trkpt>
      <trkpt lat="43.37066" lon="5.92049">
        <ele>320.4</ele>
        <time>2022-11-13T10:21:59Z</time>
      </trkpt>
      <trkpt lat="43.37066" lon="5.92048">
        <ele>320.5</ele>
        <time>2022-11-13T10:22:04Z</time>
      </trkpt>
      <trkpt lat="43.37066" lon="5.92048">
        <ele>320.5</ele>
        <time>2022-11-13T10:22:08Z</time>
      </trkpt>
      <trkpt lat="43.37066" lon="5.92048">
        <ele>320.5</ele>
        <time>2022-11-13T10:22:12Z</time>
      </trkpt>
      <trkpt lat="43.37066" lon="5.92048">
        <ele>321.9</ele>
        <time>2022-11-13T10:22:21Z</time>
      </trkpt>
      <trkpt lat="43.37067" lon="5.92048">
        <ele>322.1</ele>
        <time>2022-11-13T10:22:22Z</time>
      </trkpt>
      <trkpt lat="43.37067" lon="5.92048">
        <ele>322.1</ele>
        <time>2022-11-13T10:22:24Z</time>
      </trkpt>
      <trkpt lat="43.37067" lon="5.92049">
        <ele>321.7</ele>
        <time>2022-11-13T10:22:26Z</time>
      </trkpt>
      <trkpt lat="43.3707" lon="5.92046">
        <ele>321.1</ele>
        <time>2022-11-13T10:22:35Z</time>
      </trkpt>
      <trkpt lat="43.3707" lon="5.92046">
        <ele>321.1</ele>
        <time>2022-11-13T10:22:36Z</time>
      </trkpt>
      <trkpt lat="43.37072" lon="5.92044">
        <ele>321.1</ele>
        <time>2022-11-13T10:22:43Z</time>
      </trkpt>
      <trkpt lat="43.37072" lon="5.92044">
        <ele>320.8</ele>
        <time>2022-11-13T10:22:44Z</time>
      </trkpt>
      <trkpt lat="43.37073" lon="5.92041">
        <ele>319.6</ele>
        <time>2022-11-13T10:22:53Z</time>
      </trkpt>
      <trkpt lat="43.37072" lon="5.92041">
        <ele>319.5</ele>
        <time>2022-11-13T10:22:54Z</time>
      </trkpt>
      <trkpt lat="43.37072" lon="5.9204">
        <ele>319</ele>
        <time>2022-11-13T10:22:57Z</time>
      </trkpt>
      <trkpt lat="43.37072" lon="5.9204">
        <ele>318.8</ele>
        <time>2022-11-13T10:22:58Z</time>
      </trkpt>
      <trkpt lat="43.37072" lon="5.9204">
        <ele>318.7</ele>
        <time>2022-11-13T10:23:00Z</time>
      </trkpt>
      <trkpt lat="43.37072" lon="5.9204">
        <ele>318.6</ele>
        <time>2022-11-13T10:23:03Z</time>
      </trkpt>
      <trkpt lat="43.37072" lon="5.9204">
        <ele>318.8</ele>
        <time>2022-11-13T10:23:05Z</time>
      </trkpt>
      <trkpt lat="43.37073" lon="5.9204">
        <ele>318.7</ele>
        <time>2022-11-13T10:23:06Z</time>
      </trkpt>
      <trkpt lat="43.37073" lon="5.9204">
        <ele>318.6</ele>
        <time>2022-11-13T10:23:08Z</time>
      </trkpt>
      <trkpt lat="43.37073" lon="5.92039">
        <ele>318.4</ele>
        <time>2022-11-13T10:23:11Z</time>
      </trkpt>
      <trkpt lat="43.37073" lon="5.92039">
        <ele>318.2</ele>
        <time>2022-11-13T10:23:15Z</time>
      </trkpt>
      <trkpt lat="43.37072" lon="5.92039">
        <ele>318</ele>
        <time>2022-11-13T10:23:17Z</time>
      </trkpt>
      <trkpt lat="43.37072" lon="5.92039">
        <ele>318</ele>
        <time>2022-11-13T10:23:18Z</time>
      </trkpt>
      <trkpt lat="43.37073" lon="5.92038">
        <ele>317.9</ele>
        <time>2022-11-13T10:23:20Z</time>
      </trkpt>
      <trkpt lat="43.37081" lon="5.92032">
        <ele>318.2</ele>
        <time>2022-11-13T10:23:36Z</time>
      </trkpt>
      <trkpt lat="43.37088" lon="5.92025">
        <ele>318.4</ele>
        <time>2022-11-13T10:23:50Z</time>
      </trkpt>
      <trkpt lat="43.37094" lon="5.92014">
        <ele>317.9</ele>
        <time>2022-11-13T10:24:00Z</time>
      </trkpt>
      <trkpt lat="43.371" lon="5.92003">
        <ele>317.6</ele>
        <time>2022-11-13T10:24:08Z</time>
      </trkpt>
      <trkpt lat="43.37104" lon="5.91992">
        <ele>317.9</ele>
        <time>2022-11-13T10:24:19Z</time>
      </trkpt>
      <trkpt lat="43.37104" lon="5.91992">
        <ele>317.9</ele>
        <time>2022-11-13T10:24:21Z</time>
      </trkpt>
      <trkpt lat="43.37104" lon="5.91992">
        <ele>317.9</ele>
        <time>2022-11-13T10:24:23Z</time>
      </trkpt>
      <trkpt lat="43.37104" lon="5.91991">
        <ele>317.7</ele>
        <time>2022-11-13T10:24:29Z</time>
      </trkpt>
      <trkpt lat="43.37103" lon="5.91992">
        <ele>317.7</ele>
        <time>2022-11-13T10:24:38Z</time>
      </trkpt>
      <trkpt lat="43.37104" lon="5.91991">
        <ele>317.8</ele>
        <time>2022-11-13T10:24:39Z</time>
      </trkpt>
      <trkpt lat="43.37112" lon="5.91984">
        <ele>317.7</ele>
        <time>2022-11-13T10:24:53Z</time>
      </trkpt>
      <trkpt lat="43.37118" lon="5.91976">
        <ele>318</ele>
        <time>2022-11-13T10:25:11Z</time>
      </trkpt>
      <trkpt lat="43.37118" lon="5.91976">
        <ele>318.1</ele>
        <time>2022-11-13T10:25:15Z</time>
      </trkpt>
      <trkpt lat="43.37118" lon="5.91976">
        <ele>318.1</ele>
        <time>2022-11-13T10:25:16Z</time>
      </trkpt>
      <trkpt lat="43.37117" lon="5.91976">
        <ele>318.2</ele>
        <time>2022-11-13T10:25:17Z</time>
      </trkpt>
      <trkpt lat="43.37117" lon="5.91976">
        <ele>318.2</ele>
        <time>2022-11-13T10:25:18Z</time>
      </trkpt>
      <trkpt lat="43.37118" lon="5.91975">
        <ele>318.3</ele>
        <time>2022-11-13T10:25:19Z</time>
      </trkpt>
      <trkpt lat="43.37126" lon="5.9197">
        <ele>318.5</ele>
        <time>2022-11-13T10:25:31Z</time>
      </trkpt>
      <trkpt lat="43.37135" lon="5.91966">
        <ele>317.9</ele>
        <time>2022-11-13T10:25:43Z</time>
      </trkpt>
      <trkpt lat="43.37143" lon="5.9196">
        <ele>317.3</ele>
        <time>2022-11-13T10:25:54Z</time>
      </trkpt>
      <trkpt lat="43.37143" lon="5.9196">
        <ele>317.2</ele>
        <time>2022-11-13T10:26:00Z</time>
      </trkpt>
      <trkpt lat="43.37144" lon="5.9196">
        <ele>316.8</ele>
        <time>2022-11-13T10:26:04Z</time>
      </trkpt>
      <trkpt lat="43.37144" lon="5.9196">
        <ele>316.8</ele>
        <time>2022-11-13T10:26:05Z</time>
      </trkpt>
      <trkpt lat="43.37152" lon="5.91953">
        <ele>317.4</ele>
        <time>2022-11-13T10:26:21Z</time>
      </trkpt>
      <trkpt lat="43.37157" lon="5.91947">
        <ele>317.4</ele>
        <time>2022-11-13T10:26:35Z</time>
      </trkpt>
      <trkpt lat="43.37157" lon="5.91946">
        <ele>317.3</ele>
        <time>2022-11-13T10:26:36Z</time>
      </trkpt>
      <trkpt lat="43.37164" lon="5.91938">
        <ele>315.4</ele>
        <time>2022-11-13T10:26:57Z</time>
      </trkpt>
      <trkpt lat="43.37171" lon="5.91934">
        <ele>315.1</ele>
        <time>2022-11-13T10:27:16Z</time>
      </trkpt>
      <trkpt lat="43.37171" lon="5.91934">
        <ele>315</ele>
        <time>2022-11-13T10:27:17Z</time>
      </trkpt>
      <trkpt lat="43.37177" lon="5.9193">
        <ele>314.5</ele>
        <time>2022-11-13T10:27:33Z</time>
      </trkpt>
      <trkpt lat="43.37177" lon="5.9193">
        <ele>314.4</ele>
        <time>2022-11-13T10:27:34Z</time>
      </trkpt>
      <trkpt lat="43.37178" lon="5.9193">
        <ele>314.2</ele>
        <time>2022-11-13T10:27:36Z</time>
      </trkpt>
      <trkpt lat="43.37178" lon="5.9193">
        <ele>314.1</ele>
        <time>2022-11-13T10:27:38Z</time>
      </trkpt>
      <trkpt lat="43.37187" lon="5.9193">
        <ele>314.2</ele>
        <time>2022-11-13T10:27:55Z</time>
      </trkpt>
      <trkpt lat="43.37197" lon="5.91934">
        <ele>317.5</ele>
        <time>2022-11-13T10:28:16Z</time>
      </trkpt>
      <trkpt lat="43.37201" lon="5.91928">
        <ele>316.1</ele>
        <time>2022-11-13T10:28:28Z</time>
      </trkpt>
      <trkpt lat="43.37201" lon="5.91928">
        <ele>315.9</ele>
        <time>2022-11-13T10:28:29Z</time>
      </trkpt>
      <trkpt lat="43.37201" lon="5.91928">
        <ele>315.8</ele>
        <time>2022-11-13T10:28:30Z</time>
      </trkpt>
      <trkpt lat="43.37201" lon="5.91928">
        <ele>315.8</ele>
        <time>2022-11-13T10:28:31Z</time>
      </trkpt>
      <trkpt lat="43.3721" lon="5.91923">
        <ele>316.4</ele>
        <time>2022-11-13T10:28:42Z</time>
      </trkpt>
      <trkpt lat="43.3722" lon="5.91923">
        <ele>315.6</ele>
        <time>2022-11-13T10:28:56Z</time>
      </trkpt>
      <trkpt lat="43.37228" lon="5.91924">
        <ele>316.4</ele>
        <time>2022-11-13T10:29:11Z</time>
      </trkpt>
      <trkpt lat="43.37227" lon="5.91924">
        <ele>316.3</ele>
        <time>2022-11-13T10:29:12Z</time>
      </trkpt>
      <trkpt lat="43.37228" lon="5.91922">
        <ele>315.4</ele>
        <time>2022-11-13T10:29:21Z</time>
      </trkpt>
      <trkpt lat="43.37228" lon="5.91921">
        <ele>315.3</ele>
        <time>2022-11-13T10:29:23Z</time>
      </trkpt>
      <trkpt lat="43.37228" lon="5.91921">
        <ele>314.9</ele>
        <time>2022-11-13T10:29:26Z</time>
      </trkpt>
      <trkpt lat="43.37228" lon="5.91921">
        <ele>315</ele>
        <time>2022-11-13T10:29:27Z</time>
      </trkpt>
      <trkpt lat="43.3723" lon="5.91923">
        <ele>314.9</ele>
        <time>2022-11-13T10:29:32Z</time>
      </trkpt>
      <trkpt lat="43.3723" lon="5.91923">
        <ele>315.1</ele>
        <time>2022-11-13T10:29:36Z</time>
      </trkpt>
      <trkpt lat="43.37231" lon="5.91924">
        <ele>315.1</ele>
        <time>2022-11-13T10:29:40Z</time>
      </trkpt>
      <trkpt lat="43.37232" lon="5.91925">
        <ele>315.1</ele>
        <time>2022-11-13T10:29:41Z</time>
      </trkpt>
      <trkpt lat="43.37232" lon="5.91925">
        <ele>315.1</ele>
        <time>2022-11-13T10:29:42Z</time>
      </trkpt>
      <trkpt lat="43.37232" lon="5.91924">
        <ele>315.1</ele>
        <time>2022-11-13T10:29:45Z</time>
      </trkpt>
      <trkpt lat="43.37233" lon="5.91924">
        <ele>315.2</ele>
        <time>2022-11-13T10:29:49Z</time>
      </trkpt>
      <trkpt lat="43.37234" lon="5.91924">
        <ele>315.2</ele>
        <time>2022-11-13T10:29:53Z</time>
      </trkpt>
      <trkpt lat="43.37236" lon="5.91923">
        <ele>315.7</ele>
        <time>2022-11-13T10:29:59Z</time>
      </trkpt>
      <trkpt lat="43.37236" lon="5.91923">
        <ele>315.6</ele>
        <time>2022-11-13T10:30:00Z</time>
      </trkpt>
      <trkpt lat="43.37236" lon="5.91924">
        <ele>315.6</ele>
        <time>2022-11-13T10:30:01Z</time>
      </trkpt>
      <trkpt lat="43.37236" lon="5.91924">
        <ele>315.6</ele>
        <time>2022-11-13T10:30:06Z</time>
      </trkpt>
      <trkpt lat="43.37239" lon="5.91924">
        <ele>315.1</ele>
        <time>2022-11-13T10:30:19Z</time>
      </trkpt>
      <trkpt lat="43.37239" lon="5.91925">
        <ele>315.1</ele>
        <time>2022-11-13T10:30:20Z</time>
      </trkpt>
      <trkpt lat="43.37245" lon="5.91925">
        <ele>316.7</ele>
        <time>2022-11-13T10:30:38Z</time>
      </trkpt>
      <trkpt lat="43.37246" lon="5.91925">
        <ele>316.8</ele>
        <time>2022-11-13T10:30:39Z</time>
      </trkpt>
      <trkpt lat="43.37247" lon="5.91925">
        <ele>317.3</ele>
        <time>2022-11-13T10:30:45Z</time>
      </trkpt>
      <trkpt lat="43.37247" lon="5.91925">
        <ele>317.3</ele>
        <time>2022-11-13T10:30:48Z</time>
      </trkpt>
      <trkpt lat="43.37247" lon="5.91926">
        <ele>317.4</ele>
        <time>2022-11-13T10:30:51Z</time>
      </trkpt>
      <trkpt lat="43.37247" lon="5.91926">
        <ele>317.4</ele>
        <time>2022-11-13T10:30:53Z</time>
      </trkpt>
      <trkpt lat="43.37248" lon="5.91926">
        <ele>318.2</ele>
        <time>2022-11-13T10:30:58Z</time>
      </trkpt>
      <trkpt lat="43.37248" lon="5.91927">
        <ele>318.2</ele>
        <time>2022-11-13T10:31:03Z</time>
      </trkpt>
      <trkpt lat="43.37247" lon="5.91928">
        <ele>318.3</ele>
        <time>2022-11-13T10:31:06Z</time>
      </trkpt>
      <trkpt lat="43.37247" lon="5.91927">
        <ele>318.5</ele>
        <time>2022-11-13T10:31:14Z</time>
      </trkpt>
      <trkpt lat="43.37247" lon="5.91928">
        <ele>318.6</ele>
        <time>2022-11-13T10:31:16Z</time>
      </trkpt>
      <trkpt lat="43.37247" lon="5.91928">
        <ele>318.6</ele>
        <time>2022-11-13T10:31:23Z</time>
      </trkpt>
      <trkpt lat="43.37247" lon="5.91927">
        <ele>318.6</ele>
        <time>2022-11-13T10:31:24Z</time>
      </trkpt>
      <trkpt lat="43.37247" lon="5.91928">
        <ele>318.6</ele>
        <time>2022-11-13T10:31:26Z</time>
      </trkpt>
      <trkpt lat="43.37257" lon="5.91926">
        <ele>319.9</ele>
        <time>2022-11-13T10:31:45Z</time>
      </trkpt>
      <trkpt lat="43.37267" lon="5.91921">
        <ele>321.2</ele>
        <time>2022-11-13T10:31:57Z</time>
      </trkpt>
      <trkpt lat="43.37267" lon="5.9192">
        <ele>321.4</ele>
        <time>2022-11-13T10:32:00Z</time>
      </trkpt>
      <trkpt lat="43.37267" lon="5.91921">
        <ele>321.5</ele>
        <time>2022-11-13T10:32:01Z</time>
      </trkpt>
      <trkpt lat="43.37268" lon="5.91912">
        <ele>320.4</ele>
        <time>2022-11-13T10:32:16Z</time>
      </trkpt>
      <trkpt lat="43.37269" lon="5.91912">
        <ele>320.4</ele>
        <time>2022-11-13T10:32:20Z</time>
      </trkpt>
      <trkpt lat="43.3727" lon="5.9191">
        <ele>319.2</ele>
        <time>2022-11-13T10:32:26Z</time>
      </trkpt>
      <trkpt lat="43.3727" lon="5.9191">
        <ele>319.1</ele>
        <time>2022-11-13T10:32:32Z</time>
      </trkpt>
      <trkpt lat="43.37271" lon="5.91911">
        <ele>318.8</ele>
        <time>2022-11-13T10:32:35Z</time>
      </trkpt>
      <trkpt lat="43.37271" lon="5.91911">
        <ele>318.7</ele>
        <time>2022-11-13T10:32:36Z</time>
      </trkpt>
      <trkpt lat="43.37271" lon="5.9191">
        <ele>318.3</ele>
        <time>2022-11-13T10:32:39Z</time>
      </trkpt>
      <trkpt lat="43.37271" lon="5.91909">
        <ele>318.2</ele>
        <time>2022-11-13T10:32:42Z</time>
      </trkpt>
      <trkpt lat="43.37271" lon="5.91909">
        <ele>318.3</ele>
        <time>2022-11-13T10:32:43Z</time>
      </trkpt>
      <trkpt lat="43.37272" lon="5.91909">
        <ele>318.3</ele>
        <time>2022-11-13T10:32:44Z</time>
      </trkpt>
      <trkpt lat="43.37272" lon="5.91909">
        <ele>318.3</ele>
        <time>2022-11-13T10:32:45Z</time>
      </trkpt>
      <trkpt lat="43.37272" lon="5.9191">
        <ele>318.4</ele>
        <time>2022-11-13T10:32:46Z</time>
      </trkpt>
      <trkpt lat="43.37273" lon="5.91911">
        <ele>318.8</ele>
        <time>2022-11-13T10:32:52Z</time>
      </trkpt>
      <trkpt lat="43.37273" lon="5.91911">
        <ele>318.8</ele>
        <time>2022-11-13T10:32:53Z</time>
      </trkpt>
      <trkpt lat="43.37273" lon="5.91911">
        <ele>318.8</ele>
        <time>2022-11-13T10:32:54Z</time>
      </trkpt>
      <trkpt lat="43.37273" lon="5.91911">
        <ele>319</ele>
        <time>2022-11-13T10:32:59Z</time>
      </trkpt>
      <trkpt lat="43.37272" lon="5.91912">
        <ele>319.3</ele>
        <time>2022-11-13T10:33:04Z</time>
      </trkpt>
      <trkpt lat="43.37273" lon="5.91912">
        <ele>319.4</ele>
        <time>2022-11-13T10:33:07Z</time>
      </trkpt>
      <trkpt lat="43.37273" lon="5.91912">
        <ele>319.4</ele>
        <time>2022-11-13T10:33:08Z</time>
      </trkpt>
      <trkpt lat="43.37273" lon="5.91912">
        <ele>319.6</ele>
        <time>2022-11-13T10:33:10Z</time>
      </trkpt>
      <trkpt lat="43.37273" lon="5.91912">
        <ele>319.7</ele>
        <time>2022-11-13T10:33:11Z</time>
      </trkpt>
      <trkpt lat="43.37274" lon="5.91912">
        <ele>319.7</ele>
        <time>2022-11-13T10:33:13Z</time>
      </trkpt>
      <trkpt lat="43.37275" lon="5.9191">
        <ele>319.5</ele>
        <time>2022-11-13T10:33:20Z</time>
      </trkpt>
      <trkpt lat="43.37275" lon="5.9191">
        <ele>319.5</ele>
        <time>2022-11-13T10:33:26Z</time>
      </trkpt>
      <trkpt lat="43.37275" lon="5.9191">
        <ele>319.4</ele>
        <time>2022-11-13T10:33:27Z</time>
      </trkpt>
      <trkpt lat="43.37275" lon="5.9191">
        <ele>319.5</ele>
        <time>2022-11-13T10:33:28Z</time>
      </trkpt>
      <trkpt lat="43.37275" lon="5.9191">
        <ele>319.5</ele>
        <time>2022-11-13T10:33:30Z</time>
      </trkpt>
      <trkpt lat="43.37276" lon="5.9191">
        <ele>319.6</ele>
        <time>2022-11-13T10:33:33Z</time>
      </trkpt>
      <trkpt lat="43.37276" lon="5.9191">
        <ele>319.7</ele>
        <time>2022-11-13T10:33:34Z</time>
      </trkpt>
      <trkpt lat="43.37276" lon="5.9191">
        <ele>319.7</ele>
        <time>2022-11-13T10:33:40Z</time>
      </trkpt>
      <trkpt lat="43.37277" lon="5.9191">
        <ele>319.8</ele>
        <time>2022-11-13T10:33:45Z</time>
      </trkpt>
      <trkpt lat="43.37277" lon="5.9191">
        <ele>319.8</ele>
        <time>2022-11-13T10:33:46Z</time>
      </trkpt>
      <trkpt lat="43.37286" lon="5.91914">
        <ele>319.7</ele>
        <time>2022-11-13T10:33:58Z</time>
      </trkpt>
      <trkpt lat="43.37295" lon="5.91911">
        <ele>319.9</ele>
        <time>2022-11-13T10:34:09Z</time>
      </trkpt>
      <trkpt lat="43.373" lon="5.91904">
        <ele>319.6</ele>
        <time>2022-11-13T10:34:19Z</time>
      </trkpt>
      <trkpt lat="43.373" lon="5.91904">
        <ele>319.5</ele>
        <time>2022-11-13T10:34:22Z</time>
      </trkpt>
      <trkpt lat="43.37308" lon="5.91898">
        <ele>319.9</ele>
        <time>2022-11-13T10:34:32Z</time>
      </trkpt>
      <trkpt lat="43.37317" lon="5.91893">
        <ele>319.9</ele>
        <time>2022-11-13T10:34:39Z</time>
      </trkpt>
      <trkpt lat="43.37325" lon="5.91884">
        <ele>319.1</ele>
        <time>2022-11-13T10:34:47Z</time>
      </trkpt>
      <trkpt lat="43.3733" lon="5.91874">
        <ele>319.1</ele>
        <time>2022-11-13T10:34:53Z</time>
      </trkpt>
      <trkpt lat="43.37333" lon="5.91865">
        <ele>318.8</ele>
        <time>2022-11-13T10:35:01Z</time>
      </trkpt>
      <trkpt lat="43.37333" lon="5.91864">
        <ele>318.7</ele>
        <time>2022-11-13T10:35:02Z</time>
      </trkpt>
      <trkpt lat="43.37333" lon="5.91864">
        <ele>318.5</ele>
        <time>2022-11-13T10:35:04Z</time>
      </trkpt>
      <trkpt lat="43.37332" lon="5.91865">
        <ele>318.4</ele>
        <time>2022-11-13T10:35:05Z</time>
      </trkpt>
      <trkpt lat="43.37332" lon="5.91865">
        <ele>318.2</ele>
        <time>2022-11-13T10:35:08Z</time>
      </trkpt>
      <trkpt lat="43.37332" lon="5.91865">
        <ele>318</ele>
        <time>2022-11-13T10:35:09Z</time>
      </trkpt>
      <trkpt lat="43.37332" lon="5.91865">
        <ele>317.9</ele>
        <time>2022-11-13T10:35:11Z</time>
      </trkpt>
      <trkpt lat="43.37332" lon="5.91865">
        <ele>317.9</ele>
        <time>2022-11-13T10:35:15Z</time>
      </trkpt>
      <trkpt lat="43.37331" lon="5.91865">
        <ele>317.8</ele>
        <time>2022-11-13T10:35:17Z</time>
      </trkpt>
      <trkpt lat="43.37331" lon="5.91865">
        <ele>317.9</ele>
        <time>2022-11-13T10:35:27Z</time>
      </trkpt>
      <trkpt lat="43.37331" lon="5.91865">
        <ele>317.8</ele>
        <time>2022-11-13T10:35:28Z</time>
      </trkpt>
      <trkpt lat="43.37331" lon="5.91864">
        <ele>317.7</ele>
        <time>2022-11-13T10:35:32Z</time>
      </trkpt>
      <trkpt lat="43.37331" lon="5.91864">
        <ele>317.7</ele>
        <time>2022-11-13T10:35:33Z</time>
      </trkpt>
      <trkpt lat="43.3733" lon="5.91864">
        <ele>317.8</ele>
        <time>2022-11-13T10:35:35Z</time>
      </trkpt>
      <trkpt lat="43.3733" lon="5.91864">
        <ele>317.8</ele>
        <time>2022-11-13T10:35:36Z</time>
      </trkpt>
      <trkpt lat="43.3733" lon="5.91863">
        <ele>317.7</ele>
        <time>2022-11-13T10:35:41Z</time>
      </trkpt>
      <trkpt lat="43.37331" lon="5.91862">
        <ele>317.6</ele>
        <time>2022-11-13T10:35:45Z</time>
      </trkpt>
      <trkpt lat="43.37331" lon="5.91862">
        <ele>317.6</ele>
        <time>2022-11-13T10:35:55Z</time>
      </trkpt>
      <trkpt lat="43.37331" lon="5.91862">
        <ele>317.6</ele>
        <time>2022-11-13T10:35:56Z</time>
      </trkpt>
      <trkpt lat="43.37331" lon="5.91862">
        <ele>317.6</ele>
        <time>2022-11-13T10:36:10Z</time>
      </trkpt>
      <trkpt lat="43.37331" lon="5.91862">
        <ele>317.6</ele>
        <time>2022-11-13T10:36:11Z</time>
      </trkpt>
      <trkpt lat="43.3733" lon="5.91862">
        <ele>317.6</ele>
        <time>2022-11-13T10:36:12Z</time>
      </trkpt>
      <trkpt lat="43.3733" lon="5.91862">
        <ele>317.6</ele>
        <time>2022-11-13T10:36:16Z</time>
      </trkpt>
      <trkpt lat="43.3733" lon="5.91862">
        <ele>317.5</ele>
        <time>2022-11-13T10:36:27Z</time>
      </trkpt>
      <trkpt lat="43.3733" lon="5.9186">
        <ele>317.7</ele>
        <time>2022-11-13T10:36:33Z</time>
      </trkpt>
      <trkpt lat="43.3733" lon="5.9186">
        <ele>317.6</ele>
        <time>2022-11-13T10:36:38Z</time>
      </trkpt>
      <trkpt lat="43.3733" lon="5.9186">
        <ele>317.6</ele>
        <time>2022-11-13T10:36:39Z</time>
      </trkpt>
      <trkpt lat="43.3733" lon="5.9186">
        <ele>317.6</ele>
        <time>2022-11-13T10:36:40Z</time>
      </trkpt>
      <trkpt lat="43.37336" lon="5.9185">
        <ele>317.7</ele>
        <time>2022-11-13T10:36:52Z</time>
      </trkpt>
      <trkpt lat="43.37343" lon="5.9184">
        <ele>317.4</ele>
        <time>2022-11-13T10:37:04Z</time>
      </trkpt>
      <trkpt lat="43.37349" lon="5.91829">
        <ele>317.3</ele>
        <time>2022-11-13T10:37:16Z</time>
      </trkpt>
      <trkpt lat="43.37355" lon="5.91816">
        <ele>317.4</ele>
        <time>2022-11-13T10:37:24Z</time>
      </trkpt>
      <trkpt lat="43.37361" lon="5.91805">
        <ele>317.6</ele>
        <time>2022-11-13T10:37:32Z</time>
      </trkpt>
      <trkpt lat="43.37364" lon="5.91792">
        <ele>317.1</ele>
        <time>2022-11-13T10:37:39Z</time>
      </trkpt>
      <trkpt lat="43.37364" lon="5.91779">
        <ele>317</ele>
        <time>2022-11-13T10:37:47Z</time>
      </trkpt>
      <trkpt lat="43.37367" lon="5.91766">
        <ele>316.9</ele>
        <time>2022-11-13T10:38:00Z</time>
      </trkpt>
      <trkpt lat="43.37371" lon="5.91754">
        <ele>317.7</ele>
        <time>2022-11-13T10:38:13Z</time>
      </trkpt>
      <trkpt lat="43.37374" lon="5.91742">
        <ele>317.7</ele>
        <time>2022-11-13T10:38:19Z</time>
      </trkpt>
      <trkpt lat="43.37377" lon="5.9173">
        <ele>317.4</ele>
        <time>2022-11-13T10:38:30Z</time>
      </trkpt>
      <trkpt lat="43.37381" lon="5.91718">
        <ele>317.9</ele>
        <time>2022-11-13T10:38:43Z</time>
      </trkpt>
      <trkpt lat="43.37378" lon="5.91713">
        <ele>317.7</ele>
        <time>2022-11-13T10:38:49Z</time>
      </trkpt>
      <trkpt lat="43.37378" lon="5.91713">
        <ele>317.6</ele>
        <time>2022-11-13T10:39:01Z</time>
      </trkpt>
      <trkpt lat="43.37376" lon="5.91712">
        <ele>317.2</ele>
        <time>2022-11-13T10:39:07Z</time>
      </trkpt>
      <trkpt lat="43.37376" lon="5.91712">
        <ele>317.2</ele>
        <time>2022-11-13T10:39:08Z</time>
      </trkpt>
      <trkpt lat="43.37375" lon="5.91711">
        <ele>317.4</ele>
        <time>2022-11-13T10:39:17Z</time>
      </trkpt>
      <trkpt lat="43.37375" lon="5.91712">
        <ele>317.6</ele>
        <time>2022-11-13T10:39:22Z</time>
      </trkpt>
      <trkpt lat="43.37375" lon="5.91712">
        <ele>317.6</ele>
        <time>2022-11-13T10:39:23Z</time>
      </trkpt>
      <trkpt lat="43.37375" lon="5.91712">
        <ele>317.7</ele>
        <time>2022-11-13T10:39:26Z</time>
      </trkpt>
      <trkpt lat="43.37378" lon="5.917">
        <ele>319</ele>
        <time>2022-11-13T10:39:40Z</time>
      </trkpt>
      <trkpt lat="43.37379" lon="5.91697">
        <ele>318.9</ele>
        <time>2022-11-13T10:39:46Z</time>
      </trkpt>
      <trkpt lat="43.37379" lon="5.91696">
        <ele>319.1</ele>
        <time>2022-11-13T10:39:49Z</time>
      </trkpt>
      <trkpt lat="43.37383" lon="5.91685">
        <ele>318.9</ele>
        <time>2022-11-13T10:40:02Z</time>
      </trkpt>
      <trkpt lat="43.37387" lon="5.91672">
        <ele>318</ele>
        <time>2022-11-13T10:40:09Z</time>
      </trkpt>
      <trkpt lat="43.37391" lon="5.91661">
        <ele>316.4</ele>
        <time>2022-11-13T10:40:19Z</time>
      </trkpt>
      <trkpt lat="43.37393" lon="5.91649">
        <ele>316.8</ele>
        <time>2022-11-13T10:40:29Z</time>
      </trkpt>
      <trkpt lat="43.37397" lon="5.91637">
        <ele>317.2</ele>
        <time>2022-11-13T10:40:43Z</time>
      </trkpt>
      <trkpt lat="43.37402" lon="5.91626">
        <ele>317.5</ele>
        <time>2022-11-13T10:40:53Z</time>
      </trkpt>
      <trkpt lat="43.37408" lon="5.91617">
        <ele>317.1</ele>
        <time>2022-11-13T10:41:08Z</time>
      </trkpt>
      <trkpt lat="43.37412" lon="5.91605">
        <ele>317.4</ele>
        <time>2022-11-13T10:41:17Z</time>
      </trkpt>
      <trkpt lat="43.37417" lon="5.91594">
        <ele>316.4</ele>
        <time>2022-11-13T10:41:28Z</time>
      </trkpt>
      <trkpt lat="43.37417" lon="5.91588">
        <ele>316.1</ele>
        <time>2022-11-13T10:41:39Z</time>
      </trkpt>
      <trkpt lat="43.37417" lon="5.91588">
        <ele>316.2</ele>
        <time>2022-11-13T10:41:40Z</time>
      </trkpt>
      <trkpt lat="43.37424" lon="5.91578">
        <ele>316.8</ele>
        <time>2022-11-13T10:41:48Z</time>
      </trkpt>
      <trkpt lat="43.37428" lon="5.91567">
        <ele>315.6</ele>
        <time>2022-11-13T10:41:59Z</time>
      </trkpt>
      <trkpt lat="43.37432" lon="5.91556">
        <ele>315.3</ele>
        <time>2022-11-13T10:42:13Z</time>
      </trkpt>
      <trkpt lat="43.37435" lon="5.91544">
        <ele>315.8</ele>
        <time>2022-11-13T10:42:25Z</time>
      </trkpt>
      <trkpt lat="43.37437" lon="5.91531">
        <ele>316.9</ele>
        <time>2022-11-13T10:42:41Z</time>
      </trkpt>
      <trkpt lat="43.37441" lon="5.91519">
        <ele>317.2</ele>
        <time>2022-11-13T10:42:49Z</time>
      </trkpt>
      <trkpt lat="43.37445" lon="5.91507">
        <ele>318.3</ele>
        <time>2022-11-13T10:43:01Z</time>
      </trkpt>
      <trkpt lat="43.37446" lon="5.91503">
        <ele>318.1</ele>
        <time>2022-11-13T10:43:09Z</time>
      </trkpt>
      <trkpt lat="43.37446" lon="5.91502">
        <ele>318.2</ele>
        <time>2022-11-13T10:43:10Z</time>
      </trkpt>
      <trkpt lat="43.3745" lon="5.91497">
        <ele>319</ele>
        <time>2022-11-13T10:43:19Z</time>
      </trkpt>
      <trkpt lat="43.37449" lon="5.91497">
        <ele>319</ele>
        <time>2022-11-13T10:43:22Z</time>
      </trkpt>
      <trkpt lat="43.37449" lon="5.91496">
        <ele>319</ele>
        <time>2022-11-13T10:43:25Z</time>
      </trkpt>
      <trkpt lat="43.37449" lon="5.91495">
        <ele>318.9</ele>
        <time>2022-11-13T10:43:27Z</time>
      </trkpt>
      <trkpt lat="43.37449" lon="5.91495">
        <ele>318.9</ele>
        <time>2022-11-13T10:43:28Z</time>
      </trkpt>
      <trkpt lat="43.37449" lon="5.91495">
        <ele>318.9</ele>
        <time>2022-11-13T10:43:29Z</time>
      </trkpt>
      <trkpt lat="43.37447" lon="5.91494">
        <ele>318.4</ele>
        <time>2022-11-13T10:43:38Z</time>
      </trkpt>
      <trkpt lat="43.37448" lon="5.91493">
        <ele>318.3</ele>
        <time>2022-11-13T10:43:39Z</time>
      </trkpt>
      <trkpt lat="43.37451" lon="5.9149">
        <ele>317.8</ele>
        <time>2022-11-13T10:43:44Z</time>
      </trkpt>
      <trkpt lat="43.37451" lon="5.9149">
        <ele>317.7</ele>
        <time>2022-11-13T10:43:45Z</time>
      </trkpt>
      <trkpt lat="43.37453" lon="5.91488">
        <ele>317.9</ele>
        <time>2022-11-13T10:43:52Z</time>
      </trkpt>
      <trkpt lat="43.37453" lon="5.91489">
        <ele>318</ele>
        <time>2022-11-13T10:43:53Z</time>
      </trkpt>
      <trkpt lat="43.37456" lon="5.91488">
        <ele>317.6</ele>
        <time>2022-11-13T10:44:03Z</time>
      </trkpt>
      <trkpt lat="43.37457" lon="5.91488">
        <ele>317.5</ele>
        <time>2022-11-13T10:44:04Z</time>
      </trkpt>
      <trkpt lat="43.37463" lon="5.91479">
        <ele>317.1</ele>
        <time>2022-11-13T10:44:12Z</time>
      </trkpt>
      <trkpt lat="43.37468" lon="5.91473">
        <ele>316.3</ele>
        <time>2022-11-13T10:44:25Z</time>
      </trkpt>
      <trkpt lat="43.37468" lon="5.91473">
        <ele>316.2</ele>
        <time>2022-11-13T10:44:26Z</time>
      </trkpt>
      <trkpt lat="43.37477" lon="5.91475">
        <ele>315.1</ele>
        <time>2022-11-13T10:44:40Z</time>
      </trkpt>
      <trkpt lat="43.37486" lon="5.91476">
        <ele>313.3</ele>
        <time>2022-11-13T10:44:52Z</time>
      </trkpt>
      <trkpt lat="43.37495" lon="5.91477">
        <ele>310.2</ele>
        <time>2022-11-13T10:45:03Z</time>
      </trkpt>
      <trkpt lat="43.37501" lon="5.91487">
        <ele>307</ele>
        <time>2022-11-13T10:45:22Z</time>
      </trkpt>
      <trkpt lat="43.37506" lon="5.91488">
        <ele>306.8</ele>
        <time>2022-11-13T10:45:30Z</time>
      </trkpt>
      <trkpt lat="43.37506" lon="5.91488">
        <ele>306.7</ele>
        <time>2022-11-13T10:45:32Z</time>
      </trkpt>
      <trkpt lat="43.37513" lon="5.91489">
        <ele>307.4</ele>
        <time>2022-11-13T10:45:46Z</time>
      </trkpt>
      <trkpt lat="43.37513" lon="5.91489">
        <ele>307.4</ele>
        <time>2022-11-13T10:45:47Z</time>
      </trkpt>
      <trkpt lat="43.37516" lon="5.91489">
        <ele>308</ele>
        <time>2022-11-13T10:45:54Z</time>
      </trkpt>
      <trkpt lat="43.37516" lon="5.91489">
        <ele>307.9</ele>
        <time>2022-11-13T10:45:57Z</time>
      </trkpt>
      <trkpt lat="43.37519" lon="5.91485">
        <ele>307.3</ele>
        <time>2022-11-13T10:46:04Z</time>
      </trkpt>
      <trkpt lat="43.37519" lon="5.91485">
        <ele>307.1</ele>
        <time>2022-11-13T10:46:09Z</time>
      </trkpt>
      <trkpt lat="43.37519" lon="5.91485">
        <ele>307.1</ele>
        <time>2022-11-13T10:46:10Z</time>
      </trkpt>
      <trkpt lat="43.37519" lon="5.91485">
        <ele>307.1</ele>
        <time>2022-11-13T10:46:16Z</time>
      </trkpt>
      <trkpt lat="43.37519" lon="5.91485">
        <ele>307</ele>
        <time>2022-11-13T10:46:17Z</time>
      </trkpt>
      <trkpt lat="43.3752" lon="5.91484">
        <ele>307</ele>
        <time>2022-11-13T10:46:22Z</time>
      </trkpt>
      <trkpt lat="43.3752" lon="5.91484">
        <ele>307</ele>
        <time>2022-11-13T10:46:24Z</time>
      </trkpt>
      <trkpt lat="43.3752" lon="5.91484">
        <ele>306.6</ele>
        <time>2022-11-13T10:46:33Z</time>
      </trkpt>
      <trkpt lat="43.37519" lon="5.91483">
        <ele>306</ele>
        <time>2022-11-13T10:46:37Z</time>
      </trkpt>
      <trkpt lat="43.37519" lon="5.91483">
        <ele>305.9</ele>
        <time>2022-11-13T10:46:38Z</time>
      </trkpt>
      <trkpt lat="43.37517" lon="5.9148">
        <ele>304.8</ele>
        <time>2022-11-13T10:46:56Z</time>
      </trkpt>
      <trkpt lat="43.37517" lon="5.91479">
        <ele>304.7</ele>
        <time>2022-11-13T10:47:00Z</time>
      </trkpt>
      <trkpt lat="43.37514" lon="5.91476">
        <ele>304.2</ele>
        <time>2022-11-13T10:47:08Z</time>
      </trkpt>
      <trkpt lat="43.37514" lon="5.91476">
        <ele>304</ele>
        <time>2022-11-13T10:47:09Z</time>
      </trkpt>
      <trkpt lat="43.37513" lon="5.91476">
        <ele>303.8</ele>
        <time>2022-11-13T10:47:14Z</time>
      </trkpt>
      <trkpt lat="43.37514" lon="5.91476">
        <ele>303.9</ele>
        <time>2022-11-13T10:47:16Z</time>
      </trkpt>
      <trkpt lat="43.37514" lon="5.91476">
        <ele>303.9</ele>
        <time>2022-11-13T10:47:17Z</time>
      </trkpt>
      <trkpt lat="43.37514" lon="5.91476">
        <ele>303.9</ele>
        <time>2022-11-13T10:47:18Z</time>
      </trkpt>
      <trkpt lat="43.37514" lon="5.91476">
        <ele>303.9</ele>
        <time>2022-11-13T10:47:19Z</time>
      </trkpt>
      <trkpt lat="43.37514" lon="5.91476">
        <ele>304</ele>
        <time>2022-11-13T10:47:27Z</time>
      </trkpt>
      <trkpt lat="43.37514" lon="5.91476">
        <ele>304.1</ele>
        <time>2022-11-13T10:47:28Z</time>
      </trkpt>
      <trkpt lat="43.37513" lon="5.91476">
        <ele>304.1</ele>
        <time>2022-11-13T10:47:29Z</time>
      </trkpt>
      <trkpt lat="43.37513" lon="5.91475">
        <ele>303.9</ele>
        <time>2022-11-13T10:47:34Z</time>
      </trkpt>
      <trkpt lat="43.37513" lon="5.91475">
        <ele>303.9</ele>
        <time>2022-11-13T10:47:35Z</time>
      </trkpt>
      <trkpt lat="43.37513" lon="5.91475">
        <ele>303.9</ele>
        <time>2022-11-13T10:47:36Z</time>
      </trkpt>
      <trkpt lat="43.37513" lon="5.91475">
        <ele>303.9</ele>
        <time>2022-11-13T10:47:37Z</time>
      </trkpt>
      <trkpt lat="43.37513" lon="5.91475">
        <ele>303.9</ele>
        <time>2022-11-13T10:47:38Z</time>
      </trkpt>
      <trkpt lat="43.37513" lon="5.91475">
        <ele>304</ele>
        <time>2022-11-13T10:47:40Z</time>
      </trkpt>
      <trkpt lat="43.37513" lon="5.91475">
        <ele>304</ele>
        <time>2022-11-13T10:47:41Z</time>
      </trkpt>
      <trkpt lat="43.37512" lon="5.91475">
        <ele>303.9</ele>
        <time>2022-11-13T10:47:43Z</time>
      </trkpt>
      <trkpt lat="43.37511" lon="5.91475">
        <ele>303.9</ele>
        <time>2022-11-13T10:47:49Z</time>
      </trkpt>
      <trkpt lat="43.37511" lon="5.91475">
        <ele>303.9</ele>
        <time>2022-11-13T10:47:53Z</time>
      </trkpt>
      <trkpt lat="43.37511" lon="5.91475">
        <ele>303.8</ele>
        <time>2022-11-13T10:47:56Z</time>
      </trkpt>
      <trkpt lat="43.37511" lon="5.91474">
        <ele>303.7</ele>
        <time>2022-11-13T10:48:00Z</time>
      </trkpt>
      <trkpt lat="43.37511" lon="5.91474">
        <ele>303.8</ele>
        <time>2022-11-13T10:48:01Z</time>
      </trkpt>
      <trkpt lat="43.3751" lon="5.91474">
        <ele>303.6</ele>
        <time>2022-11-13T10:48:02Z</time>
      </trkpt>
      <trkpt lat="43.37511" lon="5.91473">
        <ele>303.7</ele>
        <time>2022-11-13T10:48:04Z</time>
      </trkpt>
      <trkpt lat="43.3751" lon="5.91473">
        <ele>303.7</ele>
        <time>2022-11-13T10:48:06Z</time>
      </trkpt>
      <trkpt lat="43.3751" lon="5.91473">
        <ele>303.7</ele>
        <time>2022-11-13T10:48:07Z</time>
      </trkpt>
      <trkpt lat="43.3751" lon="5.91473">
        <ele>303.6</ele>
        <time>2022-11-13T10:48:14Z</time>
      </trkpt>
      <trkpt lat="43.3751" lon="5.91473">
        <ele>303.5</ele>
        <time>2022-11-13T10:48:17Z</time>
      </trkpt>
      <trkpt lat="43.37509" lon="5.91474">
        <ele>303.5</ele>
        <time>2022-11-13T10:48:26Z</time>
      </trkpt>
      <trkpt lat="43.37509" lon="5.91473">
        <ele>303.1</ele>
        <time>2022-11-13T10:48:31Z</time>
      </trkpt>
      <trkpt lat="43.37509" lon="5.91473">
        <ele>303.1</ele>
        <time>2022-11-13T10:48:35Z</time>
      </trkpt>
      <trkpt lat="43.37509" lon="5.91474">
        <ele>303</ele>
        <time>2022-11-13T10:48:36Z</time>
      </trkpt>
      <trkpt lat="43.37509" lon="5.91474">
        <ele>303.1</ele>
        <time>2022-11-13T10:48:37Z</time>
      </trkpt>
      <trkpt lat="43.3751" lon="5.91475">
        <ele>303.2</ele>
        <time>2022-11-13T10:48:41Z</time>
      </trkpt>
      <trkpt lat="43.37509" lon="5.91475">
        <ele>303.2</ele>
        <time>2022-11-13T10:48:42Z</time>
      </trkpt>
      <trkpt lat="43.3751" lon="5.91487">
        <ele>301.2</ele>
        <time>2022-11-13T10:48:59Z</time>
      </trkpt>
      <trkpt lat="43.3751" lon="5.91487">
        <ele>301.2</ele>
        <time>2022-11-13T10:49:00Z</time>
      </trkpt>
      <trkpt lat="43.3751" lon="5.91487">
        <ele>301.2</ele>
        <time>2022-11-13T10:49:03Z</time>
      </trkpt>
      <trkpt lat="43.3751" lon="5.91488">
        <ele>301.2</ele>
        <time>2022-11-13T10:49:04Z</time>
      </trkpt>
      <trkpt lat="43.3751" lon="5.91487">
        <ele>301.1</ele>
        <time>2022-11-13T10:49:07Z</time>
      </trkpt>
      <trkpt lat="43.37511" lon="5.91487">
        <ele>301</ele>
        <time>2022-11-13T10:49:08Z</time>
      </trkpt>
      <trkpt lat="43.37517" lon="5.91497">
        <ele>300.5</ele>
        <time>2022-11-13T10:49:24Z</time>
      </trkpt>
      <trkpt lat="43.37519" lon="5.91501">
        <ele>300.9</ele>
        <time>2022-11-13T10:49:30Z</time>
      </trkpt>
      <trkpt lat="43.37519" lon="5.91501">
        <ele>300.9</ele>
        <time>2022-11-13T10:49:31Z</time>
      </trkpt>
      <trkpt lat="43.3752" lon="5.91501">
        <ele>300.8</ele>
        <time>2022-11-13T10:49:33Z</time>
      </trkpt>
      <trkpt lat="43.3752" lon="5.91501">
        <ele>300.8</ele>
        <time>2022-11-13T10:49:34Z</time>
      </trkpt>
      <trkpt lat="43.3752" lon="5.91501">
        <ele>300.8</ele>
        <time>2022-11-13T10:49:35Z</time>
      </trkpt>
      <trkpt lat="43.3752" lon="5.91501">
        <ele>300.7</ele>
        <time>2022-11-13T10:49:37Z</time>
      </trkpt>
      <trkpt lat="43.3752" lon="5.91499">
        <ele>300.5</ele>
        <time>2022-11-13T10:49:42Z</time>
      </trkpt>
      <trkpt lat="43.3752" lon="5.91499">
        <ele>300.6</ele>
        <time>2022-11-13T10:50:57Z</time>
      </trkpt>
      <trkpt lat="43.3752" lon="5.91499">
        <ele>300.6</ele>
        <time>2022-11-13T10:50:58Z</time>
      </trkpt>
      <trkpt lat="43.3752" lon="5.91499">
        <ele>300.6</ele>
        <time>2022-11-13T10:51:54Z</time>
      </trkpt>
      <trkpt lat="43.3752" lon="5.91501">
        <ele>300.7</ele>
        <time>2022-11-13T10:51:58Z</time>
      </trkpt>
      <trkpt lat="43.3752" lon="5.91501">
        <ele>300.5</ele>
        <time>2022-11-13T10:52:59Z</time>
      </trkpt>
      <trkpt lat="43.3752" lon="5.91501">
        <ele>300.5</ele>
        <time>2022-11-13T10:53:00Z</time>
      </trkpt>
      <trkpt lat="43.3752" lon="5.91501">
        <ele>300.5</ele>
        <time>2022-11-13T10:53:16Z</time>
      </trkpt>
      <trkpt lat="43.3752" lon="5.91501">
        <ele>300.5</ele>
        <time>2022-11-13T10:53:17Z</time>
      </trkpt>
      <trkpt lat="43.3752" lon="5.91501">
        <ele>300.1</ele>
        <time>2022-11-13T10:53:23Z</time>
      </trkpt>
      <trkpt lat="43.3752" lon="5.91501">
        <ele>300.1</ele>
        <time>2022-11-13T10:53:24Z</time>
      </trkpt>
      <trkpt lat="43.3752" lon="5.91501">
        <ele>300</ele>
        <time>2022-11-13T10:54:16Z</time>
      </trkpt>
      <trkpt lat="43.3752" lon="5.915">
        <ele>299.9</ele>
        <time>2022-11-13T10:54:18Z</time>
      </trkpt>
      <trkpt lat="43.3752" lon="5.915">
        <ele>299.9</ele>
        <time>2022-11-13T10:54:19Z</time>
      </trkpt>
      <trkpt lat="43.3752" lon="5.91501">
        <ele>299.7</ele>
        <time>2022-11-13T10:54:25Z</time>
      </trkpt>
      <trkpt lat="43.37521" lon="5.91501">
        <ele>299.8</ele>
        <time>2022-11-13T10:54:26Z</time>
      </trkpt>
      <trkpt lat="43.37521" lon="5.91501">
        <ele>299.9</ele>
        <time>2022-11-13T10:54:28Z</time>
      </trkpt>
      <trkpt lat="43.37521" lon="5.91501">
        <ele>299.9</ele>
        <time>2022-11-13T10:54:49Z</time>
      </trkpt>
      <trkpt lat="43.37521" lon="5.91502">
        <ele>300</ele>
        <time>2022-11-13T10:54:50Z</time>
      </trkpt>
      <trkpt lat="43.37521" lon="5.91502">
        <ele>300</ele>
        <time>2022-11-13T10:54:57Z</time>
      </trkpt>
      <trkpt lat="43.37521" lon="5.91502">
        <ele>300</ele>
        <time>2022-11-13T10:54:58Z</time>
      </trkpt>
      <trkpt lat="43.37521" lon="5.91502">
        <ele>300.1</ele>
        <time>2022-11-13T10:55:05Z</time>
      </trkpt>
      <trkpt lat="43.3752" lon="5.91504">
        <ele>300.8</ele>
        <time>2022-11-13T10:55:08Z</time>
      </trkpt>
      <trkpt lat="43.3752" lon="5.91504">
        <ele>300.9</ele>
        <time>2022-11-13T10:55:09Z</time>
      </trkpt>
      <trkpt lat="43.3752" lon="5.91506">
        <ele>301.8</ele>
        <time>2022-11-13T10:55:14Z</time>
      </trkpt>
      <trkpt lat="43.37519" lon="5.91506">
        <ele>302</ele>
        <time>2022-11-13T10:55:16Z</time>
      </trkpt>
      <trkpt lat="43.3752" lon="5.91507">
        <ele>302.6</ele>
        <time>2022-11-13T10:55:20Z</time>
      </trkpt>
      <trkpt lat="43.3752" lon="5.91507">
        <ele>302.7</ele>
        <time>2022-11-13T10:55:21Z</time>
      </trkpt>
      <trkpt lat="43.3752" lon="5.91507">
        <ele>302.8</ele>
        <time>2022-11-13T10:55:22Z</time>
      </trkpt>
      <trkpt lat="43.3752" lon="5.91507">
        <ele>303</ele>
        <time>2022-11-13T10:55:29Z</time>
      </trkpt>
      <trkpt lat="43.37521" lon="5.91506">
        <ele>303.2</ele>
        <time>2022-11-13T10:55:35Z</time>
      </trkpt>
      <trkpt lat="43.3752" lon="5.91506">
        <ele>303.2</ele>
        <time>2022-11-13T10:55:36Z</time>
      </trkpt>
      <trkpt lat="43.3752" lon="5.91506">
        <ele>303.3</ele>
        <time>2022-11-13T10:55:37Z</time>
      </trkpt>
      <trkpt lat="43.3752" lon="5.91506">
        <ele>303.4</ele>
        <time>2022-11-13T10:55:38Z</time>
      </trkpt>
      <trkpt lat="43.3752" lon="5.91506">
        <ele>303.5</ele>
        <time>2022-11-13T10:55:39Z</time>
      </trkpt>
      <trkpt lat="43.3752" lon="5.91506">
        <ele>303.5</ele>
        <time>2022-11-13T10:55:41Z</time>
      </trkpt>
      <trkpt lat="43.37521" lon="5.91506">
        <ele>303.5</ele>
        <time>2022-11-13T10:55:43Z</time>
      </trkpt>
      <trkpt lat="43.3752" lon="5.91506">
        <ele>303.6</ele>
        <time>2022-11-13T10:55:48Z</time>
      </trkpt>
      <trkpt lat="43.3752" lon="5.91506">
        <ele>303.6</ele>
        <time>2022-11-13T10:55:49Z</time>
      </trkpt>
      <trkpt lat="43.37521" lon="5.91506">
        <ele>303.7</ele>
        <time>2022-11-13T10:55:58Z</time>
      </trkpt>
      <trkpt lat="43.37521" lon="5.91506">
        <ele>303.7</ele>
        <time>2022-11-13T10:55:59Z</time>
      </trkpt>
      <trkpt lat="43.37521" lon="5.91506">
        <ele>303.7</ele>
        <time>2022-11-13T10:56:28Z</time>
      </trkpt>
      <trkpt lat="43.37521" lon="5.91506">
        <ele>303.7</ele>
        <time>2022-11-13T10:56:29Z</time>
      </trkpt>
      <trkpt lat="43.37521" lon="5.91506">
        <ele>303.9</ele>
        <time>2022-11-13T10:59:19Z</time>
      </trkpt>
      <trkpt lat="43.37521" lon="5.91506">
        <ele>303.9</ele>
        <time>2022-11-13T10:59:20Z</time>
      </trkpt>
      <trkpt lat="43.37521" lon="5.91506">
        <ele>304</ele>
        <time>2022-11-13T11:00:52Z</time>
      </trkpt>
      <trkpt lat="43.37521" lon="5.91506">
        <ele>304</ele>
        <time>2022-11-13T11:00:53Z</time>
      </trkpt>
      <trkpt lat="43.37521" lon="5.91505">
        <ele>304</ele>
        <time>2022-11-13T11:01:58Z</time>
      </trkpt>
      <trkpt lat="43.37522" lon="5.91504">
        <ele>303.8</ele>
        <time>2022-11-13T11:02:02Z</time>
      </trkpt>
      <trkpt lat="43.37521" lon="5.91504">
        <ele>303.9</ele>
        <time>2022-11-13T11:02:03Z</time>
      </trkpt>
      <trkpt lat="43.37521" lon="5.91504">
        <ele>303.9</ele>
        <time>2022-11-13T11:02:04Z</time>
      </trkpt>
      <trkpt lat="43.37522" lon="5.91504">
        <ele>303.7</ele>
        <time>2022-11-13T11:02:18Z</time>
      </trkpt>
      <trkpt lat="43.37522" lon="5.91504">
        <ele>303.5</ele>
        <time>2022-11-13T11:02:21Z</time>
      </trkpt>
      <trkpt lat="43.37522" lon="5.91504">
        <ele>303.5</ele>
        <time>2022-11-13T11:02:24Z</time>
      </trkpt>
      <trkpt lat="43.37522" lon="5.91504">
        <ele>303.5</ele>
        <time>2022-11-13T11:02:25Z</time>
      </trkpt>
      <trkpt lat="43.37522" lon="5.91504">
        <ele>303.5</ele>
        <time>2022-11-13T11:03:38Z</time>
      </trkpt>
      <trkpt lat="43.37522" lon="5.91504">
        <ele>303.5</ele>
        <time>2022-11-13T11:03:39Z</time>
      </trkpt>
      <trkpt lat="43.37522" lon="5.91504">
        <ele>303.6</ele>
        <time>2022-11-13T11:03:51Z</time>
      </trkpt>
      <trkpt lat="43.37522" lon="5.91504">
        <ele>303.8</ele>
        <time>2022-11-13T11:03:53Z</time>
      </trkpt>
      <trkpt lat="43.37522" lon="5.91504">
        <ele>303.8</ele>
        <time>2022-11-13T11:03:55Z</time>
      </trkpt>
      <trkpt lat="43.37522" lon="5.91504">
        <ele>303.8</ele>
        <time>2022-11-13T11:03:56Z</time>
      </trkpt>
      <trkpt lat="43.37522" lon="5.91504">
        <ele>303.8</ele>
        <time>2022-11-13T11:04:08Z</time>
      </trkpt>
      <trkpt lat="43.37522" lon="5.91504">
        <ele>303.8</ele>
        <time>2022-11-13T11:04:09Z</time>
      </trkpt>
      <trkpt lat="43.37522" lon="5.91505">
        <ele>303.5</ele>
        <time>2022-11-13T11:04:20Z</time>
      </trkpt>
      <trkpt lat="43.37522" lon="5.91505">
        <ele>303.5</ele>
        <time>2022-11-13T11:04:21Z</time>
      </trkpt>
      <trkpt lat="43.37521" lon="5.91505">
        <ele>303.4</ele>
        <time>2022-11-13T11:04:23Z</time>
      </trkpt>
      <trkpt lat="43.37521" lon="5.91505">
        <ele>303.4</ele>
        <time>2022-11-13T11:04:24Z</time>
      </trkpt>
      <trkpt lat="43.37522" lon="5.91505">
        <ele>303.4</ele>
        <time>2022-11-13T11:04:26Z</time>
      </trkpt>
      <trkpt lat="43.37522" lon="5.91505">
        <ele>303.4</ele>
        <time>2022-11-13T11:04:27Z</time>
      </trkpt>
      <trkpt lat="43.37522" lon="5.91505">
        <ele>303.4</ele>
        <time>2022-11-13T11:04:28Z</time>
      </trkpt>
      <trkpt lat="43.37522" lon="5.91505">
        <ele>303.4</ele>
        <time>2022-11-13T11:04:29Z</time>
      </trkpt>
      <trkpt lat="43.37522" lon="5.91504">
        <ele>303.4</ele>
        <time>2022-11-13T11:05:07Z</time>
      </trkpt>
      <trkpt lat="43.37522" lon="5.91504">
        <ele>303.4</ele>
        <time>2022-11-13T11:05:08Z</time>
      </trkpt>
      <trkpt lat="43.37522" lon="5.91504">
        <ele>303.4</ele>
        <time>2022-11-13T11:05:09Z</time>
      </trkpt>
      <trkpt lat="43.37521" lon="5.91504">
        <ele>303.5</ele>
        <time>2022-11-13T11:05:12Z</time>
      </trkpt>
      <trkpt lat="43.37522" lon="5.91504">
        <ele>303.5</ele>
        <time>2022-11-13T11:05:24Z</time>
      </trkpt>
      <trkpt lat="43.37522" lon="5.91504">
        <ele>303.4</ele>
        <time>2022-11-13T11:05:25Z</time>
      </trkpt>
      <trkpt lat="43.37521" lon="5.91504">
        <ele>303.5</ele>
        <time>2022-11-13T11:05:35Z</time>
      </trkpt>
      <trkpt lat="43.37521" lon="5.91504">
        <ele>303.6</ele>
        <time>2022-11-13T11:05:36Z</time>
      </trkpt>
      <trkpt lat="43.37522" lon="5.91504">
        <ele>303.7</ele>
        <time>2022-11-13T11:06:03Z</time>
      </trkpt>
      <trkpt lat="43.37521" lon="5.91504">
        <ele>303.8</ele>
        <time>2022-11-13T11:06:06Z</time>
      </trkpt>
      <trkpt lat="43.37521" lon="5.91504">
        <ele>303.9</ele>
        <time>2022-11-13T11:06:07Z</time>
      </trkpt>
      <trkpt lat="43.37521" lon="5.91504">
        <ele>303.9</ele>
        <time>2022-11-13T11:06:09Z</time>
      </trkpt>
      <trkpt lat="43.37521" lon="5.91504">
        <ele>304</ele>
        <time>2022-11-13T11:06:13Z</time>
      </trkpt>
      <trkpt lat="43.37521" lon="5.91504">
        <ele>304</ele>
        <time>2022-11-13T11:06:14Z</time>
      </trkpt>
      <trkpt lat="43.37521" lon="5.91504">
        <ele>304</ele>
        <time>2022-11-13T11:06:25Z</time>
      </trkpt>
      <trkpt lat="43.37521" lon="5.91504">
        <ele>303.9</ele>
        <time>2022-11-13T11:06:28Z</time>
      </trkpt>
      <trkpt lat="43.37521" lon="5.91504">
        <ele>303.9</ele>
        <time>2022-11-13T11:06:29Z</time>
      </trkpt>
      <trkpt lat="43.37521" lon="5.91505">
        <ele>303.9</ele>
        <time>2022-11-13T11:06:30Z</time>
      </trkpt>
      <trkpt lat="43.37521" lon="5.91505">
        <ele>303.9</ele>
        <time>2022-11-13T11:06:38Z</time>
      </trkpt>
      <trkpt lat="43.37521" lon="5.91505">
        <ele>303.9</ele>
        <time>2022-11-13T11:06:39Z</time>
      </trkpt>
      <trkpt lat="43.37521" lon="5.91506">
        <ele>304</ele>
        <time>2022-11-13T11:06:45Z</time>
      </trkpt>
      <trkpt lat="43.37521" lon="5.91506">
        <ele>304</ele>
        <time>2022-11-13T11:06:46Z</time>
      </trkpt>
      <trkpt lat="43.37521" lon="5.91506">
        <ele>304.2</ele>
        <time>2022-11-13T11:06:54Z</time>
      </trkpt>
      <trkpt lat="43.37521" lon="5.91506">
        <ele>304.3</ele>
        <time>2022-11-13T11:06:56Z</time>
      </trkpt>
      <trkpt lat="43.37521" lon="5.91506">
        <ele>304.5</ele>
        <time>2022-11-13T11:07:21Z</time>
      </trkpt>
      <trkpt lat="43.37521" lon="5.91506">
        <ele>304.5</ele>
        <time>2022-11-13T11:07:22Z</time>
      </trkpt>
      <trkpt lat="43.37521" lon="5.91506">
        <ele>304.8</ele>
        <time>2022-11-13T11:07:34Z</time>
      </trkpt>
      <trkpt lat="43.37521" lon="5.91506">
        <ele>304.8</ele>
        <time>2022-11-13T11:07:35Z</time>
      </trkpt>
      <trkpt lat="43.37521" lon="5.91506">
        <ele>304.8</ele>
        <time>2022-11-13T11:07:37Z</time>
      </trkpt>
      <trkpt lat="43.37521" lon="5.91506">
        <ele>304.8</ele>
        <time>2022-11-13T11:07:38Z</time>
      </trkpt>
      <trkpt lat="43.37521" lon="5.91506">
        <ele>304.9</ele>
        <time>2022-11-13T11:07:52Z</time>
      </trkpt>
      <trkpt lat="43.37521" lon="5.91506">
        <ele>304.9</ele>
        <time>2022-11-13T11:07:55Z</time>
      </trkpt>
      <trkpt lat="43.37521" lon="5.91506">
        <ele>304.9</ele>
        <time>2022-11-13T11:07:58Z</time>
      </trkpt>
      <trkpt lat="43.37521" lon="5.91506">
        <ele>304.9</ele>
        <time>2022-11-13T11:08:01Z</time>
      </trkpt>
      <trkpt lat="43.37521" lon="5.91506">
        <ele>304.9</ele>
        <time>2022-11-13T11:08:12Z</time>
      </trkpt>
      <trkpt lat="43.37521" lon="5.91507">
        <ele>304.9</ele>
        <time>2022-11-13T11:08:14Z</time>
      </trkpt>
      <trkpt lat="43.37521" lon="5.91507">
        <ele>304.9</ele>
        <time>2022-11-13T11:08:15Z</time>
      </trkpt>
      <trkpt lat="43.37521" lon="5.91507">
        <ele>304.9</ele>
        <time>2022-11-13T11:08:16Z</time>
      </trkpt>
      <trkpt lat="43.37521" lon="5.91507">
        <ele>304.7</ele>
        <time>2022-11-13T11:08:30Z</time>
      </trkpt>
      <trkpt lat="43.37521" lon="5.91507">
        <ele>304.7</ele>
        <time>2022-11-13T11:08:31Z</time>
      </trkpt>
      <trkpt lat="43.37521" lon="5.91508">
        <ele>304.8</ele>
        <time>2022-11-13T11:08:52Z</time>
      </trkpt>
      <trkpt lat="43.37521" lon="5.91508">
        <ele>304.8</ele>
        <time>2022-11-13T11:08:54Z</time>
      </trkpt>
      <trkpt lat="43.37521" lon="5.91508">
        <ele>304.8</ele>
        <time>2022-11-13T11:09:22Z</time>
      </trkpt>
      <trkpt lat="43.37521" lon="5.91508">
        <ele>304.8</ele>
        <time>2022-11-13T11:09:23Z</time>
      </trkpt>
      <trkpt lat="43.37521" lon="5.91508">
        <ele>304.8</ele>
        <time>2022-11-13T11:09:27Z</time>
      </trkpt>
      <trkpt lat="43.37521" lon="5.91509">
        <ele>304.8</ele>
        <time>2022-11-13T11:09:28Z</time>
      </trkpt>
      <trkpt lat="43.37521" lon="5.91509">
        <ele>304.7</ele>
        <time>2022-11-13T11:09:40Z</time>
      </trkpt>
      <trkpt lat="43.37521" lon="5.91509">
        <ele>304.7</ele>
        <time>2022-11-13T11:09:41Z</time>
      </trkpt>
      <trkpt lat="43.37521" lon="5.91509">
        <ele>304.7</ele>
        <time>2022-11-13T11:10:08Z</time>
      </trkpt>
      <trkpt lat="43.37521" lon="5.91509">
        <ele>304.8</ele>
        <time>2022-11-13T11:10:09Z</time>
      </trkpt>
      <trkpt lat="43.37521" lon="5.91509">
        <ele>305</ele>
        <time>2022-11-13T11:10:40Z</time>
      </trkpt>
      <trkpt lat="43.37521" lon="5.91509">
        <ele>305</ele>
        <time>2022-11-13T11:10:41Z</time>
      </trkpt>
      <trkpt lat="43.37521" lon="5.91509">
        <ele>305</ele>
        <time>2022-11-13T11:10:42Z</time>
      </trkpt>
      <trkpt lat="43.37521" lon="5.91509">
        <ele>305</ele>
        <time>2022-11-13T11:10:43Z</time>
      </trkpt>
      <trkpt lat="43.37521" lon="5.91509">
        <ele>305</ele>
        <time>2022-11-13T11:10:50Z</time>
      </trkpt>
      <trkpt lat="43.37521" lon="5.91509">
        <ele>305</ele>
        <time>2022-11-13T11:10:52Z</time>
      </trkpt>
      <trkpt lat="43.37521" lon="5.91509">
        <ele>305</ele>
        <time>2022-11-13T11:11:00Z</time>
      </trkpt>
      <trkpt lat="43.37521" lon="5.91509">
        <ele>305</ele>
        <time>2022-11-13T11:11:02Z</time>
      </trkpt>
      <trkpt lat="43.37521" lon="5.91509">
        <ele>305.2</ele>
        <time>2022-11-13T11:11:49Z</time>
      </trkpt>
      <trkpt lat="43.37521" lon="5.91509">
        <ele>305.2</ele>
        <time>2022-11-13T11:11:52Z</time>
      </trkpt>
      <trkpt lat="43.37521" lon="5.91509">
        <ele>305.1</ele>
        <time>2022-11-13T11:12:01Z</time>
      </trkpt>
      <trkpt lat="43.37521" lon="5.91509">
        <ele>305.1</ele>
        <time>2022-11-13T11:12:02Z</time>
      </trkpt>
      <trkpt lat="43.37522" lon="5.91509">
        <ele>305.2</ele>
        <time>2022-11-13T11:12:10Z</time>
      </trkpt>
      <trkpt lat="43.37522" lon="5.91509">
        <ele>305.2</ele>
        <time>2022-11-13T11:12:11Z</time>
      </trkpt>
      <trkpt lat="43.37522" lon="5.91509">
        <ele>305.2</ele>
        <time>2022-11-13T11:12:23Z</time>
      </trkpt>
      <trkpt lat="43.37522" lon="5.91509">
        <ele>305.1</ele>
        <time>2022-11-13T11:12:26Z</time>
      </trkpt>
      <trkpt lat="43.37523" lon="5.91509">
        <ele>305.1</ele>
        <time>2022-11-13T11:12:27Z</time>
      </trkpt>
      <trkpt lat="43.37522" lon="5.9151">
        <ele>305.2</ele>
        <time>2022-11-13T11:12:39Z</time>
      </trkpt>
      <trkpt lat="43.37521" lon="5.9151">
        <ele>305.1</ele>
        <time>2022-11-13T11:12:40Z</time>
      </trkpt>
      <trkpt lat="43.37518" lon="5.91509">
        <ele>304.7</ele>
        <time>2022-11-13T11:12:47Z</time>
      </trkpt>
      <trkpt lat="43.37518" lon="5.91509">
        <ele>304.7</ele>
        <time>2022-11-13T11:12:48Z</time>
      </trkpt>
      <trkpt lat="43.37517" lon="5.91504">
        <ele>304.4</ele>
        <time>2022-11-13T11:12:58Z</time>
      </trkpt>
      <trkpt lat="43.37518" lon="5.91504">
        <ele>304.4</ele>
        <time>2022-11-13T11:12:59Z</time>
      </trkpt>
      <trkpt lat="43.37519" lon="5.91504">
        <ele>304.1</ele>
        <time>2022-11-13T11:13:02Z</time>
      </trkpt>
      <trkpt lat="43.37519" lon="5.91503">
        <ele>304.2</ele>
        <time>2022-11-13T11:13:03Z</time>
      </trkpt>
      <trkpt lat="43.37524" lon="5.91492">
        <ele>303.5</ele>
        <time>2022-11-13T11:13:24Z</time>
      </trkpt>
      <trkpt lat="43.37527" lon="5.91504">
        <ele>302.8</ele>
        <time>2022-11-13T11:13:51Z</time>
      </trkpt>
      <trkpt lat="43.37526" lon="5.91508">
        <ele>302.9</ele>
        <time>2022-11-13T11:13:56Z</time>
      </trkpt>
      <trkpt lat="43.37526" lon="5.91509">
        <ele>303</ele>
        <time>2022-11-13T11:13:57Z</time>
      </trkpt>
      <trkpt lat="43.37527" lon="5.91509">
        <ele>303.7</ele>
        <time>2022-11-13T11:14:03Z</time>
      </trkpt>
      <trkpt lat="43.37527" lon="5.91509">
        <ele>304.1</ele>
        <time>2022-11-13T11:14:05Z</time>
      </trkpt>
      <trkpt lat="43.37527" lon="5.91509">
        <ele>305.1</ele>
        <time>2022-11-13T11:14:10Z</time>
      </trkpt>
      <trkpt lat="43.37527" lon="5.91509">
        <ele>305.3</ele>
        <time>2022-11-13T11:14:11Z</time>
      </trkpt>
      <trkpt lat="43.37518" lon="5.9151">
        <ele>306.4</ele>
        <time>2022-11-13T11:14:35Z</time>
      </trkpt>
      <trkpt lat="43.37525" lon="5.91501">
        <ele>312.3</ele>
        <time>2022-11-13T11:15:00Z</time>
      </trkpt>
      <trkpt lat="43.37528" lon="5.91502">
        <ele>311.3</ele>
        <time>2022-11-13T11:15:12Z</time>
      </trkpt>
      <trkpt lat="43.37528" lon="5.91502">
        <ele>311.3</ele>
        <time>2022-11-13T11:15:13Z</time>
      </trkpt>
      <trkpt lat="43.37528" lon="5.91502">
        <ele>311</ele>
        <time>2022-11-13T11:15:15Z</time>
      </trkpt>
      <trkpt lat="43.37528" lon="5.91502">
        <ele>310.9</ele>
        <time>2022-11-13T11:15:16Z</time>
      </trkpt>
      <trkpt lat="43.37524" lon="5.91506">
        <ele>308.8</ele>
        <time>2022-11-13T11:15:25Z</time>
      </trkpt>
      <trkpt lat="43.37525" lon="5.91506">
        <ele>308.2</ele>
        <time>2022-11-13T11:15:28Z</time>
      </trkpt>
      <trkpt lat="43.37524" lon="5.91505">
        <ele>307.6</ele>
        <time>2022-11-13T11:15:39Z</time>
      </trkpt>
      <trkpt lat="43.37524" lon="5.91505">
        <ele>307.7</ele>
        <time>2022-11-13T11:15:40Z</time>
      </trkpt>
      <trkpt lat="43.37524" lon="5.91505">
        <ele>307.7</ele>
        <time>2022-11-13T11:15:42Z</time>
      </trkpt>
      <trkpt lat="43.37524" lon="5.91505">
        <ele>307.7</ele>
        <time>2022-11-13T11:15:48Z</time>
      </trkpt>
      <trkpt lat="43.37524" lon="5.91505">
        <ele>308</ele>
        <time>2022-11-13T11:15:51Z</time>
      </trkpt>
      <trkpt lat="43.37524" lon="5.91505">
        <ele>307.9</ele>
        <time>2022-11-13T11:15:55Z</time>
      </trkpt>
      <trkpt lat="43.37524" lon="5.91505">
        <ele>307.9</ele>
        <time>2022-11-13T11:15:56Z</time>
      </trkpt>
      <trkpt lat="43.37524" lon="5.91506">
        <ele>308.3</ele>
        <time>2022-11-13T11:16:22Z</time>
      </trkpt>
      <trkpt lat="43.37524" lon="5.91506">
        <ele>308.3</ele>
        <time>2022-11-13T11:16:24Z</time>
      </trkpt>
      <trkpt lat="43.37524" lon="5.91506">
        <ele>308.4</ele>
        <time>2022-11-13T11:16:42Z</time>
      </trkpt>
      <trkpt lat="43.37524" lon="5.91506">
        <ele>308.4</ele>
        <time>2022-11-13T11:16:44Z</time>
      </trkpt>
      <trkpt lat="43.37524" lon="5.91506">
        <ele>308.4</ele>
        <time>2022-11-13T11:16:47Z</time>
      </trkpt>
      <trkpt lat="43.37524" lon="5.91506">
        <ele>308.4</ele>
        <time>2022-11-13T11:16:48Z</time>
      </trkpt>
      <trkpt lat="43.37524" lon="5.91507">
        <ele>308.4</ele>
        <time>2022-11-13T11:16:53Z</time>
      </trkpt>
      <trkpt lat="43.37523" lon="5.91507">
        <ele>308.5</ele>
        <time>2022-11-13T11:16:55Z</time>
      </trkpt>
      <trkpt lat="43.37523" lon="5.91507">
        <ele>308.6</ele>
        <time>2022-11-13T11:17:04Z</time>
      </trkpt>
      <trkpt lat="43.37523" lon="5.91507">
        <ele>308.6</ele>
        <time>2022-11-13T11:17:05Z</time>
      </trkpt>
      <trkpt lat="43.37523" lon="5.91507">
        <ele>308.8</ele>
        <time>2022-11-13T11:17:14Z</time>
      </trkpt>
      <trkpt lat="43.37523" lon="5.91507">
        <ele>308.8</ele>
        <time>2022-11-13T11:17:15Z</time>
      </trkpt>
      <trkpt lat="43.37523" lon="5.91507">
        <ele>308.9</ele>
        <time>2022-11-13T11:17:20Z</time>
      </trkpt>
      <trkpt lat="43.37524" lon="5.9151">
        <ele>309.1</ele>
        <time>2022-11-13T11:17:26Z</time>
      </trkpt>
      <trkpt lat="43.37525" lon="5.9151">
        <ele>309</ele>
        <time>2022-11-13T11:17:27Z</time>
      </trkpt>
      <trkpt lat="43.37523" lon="5.91512">
        <ele>309.1</ele>
        <time>2022-11-13T11:17:32Z</time>
      </trkpt>
      <trkpt lat="43.37523" lon="5.91512">
        <ele>309</ele>
        <time>2022-11-13T11:17:34Z</time>
      </trkpt>
      <trkpt lat="43.37521" lon="5.91514">
        <ele>309.5</ele>
        <time>2022-11-13T11:17:38Z</time>
      </trkpt>
      <trkpt lat="43.37521" lon="5.91514">
        <ele>309.6</ele>
        <time>2022-11-13T11:17:39Z</time>
      </trkpt>
      <trkpt lat="43.37521" lon="5.91514">
        <ele>309.7</ele>
        <time>2022-11-13T11:17:41Z</time>
      </trkpt>
      <trkpt lat="43.37521" lon="5.91514">
        <ele>309.8</ele>
        <time>2022-11-13T11:17:42Z</time>
      </trkpt>
      <trkpt lat="43.37521" lon="5.91514">
        <ele>309.8</ele>
        <time>2022-11-13T11:17:43Z</time>
      </trkpt>
      <trkpt lat="43.37521" lon="5.91514">
        <ele>309.9</ele>
        <time>2022-11-13T11:17:44Z</time>
      </trkpt>
      <trkpt lat="43.37521" lon="5.91512">
        <ele>310.6</ele>
        <time>2022-11-13T11:17:52Z</time>
      </trkpt>
      <trkpt lat="43.37521" lon="5.91512">
        <ele>311</ele>
        <time>2022-11-13T11:17:54Z</time>
      </trkpt>
      <trkpt lat="43.37518" lon="5.91516">
        <ele>311.2</ele>
        <time>2022-11-13T11:18:01Z</time>
      </trkpt>
      <trkpt lat="43.37518" lon="5.91517">
        <ele>311</ele>
        <time>2022-11-13T11:18:02Z</time>
      </trkpt>
      <trkpt lat="43.37518" lon="5.91515">
        <ele>310.9</ele>
        <time>2022-11-13T11:18:14Z</time>
      </trkpt>
      <trkpt lat="43.37518" lon="5.91515">
        <ele>311</ele>
        <time>2022-11-13T11:18:15Z</time>
      </trkpt>
      <trkpt lat="43.37518" lon="5.91515">
        <ele>311.5</ele>
        <time>2022-11-13T11:18:19Z</time>
      </trkpt>
      <trkpt lat="43.37519" lon="5.91515">
        <ele>311.6</ele>
        <time>2022-11-13T11:18:20Z</time>
      </trkpt>
      <trkpt lat="43.37521" lon="5.91512">
        <ele>311.4</ele>
        <time>2022-11-13T11:18:35Z</time>
      </trkpt>
      <trkpt lat="43.37522" lon="5.91512">
        <ele>311.5</ele>
        <time>2022-11-13T11:18:37Z</time>
      </trkpt>
      <trkpt lat="43.37522" lon="5.91512">
        <ele>311.4</ele>
        <time>2022-11-13T11:18:38Z</time>
      </trkpt>
      <trkpt lat="43.37522" lon="5.91511">
        <ele>311.3</ele>
        <time>2022-11-13T11:18:39Z</time>
      </trkpt>
      <trkpt lat="43.37522" lon="5.91511">
        <ele>311.3</ele>
        <time>2022-11-13T11:18:40Z</time>
      </trkpt>
      <trkpt lat="43.37522" lon="5.91511">
        <ele>311.4</ele>
        <time>2022-11-13T11:19:02Z</time>
      </trkpt>
      <trkpt lat="43.37522" lon="5.91511">
        <ele>311.4</ele>
        <time>2022-11-13T11:19:03Z</time>
      </trkpt>
      <trkpt lat="43.37522" lon="5.91511">
        <ele>311.4</ele>
        <time>2022-11-13T11:19:23Z</time>
      </trkpt>
      <trkpt lat="43.37522" lon="5.91511">
        <ele>311.4</ele>
        <time>2022-11-13T11:19:24Z</time>
      </trkpt>
      <trkpt lat="43.37522" lon="5.91511">
        <ele>311.5</ele>
        <time>2022-11-13T11:19:28Z</time>
      </trkpt>
      <trkpt lat="43.37521" lon="5.91512">
        <ele>311.4</ele>
        <time>2022-11-13T11:19:31Z</time>
      </trkpt>
      <trkpt lat="43.37521" lon="5.91512">
        <ele>311</ele>
        <time>2022-11-13T11:19:40Z</time>
      </trkpt>
      <trkpt lat="43.37521" lon="5.91512">
        <ele>310.7</ele>
        <time>2022-11-13T11:19:42Z</time>
      </trkpt>
      <trkpt lat="43.37521" lon="5.91512">
        <ele>310.6</ele>
        <time>2022-11-13T11:19:47Z</time>
      </trkpt>
      <trkpt lat="43.37522" lon="5.9151">
        <ele>310.3</ele>
        <time>2022-11-13T11:19:51Z</time>
      </trkpt>
      <trkpt lat="43.37521" lon="5.9151">
        <ele>310.3</ele>
        <time>2022-11-13T11:19:54Z</time>
      </trkpt>
      <trkpt lat="43.37521" lon="5.9151">
        <ele>310.3</ele>
        <time>2022-11-13T11:19:55Z</time>
      </trkpt>
      <trkpt lat="43.37521" lon="5.9151">
        <ele>309.8</ele>
        <time>2022-11-13T11:20:05Z</time>
      </trkpt>
      <trkpt lat="43.37521" lon="5.9151">
        <ele>309.7</ele>
        <time>2022-11-13T11:20:06Z</time>
      </trkpt>
      <trkpt lat="43.37521" lon="5.91509">
        <ele>309.5</ele>
        <time>2022-11-13T11:20:42Z</time>
      </trkpt>
      <trkpt lat="43.37521" lon="5.91509">
        <ele>309.4</ele>
        <time>2022-11-13T11:20:43Z</time>
      </trkpt>
      <trkpt lat="43.37522" lon="5.91509">
        <ele>309.2</ele>
        <time>2022-11-13T11:22:19Z</time>
      </trkpt>
      <trkpt lat="43.37522" lon="5.91509">
        <ele>309.2</ele>
        <time>2022-11-13T11:22:20Z</time>
      </trkpt>
      <trkpt lat="43.37522" lon="5.91509">
        <ele>309.1</ele>
        <time>2022-11-13T11:23:29Z</time>
      </trkpt>
      <trkpt lat="43.37522" lon="5.91509">
        <ele>309.1</ele>
        <time>2022-11-13T11:23:30Z</time>
      </trkpt>
      <trkpt lat="43.37522" lon="5.91509">
        <ele>309.2</ele>
        <time>2022-11-13T11:23:51Z</time>
      </trkpt>
      <trkpt lat="43.37522" lon="5.91509">
        <ele>309.2</ele>
        <time>2022-11-13T11:23:52Z</time>
      </trkpt>
      <trkpt lat="43.37522" lon="5.91509">
        <ele>309.4</ele>
        <time>2022-11-13T11:24:30Z</time>
      </trkpt>
      <trkpt lat="43.37522" lon="5.91509">
        <ele>309.4</ele>
        <time>2022-11-13T11:24:31Z</time>
      </trkpt>
      <trkpt lat="43.37522" lon="5.91509">
        <ele>309.4</ele>
        <time>2022-11-13T11:25:17Z</time>
      </trkpt>
      <trkpt lat="43.37522" lon="5.91509">
        <ele>309.4</ele>
        <time>2022-11-13T11:25:18Z</time>
      </trkpt>
      <trkpt lat="43.37522" lon="5.91508">
        <ele>309.4</ele>
        <time>2022-11-13T11:26:00Z</time>
      </trkpt>
      <trkpt lat="43.37522" lon="5.91508">
        <ele>309.4</ele>
        <time>2022-11-13T11:26:01Z</time>
      </trkpt>
      <trkpt lat="43.37523" lon="5.91508">
        <ele>309.4</ele>
        <time>2022-11-13T11:26:34Z</time>
      </trkpt>
      <trkpt lat="43.37523" lon="5.91508">
        <ele>309.4</ele>
        <time>2022-11-13T11:26:35Z</time>
      </trkpt>
      <trkpt lat="43.37522" lon="5.91508">
        <ele>309.4</ele>
        <time>2022-11-13T11:31:21Z</time>
      </trkpt>
      <trkpt lat="43.37522" lon="5.91508">
        <ele>309.4</ele>
        <time>2022-11-13T11:31:22Z</time>
      </trkpt>
      <trkpt lat="43.37523" lon="5.91508">
        <ele>309.4</ele>
        <time>2022-11-13T11:32:17Z</time>
      </trkpt>
      <trkpt lat="43.37523" lon="5.91508">
        <ele>309.4</ele>
        <time>2022-11-13T11:32:18Z</time>
      </trkpt>
      <trkpt lat="43.37523" lon="5.91508">
        <ele>309.7</ele>
        <time>2022-11-13T11:32:43Z</time>
      </trkpt>
      <trkpt lat="43.37531" lon="5.91502">
        <ele>309.2</ele>
        <time>2022-11-13T11:32:59Z</time>
      </trkpt>
      <trkpt lat="43.37531" lon="5.91502">
        <ele>309.5</ele>
        <time>2022-11-13T11:33:01Z</time>
      </trkpt>
      <trkpt lat="43.37532" lon="5.91503">
        <ele>310</ele>
        <time>2022-11-13T11:33:06Z</time>
      </trkpt>
      <trkpt lat="43.37532" lon="5.91503">
        <ele>310.2</ele>
        <time>2022-11-13T11:33:07Z</time>
      </trkpt>
      <trkpt lat="43.37532" lon="5.91503">
        <ele>310.3</ele>
        <time>2022-11-13T11:33:11Z</time>
      </trkpt>
      <trkpt lat="43.37531" lon="5.91504">
        <ele>311.7</ele>
        <time>2022-11-13T11:33:17Z</time>
      </trkpt>
      <trkpt lat="43.3753" lon="5.91504">
        <ele>311.8</ele>
        <time>2022-11-13T11:33:21Z</time>
      </trkpt>
      <trkpt lat="43.3753" lon="5.91504">
        <ele>312.3</ele>
        <time>2022-11-13T11:33:25Z</time>
      </trkpt>
      <trkpt lat="43.37529" lon="5.91504">
        <ele>312.2</ele>
        <time>2022-11-13T11:33:26Z</time>
      </trkpt>
      <trkpt lat="43.37529" lon="5.91504">
        <ele>312.2</ele>
        <time>2022-11-13T11:33:27Z</time>
      </trkpt>
      <trkpt lat="43.37529" lon="5.91504">
        <ele>312.4</ele>
        <time>2022-11-13T11:33:45Z</time>
      </trkpt>
      <trkpt lat="43.37529" lon="5.91504">
        <ele>312.5</ele>
        <time>2022-11-13T11:33:46Z</time>
      </trkpt>
      <trkpt lat="43.37529" lon="5.91504">
        <ele>312.6</ele>
        <time>2022-11-13T11:33:47Z</time>
      </trkpt>
      <trkpt lat="43.37528" lon="5.91505">
        <ele>312.7</ele>
        <time>2022-11-13T11:33:50Z</time>
      </trkpt>
      <trkpt lat="43.37528" lon="5.91505">
        <ele>312.9</ele>
        <time>2022-11-13T11:33:51Z</time>
      </trkpt>
      <trkpt lat="43.37528" lon="5.91503">
        <ele>312.1</ele>
        <time>2022-11-13T11:34:03Z</time>
      </trkpt>
      <trkpt lat="43.37528" lon="5.91503">
        <ele>312</ele>
        <time>2022-11-13T11:34:06Z</time>
      </trkpt>
      <trkpt lat="43.37529" lon="5.91503">
        <ele>312.4</ele>
        <time>2022-11-13T11:34:10Z</time>
      </trkpt>
      <trkpt lat="43.37529" lon="5.91503">
        <ele>312.3</ele>
        <time>2022-11-13T11:34:21Z</time>
      </trkpt>
      <trkpt lat="43.37528" lon="5.91504">
        <ele>312.2</ele>
        <time>2022-11-13T11:34:24Z</time>
      </trkpt>
      <trkpt lat="43.37528" lon="5.91503">
        <ele>311.9</ele>
        <time>2022-11-13T11:34:29Z</time>
      </trkpt>
      <trkpt lat="43.37528" lon="5.91503">
        <ele>311.8</ele>
        <time>2022-11-13T11:34:30Z</time>
      </trkpt>
      <trkpt lat="43.37528" lon="5.91503">
        <ele>311.6</ele>
        <time>2022-11-13T11:34:39Z</time>
      </trkpt>
      <trkpt lat="43.37528" lon="5.91503">
        <ele>311.6</ele>
        <time>2022-11-13T11:34:40Z</time>
      </trkpt>
      <trkpt lat="43.37529" lon="5.91503">
        <ele>311.6</ele>
        <time>2022-11-13T11:34:50Z</time>
      </trkpt>
      <trkpt lat="43.37529" lon="5.91503">
        <ele>311.6</ele>
        <time>2022-11-13T11:34:51Z</time>
      </trkpt>
      <trkpt lat="43.37529" lon="5.91503">
        <ele>311.7</ele>
        <time>2022-11-13T11:35:03Z</time>
      </trkpt>
      <trkpt lat="43.37529" lon="5.91503">
        <ele>311.8</ele>
        <time>2022-11-13T11:35:06Z</time>
      </trkpt>
      <trkpt lat="43.37529" lon="5.91503">
        <ele>311.8</ele>
        <time>2022-11-13T11:35:08Z</time>
      </trkpt>
      <trkpt lat="43.37529" lon="5.91503">
        <ele>311.8</ele>
        <time>2022-11-13T11:35:09Z</time>
      </trkpt>
      <trkpt lat="43.37529" lon="5.91503">
        <ele>311.8</ele>
        <time>2022-11-13T11:35:24Z</time>
      </trkpt>
      <trkpt lat="43.37529" lon="5.91503">
        <ele>311.8</ele>
        <time>2022-11-13T11:35:25Z</time>
      </trkpt>
      <trkpt lat="43.37529" lon="5.91504">
        <ele>311.7</ele>
        <time>2022-11-13T11:35:32Z</time>
      </trkpt>
      <trkpt lat="43.37529" lon="5.91504">
        <ele>311.7</ele>
        <time>2022-11-13T11:35:33Z</time>
      </trkpt>
      <trkpt lat="43.37529" lon="5.91504">
        <ele>311.6</ele>
        <time>2022-11-13T11:35:52Z</time>
      </trkpt>
      <trkpt lat="43.37529" lon="5.91504">
        <ele>311.6</ele>
        <time>2022-11-13T11:35:54Z</time>
      </trkpt>
      <trkpt lat="43.37529" lon="5.91504">
        <ele>311.6</ele>
        <time>2022-11-13T11:36:16Z</time>
      </trkpt>
      <trkpt lat="43.37529" lon="5.91504">
        <ele>311.6</ele>
        <time>2022-11-13T11:36:17Z</time>
      </trkpt>
      <trkpt lat="43.37529" lon="5.91504">
        <ele>311.5</ele>
        <time>2022-11-13T11:37:09Z</time>
      </trkpt>
      <trkpt lat="43.37529" lon="5.91504">
        <ele>311.5</ele>
        <time>2022-11-13T11:37:10Z</time>
      </trkpt>
      <trkpt lat="43.37529" lon="5.91503">
        <ele>311.4</ele>
        <time>2022-11-13T11:37:19Z</time>
      </trkpt>
      <trkpt lat="43.37529" lon="5.91503">
        <ele>311.6</ele>
        <time>2022-11-13T11:37:21Z</time>
      </trkpt>
      <trkpt lat="43.37529" lon="5.91503">
        <ele>311.6</ele>
        <time>2022-11-13T11:37:22Z</time>
      </trkpt>
      <trkpt lat="43.37529" lon="5.91503">
        <ele>311.6</ele>
        <time>2022-11-13T11:37:23Z</time>
      </trkpt>
      <trkpt lat="43.37529" lon="5.91503">
        <ele>311.5</ele>
        <time>2022-11-13T11:37:30Z</time>
      </trkpt>
      <trkpt lat="43.37529" lon="5.91503">
        <ele>311.4</ele>
        <time>2022-11-13T11:37:34Z</time>
      </trkpt>
      <trkpt lat="43.37529" lon="5.91503">
        <ele>311.4</ele>
        <time>2022-11-13T11:37:37Z</time>
      </trkpt>
      <trkpt lat="43.37529" lon="5.91503">
        <ele>311.4</ele>
        <time>2022-11-13T11:37:38Z</time>
      </trkpt>
      <trkpt lat="43.37529" lon="5.91503">
        <ele>311.4</ele>
        <time>2022-11-13T11:37:46Z</time>
      </trkpt>
      <trkpt lat="43.37529" lon="5.91503">
        <ele>311.4</ele>
        <time>2022-11-13T11:37:49Z</time>
      </trkpt>
      <trkpt lat="43.37529" lon="5.91502">
        <ele>311.4</ele>
        <time>2022-11-13T11:37:51Z</time>
      </trkpt>
      <trkpt lat="43.37529" lon="5.91502">
        <ele>311.5</ele>
        <time>2022-11-13T11:37:54Z</time>
      </trkpt>
      <trkpt lat="43.37529" lon="5.91502">
        <ele>311.5</ele>
        <time>2022-11-13T11:37:55Z</time>
      </trkpt>
      <trkpt lat="43.37529" lon="5.91502">
        <ele>311.5</ele>
        <time>2022-11-13T11:37:56Z</time>
      </trkpt>
      <trkpt lat="43.37529" lon="5.91502">
        <ele>311.6</ele>
        <time>2022-11-13T11:38:09Z</time>
      </trkpt>
      <trkpt lat="43.37529" lon="5.91502">
        <ele>311.6</ele>
        <time>2022-11-13T11:38:11Z</time>
      </trkpt>
      <trkpt lat="43.37528" lon="5.91502">
        <ele>311.7</ele>
        <time>2022-11-13T11:38:32Z</time>
      </trkpt>
      <trkpt lat="43.37528" lon="5.91502">
        <ele>311.9</ele>
        <time>2022-11-13T11:38:35Z</time>
      </trkpt>
      <trkpt lat="43.37528" lon="5.91503">
        <ele>312</ele>
        <time>2022-11-13T11:38:38Z</time>
      </trkpt>
      <trkpt lat="43.37527" lon="5.91504">
        <ele>312.5</ele>
        <time>2022-11-13T11:38:43Z</time>
      </trkpt>
      <trkpt lat="43.37527" lon="5.91504">
        <ele>312.5</ele>
        <time>2022-11-13T11:38:46Z</time>
      </trkpt>
      <trkpt lat="43.37527" lon="5.91505">
        <ele>312</ele>
        <time>2022-11-13T11:38:55Z</time>
      </trkpt>
      <trkpt lat="43.37527" lon="5.91505">
        <ele>311.8</ele>
        <time>2022-11-13T11:38:56Z</time>
      </trkpt>
      <trkpt lat="43.37528" lon="5.91505">
        <ele>311.8</ele>
        <time>2022-11-13T11:38:58Z</time>
      </trkpt>
      <trkpt lat="43.37528" lon="5.91505">
        <ele>311.7</ele>
        <time>2022-11-13T11:39:02Z</time>
      </trkpt>
      <trkpt lat="43.37528" lon="5.91505">
        <ele>311.6</ele>
        <time>2022-11-13T11:39:04Z</time>
      </trkpt>
      <trkpt lat="43.37528" lon="5.91505">
        <ele>311.5</ele>
        <time>2022-11-13T11:39:08Z</time>
      </trkpt>
      <trkpt lat="43.37529" lon="5.91506">
        <ele>310.8</ele>
        <time>2022-11-13T11:39:14Z</time>
      </trkpt>
      <trkpt lat="43.37529" lon="5.91506">
        <ele>310.7</ele>
        <time>2022-11-13T11:39:18Z</time>
      </trkpt>
      <trkpt lat="43.37529" lon="5.91506">
        <ele>310.7</ele>
        <time>2022-11-13T11:39:19Z</time>
      </trkpt>
      <trkpt lat="43.37529" lon="5.91506">
        <ele>310.8</ele>
        <time>2022-11-13T11:39:20Z</time>
      </trkpt>
      <trkpt lat="43.37529" lon="5.91506">
        <ele>310.9</ele>
        <time>2022-11-13T11:39:22Z</time>
      </trkpt>
      <trkpt lat="43.37529" lon="5.91506">
        <ele>311</ele>
        <time>2022-11-13T11:39:29Z</time>
      </trkpt>
      <trkpt lat="43.37529" lon="5.91506">
        <ele>311</ele>
        <time>2022-11-13T11:39:30Z</time>
      </trkpt>
      <trkpt lat="43.37529" lon="5.91506">
        <ele>310.9</ele>
        <time>2022-11-13T11:39:38Z</time>
      </trkpt>
      <trkpt lat="43.37529" lon="5.91505">
        <ele>310.7</ele>
        <time>2022-11-13T11:39:41Z</time>
      </trkpt>
      <trkpt lat="43.37529" lon="5.91505">
        <ele>310.8</ele>
        <time>2022-11-13T11:39:45Z</time>
      </trkpt>
      <trkpt lat="43.37529" lon="5.91505">
        <ele>310.9</ele>
        <time>2022-11-13T11:39:47Z</time>
      </trkpt>
      <trkpt lat="43.37529" lon="5.91505">
        <ele>311</ele>
        <time>2022-11-13T11:39:59Z</time>
      </trkpt>
      <trkpt lat="43.37529" lon="5.91506">
        <ele>311.2</ele>
        <time>2022-11-13T11:40:01Z</time>
      </trkpt>
      <trkpt lat="43.37529" lon="5.91506">
        <ele>311.3</ele>
        <time>2022-11-13T11:40:02Z</time>
      </trkpt>
      <trkpt lat="43.37529" lon="5.91506">
        <ele>311.4</ele>
        <time>2022-11-13T11:40:03Z</time>
      </trkpt>
      <trkpt lat="43.37528" lon="5.91506">
        <ele>311.5</ele>
        <time>2022-11-13T11:40:04Z</time>
      </trkpt>
      <trkpt lat="43.37527" lon="5.91507">
        <ele>311.8</ele>
        <time>2022-11-13T11:40:09Z</time>
      </trkpt>
      <trkpt lat="43.37527" lon="5.91507">
        <ele>311.9</ele>
        <time>2022-11-13T11:41:02Z</time>
      </trkpt>
      <trkpt lat="43.37527" lon="5.91507">
        <ele>311.9</ele>
        <time>2022-11-13T11:41:03Z</time>
      </trkpt>
      <trkpt lat="43.37527" lon="5.91507">
        <ele>312.1</ele>
        <time>2022-11-13T11:41:17Z</time>
      </trkpt>
      <trkpt lat="43.37528" lon="5.91507">
        <ele>312.1</ele>
        <time>2022-11-13T11:41:19Z</time>
      </trkpt>
      <trkpt lat="43.37528" lon="5.91507">
        <ele>312.1</ele>
        <time>2022-11-13T11:41:20Z</time>
      </trkpt>
      <trkpt lat="43.37527" lon="5.91506">
        <ele>312.3</ele>
        <time>2022-11-13T11:41:25Z</time>
      </trkpt>
      <trkpt lat="43.37527" lon="5.91506">
        <ele>312.3</ele>
        <time>2022-11-13T11:41:26Z</time>
      </trkpt>
      <trkpt lat="43.37527" lon="5.91506">
        <ele>312.3</ele>
        <time>2022-11-13T11:41:27Z</time>
      </trkpt>
      <trkpt lat="43.37527" lon="5.91506">
        <ele>312.3</ele>
        <time>2022-11-13T11:41:29Z</time>
      </trkpt>
      <trkpt lat="43.37528" lon="5.91505">
        <ele>312.3</ele>
        <time>2022-11-13T11:41:32Z</time>
      </trkpt>
      <trkpt lat="43.37528" lon="5.91505">
        <ele>312.3</ele>
        <time>2022-11-13T11:41:43Z</time>
      </trkpt>
      <trkpt lat="43.37528" lon="5.91505">
        <ele>312.3</ele>
        <time>2022-11-13T11:41:44Z</time>
      </trkpt>
      <trkpt lat="43.37528" lon="5.91505">
        <ele>312.3</ele>
        <time>2022-11-13T11:42:04Z</time>
      </trkpt>
      <trkpt lat="43.37528" lon="5.91505">
        <ele>312.3</ele>
        <time>2022-11-13T11:42:05Z</time>
      </trkpt>
      <trkpt lat="43.37527" lon="5.91506">
        <ele>312.2</ele>
        <time>2022-11-13T11:42:44Z</time>
      </trkpt>
      <trkpt lat="43.37527" lon="5.91506">
        <ele>312.2</ele>
        <time>2022-11-13T11:42:45Z</time>
      </trkpt>
      <trkpt lat="43.37527" lon="5.91506">
        <ele>312.2</ele>
        <time>2022-11-13T11:42:57Z</time>
      </trkpt>
      <trkpt lat="43.37527" lon="5.91506">
        <ele>312.2</ele>
        <time>2022-11-13T11:42:58Z</time>
      </trkpt>
      <trkpt lat="43.37527" lon="5.91506">
        <ele>312.1</ele>
        <time>2022-11-13T11:43:02Z</time>
      </trkpt>
      <trkpt lat="43.37527" lon="5.91506">
        <ele>311.9</ele>
        <time>2022-11-13T11:43:05Z</time>
      </trkpt>
      <trkpt lat="43.37526" lon="5.91506">
        <ele>311.9</ele>
        <time>2022-11-13T11:43:08Z</time>
      </trkpt>
      <trkpt lat="43.37526" lon="5.91506">
        <ele>311.8</ele>
        <time>2022-11-13T11:43:09Z</time>
      </trkpt>
      <trkpt lat="43.37526" lon="5.91506">
        <ele>312</ele>
        <time>2022-11-13T11:43:12Z</time>
      </trkpt>
      <trkpt lat="43.37526" lon="5.91506">
        <ele>312</ele>
        <time>2022-11-13T11:43:13Z</time>
      </trkpt>
      <trkpt lat="43.37526" lon="5.91507">
        <ele>311.9</ele>
        <time>2022-11-13T11:43:33Z</time>
      </trkpt>
      <trkpt lat="43.37526" lon="5.91507">
        <ele>311.9</ele>
        <time>2022-11-13T11:43:34Z</time>
      </trkpt>
      <trkpt lat="43.37526" lon="5.91507">
        <ele>311.7</ele>
        <time>2022-11-13T11:43:36Z</time>
      </trkpt>
      <trkpt lat="43.37526" lon="5.91507">
        <ele>311.5</ele>
        <time>2022-11-13T11:43:39Z</time>
      </trkpt>
      <trkpt lat="43.37526" lon="5.91507">
        <ele>311.5</ele>
        <time>2022-11-13T11:43:46Z</time>
      </trkpt>
      <trkpt lat="43.37525" lon="5.91507">
        <ele>311.3</ele>
        <time>2022-11-13T11:43:48Z</time>
      </trkpt>
      <trkpt lat="43.37525" lon="5.91507">
        <ele>311.2</ele>
        <time>2022-11-13T11:43:49Z</time>
      </trkpt>
      <trkpt lat="43.37525" lon="5.91507">
        <ele>311.2</ele>
        <time>2022-11-13T11:43:50Z</time>
      </trkpt>
      <trkpt lat="43.37525" lon="5.91508">
        <ele>311.1</ele>
        <time>2022-11-13T11:43:52Z</time>
      </trkpt>
      <trkpt lat="43.37525" lon="5.91508">
        <ele>311</ele>
        <time>2022-11-13T11:43:53Z</time>
      </trkpt>
      <trkpt lat="43.37526" lon="5.91508">
        <ele>310.9</ele>
        <time>2022-11-13T11:43:55Z</time>
      </trkpt>
      <trkpt lat="43.37526" lon="5.91508">
        <ele>310.7</ele>
        <time>2022-11-13T11:43:56Z</time>
      </trkpt>
      <trkpt lat="43.37526" lon="5.91508">
        <ele>310.7</ele>
        <time>2022-11-13T11:43:57Z</time>
      </trkpt>
      <trkpt lat="43.37524" lon="5.9151">
        <ele>310.3</ele>
        <time>2022-11-13T11:44:02Z</time>
      </trkpt>
      <trkpt lat="43.37524" lon="5.9151">
        <ele>310.3</ele>
        <time>2022-11-13T11:44:03Z</time>
      </trkpt>
      <trkpt lat="43.37523" lon="5.9151">
        <ele>310.2</ele>
        <time>2022-11-13T11:44:06Z</time>
      </trkpt>
      <trkpt lat="43.37523" lon="5.91511">
        <ele>310.2</ele>
        <time>2022-11-13T11:44:07Z</time>
      </trkpt>
      <trkpt lat="43.37523" lon="5.91512">
        <ele>310.2</ele>
        <time>2022-11-13T11:44:10Z</time>
      </trkpt>
      <trkpt lat="43.37522" lon="5.91512">
        <ele>310.2</ele>
        <time>2022-11-13T11:44:11Z</time>
      </trkpt>
      <trkpt lat="43.3752" lon="5.91514">
        <ele>310.1</ele>
        <time>2022-11-13T11:44:20Z</time>
      </trkpt>
      <trkpt lat="43.3752" lon="5.91515">
        <ele>310.1</ele>
        <time>2022-11-13T11:44:23Z</time>
      </trkpt>
      <trkpt lat="43.3752" lon="5.91514">
        <ele>310.2</ele>
        <time>2022-11-13T11:44:27Z</time>
      </trkpt>
      <trkpt lat="43.3752" lon="5.91514">
        <ele>310.3</ele>
        <time>2022-11-13T11:44:36Z</time>
      </trkpt>
      <trkpt lat="43.3752" lon="5.91514">
        <ele>310.3</ele>
        <time>2022-11-13T11:44:37Z</time>
      </trkpt>
      <trkpt lat="43.3752" lon="5.91514">
        <ele>310.5</ele>
        <time>2022-11-13T11:45:21Z</time>
      </trkpt>
      <trkpt lat="43.3752" lon="5.91514">
        <ele>310.5</ele>
        <time>2022-11-13T11:45:22Z</time>
      </trkpt>
      <trkpt lat="43.3752" lon="5.91514">
        <ele>310.6</ele>
        <time>2022-11-13T11:45:57Z</time>
      </trkpt>
      <trkpt lat="43.3752" lon="5.91514">
        <ele>310.6</ele>
        <time>2022-11-13T11:45:59Z</time>
      </trkpt>
      <trkpt lat="43.3752" lon="5.91514">
        <ele>310.7</ele>
        <time>2022-11-13T11:46:02Z</time>
      </trkpt>
      <trkpt lat="43.3752" lon="5.91514">
        <ele>310.7</ele>
        <time>2022-11-13T11:46:03Z</time>
      </trkpt>
      <trkpt lat="43.3752" lon="5.91514">
        <ele>310.8</ele>
        <time>2022-11-13T11:46:04Z</time>
      </trkpt>
      <trkpt lat="43.3752" lon="5.91514">
        <ele>310.8</ele>
        <time>2022-11-13T11:46:05Z</time>
      </trkpt>
      <trkpt lat="43.3752" lon="5.91514">
        <ele>310.9</ele>
        <time>2022-11-13T11:46:10Z</time>
      </trkpt>
      <trkpt lat="43.3752" lon="5.91514">
        <ele>311</ele>
        <time>2022-11-13T11:46:11Z</time>
      </trkpt>
      <trkpt lat="43.3752" lon="5.91514">
        <ele>311</ele>
        <time>2022-11-13T11:46:12Z</time>
      </trkpt>
      <trkpt lat="43.3752" lon="5.91514">
        <ele>311</ele>
        <time>2022-11-13T11:46:13Z</time>
      </trkpt>
      <trkpt lat="43.3752" lon="5.91514">
        <ele>311.1</ele>
        <time>2022-11-13T11:46:18Z</time>
      </trkpt>
      <trkpt lat="43.3752" lon="5.91513">
        <ele>311.2</ele>
        <time>2022-11-13T11:46:20Z</time>
      </trkpt>
      <trkpt lat="43.3752" lon="5.91513">
        <ele>311.3</ele>
        <time>2022-11-13T11:46:24Z</time>
      </trkpt>
      <trkpt lat="43.3752" lon="5.91513">
        <ele>311.3</ele>
        <time>2022-11-13T11:46:25Z</time>
      </trkpt>
      <trkpt lat="43.3752" lon="5.91513">
        <ele>311.3</ele>
        <time>2022-11-13T11:46:30Z</time>
      </trkpt>
      <trkpt lat="43.3752" lon="5.91512">
        <ele>310.7</ele>
        <time>2022-11-13T11:46:38Z</time>
      </trkpt>
      <trkpt lat="43.3752" lon="5.91512">
        <ele>310.6</ele>
        <time>2022-11-13T11:47:04Z</time>
      </trkpt>
      <trkpt lat="43.3752" lon="5.91512">
        <ele>310.6</ele>
        <time>2022-11-13T11:47:05Z</time>
      </trkpt>
      <trkpt lat="43.37521" lon="5.91512">
        <ele>310.5</ele>
        <time>2022-11-13T11:47:06Z</time>
      </trkpt>
      <trkpt lat="43.37521" lon="5.91512">
        <ele>310.5</ele>
        <time>2022-11-13T11:47:07Z</time>
      </trkpt>
      <trkpt lat="43.3752" lon="5.91512">
        <ele>310.4</ele>
        <time>2022-11-13T11:47:44Z</time>
      </trkpt>
      <trkpt lat="43.3752" lon="5.91512">
        <ele>310.4</ele>
        <time>2022-11-13T11:47:45Z</time>
      </trkpt>
      <trkpt lat="43.3752" lon="5.91512">
        <ele>310.4</ele>
        <time>2022-11-13T11:47:55Z</time>
      </trkpt>
      <trkpt lat="43.3752" lon="5.91512">
        <ele>310.4</ele>
        <time>2022-11-13T11:47:56Z</time>
      </trkpt>
      <trkpt lat="43.37521" lon="5.91512">
        <ele>310.5</ele>
        <time>2022-11-13T11:47:59Z</time>
      </trkpt>
      <trkpt lat="43.37521" lon="5.91511">
        <ele>310.7</ele>
        <time>2022-11-13T11:48:02Z</time>
      </trkpt>
      <trkpt lat="43.3752" lon="5.91511">
        <ele>310.7</ele>
        <time>2022-11-13T11:48:09Z</time>
      </trkpt>
      <trkpt lat="43.3752" lon="5.91511">
        <ele>310.7</ele>
        <time>2022-11-13T11:48:10Z</time>
      </trkpt>
      <trkpt lat="43.37521" lon="5.91511">
        <ele>310.8</ele>
        <time>2022-11-13T11:50:11Z</time>
      </trkpt>
      <trkpt lat="43.37521" lon="5.91511">
        <ele>310.8</ele>
        <time>2022-11-13T11:50:12Z</time>
      </trkpt>
      <trkpt lat="43.3752" lon="5.91511">
        <ele>310.8</ele>
        <time>2022-11-13T11:50:28Z</time>
      </trkpt>
      <trkpt lat="43.3752" lon="5.91511">
        <ele>310.8</ele>
        <time>2022-11-13T11:50:29Z</time>
      </trkpt>
      <trkpt lat="43.3752" lon="5.91511">
        <ele>310.9</ele>
        <time>2022-11-13T11:52:14Z</time>
      </trkpt>
      <trkpt lat="43.3752" lon="5.91511">
        <ele>310.9</ele>
        <time>2022-11-13T11:52:15Z</time>
      </trkpt>
      <trkpt lat="43.3752" lon="5.91511">
        <ele>310.9</ele>
        <time>2022-11-13T11:52:16Z</time>
      </trkpt>
      <trkpt lat="43.3752" lon="5.91511">
        <ele>310.9</ele>
        <time>2022-11-13T11:52:18Z</time>
      </trkpt>
      <trkpt lat="43.3752" lon="5.91511">
        <ele>310.9</ele>
        <time>2022-11-13T11:52:22Z</time>
      </trkpt>
      <trkpt lat="43.3752" lon="5.91511">
        <ele>310.9</ele>
        <time>2022-11-13T11:52:23Z</time>
      </trkpt>
      <trkpt lat="43.37521" lon="5.9151">
        <ele>310.9</ele>
        <time>2022-11-13T11:53:50Z</time>
      </trkpt>
      <trkpt lat="43.37519" lon="5.91505">
        <ele>308.4</ele>
        <time>2022-11-13T11:54:00Z</time>
      </trkpt>
      <trkpt lat="43.37519" lon="5.91504">
        <ele>308.3</ele>
        <time>2022-11-13T11:54:07Z</time>
      </trkpt>
      <trkpt lat="43.37519" lon="5.91504">
        <ele>308.3</ele>
        <time>2022-11-13T11:54:08Z</time>
      </trkpt>
      <trkpt lat="43.37519" lon="5.91504">
        <ele>308.2</ele>
        <time>2022-11-13T11:54:16Z</time>
      </trkpt>
      <trkpt lat="43.37519" lon="5.91504">
        <ele>308.2</ele>
        <time>2022-11-13T11:54:17Z</time>
      </trkpt>
      <trkpt lat="43.37519" lon="5.91504">
        <ele>308.2</ele>
        <time>2022-11-13T11:54:18Z</time>
      </trkpt>
      <trkpt lat="43.37519" lon="5.91504">
        <ele>308.2</ele>
        <time>2022-11-13T11:54:19Z</time>
      </trkpt>
      <trkpt lat="43.37519" lon="5.91504">
        <ele>308.1</ele>
        <time>2022-11-13T11:54:31Z</time>
      </trkpt>
      <trkpt lat="43.37519" lon="5.91504">
        <ele>308.1</ele>
        <time>2022-11-13T11:54:32Z</time>
      </trkpt>
      <trkpt lat="43.37519" lon="5.91504">
        <ele>307.9</ele>
        <time>2022-11-13T11:54:34Z</time>
      </trkpt>
      <trkpt lat="43.37519" lon="5.91503">
        <ele>307.6</ele>
        <time>2022-11-13T11:54:38Z</time>
      </trkpt>
      <trkpt lat="43.37519" lon="5.91502">
        <ele>307.5</ele>
        <time>2022-11-13T11:54:39Z</time>
      </trkpt>
      <trkpt lat="43.37522" lon="5.91499">
        <ele>307.4</ele>
        <time>2022-11-13T11:54:43Z</time>
      </trkpt>
      <trkpt lat="43.37523" lon="5.91498">
        <ele>307.3</ele>
        <time>2022-11-13T11:54:45Z</time>
      </trkpt>
      <trkpt lat="43.37523" lon="5.91496">
        <ele>307.4</ele>
        <time>2022-11-13T11:54:51Z</time>
      </trkpt>
      <trkpt lat="43.37523" lon="5.91496">
        <ele>307.5</ele>
        <time>2022-11-13T11:54:52Z</time>
      </trkpt>
      <trkpt lat="43.37523" lon="5.91496">
        <ele>307.6</ele>
        <time>2022-11-13T11:54:54Z</time>
      </trkpt>
      <trkpt lat="43.37523" lon="5.91495">
        <ele>307.5</ele>
        <time>2022-11-13T11:55:01Z</time>
      </trkpt>
      <trkpt lat="43.37523" lon="5.91495">
        <ele>307.5</ele>
        <time>2022-11-13T11:55:02Z</time>
      </trkpt>
      <trkpt lat="43.37524" lon="5.91495">
        <ele>307.5</ele>
        <time>2022-11-13T11:55:04Z</time>
      </trkpt>
      <trkpt lat="43.37524" lon="5.91495">
        <ele>307.5</ele>
        <time>2022-11-13T11:55:07Z</time>
      </trkpt>
      <trkpt lat="43.37524" lon="5.91495">
        <ele>307.5</ele>
        <time>2022-11-13T11:55:12Z</time>
      </trkpt>
      <trkpt lat="43.37525" lon="5.91494">
        <ele>307.2</ele>
        <time>2022-11-13T11:55:14Z</time>
      </trkpt>
      <trkpt lat="43.37525" lon="5.91494">
        <ele>307.1</ele>
        <time>2022-11-13T11:55:35Z</time>
      </trkpt>
      <trkpt lat="43.37525" lon="5.91494">
        <ele>307.1</ele>
        <time>2022-11-13T11:55:36Z</time>
      </trkpt>
      <trkpt lat="43.37525" lon="5.91495">
        <ele>307.1</ele>
        <time>2022-11-13T11:55:37Z</time>
      </trkpt>
      <trkpt lat="43.37525" lon="5.91495">
        <ele>307.1</ele>
        <time>2022-11-13T11:55:38Z</time>
      </trkpt>
      <trkpt lat="43.37525" lon="5.91495">
        <ele>307</ele>
        <time>2022-11-13T11:55:42Z</time>
      </trkpt>
      <trkpt lat="43.37525" lon="5.91495">
        <ele>307.1</ele>
        <time>2022-11-13T11:55:43Z</time>
      </trkpt>
      <trkpt lat="43.37526" lon="5.91495">
        <ele>307</ele>
        <time>2022-11-13T11:55:44Z</time>
      </trkpt>
      <trkpt lat="43.37526" lon="5.91495">
        <ele>307</ele>
        <time>2022-11-13T11:55:45Z</time>
      </trkpt>
      <trkpt lat="43.37525" lon="5.91495">
        <ele>307</ele>
        <time>2022-11-13T11:55:59Z</time>
      </trkpt>
      <trkpt lat="43.37525" lon="5.91494">
        <ele>306.6</ele>
        <time>2022-11-13T11:56:04Z</time>
      </trkpt>
      <trkpt lat="43.37525" lon="5.91494">
        <ele>306.5</ele>
        <time>2022-11-13T11:56:09Z</time>
      </trkpt>
      <trkpt lat="43.37526" lon="5.91498">
        <ele>306.4</ele>
        <time>2022-11-13T11:56:16Z</time>
      </trkpt>
      <trkpt lat="43.37526" lon="5.91498">
        <ele>306.3</ele>
        <time>2022-11-13T11:56:17Z</time>
      </trkpt>
      <trkpt lat="43.37528" lon="5.91503">
        <ele>306.2</ele>
        <time>2022-11-13T11:56:28Z</time>
      </trkpt>
      <trkpt lat="43.37528" lon="5.91503">
        <ele>306.2</ele>
        <time>2022-11-13T11:56:29Z</time>
      </trkpt>
      <trkpt lat="43.37535" lon="5.91508">
        <ele>307.5</ele>
        <time>2022-11-13T11:56:46Z</time>
      </trkpt>
      <trkpt lat="43.37535" lon="5.91509">
        <ele>308</ele>
        <time>2022-11-13T11:56:52Z</time>
      </trkpt>
      <trkpt lat="43.37543" lon="5.91509">
        <ele>307.7</ele>
        <time>2022-11-13T11:57:04Z</time>
      </trkpt>
      <trkpt lat="43.37543" lon="5.91509">
        <ele>307.6</ele>
        <time>2022-11-13T11:57:06Z</time>
      </trkpt>
      <trkpt lat="43.37551" lon="5.91515">
        <ele>307.8</ele>
        <time>2022-11-13T11:57:21Z</time>
      </trkpt>
      <trkpt lat="43.37559" lon="5.91519">
        <ele>308.6</ele>
        <time>2022-11-13T11:57:31Z</time>
      </trkpt>
      <trkpt lat="43.37569" lon="5.91517">
        <ele>308.7</ele>
        <time>2022-11-13T11:57:43Z</time>
      </trkpt>
      <trkpt lat="43.37578" lon="5.91517">
        <ele>308.6</ele>
        <time>2022-11-13T11:57:56Z</time>
      </trkpt>
      <trkpt lat="43.37579" lon="5.91515">
        <ele>307.9</ele>
        <time>2022-11-13T11:58:00Z</time>
      </trkpt>
      <trkpt lat="43.3758" lon="5.91515">
        <ele>307.9</ele>
        <time>2022-11-13T11:58:01Z</time>
      </trkpt>
      <trkpt lat="43.37588" lon="5.91508">
        <ele>307.6</ele>
        <time>2022-11-13T11:58:20Z</time>
      </trkpt>
      <trkpt lat="43.37593" lon="5.91497">
        <ele>305.9</ele>
        <time>2022-11-13T11:58:32Z</time>
      </trkpt>
      <trkpt lat="43.37599" lon="5.91487">
        <ele>305.9</ele>
        <time>2022-11-13T11:58:54Z</time>
      </trkpt>
      <trkpt lat="43.37606" lon="5.91478">
        <ele>306.7</ele>
        <time>2022-11-13T11:59:03Z</time>
      </trkpt>
      <trkpt lat="43.37613" lon="5.91468">
        <ele>307.7</ele>
        <time>2022-11-13T11:59:14Z</time>
      </trkpt>
      <trkpt lat="43.37621" lon="5.91465">
        <ele>309.2</ele>
        <time>2022-11-13T11:59:26Z</time>
      </trkpt>
      <trkpt lat="43.37624" lon="5.91461">
        <ele>308.7</ele>
        <time>2022-11-13T11:59:34Z</time>
      </trkpt>
      <trkpt lat="43.37624" lon="5.91461">
        <ele>308.8</ele>
        <time>2022-11-13T11:59:36Z</time>
      </trkpt>
      <trkpt lat="43.37625" lon="5.91459">
        <ele>308.8</ele>
        <time>2022-11-13T11:59:43Z</time>
      </trkpt>
      <trkpt lat="43.37625" lon="5.91459">
        <ele>308.8</ele>
        <time>2022-11-13T11:59:51Z</time>
      </trkpt>
      <trkpt lat="43.37633" lon="5.91453">
        <ele>308.5</ele>
        <time>2022-11-13T12:00:07Z</time>
      </trkpt>
      <trkpt lat="43.37642" lon="5.91449">
        <ele>309.2</ele>
        <time>2022-11-13T12:00:20Z</time>
      </trkpt>
      <trkpt lat="43.37642" lon="5.91449">
        <ele>309.2</ele>
        <time>2022-11-13T12:00:23Z</time>
      </trkpt>
      <trkpt lat="43.37643" lon="5.91448">
        <ele>309</ele>
        <time>2022-11-13T12:00:24Z</time>
      </trkpt>
      <trkpt lat="43.37644" lon="5.91448">
        <ele>308.5</ele>
        <time>2022-11-13T12:00:29Z</time>
      </trkpt>
      <trkpt lat="43.37644" lon="5.91448">
        <ele>308.4</ele>
        <time>2022-11-13T12:00:30Z</time>
      </trkpt>
      <trkpt lat="43.37644" lon="5.91448">
        <ele>308.5</ele>
        <time>2022-11-13T12:00:32Z</time>
      </trkpt>
      <trkpt lat="43.37644" lon="5.91448">
        <ele>308.5</ele>
        <time>2022-11-13T12:00:40Z</time>
      </trkpt>
      <trkpt lat="43.37644" lon="5.91448">
        <ele>308.4</ele>
        <time>2022-11-13T12:00:41Z</time>
      </trkpt>
      <trkpt lat="43.37645" lon="5.91448">
        <ele>308.5</ele>
        <time>2022-11-13T12:00:42Z</time>
      </trkpt>
      <trkpt lat="43.37645" lon="5.91448">
        <ele>308.4</ele>
        <time>2022-11-13T12:00:43Z</time>
      </trkpt>
      <trkpt lat="43.37644" lon="5.91448">
        <ele>308.2</ele>
        <time>2022-11-13T12:00:45Z</time>
      </trkpt>
      <trkpt lat="43.37645" lon="5.91447">
        <ele>307.9</ele>
        <time>2022-11-13T12:00:49Z</time>
      </trkpt>
      <trkpt lat="43.37645" lon="5.91447">
        <ele>307.8</ele>
        <time>2022-11-13T12:00:56Z</time>
      </trkpt>
      <trkpt lat="43.37645" lon="5.91447">
        <ele>307.8</ele>
        <time>2022-11-13T12:00:57Z</time>
      </trkpt>
      <trkpt lat="43.37645" lon="5.91446">
        <ele>307.7</ele>
        <time>2022-11-13T12:01:08Z</time>
      </trkpt>
      <trkpt lat="43.37648" lon="5.91445">
        <ele>308.5</ele>
        <time>2022-11-13T12:01:23Z</time>
      </trkpt>
      <trkpt lat="43.37648" lon="5.91445">
        <ele>308.6</ele>
        <time>2022-11-13T12:01:24Z</time>
      </trkpt>
      <trkpt lat="43.37648" lon="5.91446">
        <ele>308.8</ele>
        <time>2022-11-13T12:01:26Z</time>
      </trkpt>
      <trkpt lat="43.37648" lon="5.91445">
        <ele>308.7</ele>
        <time>2022-11-13T12:01:31Z</time>
      </trkpt>
      <trkpt lat="43.37642" lon="5.91443">
        <ele>308.2</ele>
        <time>2022-11-13T12:01:51Z</time>
      </trkpt>
      <trkpt lat="43.37642" lon="5.91443">
        <ele>308.2</ele>
        <time>2022-11-13T12:01:57Z</time>
      </trkpt>
      <trkpt lat="43.37642" lon="5.91443">
        <ele>308.2</ele>
        <time>2022-11-13T12:01:58Z</time>
      </trkpt>
      <trkpt lat="43.37642" lon="5.91443">
        <ele>308.2</ele>
        <time>2022-11-13T12:02:20Z</time>
      </trkpt>
      <trkpt lat="43.37642" lon="5.91443">
        <ele>308.2</ele>
        <time>2022-11-13T12:02:22Z</time>
      </trkpt>
      <trkpt lat="43.37641" lon="5.91443">
        <ele>308.1</ele>
        <time>2022-11-13T12:02:24Z</time>
      </trkpt>
      <trkpt lat="43.37641" lon="5.91444">
        <ele>308.1</ele>
        <time>2022-11-13T12:02:29Z</time>
      </trkpt>
      <trkpt lat="43.37641" lon="5.91444">
        <ele>307.9</ele>
        <time>2022-11-13T12:02:32Z</time>
      </trkpt>
      <trkpt lat="43.37641" lon="5.91444">
        <ele>307.8</ele>
        <time>2022-11-13T12:02:35Z</time>
      </trkpt>
      <trkpt lat="43.37641" lon="5.91443">
        <ele>307.9</ele>
        <time>2022-11-13T12:02:40Z</time>
      </trkpt>
      <trkpt lat="43.37641" lon="5.91443">
        <ele>307.9</ele>
        <time>2022-11-13T12:02:41Z</time>
      </trkpt>
      <trkpt lat="43.37641" lon="5.91443">
        <ele>307.9</ele>
        <time>2022-11-13T12:03:05Z</time>
      </trkpt>
      <trkpt lat="43.37641" lon="5.91443">
        <ele>308.2</ele>
        <time>2022-11-13T12:03:08Z</time>
      </trkpt>
      <trkpt lat="43.37642" lon="5.91443">
        <ele>308.2</ele>
        <time>2022-11-13T12:03:10Z</time>
      </trkpt>
      <trkpt lat="43.37642" lon="5.91443">
        <ele>308.2</ele>
        <time>2022-11-13T12:03:11Z</time>
      </trkpt>
      <trkpt lat="43.37641" lon="5.91442">
        <ele>308.5</ele>
        <time>2022-11-13T12:03:16Z</time>
      </trkpt>
      <trkpt lat="43.37641" lon="5.91443">
        <ele>308.6</ele>
        <time>2022-11-13T12:03:17Z</time>
      </trkpt>
      <trkpt lat="43.37642" lon="5.91443">
        <ele>308.4</ele>
        <time>2022-11-13T12:03:18Z</time>
      </trkpt>
      <trkpt lat="43.37642" lon="5.91443">
        <ele>308.3</ele>
        <time>2022-11-13T12:03:19Z</time>
      </trkpt>
      <trkpt lat="43.37642" lon="5.91443">
        <ele>308.4</ele>
        <time>2022-11-13T12:03:20Z</time>
      </trkpt>
      <trkpt lat="43.37648" lon="5.91442">
        <ele>308.3</ele>
        <time>2022-11-13T12:03:35Z</time>
      </trkpt>
      <trkpt lat="43.37648" lon="5.91442">
        <ele>308.3</ele>
        <time>2022-11-13T12:03:36Z</time>
      </trkpt>
      <trkpt lat="43.37646" lon="5.91451">
        <ele>305.5</ele>
        <time>2022-11-13T12:03:58Z</time>
      </trkpt>
      <trkpt lat="43.37646" lon="5.91451">
        <ele>305.5</ele>
        <time>2022-11-13T12:03:59Z</time>
      </trkpt>
      <trkpt lat="43.37645" lon="5.91452">
        <ele>305.4</ele>
        <time>2022-11-13T12:04:02Z</time>
      </trkpt>
      <trkpt lat="43.37645" lon="5.91452">
        <ele>305.2</ele>
        <time>2022-11-13T12:04:04Z</time>
      </trkpt>
      <trkpt lat="43.37642" lon="5.91458">
        <ele>305.6</ele>
        <time>2022-11-13T12:04:14Z</time>
      </trkpt>
      <trkpt lat="43.37641" lon="5.91458">
        <ele>305.7</ele>
        <time>2022-11-13T12:04:15Z</time>
      </trkpt>
      <trkpt lat="43.37637" lon="5.91468">
        <ele>304.6</ele>
        <time>2022-11-13T12:04:34Z</time>
      </trkpt>
      <trkpt lat="43.37637" lon="5.91468">
        <ele>304.5</ele>
        <time>2022-11-13T12:04:36Z</time>
      </trkpt>
      <trkpt lat="43.37646" lon="5.91472">
        <ele>304.4</ele>
        <time>2022-11-13T12:04:51Z</time>
      </trkpt>
      <trkpt lat="43.37649" lon="5.9147">
        <ele>305</ele>
        <time>2022-11-13T12:05:00Z</time>
      </trkpt>
      <trkpt lat="43.37649" lon="5.9147">
        <ele>304.9</ele>
        <time>2022-11-13T12:05:07Z</time>
      </trkpt>
      <trkpt lat="43.37651" lon="5.91472">
        <ele>305.1</ele>
        <time>2022-11-13T12:05:12Z</time>
      </trkpt>
      <trkpt lat="43.37651" lon="5.91471">
        <ele>305</ele>
        <time>2022-11-13T12:05:13Z</time>
      </trkpt>
      <trkpt lat="43.37651" lon="5.91471">
        <ele>304.9</ele>
        <time>2022-11-13T12:05:14Z</time>
      </trkpt>
      <trkpt lat="43.37651" lon="5.9147">
        <ele>304.8</ele>
        <time>2022-11-13T12:05:15Z</time>
      </trkpt>
      <trkpt lat="43.37651" lon="5.9147">
        <ele>305</ele>
        <time>2022-11-13T12:05:17Z</time>
      </trkpt>
      <trkpt lat="43.37651" lon="5.91469">
        <ele>304.8</ele>
        <time>2022-11-13T12:05:19Z</time>
      </trkpt>
      <trkpt lat="43.37651" lon="5.91469">
        <ele>304.7</ele>
        <time>2022-11-13T12:05:20Z</time>
      </trkpt>
      <trkpt lat="43.37652" lon="5.91469">
        <ele>304.7</ele>
        <time>2022-11-13T12:05:25Z</time>
      </trkpt>
      <trkpt lat="43.37652" lon="5.91468">
        <ele>303.5</ele>
        <time>2022-11-13T12:05:32Z</time>
      </trkpt>
      <trkpt lat="43.37653" lon="5.91468">
        <ele>303.2</ele>
        <time>2022-11-13T12:05:35Z</time>
      </trkpt>
      <trkpt lat="43.37653" lon="5.91468">
        <ele>302.8</ele>
        <time>2022-11-13T12:05:40Z</time>
      </trkpt>
      <trkpt lat="43.37653" lon="5.91468">
        <ele>302.6</ele>
        <time>2022-11-13T12:05:42Z</time>
      </trkpt>
      <trkpt lat="43.37653" lon="5.91468">
        <ele>302.6</ele>
        <time>2022-11-13T12:05:43Z</time>
      </trkpt>
      <trkpt lat="43.37653" lon="5.91468">
        <ele>302.5</ele>
        <time>2022-11-13T12:05:46Z</time>
      </trkpt>
      <trkpt lat="43.37653" lon="5.91468">
        <ele>302.3</ele>
        <time>2022-11-13T12:05:47Z</time>
      </trkpt>
      <trkpt lat="43.37653" lon="5.91468">
        <ele>302.3</ele>
        <time>2022-11-13T12:05:48Z</time>
      </trkpt>
      <trkpt lat="43.37662" lon="5.91465">
        <ele>301.8</ele>
        <time>2022-11-13T12:06:01Z</time>
      </trkpt>
      <trkpt lat="43.37671" lon="5.91462">
        <ele>302</ele>
        <time>2022-11-13T12:06:11Z</time>
      </trkpt>
      <trkpt lat="43.37681" lon="5.91461">
        <ele>301.1</ele>
        <time>2022-11-13T12:06:23Z</time>
      </trkpt>
      <trkpt lat="43.3769" lon="5.91459">
        <ele>301.7</ele>
        <time>2022-11-13T12:06:31Z</time>
      </trkpt>
      <trkpt lat="43.37691" lon="5.91459">
        <ele>301.7</ele>
        <time>2022-11-13T12:06:36Z</time>
      </trkpt>
      <trkpt lat="43.37692" lon="5.91458">
        <ele>301.6</ele>
        <time>2022-11-13T12:06:43Z</time>
      </trkpt>
      <trkpt lat="43.37692" lon="5.91457">
        <ele>301.7</ele>
        <time>2022-11-13T12:06:50Z</time>
      </trkpt>
      <trkpt lat="43.37692" lon="5.91457">
        <ele>301.8</ele>
        <time>2022-11-13T12:06:52Z</time>
      </trkpt>
      <trkpt lat="43.37693" lon="5.91456">
        <ele>301.8</ele>
        <time>2022-11-13T12:06:55Z</time>
      </trkpt>
      <trkpt lat="43.37693" lon="5.91456">
        <ele>301.9</ele>
        <time>2022-11-13T12:06:56Z</time>
      </trkpt>
      <trkpt lat="43.37693" lon="5.91455">
        <ele>302.4</ele>
        <time>2022-11-13T12:07:00Z</time>
      </trkpt>
      <trkpt lat="43.37693" lon="5.91456">
        <ele>302.5</ele>
        <time>2022-11-13T12:07:02Z</time>
      </trkpt>
      <trkpt lat="43.37703" lon="5.91451">
        <ele>302.2</ele>
        <time>2022-11-13T12:07:15Z</time>
      </trkpt>
      <trkpt lat="43.37712" lon="5.91452">
        <ele>301.5</ele>
        <time>2022-11-13T12:07:27Z</time>
      </trkpt>
      <trkpt lat="43.37721" lon="5.91447">
        <ele>301.3</ele>
        <time>2022-11-13T12:07:36Z</time>
      </trkpt>
      <trkpt lat="43.37729" lon="5.9145">
        <ele>301.7</ele>
        <time>2022-11-13T12:07:44Z</time>
      </trkpt>
      <trkpt lat="43.37735" lon="5.91452">
        <ele>302.1</ele>
        <time>2022-11-13T12:07:52Z</time>
      </trkpt>
      <trkpt lat="43.37735" lon="5.91451">
        <ele>301.7</ele>
        <time>2022-11-13T12:07:53Z</time>
      </trkpt>
      <trkpt lat="43.37735" lon="5.91451">
        <ele>301.6</ele>
        <time>2022-11-13T12:07:55Z</time>
      </trkpt>
      <trkpt lat="43.37735" lon="5.91451">
        <ele>301.5</ele>
        <time>2022-11-13T12:07:57Z</time>
      </trkpt>
      <trkpt lat="43.37736" lon="5.91451">
        <ele>301.9</ele>
        <time>2022-11-13T12:08:01Z</time>
      </trkpt>
      <trkpt lat="43.37736" lon="5.91451">
        <ele>302.1</ele>
        <time>2022-11-13T12:08:02Z</time>
      </trkpt>
      <trkpt lat="43.37739" lon="5.91453">
        <ele>303</ele>
        <time>2022-11-13T12:08:12Z</time>
      </trkpt>
      <trkpt lat="43.3774" lon="5.91453">
        <ele>303.1</ele>
        <time>2022-11-13T12:08:19Z</time>
      </trkpt>
      <trkpt lat="43.37743" lon="5.91453">
        <ele>303.2</ele>
        <time>2022-11-13T12:08:28Z</time>
      </trkpt>
      <trkpt lat="43.37743" lon="5.91454">
        <ele>303.2</ele>
        <time>2022-11-13T12:08:29Z</time>
      </trkpt>
      <trkpt lat="43.3775" lon="5.91462">
        <ele>304.2</ele>
        <time>2022-11-13T12:08:41Z</time>
      </trkpt>
      <trkpt lat="43.37755" lon="5.91467">
        <ele>305.7</ele>
        <time>2022-11-13T12:08:51Z</time>
      </trkpt>
      <trkpt lat="43.37756" lon="5.91468">
        <ele>305.7</ele>
        <time>2022-11-13T12:08:52Z</time>
      </trkpt>
      <trkpt lat="43.37759" lon="5.91472">
        <ele>306.7</ele>
        <time>2022-11-13T12:09:03Z</time>
      </trkpt>
      <trkpt lat="43.37759" lon="5.91471">
        <ele>306.5</ele>
        <time>2022-11-13T12:09:10Z</time>
      </trkpt>
      <trkpt lat="43.37759" lon="5.91471">
        <ele>306.3</ele>
        <time>2022-11-13T12:09:14Z</time>
      </trkpt>
      <trkpt lat="43.37759" lon="5.9147">
        <ele>306.5</ele>
        <time>2022-11-13T12:09:21Z</time>
      </trkpt>
      <trkpt lat="43.37759" lon="5.9147">
        <ele>306.6</ele>
        <time>2022-11-13T12:09:22Z</time>
      </trkpt>
      <trkpt lat="43.37759" lon="5.91471">
        <ele>306.7</ele>
        <time>2022-11-13T12:09:23Z</time>
      </trkpt>
      <trkpt lat="43.37759" lon="5.91471">
        <ele>306.8</ele>
        <time>2022-11-13T12:09:24Z</time>
      </trkpt>
      <trkpt lat="43.37759" lon="5.9147">
        <ele>306.9</ele>
        <time>2022-11-13T12:09:25Z</time>
      </trkpt>
      <trkpt lat="43.37759" lon="5.9147">
        <ele>307.1</ele>
        <time>2022-11-13T12:09:28Z</time>
      </trkpt>
      <trkpt lat="43.3776" lon="5.91471">
        <ele>307.4</ele>
        <time>2022-11-13T12:09:32Z</time>
      </trkpt>
      <trkpt lat="43.37767" lon="5.9148">
        <ele>308.5</ele>
        <time>2022-11-13T12:09:45Z</time>
      </trkpt>
      <trkpt lat="43.37772" lon="5.9149">
        <ele>308</ele>
        <time>2022-11-13T12:09:59Z</time>
      </trkpt>
      <trkpt lat="43.37774" lon="5.91491">
        <ele>306.5</ele>
        <time>2022-11-13T12:10:06Z</time>
      </trkpt>
      <trkpt lat="43.37774" lon="5.91491">
        <ele>306.4</ele>
        <time>2022-11-13T12:10:09Z</time>
      </trkpt>
      <trkpt lat="43.37774" lon="5.91491">
        <ele>306.3</ele>
        <time>2022-11-13T12:10:11Z</time>
      </trkpt>
      <trkpt lat="43.37774" lon="5.91491">
        <ele>306.4</ele>
        <time>2022-11-13T12:10:14Z</time>
      </trkpt>
      <trkpt lat="43.37776" lon="5.91498">
        <ele>306.4</ele>
        <time>2022-11-13T12:10:23Z</time>
      </trkpt>
      <trkpt lat="43.37776" lon="5.91498">
        <ele>306.4</ele>
        <time>2022-11-13T12:10:24Z</time>
      </trkpt>
      <trkpt lat="43.37782" lon="5.91509">
        <ele>306.1</ele>
        <time>2022-11-13T12:10:34Z</time>
      </trkpt>
      <trkpt lat="43.37788" lon="5.91519">
        <ele>305.9</ele>
        <time>2022-11-13T12:10:44Z</time>
      </trkpt>
      <trkpt lat="43.37793" lon="5.9153">
        <ele>306.4</ele>
        <time>2022-11-13T12:10:51Z</time>
      </trkpt>
      <trkpt lat="43.37798" lon="5.91542">
        <ele>307.1</ele>
        <time>2022-11-13T12:11:04Z</time>
      </trkpt>
      <trkpt lat="43.37804" lon="5.91552">
        <ele>306.2</ele>
        <time>2022-11-13T12:11:13Z</time>
      </trkpt>
      <trkpt lat="43.37809" lon="5.91562">
        <ele>305.2</ele>
        <time>2022-11-13T12:11:22Z</time>
      </trkpt>
      <trkpt lat="43.37815" lon="5.91572">
        <ele>303.8</ele>
        <time>2022-11-13T12:11:30Z</time>
      </trkpt>
      <trkpt lat="43.3782" lon="5.91582">
        <ele>303.2</ele>
        <time>2022-11-13T12:11:38Z</time>
      </trkpt>
      <trkpt lat="43.37825" lon="5.91594">
        <ele>302.5</ele>
        <time>2022-11-13T12:11:46Z</time>
      </trkpt>
      <trkpt lat="43.37831" lon="5.91605">
        <ele>302.8</ele>
        <time>2022-11-13T12:11:56Z</time>
      </trkpt>
      <trkpt lat="43.37835" lon="5.91617">
        <ele>301.2</ele>
        <time>2022-11-13T12:12:05Z</time>
      </trkpt>
      <trkpt lat="43.37843" lon="5.91625">
        <ele>300</ele>
        <time>2022-11-13T12:12:12Z</time>
      </trkpt>
      <trkpt lat="43.37849" lon="5.91635">
        <ele>298.8</ele>
        <time>2022-11-13T12:12:19Z</time>
      </trkpt>
      <trkpt lat="43.37854" lon="5.91646">
        <ele>298.6</ele>
        <time>2022-11-13T12:12:28Z</time>
      </trkpt>
      <trkpt lat="43.37857" lon="5.91659">
        <ele>297.5</ele>
        <time>2022-11-13T12:12:37Z</time>
      </trkpt>
      <trkpt lat="43.3786" lon="5.91671">
        <ele>298</ele>
        <time>2022-11-13T12:12:46Z</time>
      </trkpt>
      <trkpt lat="43.37859" lon="5.91675">
        <ele>298.4</ele>
        <time>2022-11-13T12:12:53Z</time>
      </trkpt>
      <trkpt lat="43.3786" lon="5.91675">
        <ele>298.3</ele>
        <time>2022-11-13T12:12:59Z</time>
      </trkpt>
      <trkpt lat="43.37862" lon="5.91683">
        <ele>296.5</ele>
        <time>2022-11-13T12:13:09Z</time>
      </trkpt>
      <trkpt lat="43.37862" lon="5.91683">
        <ele>296.4</ele>
        <time>2022-11-13T12:13:19Z</time>
      </trkpt>
      <trkpt lat="43.37862" lon="5.91683">
        <ele>296.4</ele>
        <time>2022-11-13T12:13:20Z</time>
      </trkpt>
      <trkpt lat="43.37862" lon="5.91683">
        <ele>296.3</ele>
        <time>2022-11-13T12:13:26Z</time>
      </trkpt>
      <trkpt lat="43.37863" lon="5.91683">
        <ele>295.6</ele>
        <time>2022-11-13T12:13:29Z</time>
      </trkpt>
      <trkpt lat="43.37864" lon="5.91683">
        <ele>295.3</ele>
        <time>2022-11-13T12:13:33Z</time>
      </trkpt>
      <trkpt lat="43.37866" lon="5.91681">
        <ele>294.8</ele>
        <time>2022-11-13T12:13:40Z</time>
      </trkpt>
      <trkpt lat="43.37866" lon="5.91681">
        <ele>294.7</ele>
        <time>2022-11-13T12:13:41Z</time>
      </trkpt>
      <trkpt lat="43.37867" lon="5.91681">
        <ele>294.4</ele>
        <time>2022-11-13T12:13:46Z</time>
      </trkpt>
      <trkpt lat="43.37867" lon="5.91681">
        <ele>294.4</ele>
        <time>2022-11-13T12:13:52Z</time>
      </trkpt>
      <trkpt lat="43.37867" lon="5.91681">
        <ele>294.4</ele>
        <time>2022-11-13T12:13:53Z</time>
      </trkpt>
      <trkpt lat="43.37868" lon="5.91681">
        <ele>294.4</ele>
        <time>2022-11-13T12:13:54Z</time>
      </trkpt>
      <trkpt lat="43.37869" lon="5.91681">
        <ele>294.6</ele>
        <time>2022-11-13T12:14:00Z</time>
      </trkpt>
      <trkpt lat="43.3787" lon="5.9168">
        <ele>294.7</ele>
        <time>2022-11-13T12:14:02Z</time>
      </trkpt>
      <trkpt lat="43.37871" lon="5.91679">
        <ele>293.8</ele>
        <time>2022-11-13T12:14:08Z</time>
      </trkpt>
      <trkpt lat="43.37871" lon="5.91678">
        <ele>293.9</ele>
        <time>2022-11-13T12:14:12Z</time>
      </trkpt>
      <trkpt lat="43.37871" lon="5.91678">
        <ele>293.9</ele>
        <time>2022-11-13T12:14:13Z</time>
      </trkpt>
      <trkpt lat="43.37871" lon="5.91678">
        <ele>293.8</ele>
        <time>2022-11-13T12:14:18Z</time>
      </trkpt>
      <trkpt lat="43.37871" lon="5.91678">
        <ele>293.7</ele>
        <time>2022-11-13T12:14:20Z</time>
      </trkpt>
      <trkpt lat="43.37871" lon="5.91678">
        <ele>293.7</ele>
        <time>2022-11-13T12:14:22Z</time>
      </trkpt>
      <trkpt lat="43.37871" lon="5.91678">
        <ele>293.7</ele>
        <time>2022-11-13T12:14:23Z</time>
      </trkpt>
      <trkpt lat="43.37872" lon="5.91678">
        <ele>293.6</ele>
        <time>2022-11-13T12:14:28Z</time>
      </trkpt>
      <trkpt lat="43.37872" lon="5.91678">
        <ele>293.6</ele>
        <time>2022-11-13T12:14:29Z</time>
      </trkpt>
      <trkpt lat="43.37872" lon="5.91677">
        <ele>293.8</ele>
        <time>2022-11-13T12:14:51Z</time>
      </trkpt>
      <trkpt lat="43.37872" lon="5.91676">
        <ele>294.1</ele>
        <time>2022-11-13T12:14:53Z</time>
      </trkpt>
      <trkpt lat="43.37872" lon="5.91676">
        <ele>294</ele>
        <time>2022-11-13T12:14:55Z</time>
      </trkpt>
      <trkpt lat="43.37872" lon="5.91676">
        <ele>294</ele>
        <time>2022-11-13T12:14:56Z</time>
      </trkpt>
      <trkpt lat="43.37872" lon="5.91676">
        <ele>294</ele>
        <time>2022-11-13T12:14:59Z</time>
      </trkpt>
      <trkpt lat="43.37876" lon="5.91663">
        <ele>294.4</ele>
        <time>2022-11-13T12:15:15Z</time>
      </trkpt>
      <trkpt lat="43.3788" lon="5.91652">
        <ele>295.4</ele>
        <time>2022-11-13T12:15:25Z</time>
      </trkpt>
      <trkpt lat="43.37879" lon="5.91639">
        <ele>296.9</ele>
        <time>2022-11-13T12:15:39Z</time>
      </trkpt>
      <trkpt lat="43.37875" lon="5.91627">
        <ele>297.8</ele>
        <time>2022-11-13T12:15:50Z</time>
      </trkpt>
      <trkpt lat="43.37869" lon="5.91617">
        <ele>298.1</ele>
        <time>2022-11-13T12:16:00Z</time>
      </trkpt>
      <trkpt lat="43.37862" lon="5.91607">
        <ele>298.8</ele>
        <time>2022-11-13T12:16:10Z</time>
      </trkpt>
      <trkpt lat="43.37857" lon="5.91596">
        <ele>299.1</ele>
        <time>2022-11-13T12:16:20Z</time>
      </trkpt>
      <trkpt lat="43.3785" lon="5.91587">
        <ele>300.5</ele>
        <time>2022-11-13T12:16:30Z</time>
      </trkpt>
      <trkpt lat="43.37845" lon="5.91576">
        <ele>301</ele>
        <time>2022-11-13T12:16:39Z</time>
      </trkpt>
      <trkpt lat="43.3784" lon="5.91565">
        <ele>301</ele>
        <time>2022-11-13T12:16:48Z</time>
      </trkpt>
      <trkpt lat="43.37836" lon="5.91554">
        <ele>302</ele>
        <time>2022-11-13T12:17:01Z</time>
      </trkpt>
      <trkpt lat="43.37829" lon="5.91545">
        <ele>304.3</ele>
        <time>2022-11-13T12:17:13Z</time>
      </trkpt>
      <trkpt lat="43.37824" lon="5.91533">
        <ele>305.1</ele>
        <time>2022-11-13T12:17:22Z</time>
      </trkpt>
      <trkpt lat="43.37821" lon="5.91521">
        <ele>305.3</ele>
        <time>2022-11-13T12:17:32Z</time>
      </trkpt>
      <trkpt lat="43.37817" lon="5.91513">
        <ele>306.1</ele>
        <time>2022-11-13T12:17:43Z</time>
      </trkpt>
      <trkpt lat="43.37817" lon="5.91513">
        <ele>306</ele>
        <time>2022-11-13T12:17:44Z</time>
      </trkpt>
      <trkpt lat="43.37812" lon="5.91502">
        <ele>307.3</ele>
        <time>2022-11-13T12:18:03Z</time>
      </trkpt>
      <trkpt lat="43.37807" lon="5.91491">
        <ele>307.7</ele>
        <time>2022-11-13T12:18:13Z</time>
      </trkpt>
      <trkpt lat="43.37803" lon="5.91479">
        <ele>308.7</ele>
        <time>2022-11-13T12:18:23Z</time>
      </trkpt>
      <trkpt lat="43.37801" lon="5.91466">
        <ele>310.1</ele>
        <time>2022-11-13T12:18:35Z</time>
      </trkpt>
      <trkpt lat="43.37798" lon="5.91454">
        <ele>311.7</ele>
        <time>2022-11-13T12:18:48Z</time>
      </trkpt>
      <trkpt lat="43.37793" lon="5.91442">
        <ele>313.6</ele>
        <time>2022-11-13T12:18:59Z</time>
      </trkpt>
      <trkpt lat="43.37789" lon="5.9143">
        <ele>316.1</ele>
        <time>2022-11-13T12:19:11Z</time>
      </trkpt>
      <trkpt lat="43.37784" lon="5.9142">
        <ele>317.4</ele>
        <time>2022-11-13T12:19:23Z</time>
      </trkpt>
      <trkpt lat="43.3778" lon="5.91408">
        <ele>320.3</ele>
        <time>2022-11-13T12:19:34Z</time>
      </trkpt>
      <trkpt lat="43.37776" lon="5.91396">
        <ele>321.5</ele>
        <time>2022-11-13T12:19:44Z</time>
      </trkpt>
      <trkpt lat="43.3777" lon="5.91386">
        <ele>323.4</ele>
        <time>2022-11-13T12:19:55Z</time>
      </trkpt>
      <trkpt lat="43.37763" lon="5.91378">
        <ele>324.4</ele>
        <time>2022-11-13T12:20:05Z</time>
      </trkpt>
      <trkpt lat="43.37761" lon="5.91374">
        <ele>325.9</ele>
        <time>2022-11-13T12:20:12Z</time>
      </trkpt>
      <trkpt lat="43.37762" lon="5.91374">
        <ele>326</ele>
        <time>2022-11-13T12:20:13Z</time>
      </trkpt>
      <trkpt lat="43.3777" lon="5.91379">
        <ele>329.8</ele>
        <time>2022-11-13T12:20:32Z</time>
      </trkpt>
      <trkpt lat="43.37778" lon="5.91386">
        <ele>332.5</ele>
        <time>2022-11-13T12:20:42Z</time>
      </trkpt>
      <trkpt lat="43.37786" lon="5.91394">
        <ele>333.5</ele>
        <time>2022-11-13T12:20:51Z</time>
      </trkpt>
      <trkpt lat="43.37792" lon="5.91404">
        <ele>334.5</ele>
        <time>2022-11-13T12:21:01Z</time>
      </trkpt>
      <trkpt lat="43.37801" lon="5.91409">
        <ele>336.2</ele>
        <time>2022-11-13T12:21:10Z</time>
      </trkpt>
      <trkpt lat="43.37809" lon="5.91417">
        <ele>338.1</ele>
        <time>2022-11-13T12:21:20Z</time>
      </trkpt>
      <trkpt lat="43.37816" lon="5.91425">
        <ele>339.8</ele>
        <time>2022-11-13T12:21:29Z</time>
      </trkpt>
      <trkpt lat="43.37824" lon="5.91432">
        <ele>341.3</ele>
        <time>2022-11-13T12:21:40Z</time>
      </trkpt>
      <trkpt lat="43.37833" lon="5.91437">
        <ele>343.3</ele>
        <time>2022-11-13T12:21:50Z</time>
      </trkpt>
      <trkpt lat="43.3784" lon="5.91447">
        <ele>345.8</ele>
        <time>2022-11-13T12:22:01Z</time>
      </trkpt>
      <trkpt lat="43.37849" lon="5.91451">
        <ele>347.3</ele>
        <time>2022-11-13T12:22:12Z</time>
      </trkpt>
      <trkpt lat="43.37858" lon="5.91454">
        <ele>350.3</ele>
        <time>2022-11-13T12:22:24Z</time>
      </trkpt>
      <trkpt lat="43.37867" lon="5.91459">
        <ele>352.9</ele>
        <time>2022-11-13T12:22:36Z</time>
      </trkpt>
      <trkpt lat="43.37875" lon="5.91463">
        <ele>354.4</ele>
        <time>2022-11-13T12:22:47Z</time>
      </trkpt>
      <trkpt lat="43.37884" lon="5.91468">
        <ele>357.1</ele>
        <time>2022-11-13T12:22:59Z</time>
      </trkpt>
      <trkpt lat="43.37893" lon="5.91471">
        <ele>359.6</ele>
        <time>2022-11-13T12:23:09Z</time>
      </trkpt>
      <trkpt lat="43.37901" lon="5.91462">
        <ele>361.2</ele>
        <time>2022-11-13T12:23:20Z</time>
      </trkpt>
      <trkpt lat="43.37905" lon="5.91451">
        <ele>363.6</ele>
        <time>2022-11-13T12:23:36Z</time>
      </trkpt>
      <trkpt lat="43.37911" lon="5.91441">
        <ele>364.6</ele>
        <time>2022-11-13T12:23:45Z</time>
      </trkpt>
      <trkpt lat="43.37914" lon="5.91429">
        <ele>366</ele>
        <time>2022-11-13T12:23:55Z</time>
      </trkpt>
      <trkpt lat="43.37915" lon="5.91416">
        <ele>367.5</ele>
        <time>2022-11-13T12:24:06Z</time>
      </trkpt>
      <trkpt lat="43.37916" lon="5.91403">
        <ele>370.9</ele>
        <time>2022-11-13T12:24:21Z</time>
      </trkpt>
      <trkpt lat="43.37918" lon="5.91391">
        <ele>372.4</ele>
        <time>2022-11-13T12:24:31Z</time>
      </trkpt>
      <trkpt lat="43.3792" lon="5.91377">
        <ele>373.1</ele>
        <time>2022-11-13T12:24:39Z</time>
      </trkpt>
      <trkpt lat="43.37921" lon="5.91365">
        <ele>374</ele>
        <time>2022-11-13T12:24:47Z</time>
      </trkpt>
      <trkpt lat="43.37921" lon="5.91351">
        <ele>375.3</ele>
        <time>2022-11-13T12:24:56Z</time>
      </trkpt>
      <trkpt lat="43.37921" lon="5.91339">
        <ele>376.3</ele>
        <time>2022-11-13T12:25:04Z</time>
      </trkpt>
      <trkpt lat="43.37921" lon="5.91326">
        <ele>377.1</ele>
        <time>2022-11-13T12:25:13Z</time>
      </trkpt>
      <trkpt lat="43.37922" lon="5.91313">
        <ele>378.2</ele>
        <time>2022-11-13T12:25:22Z</time>
      </trkpt>
      <trkpt lat="43.37923" lon="5.913">
        <ele>378.9</ele>
        <time>2022-11-13T12:25:30Z</time>
      </trkpt>
      <trkpt lat="43.37922" lon="5.91287">
        <ele>380</ele>
        <time>2022-11-13T12:25:40Z</time>
      </trkpt>
      <trkpt lat="43.37927" lon="5.91276">
        <ele>381.4</ele>
        <time>2022-11-13T12:25:52Z</time>
      </trkpt>
      <trkpt lat="43.3793" lon="5.91275">
        <ele>382.7</ele>
        <time>2022-11-13T12:26:00Z</time>
      </trkpt>
      <trkpt lat="43.3793" lon="5.91274">
        <ele>382.8</ele>
        <time>2022-11-13T12:26:01Z</time>
      </trkpt>
      <trkpt lat="43.37937" lon="5.91266">
        <ele>384.6</ele>
        <time>2022-11-13T12:26:10Z</time>
      </trkpt>
      <trkpt lat="43.37943" lon="5.91256">
        <ele>387.2</ele>
        <time>2022-11-13T12:26:20Z</time>
      </trkpt>
      <trkpt lat="43.37947" lon="5.91244">
        <ele>389.2</ele>
        <time>2022-11-13T12:26:30Z</time>
      </trkpt>
      <trkpt lat="43.3795" lon="5.91232">
        <ele>390.7</ele>
        <time>2022-11-13T12:26:39Z</time>
      </trkpt>
      <trkpt lat="43.37954" lon="5.91219">
        <ele>391.4</ele>
        <time>2022-11-13T12:26:48Z</time>
      </trkpt>
      <trkpt lat="43.37954" lon="5.91206">
        <ele>391.9</ele>
        <time>2022-11-13T12:26:56Z</time>
      </trkpt>
      <trkpt lat="43.37953" lon="5.91194">
        <ele>392.1</ele>
        <time>2022-11-13T12:27:04Z</time>
      </trkpt>
      <trkpt lat="43.37955" lon="5.9118">
        <ele>393.4</ele>
        <time>2022-11-13T12:27:14Z</time>
      </trkpt>
      <trkpt lat="43.37958" lon="5.91169">
        <ele>394.6</ele>
        <time>2022-11-13T12:27:23Z</time>
      </trkpt>
      <trkpt lat="43.37964" lon="5.91158">
        <ele>397.3</ele>
        <time>2022-11-13T12:27:34Z</time>
      </trkpt>
      <trkpt lat="43.37964" lon="5.91144">
        <ele>397.6</ele>
        <time>2022-11-13T12:27:42Z</time>
      </trkpt>
      <trkpt lat="43.37959" lon="5.91132">
        <ele>398.1</ele>
        <time>2022-11-13T12:27:51Z</time>
      </trkpt>
      <trkpt lat="43.37957" lon="5.9112">
        <ele>398.9</ele>
        <time>2022-11-13T12:28:01Z</time>
      </trkpt>
      <trkpt lat="43.37954" lon="5.91106">
        <ele>400</ele>
        <time>2022-11-13T12:28:11Z</time>
      </trkpt>
      <trkpt lat="43.3795" lon="5.91094">
        <ele>400.1</ele>
        <time>2022-11-13T12:28:19Z</time>
      </trkpt>
      <trkpt lat="43.37946" lon="5.91082">
        <ele>399.5</ele>
        <time>2022-11-13T12:28:27Z</time>
      </trkpt>
      <trkpt lat="43.37942" lon="5.91071">
        <ele>399.9</ele>
        <time>2022-11-13T12:28:36Z</time>
      </trkpt>
      <trkpt lat="43.37941" lon="5.91058">
        <ele>402.1</ele>
        <time>2022-11-13T12:28:45Z</time>
      </trkpt>
      <trkpt lat="43.3794" lon="5.91045">
        <ele>403.8</ele>
        <time>2022-11-13T12:28:55Z</time>
      </trkpt>
      <trkpt lat="43.37938" lon="5.91031">
        <ele>404.4</ele>
        <time>2022-11-13T12:29:04Z</time>
      </trkpt>
      <trkpt lat="43.37934" lon="5.9102">
        <ele>405.2</ele>
        <time>2022-11-13T12:29:13Z</time>
      </trkpt>
      <trkpt lat="43.3793" lon="5.91007">
        <ele>406.6</ele>
        <time>2022-11-13T12:29:22Z</time>
      </trkpt>
      <trkpt lat="43.37928" lon="5.90994">
        <ele>408.2</ele>
        <time>2022-11-13T12:29:32Z</time>
      </trkpt>
      <trkpt lat="43.37924" lon="5.90983">
        <ele>409.1</ele>
        <time>2022-11-13T12:29:40Z</time>
      </trkpt>
      <trkpt lat="43.37922" lon="5.90969">
        <ele>409.3</ele>
        <time>2022-11-13T12:29:47Z</time>
      </trkpt>
      <trkpt lat="43.37922" lon="5.90955">
        <ele>410.1</ele>
        <time>2022-11-13T12:29:56Z</time>
      </trkpt>
      <trkpt lat="43.37923" lon="5.90942">
        <ele>411.6</ele>
        <time>2022-11-13T12:30:05Z</time>
      </trkpt>
      <trkpt lat="43.37923" lon="5.90928">
        <ele>413</ele>
        <time>2022-11-13T12:30:13Z</time>
      </trkpt>
      <trkpt lat="43.37924" lon="5.90919">
        <ele>413.3</ele>
        <time>2022-11-13T12:30:23Z</time>
      </trkpt>
      <trkpt lat="43.37924" lon="5.90919">
        <ele>413.3</ele>
        <time>2022-11-13T12:30:24Z</time>
      </trkpt>
      <trkpt lat="43.37924" lon="5.90919">
        <ele>413.2</ele>
        <time>2022-11-13T12:30:25Z</time>
      </trkpt>
      <trkpt lat="43.37924" lon="5.90919">
        <ele>413.2</ele>
        <time>2022-11-13T12:30:38Z</time>
      </trkpt>
      <trkpt lat="43.37924" lon="5.90921">
        <ele>412.8</ele>
        <time>2022-11-13T12:30:43Z</time>
      </trkpt>
      <trkpt lat="43.37924" lon="5.90921">
        <ele>412.8</ele>
        <time>2022-11-13T12:30:44Z</time>
      </trkpt>
      <trkpt lat="43.37924" lon="5.90921">
        <ele>412.5</ele>
        <time>2022-11-13T12:30:49Z</time>
      </trkpt>
      <trkpt lat="43.37924" lon="5.90921">
        <ele>412.5</ele>
        <time>2022-11-13T12:30:50Z</time>
      </trkpt>
      <trkpt lat="43.37924" lon="5.90921">
        <ele>412.4</ele>
        <time>2022-11-13T12:30:51Z</time>
      </trkpt>
      <trkpt lat="43.37924" lon="5.90922">
        <ele>412.3</ele>
        <time>2022-11-13T12:30:56Z</time>
      </trkpt>
      <trkpt lat="43.37924" lon="5.90923">
        <ele>412.3</ele>
        <time>2022-11-13T12:30:59Z</time>
      </trkpt>
      <trkpt lat="43.37924" lon="5.90923">
        <ele>412.2</ele>
        <time>2022-11-13T12:31:00Z</time>
      </trkpt>
      <trkpt lat="43.37925" lon="5.90925">
        <ele>412.6</ele>
        <time>2022-11-13T12:31:11Z</time>
      </trkpt>
      <trkpt lat="43.37925" lon="5.90925">
        <ele>412.6</ele>
        <time>2022-11-13T12:31:26Z</time>
      </trkpt>
      <trkpt lat="43.37925" lon="5.90924">
        <ele>411.9</ele>
        <time>2022-11-13T12:31:29Z</time>
      </trkpt>
      <trkpt lat="43.37925" lon="5.90924">
        <ele>411.8</ele>
        <time>2022-11-13T12:31:42Z</time>
      </trkpt>
      <trkpt lat="43.37925" lon="5.90924">
        <ele>411.8</ele>
        <time>2022-11-13T12:31:43Z</time>
      </trkpt>
      <trkpt lat="43.37925" lon="5.90924">
        <ele>411.8</ele>
        <time>2022-11-13T12:31:44Z</time>
      </trkpt>
      <trkpt lat="43.37926" lon="5.90923">
        <ele>411.9</ele>
        <time>2022-11-13T12:31:48Z</time>
      </trkpt>
      <trkpt lat="43.37926" lon="5.90923">
        <ele>411.9</ele>
        <time>2022-11-13T12:31:58Z</time>
      </trkpt>
      <trkpt lat="43.37926" lon="5.90923">
        <ele>411.9</ele>
        <time>2022-11-13T12:31:59Z</time>
      </trkpt>
      <trkpt lat="43.37926" lon="5.90923">
        <ele>411.9</ele>
        <time>2022-11-13T12:32:29Z</time>
      </trkpt>
      <trkpt lat="43.37926" lon="5.90923">
        <ele>411.9</ele>
        <time>2022-11-13T12:32:30Z</time>
      </trkpt>
      <trkpt lat="43.37926" lon="5.90923">
        <ele>411.9</ele>
        <time>2022-11-13T12:32:47Z</time>
      </trkpt>
      <trkpt lat="43.37926" lon="5.90923">
        <ele>411.9</ele>
        <time>2022-11-13T12:32:48Z</time>
      </trkpt>
      <trkpt lat="43.37926" lon="5.90923">
        <ele>411.9</ele>
        <time>2022-11-13T12:33:10Z</time>
      </trkpt>
      <trkpt lat="43.37926" lon="5.90923">
        <ele>411.9</ele>
        <time>2022-11-13T12:33:11Z</time>
      </trkpt>
      <trkpt lat="43.37926" lon="5.90923">
        <ele>411.9</ele>
        <time>2022-11-13T12:33:36Z</time>
      </trkpt>
      <trkpt lat="43.37926" lon="5.90923">
        <ele>411.9</ele>
        <time>2022-11-13T12:33:37Z</time>
      </trkpt>
      <trkpt lat="43.37926" lon="5.90922">
        <ele>412.1</ele>
        <time>2022-11-13T12:34:10Z</time>
      </trkpt>
      <trkpt lat="43.37926" lon="5.9092">
        <ele>412.2</ele>
        <time>2022-11-13T12:34:15Z</time>
      </trkpt>
      <trkpt lat="43.37926" lon="5.9092">
        <ele>411.9</ele>
        <time>2022-11-13T12:34:47Z</time>
      </trkpt>
      <trkpt lat="43.37926" lon="5.9092">
        <ele>411.8</ele>
        <time>2022-11-13T12:34:48Z</time>
      </trkpt>
      <trkpt lat="43.37926" lon="5.90919">
        <ele>411.7</ele>
        <time>2022-11-13T12:34:53Z</time>
      </trkpt>
      <trkpt lat="43.37926" lon="5.90919">
        <ele>411.6</ele>
        <time>2022-11-13T12:34:54Z</time>
      </trkpt>
      <trkpt lat="43.37927" lon="5.90919">
        <ele>411.6</ele>
        <time>2022-11-13T12:35:19Z</time>
      </trkpt>
      <trkpt lat="43.37927" lon="5.90919">
        <ele>411.6</ele>
        <time>2022-11-13T12:35:20Z</time>
      </trkpt>
      <trkpt lat="43.37926" lon="5.90919">
        <ele>411.7</ele>
        <time>2022-11-13T12:35:29Z</time>
      </trkpt>
      <trkpt lat="43.37926" lon="5.90919">
        <ele>411.7</ele>
        <time>2022-11-13T12:35:30Z</time>
      </trkpt>
      <trkpt lat="43.37927" lon="5.90919">
        <ele>411.7</ele>
        <time>2022-11-13T12:35:52Z</time>
      </trkpt>
      <trkpt lat="43.37927" lon="5.90919">
        <ele>411.7</ele>
        <time>2022-11-13T12:35:53Z</time>
      </trkpt>
      <trkpt lat="43.37926" lon="5.90919">
        <ele>411.8</ele>
        <time>2022-11-13T12:35:55Z</time>
      </trkpt>
      <trkpt lat="43.37926" lon="5.90919">
        <ele>411.8</ele>
        <time>2022-11-13T12:35:56Z</time>
      </trkpt>
      <trkpt lat="43.37926" lon="5.90919">
        <ele>411.8</ele>
        <time>2022-11-13T12:36:02Z</time>
      </trkpt>
      <trkpt lat="43.37926" lon="5.90919">
        <ele>411.8</ele>
        <time>2022-11-13T12:36:03Z</time>
      </trkpt>
      <trkpt lat="43.37926" lon="5.90918">
        <ele>411.8</ele>
        <time>2022-11-13T12:36:10Z</time>
      </trkpt>
      <trkpt lat="43.37926" lon="5.90918">
        <ele>411.8</ele>
        <time>2022-11-13T12:36:11Z</time>
      </trkpt>
      <trkpt lat="43.37926" lon="5.90918">
        <ele>411.7</ele>
        <time>2022-11-13T12:36:21Z</time>
      </trkpt>
      <trkpt lat="43.37926" lon="5.90918">
        <ele>411.7</ele>
        <time>2022-11-13T12:36:22Z</time>
      </trkpt>
      <trkpt lat="43.37925" lon="5.90918">
        <ele>411.8</ele>
        <time>2022-11-13T12:36:46Z</time>
      </trkpt>
      <trkpt lat="43.37925" lon="5.90918">
        <ele>411.8</ele>
        <time>2022-11-13T12:36:47Z</time>
      </trkpt>
      <trkpt lat="43.37925" lon="5.90918">
        <ele>411.7</ele>
        <time>2022-11-13T12:36:49Z</time>
      </trkpt>
      <trkpt lat="43.37925" lon="5.90918">
        <ele>411.7</ele>
        <time>2022-11-13T12:36:50Z</time>
      </trkpt>
      <trkpt lat="43.37926" lon="5.90917">
        <ele>411.6</ele>
        <time>2022-11-13T12:36:52Z</time>
      </trkpt>
      <trkpt lat="43.37925" lon="5.90917">
        <ele>411.6</ele>
        <time>2022-11-13T12:36:54Z</time>
      </trkpt>
      <trkpt lat="43.37926" lon="5.90917">
        <ele>411.6</ele>
        <time>2022-11-13T12:36:57Z</time>
      </trkpt>
      <trkpt lat="43.37926" lon="5.90917">
        <ele>411.6</ele>
        <time>2022-11-13T12:36:58Z</time>
      </trkpt>
      <trkpt lat="43.37926" lon="5.90917">
        <ele>411.6</ele>
        <time>2022-11-13T12:37:15Z</time>
      </trkpt>
      <trkpt lat="43.37926" lon="5.90917">
        <ele>411.6</ele>
        <time>2022-11-13T12:37:17Z</time>
      </trkpt>
      <trkpt lat="43.37926" lon="5.90916">
        <ele>411.7</ele>
        <time>2022-11-13T12:37:33Z</time>
      </trkpt>
      <trkpt lat="43.37926" lon="5.90916">
        <ele>411.8</ele>
        <time>2022-11-13T12:37:34Z</time>
      </trkpt>
      <trkpt lat="43.37926" lon="5.90916">
        <ele>411.9</ele>
        <time>2022-11-13T12:37:35Z</time>
      </trkpt>
      <trkpt lat="43.37925" lon="5.90917">
        <ele>411.8</ele>
        <time>2022-11-13T12:37:39Z</time>
      </trkpt>
      <trkpt lat="43.37925" lon="5.90917">
        <ele>411.8</ele>
        <time>2022-11-13T12:37:40Z</time>
      </trkpt>
      <trkpt lat="43.37925" lon="5.90917">
        <ele>411.8</ele>
        <time>2022-11-13T12:37:41Z</time>
      </trkpt>
      <trkpt lat="43.37925" lon="5.90917">
        <ele>411.7</ele>
        <time>2022-11-13T12:37:50Z</time>
      </trkpt>
      <trkpt lat="43.37925" lon="5.90915">
        <ele>412</ele>
        <time>2022-11-13T12:37:56Z</time>
      </trkpt>
      <trkpt lat="43.37925" lon="5.90914">
        <ele>412.1</ele>
        <time>2022-11-13T12:37:58Z</time>
      </trkpt>
      <trkpt lat="43.37925" lon="5.90915">
        <ele>412.5</ele>
        <time>2022-11-13T12:38:00Z</time>
      </trkpt>
      <trkpt lat="43.37925" lon="5.90914">
        <ele>412.6</ele>
        <time>2022-11-13T12:38:09Z</time>
      </trkpt>
      <trkpt lat="43.37925" lon="5.90914">
        <ele>412.6</ele>
        <time>2022-11-13T12:38:10Z</time>
      </trkpt>
      <trkpt lat="43.37925" lon="5.90914">
        <ele>412.6</ele>
        <time>2022-11-13T12:38:22Z</time>
      </trkpt>
      <trkpt lat="43.37925" lon="5.90914">
        <ele>412.6</ele>
        <time>2022-11-13T12:38:23Z</time>
      </trkpt>
      <trkpt lat="43.37925" lon="5.90914">
        <ele>412.6</ele>
        <time>2022-11-13T12:38:24Z</time>
      </trkpt>
      <trkpt lat="43.37925" lon="5.90914">
        <ele>412.6</ele>
        <time>2022-11-13T12:38:25Z</time>
      </trkpt>
      <trkpt lat="43.37925" lon="5.90914">
        <ele>412.7</ele>
        <time>2022-11-13T12:38:29Z</time>
      </trkpt>
      <trkpt lat="43.37925" lon="5.90914">
        <ele>412.8</ele>
        <time>2022-11-13T12:38:30Z</time>
      </trkpt>
      <trkpt lat="43.37925" lon="5.90914">
        <ele>412.9</ele>
        <time>2022-11-13T12:38:36Z</time>
      </trkpt>
      <trkpt lat="43.37925" lon="5.90914">
        <ele>412.9</ele>
        <time>2022-11-13T12:38:37Z</time>
      </trkpt>
      <trkpt lat="43.37925" lon="5.90914">
        <ele>413</ele>
        <time>2022-11-13T12:39:21Z</time>
      </trkpt>
      <trkpt lat="43.37925" lon="5.90914">
        <ele>413.1</ele>
        <time>2022-11-13T12:39:22Z</time>
      </trkpt>
      <trkpt lat="43.37925" lon="5.90913">
        <ele>413.6</ele>
        <time>2022-11-13T12:40:59Z</time>
      </trkpt>
      <trkpt lat="43.37925" lon="5.90913">
        <ele>413.6</ele>
        <time>2022-11-13T12:41:00Z</time>
      </trkpt>
      <trkpt lat="43.37925" lon="5.90913">
        <ele>413.6</ele>
        <time>2022-11-13T12:41:18Z</time>
      </trkpt>
      <trkpt lat="43.37925" lon="5.90913">
        <ele>413.6</ele>
        <time>2022-11-13T12:41:19Z</time>
      </trkpt>
      <trkpt lat="43.37924" lon="5.90913">
        <ele>413.7</ele>
        <time>2022-11-13T12:41:27Z</time>
      </trkpt>
      <trkpt lat="43.37924" lon="5.90913">
        <ele>413.8</ele>
        <time>2022-11-13T12:41:28Z</time>
      </trkpt>
      <trkpt lat="43.37924" lon="5.90913">
        <ele>413.9</ele>
        <time>2022-11-13T12:41:30Z</time>
      </trkpt>
      <trkpt lat="43.37924" lon="5.90912">
        <ele>414.1</ele>
        <time>2022-11-13T12:41:32Z</time>
      </trkpt>
      <trkpt lat="43.37924" lon="5.90913">
        <ele>414.2</ele>
        <time>2022-11-13T12:41:56Z</time>
      </trkpt>
      <trkpt lat="43.37929" lon="5.90924">
        <ele>414.8</ele>
        <time>2022-11-13T12:42:06Z</time>
      </trkpt>
      <trkpt lat="43.37933" lon="5.90935">
        <ele>414.9</ele>
        <time>2022-11-13T12:42:13Z</time>
      </trkpt>
      <trkpt lat="43.37935" lon="5.90949">
        <ele>415.3</ele>
        <time>2022-11-13T12:42:21Z</time>
      </trkpt>
      <trkpt lat="43.37939" lon="5.90963">
        <ele>415</ele>
        <time>2022-11-13T12:42:29Z</time>
      </trkpt>
      <trkpt lat="43.37944" lon="5.90973">
        <ele>414.9</ele>
        <time>2022-11-13T12:42:36Z</time>
      </trkpt>
      <trkpt lat="43.3795" lon="5.90983">
        <ele>415.1</ele>
        <time>2022-11-13T12:42:43Z</time>
      </trkpt>
      <trkpt lat="43.37957" lon="5.90993">
        <ele>414.9</ele>
        <time>2022-11-13T12:42:51Z</time>
      </trkpt>
      <trkpt lat="43.37964" lon="5.91001">
        <ele>415.5</ele>
        <time>2022-11-13T12:43:00Z</time>
      </trkpt>
      <trkpt lat="43.37971" lon="5.91011">
        <ele>416.3</ele>
        <time>2022-11-13T12:43:09Z</time>
      </trkpt>
      <trkpt lat="43.37978" lon="5.91019">
        <ele>417.2</ele>
        <time>2022-11-13T12:43:17Z</time>
      </trkpt>
      <trkpt lat="43.37986" lon="5.91027">
        <ele>417.9</ele>
        <time>2022-11-13T12:43:26Z</time>
      </trkpt>
      <trkpt lat="43.37995" lon="5.91024">
        <ele>417.9</ele>
        <time>2022-11-13T12:43:34Z</time>
      </trkpt>
      <trkpt lat="43.38005" lon="5.91025">
        <ele>419.1</ele>
        <time>2022-11-13T12:43:44Z</time>
      </trkpt>
      <trkpt lat="43.38014" lon="5.91026">
        <ele>420.1</ele>
        <time>2022-11-13T12:43:53Z</time>
      </trkpt>
      <trkpt lat="43.38021" lon="5.91033">
        <ele>422.1</ele>
        <time>2022-11-13T12:44:04Z</time>
      </trkpt>
      <trkpt lat="43.3803" lon="5.9104">
        <ele>423.2</ele>
        <time>2022-11-13T12:44:12Z</time>
      </trkpt>
      <trkpt lat="43.38039" lon="5.9104">
        <ele>424.3</ele>
        <time>2022-11-13T12:44:20Z</time>
      </trkpt>
      <trkpt lat="43.38048" lon="5.91038">
        <ele>424.9</ele>
        <time>2022-11-13T12:44:32Z</time>
      </trkpt>
      <trkpt lat="43.38058" lon="5.91041">
        <ele>425.7</ele>
        <time>2022-11-13T12:44:42Z</time>
      </trkpt>
      <trkpt lat="43.38067" lon="5.91046">
        <ele>426.1</ele>
        <time>2022-11-13T12:44:50Z</time>
      </trkpt>
      <trkpt lat="43.38074" lon="5.91054">
        <ele>426.7</ele>
        <time>2022-11-13T12:45:01Z</time>
      </trkpt>
      <trkpt lat="43.38079" lon="5.91066">
        <ele>428.6</ele>
        <time>2022-11-13T12:45:15Z</time>
      </trkpt>
      <trkpt lat="43.38083" lon="5.91078">
        <ele>429.6</ele>
        <time>2022-11-13T12:45:22Z</time>
      </trkpt>
      <trkpt lat="43.38087" lon="5.9109">
        <ele>430.9</ele>
        <time>2022-11-13T12:45:31Z</time>
      </trkpt>
      <trkpt lat="43.38089" lon="5.91094">
        <ele>430.4</ele>
        <time>2022-11-13T12:45:37Z</time>
      </trkpt>
      <trkpt lat="43.38089" lon="5.91095">
        <ele>430.2</ele>
        <time>2022-11-13T12:45:46Z</time>
      </trkpt>
      <trkpt lat="43.3809" lon="5.91094">
        <ele>430.1</ele>
        <time>2022-11-13T12:45:48Z</time>
      </trkpt>
      <trkpt lat="43.38089" lon="5.91094">
        <ele>430.2</ele>
        <time>2022-11-13T12:45:49Z</time>
      </trkpt>
      <trkpt lat="43.38088" lon="5.91081">
        <ele>431.3</ele>
        <time>2022-11-13T12:46:01Z</time>
      </trkpt>
      <trkpt lat="43.38084" lon="5.91069">
        <ele>431.5</ele>
        <time>2022-11-13T12:46:15Z</time>
      </trkpt>
      <trkpt lat="43.38081" lon="5.91066">
        <ele>430.5</ele>
        <time>2022-11-13T12:46:22Z</time>
      </trkpt>
      <trkpt lat="43.38081" lon="5.91066">
        <ele>430.5</ele>
        <time>2022-11-13T12:46:25Z</time>
      </trkpt>
      <trkpt lat="43.38081" lon="5.91066">
        <ele>430.5</ele>
        <time>2022-11-13T12:46:26Z</time>
      </trkpt>
      <trkpt lat="43.38081" lon="5.91065">
        <ele>430.4</ele>
        <time>2022-11-13T12:46:46Z</time>
      </trkpt>
      <trkpt lat="43.38081" lon="5.91065">
        <ele>430.4</ele>
        <time>2022-11-13T12:46:48Z</time>
      </trkpt>
      <trkpt lat="43.38081" lon="5.91065">
        <ele>430.3</ele>
        <time>2022-11-13T12:47:11Z</time>
      </trkpt>
      <trkpt lat="43.38082" lon="5.91065">
        <ele>430.4</ele>
        <time>2022-11-13T12:47:17Z</time>
      </trkpt>
      <trkpt lat="43.38082" lon="5.91065">
        <ele>430.3</ele>
        <time>2022-11-13T12:47:18Z</time>
      </trkpt>
      <trkpt lat="43.38082" lon="5.91065">
        <ele>430.2</ele>
        <time>2022-11-13T12:47:20Z</time>
      </trkpt>
      <trkpt lat="43.38082" lon="5.91065">
        <ele>430.2</ele>
        <time>2022-11-13T12:47:24Z</time>
      </trkpt>
      <trkpt lat="43.38082" lon="5.91065">
        <ele>430.2</ele>
        <time>2022-11-13T12:47:25Z</time>
      </trkpt>
      <trkpt lat="43.38082" lon="5.91065">
        <ele>430.2</ele>
        <time>2022-11-13T12:47:26Z</time>
      </trkpt>
      <trkpt lat="43.38082" lon="5.91065">
        <ele>430.2</ele>
        <time>2022-11-13T12:47:27Z</time>
      </trkpt>
      <trkpt lat="43.38082" lon="5.91066">
        <ele>430.3</ele>
        <time>2022-11-13T12:47:48Z</time>
      </trkpt>
      <trkpt lat="43.38082" lon="5.91066">
        <ele>430.3</ele>
        <time>2022-11-13T12:47:49Z</time>
      </trkpt>
      <trkpt lat="43.38082" lon="5.91066">
        <ele>430.3</ele>
        <time>2022-11-13T12:47:54Z</time>
      </trkpt>
      <trkpt lat="43.38082" lon="5.91066">
        <ele>430.3</ele>
        <time>2022-11-13T12:47:55Z</time>
      </trkpt>
      <trkpt lat="43.38082" lon="5.91066">
        <ele>430.3</ele>
        <time>2022-11-13T12:47:57Z</time>
      </trkpt>
      <trkpt lat="43.38084" lon="5.91078">
        <ele>432.3</ele>
        <time>2022-11-13T12:48:10Z</time>
      </trkpt>
      <trkpt lat="43.38087" lon="5.91086">
        <ele>433.3</ele>
        <time>2022-11-13T12:48:20Z</time>
      </trkpt>
      <trkpt lat="43.38087" lon="5.91086">
        <ele>433.3</ele>
        <time>2022-11-13T12:48:21Z</time>
      </trkpt>
      <trkpt lat="43.38091" lon="5.91099">
        <ele>433.3</ele>
        <time>2022-11-13T12:48:30Z</time>
      </trkpt>
      <trkpt lat="43.38097" lon="5.9111">
        <ele>433.4</ele>
        <time>2022-11-13T12:48:38Z</time>
      </trkpt>
      <trkpt lat="43.38097" lon="5.91111">
        <ele>433.5</ele>
        <time>2022-11-13T12:48:41Z</time>
      </trkpt>
      <trkpt lat="43.38097" lon="5.91112">
        <ele>433.5</ele>
        <time>2022-11-13T12:48:42Z</time>
      </trkpt>
      <trkpt lat="43.38101" lon="5.91123">
        <ele>433.5</ele>
        <time>2022-11-13T12:48:50Z</time>
      </trkpt>
      <trkpt lat="43.38106" lon="5.91135">
        <ele>434.2</ele>
        <time>2022-11-13T12:48:57Z</time>
      </trkpt>
      <trkpt lat="43.38112" lon="5.91146">
        <ele>435.3</ele>
        <time>2022-11-13T12:49:06Z</time>
      </trkpt>
      <trkpt lat="43.38118" lon="5.91156">
        <ele>437.5</ele>
        <time>2022-11-13T12:49:15Z</time>
      </trkpt>
      <trkpt lat="43.38125" lon="5.91165">
        <ele>438</ele>
        <time>2022-11-13T12:49:23Z</time>
      </trkpt>
      <trkpt lat="43.38132" lon="5.91172">
        <ele>438.9</ele>
        <time>2022-11-13T12:49:31Z</time>
      </trkpt>
      <trkpt lat="43.38139" lon="5.91164">
        <ele>439.5</ele>
        <time>2022-11-13T12:49:41Z</time>
      </trkpt>
      <trkpt lat="43.38143" lon="5.91151">
        <ele>440.3</ele>
        <time>2022-11-13T12:49:50Z</time>
      </trkpt>
      <trkpt lat="43.38148" lon="5.91141">
        <ele>441.3</ele>
        <time>2022-11-13T12:49:59Z</time>
      </trkpt>
      <trkpt lat="43.38157" lon="5.91138">
        <ele>441.7</ele>
        <time>2022-11-13T12:50:09Z</time>
      </trkpt>
      <trkpt lat="43.38167" lon="5.9114">
        <ele>442.4</ele>
        <time>2022-11-13T12:50:20Z</time>
      </trkpt>
      <trkpt lat="43.38173" lon="5.91151">
        <ele>443.6</ele>
        <time>2022-11-13T12:50:33Z</time>
      </trkpt>
      <trkpt lat="43.38176" lon="5.91164">
        <ele>444.9</ele>
        <time>2022-11-13T12:50:43Z</time>
      </trkpt>
      <trkpt lat="43.38183" lon="5.91172">
        <ele>445.5</ele>
        <time>2022-11-13T12:50:51Z</time>
      </trkpt>
      <trkpt lat="43.38191" lon="5.91179">
        <ele>446.9</ele>
        <time>2022-11-13T12:51:03Z</time>
      </trkpt>
      <trkpt lat="43.38196" lon="5.91191">
        <ele>449.2</ele>
        <time>2022-11-13T12:51:13Z</time>
      </trkpt>
      <trkpt lat="43.38204" lon="5.91198">
        <ele>449.9</ele>
        <time>2022-11-13T12:51:22Z</time>
      </trkpt>
      <trkpt lat="43.38211" lon="5.91208">
        <ele>451.1</ele>
        <time>2022-11-13T12:51:33Z</time>
      </trkpt>
      <trkpt lat="43.38215" lon="5.9122">
        <ele>452.9</ele>
        <time>2022-11-13T12:51:41Z</time>
      </trkpt>
      <trkpt lat="43.38218" lon="5.91232">
        <ele>454.1</ele>
        <time>2022-11-13T12:51:50Z</time>
      </trkpt>
      <trkpt lat="43.38223" lon="5.91243">
        <ele>454.1</ele>
        <time>2022-11-13T12:52:00Z</time>
      </trkpt>
      <trkpt lat="43.38226" lon="5.91256">
        <ele>453.9</ele>
        <time>2022-11-13T12:52:08Z</time>
      </trkpt>
      <trkpt lat="43.38231" lon="5.91268">
        <ele>454.3</ele>
        <time>2022-11-13T12:52:16Z</time>
      </trkpt>
      <trkpt lat="43.38233" lon="5.91281">
        <ele>455.6</ele>
        <time>2022-11-13T12:52:25Z</time>
      </trkpt>
      <trkpt lat="43.38233" lon="5.91294">
        <ele>456.8</ele>
        <time>2022-11-13T12:52:34Z</time>
      </trkpt>
      <trkpt lat="43.38234" lon="5.91307">
        <ele>456.9</ele>
        <time>2022-11-13T12:52:42Z</time>
      </trkpt>
      <trkpt lat="43.38237" lon="5.91319">
        <ele>456.4</ele>
        <time>2022-11-13T12:52:48Z</time>
      </trkpt>
      <trkpt lat="43.38239" lon="5.91332">
        <ele>456.9</ele>
        <time>2022-11-13T12:52:57Z</time>
      </trkpt>
      <trkpt lat="43.38243" lon="5.91344">
        <ele>456.9</ele>
        <time>2022-11-13T12:53:05Z</time>
      </trkpt>
      <trkpt lat="43.38248" lon="5.91356">
        <ele>456.5</ele>
        <time>2022-11-13T12:53:13Z</time>
      </trkpt>
      <trkpt lat="43.38253" lon="5.91368">
        <ele>456.4</ele>
        <time>2022-11-13T12:53:20Z</time>
      </trkpt>
      <trkpt lat="43.38255" lon="5.9138">
        <ele>455.9</ele>
        <time>2022-11-13T12:53:28Z</time>
      </trkpt>
      <trkpt lat="43.38255" lon="5.91395">
        <ele>455.8</ele>
        <time>2022-11-13T12:53:38Z</time>
      </trkpt>
      <trkpt lat="43.38259" lon="5.91406">
        <ele>455</ele>
        <time>2022-11-13T12:53:45Z</time>
      </trkpt>
      <trkpt lat="43.38267" lon="5.91415">
        <ele>454.4</ele>
        <time>2022-11-13T12:53:52Z</time>
      </trkpt>
      <trkpt lat="43.38272" lon="5.91425">
        <ele>455.2</ele>
        <time>2022-11-13T12:53:59Z</time>
      </trkpt>
      <trkpt lat="43.38278" lon="5.91434">
        <ele>455.1</ele>
        <time>2022-11-13T12:54:08Z</time>
      </trkpt>
      <trkpt lat="43.38284" lon="5.91443">
        <ele>455.2</ele>
        <time>2022-11-13T12:54:17Z</time>
      </trkpt>
      <trkpt lat="43.38284" lon="5.91443">
        <ele>455.2</ele>
        <time>2022-11-13T12:54:20Z</time>
      </trkpt>
      <trkpt lat="43.38293" lon="5.91447">
        <ele>456</ele>
        <time>2022-11-13T12:54:31Z</time>
      </trkpt>
      <trkpt lat="43.383" lon="5.91455">
        <ele>455.7</ele>
        <time>2022-11-13T12:54:41Z</time>
      </trkpt>
      <trkpt lat="43.38303" lon="5.91467">
        <ele>456.3</ele>
        <time>2022-11-13T12:54:52Z</time>
      </trkpt>
      <trkpt lat="43.38306" lon="5.91479">
        <ele>456.5</ele>
        <time>2022-11-13T12:54:59Z</time>
      </trkpt>
      <trkpt lat="43.38312" lon="5.9149">
        <ele>456.2</ele>
        <time>2022-11-13T12:55:08Z</time>
      </trkpt>
      <trkpt lat="43.38319" lon="5.91499">
        <ele>455.5</ele>
        <time>2022-11-13T12:55:16Z</time>
      </trkpt>
      <trkpt lat="43.38322" lon="5.91512">
        <ele>454.1</ele>
        <time>2022-11-13T12:55:26Z</time>
      </trkpt>
      <trkpt lat="43.38322" lon="5.91524">
        <ele>453.8</ele>
        <time>2022-11-13T12:55:35Z</time>
      </trkpt>
      <trkpt lat="43.38323" lon="5.91537">
        <ele>453.6</ele>
        <time>2022-11-13T12:55:42Z</time>
      </trkpt>
      <trkpt lat="43.38323" lon="5.9155">
        <ele>454</ele>
        <time>2022-11-13T12:55:50Z</time>
      </trkpt>
      <trkpt lat="43.38324" lon="5.91562">
        <ele>454.6</ele>
        <time>2022-11-13T12:56:00Z</time>
      </trkpt>
      <trkpt lat="43.38329" lon="5.91574">
        <ele>454.4</ele>
        <time>2022-11-13T12:56:10Z</time>
      </trkpt>
      <trkpt lat="43.38336" lon="5.91585">
        <ele>454.3</ele>
        <time>2022-11-13T12:56:18Z</time>
      </trkpt>
      <trkpt lat="43.38343" lon="5.91594">
        <ele>453.8</ele>
        <time>2022-11-13T12:56:26Z</time>
      </trkpt>
      <trkpt lat="43.38351" lon="5.91602">
        <ele>453.6</ele>
        <time>2022-11-13T12:56:32Z</time>
      </trkpt>
      <trkpt lat="43.38359" lon="5.91608">
        <ele>452.8</ele>
        <time>2022-11-13T12:56:40Z</time>
      </trkpt>
      <trkpt lat="43.38368" lon="5.91614">
        <ele>453.1</ele>
        <time>2022-11-13T12:56:49Z</time>
      </trkpt>
      <trkpt lat="43.38375" lon="5.91621">
        <ele>453.6</ele>
        <time>2022-11-13T12:56:57Z</time>
      </trkpt>
      <trkpt lat="43.38383" lon="5.91628">
        <ele>452.8</ele>
        <time>2022-11-13T12:57:05Z</time>
      </trkpt>
      <trkpt lat="43.38393" lon="5.91631">
        <ele>452.3</ele>
        <time>2022-11-13T12:57:16Z</time>
      </trkpt>
      <trkpt lat="43.38402" lon="5.91636">
        <ele>451.7</ele>
        <time>2022-11-13T12:57:25Z</time>
      </trkpt>
      <trkpt lat="43.3841" lon="5.91644">
        <ele>451.8</ele>
        <time>2022-11-13T12:57:34Z</time>
      </trkpt>
      <trkpt lat="43.38417" lon="5.91653">
        <ele>452.1</ele>
        <time>2022-11-13T12:57:42Z</time>
      </trkpt>
      <trkpt lat="43.38425" lon="5.91659">
        <ele>451.8</ele>
        <time>2022-11-13T12:57:52Z</time>
      </trkpt>
      <trkpt lat="43.38434" lon="5.91667">
        <ele>452.5</ele>
        <time>2022-11-13T12:58:02Z</time>
      </trkpt>
      <trkpt lat="43.38443" lon="5.91675">
        <ele>453</ele>
        <time>2022-11-13T12:58:10Z</time>
      </trkpt>
      <trkpt lat="43.38452" lon="5.91678">
        <ele>453.3</ele>
        <time>2022-11-13T12:58:20Z</time>
      </trkpt>
      <trkpt lat="43.3846" lon="5.91685">
        <ele>452.9</ele>
        <time>2022-11-13T12:58:28Z</time>
      </trkpt>
      <trkpt lat="43.38467" lon="5.91693">
        <ele>453.4</ele>
        <time>2022-11-13T12:58:37Z</time>
      </trkpt>
      <trkpt lat="43.38473" lon="5.91703">
        <ele>453.5</ele>
        <time>2022-11-13T12:58:45Z</time>
      </trkpt>
      <trkpt lat="43.38482" lon="5.91707">
        <ele>453.6</ele>
        <time>2022-11-13T12:58:56Z</time>
      </trkpt>
      <trkpt lat="43.38491" lon="5.91708">
        <ele>453.8</ele>
        <time>2022-11-13T12:59:04Z</time>
      </trkpt>
      <trkpt lat="43.38499" lon="5.91715">
        <ele>455.4</ele>
        <time>2022-11-13T12:59:16Z</time>
      </trkpt>
      <trkpt lat="43.38508" lon="5.91721">
        <ele>455.9</ele>
        <time>2022-11-13T12:59:24Z</time>
      </trkpt>
      <trkpt lat="43.38517" lon="5.91718">
        <ele>455</ele>
        <time>2022-11-13T12:59:33Z</time>
      </trkpt>
      <trkpt lat="43.38527" lon="5.91719">
        <ele>455.6</ele>
        <time>2022-11-13T12:59:42Z</time>
      </trkpt>
      <trkpt lat="43.38536" lon="5.9172">
        <ele>456.9</ele>
        <time>2022-11-13T12:59:50Z</time>
      </trkpt>
      <trkpt lat="43.38544" lon="5.91728">
        <ele>458.1</ele>
        <time>2022-11-13T12:59:58Z</time>
      </trkpt>
      <trkpt lat="43.38551" lon="5.91734">
        <ele>459.7</ele>
        <time>2022-11-13T13:00:11Z</time>
      </trkpt>
      <trkpt lat="43.38555" lon="5.91748">
        <ele>460.3</ele>
        <time>2022-11-13T13:00:21Z</time>
      </trkpt>
      <trkpt lat="43.38562" lon="5.91757">
        <ele>459.3</ele>
        <time>2022-11-13T13:00:30Z</time>
      </trkpt>
      <trkpt lat="43.38571" lon="5.91761">
        <ele>459.2</ele>
        <time>2022-11-13T13:00:38Z</time>
      </trkpt>
      <trkpt lat="43.38579" lon="5.91768">
        <ele>458.2</ele>
        <time>2022-11-13T13:00:47Z</time>
      </trkpt>
      <trkpt lat="43.38587" lon="5.91773">
        <ele>458.4</ele>
        <time>2022-11-13T13:00:55Z</time>
      </trkpt>
      <trkpt lat="43.38596" lon="5.91769">
        <ele>458.9</ele>
        <time>2022-11-13T13:01:05Z</time>
      </trkpt>
      <trkpt lat="43.386" lon="5.91757">
        <ele>460.1</ele>
        <time>2022-11-13T13:01:14Z</time>
      </trkpt>
      <trkpt lat="43.38601" lon="5.91757">
        <ele>459.9</ele>
        <time>2022-11-13T13:01:17Z</time>
      </trkpt>
      <trkpt lat="43.386" lon="5.91756">
        <ele>460.5</ele>
        <time>2022-11-13T13:01:32Z</time>
      </trkpt>
      <trkpt lat="43.386" lon="5.91756">
        <ele>460.6</ele>
        <time>2022-11-13T13:01:33Z</time>
      </trkpt>
      <trkpt lat="43.386" lon="5.91756">
        <ele>461.6</ele>
        <time>2022-11-13T13:01:54Z</time>
      </trkpt>
      <trkpt lat="43.386" lon="5.91756">
        <ele>461.7</ele>
        <time>2022-11-13T13:01:55Z</time>
      </trkpt>
      <trkpt lat="43.386" lon="5.91756">
        <ele>461.9</ele>
        <time>2022-11-13T13:02:00Z</time>
      </trkpt>
      <trkpt lat="43.386" lon="5.91756">
        <ele>461.9</ele>
        <time>2022-11-13T13:02:01Z</time>
      </trkpt>
      <trkpt lat="43.386" lon="5.91755">
        <ele>462.3</ele>
        <time>2022-11-13T13:02:04Z</time>
      </trkpt>
      <trkpt lat="43.38599" lon="5.91754">
        <ele>462.7</ele>
        <time>2022-11-13T13:02:06Z</time>
      </trkpt>
      <trkpt lat="43.38599" lon="5.91754">
        <ele>462.5</ele>
        <time>2022-11-13T13:02:36Z</time>
      </trkpt>
      <trkpt lat="43.38599" lon="5.91754">
        <ele>462.5</ele>
        <time>2022-11-13T13:02:37Z</time>
      </trkpt>
      <trkpt lat="43.38599" lon="5.91754">
        <ele>462.5</ele>
        <time>2022-11-13T13:02:44Z</time>
      </trkpt>
      <trkpt lat="43.38599" lon="5.91754">
        <ele>462.5</ele>
        <time>2022-11-13T13:02:45Z</time>
      </trkpt>
      <trkpt lat="43.38599" lon="5.91753">
        <ele>462.4</ele>
        <time>2022-11-13T13:02:47Z</time>
      </trkpt>
      <trkpt lat="43.38599" lon="5.91753">
        <ele>462.4</ele>
        <time>2022-11-13T13:02:49Z</time>
      </trkpt>
      <trkpt lat="43.38599" lon="5.91753">
        <ele>462.4</ele>
        <time>2022-11-13T13:02:53Z</time>
      </trkpt>
      <trkpt lat="43.38599" lon="5.91753">
        <ele>462.5</ele>
        <time>2022-11-13T13:02:54Z</time>
      </trkpt>
      <trkpt lat="43.38599" lon="5.91753">
        <ele>462.8</ele>
        <time>2022-11-13T13:03:21Z</time>
      </trkpt>
      <trkpt lat="43.38599" lon="5.91753">
        <ele>462.7</ele>
        <time>2022-11-13T13:03:23Z</time>
      </trkpt>
      <trkpt lat="43.38599" lon="5.91753">
        <ele>462.7</ele>
        <time>2022-11-13T13:03:46Z</time>
      </trkpt>
      <trkpt lat="43.38599" lon="5.91753">
        <ele>462.7</ele>
        <time>2022-11-13T13:03:47Z</time>
      </trkpt>
      <trkpt lat="43.38599" lon="5.91752">
        <ele>462.5</ele>
        <time>2022-11-13T13:04:00Z</time>
      </trkpt>
      <trkpt lat="43.38599" lon="5.91752">
        <ele>462.5</ele>
        <time>2022-11-13T13:04:01Z</time>
      </trkpt>
      <trkpt lat="43.386" lon="5.91752">
        <ele>462.6</ele>
        <time>2022-11-13T13:04:08Z</time>
      </trkpt>
      <trkpt lat="43.386" lon="5.91752">
        <ele>462.6</ele>
        <time>2022-11-13T13:04:09Z</time>
      </trkpt>
      <trkpt lat="43.38599" lon="5.91752">
        <ele>462.9</ele>
        <time>2022-11-13T13:05:07Z</time>
      </trkpt>
      <trkpt lat="43.38599" lon="5.91751">
        <ele>464</ele>
        <time>2022-11-13T13:05:12Z</time>
      </trkpt>
      <trkpt lat="43.38599" lon="5.91751">
        <ele>464.4</ele>
        <time>2022-11-13T13:05:33Z</time>
      </trkpt>
      <trkpt lat="43.38599" lon="5.91751">
        <ele>464.9</ele>
        <time>2022-11-13T13:05:34Z</time>
      </trkpt>
      <trkpt lat="43.38599" lon="5.91751">
        <ele>465.1</ele>
        <time>2022-11-13T13:05:35Z</time>
      </trkpt>
      <trkpt lat="43.38599" lon="5.91751">
        <ele>465.3</ele>
        <time>2022-11-13T13:05:37Z</time>
      </trkpt>
      <trkpt lat="43.38599" lon="5.91751">
        <ele>465.7</ele>
        <time>2022-11-13T13:06:19Z</time>
      </trkpt>
      <trkpt lat="43.38599" lon="5.91751">
        <ele>465.7</ele>
        <time>2022-11-13T13:06:20Z</time>
      </trkpt>
      <trkpt lat="43.38599" lon="5.91751">
        <ele>465.9</ele>
        <time>2022-11-13T13:06:50Z</time>
      </trkpt>
      <trkpt lat="43.38599" lon="5.9175">
        <ele>465.9</ele>
        <time>2022-11-13T13:06:51Z</time>
      </trkpt>
      <trkpt lat="43.38599" lon="5.9175">
        <ele>466</ele>
        <time>2022-11-13T13:07:22Z</time>
      </trkpt>
      <trkpt lat="43.38599" lon="5.9175">
        <ele>466</ele>
        <time>2022-11-13T13:07:24Z</time>
      </trkpt>
      <trkpt lat="43.38599" lon="5.9175">
        <ele>466.1</ele>
        <time>2022-11-13T13:07:31Z</time>
      </trkpt>
      <trkpt lat="43.38599" lon="5.9175">
        <ele>466.1</ele>
        <time>2022-11-13T13:07:32Z</time>
      </trkpt>
      <trkpt lat="43.38599" lon="5.91751">
        <ele>465.8</ele>
        <time>2022-11-13T13:08:11Z</time>
      </trkpt>
      <trkpt lat="43.38605" lon="5.91741">
        <ele>465.3</ele>
        <time>2022-11-13T13:08:28Z</time>
      </trkpt>
      <trkpt lat="43.38611" lon="5.9173">
        <ele>466.1</ele>
        <time>2022-11-13T13:08:41Z</time>
      </trkpt>
      <trkpt lat="43.38615" lon="5.91717">
        <ele>467.3</ele>
        <time>2022-11-13T13:08:52Z</time>
      </trkpt>
      <trkpt lat="43.3862" lon="5.91706">
        <ele>467.7</ele>
        <time>2022-11-13T13:09:03Z</time>
      </trkpt>
      <trkpt lat="43.38626" lon="5.91695">
        <ele>469.3</ele>
        <time>2022-11-13T13:09:14Z</time>
      </trkpt>
      <trkpt lat="43.38633" lon="5.91686">
        <ele>471.1</ele>
        <time>2022-11-13T13:09:24Z</time>
      </trkpt>
      <trkpt lat="43.3864" lon="5.91679">
        <ele>473.5</ele>
        <time>2022-11-13T13:09:36Z</time>
      </trkpt>
      <trkpt lat="43.38649" lon="5.91674">
        <ele>473.7</ele>
        <time>2022-11-13T13:09:46Z</time>
      </trkpt>
      <trkpt lat="43.38656" lon="5.91667">
        <ele>474.7</ele>
        <time>2022-11-13T13:09:56Z</time>
      </trkpt>
      <trkpt lat="43.38664" lon="5.9166">
        <ele>475.8</ele>
        <time>2022-11-13T13:10:05Z</time>
      </trkpt>
      <trkpt lat="43.38673" lon="5.91659">
        <ele>476.5</ele>
        <time>2022-11-13T13:10:14Z</time>
      </trkpt>
      <trkpt lat="43.38682" lon="5.91658">
        <ele>477.1</ele>
        <time>2022-11-13T13:10:23Z</time>
      </trkpt>
      <trkpt lat="43.38692" lon="5.91658">
        <ele>478.6</ele>
        <time>2022-11-13T13:10:32Z</time>
      </trkpt>
      <trkpt lat="43.38701" lon="5.91661">
        <ele>479.5</ele>
        <time>2022-11-13T13:10:40Z</time>
      </trkpt>
      <trkpt lat="43.38711" lon="5.91664">
        <ele>480.9</ele>
        <time>2022-11-13T13:10:49Z</time>
      </trkpt>
      <trkpt lat="43.3872" lon="5.91668">
        <ele>482.4</ele>
        <time>2022-11-13T13:10:58Z</time>
      </trkpt>
      <trkpt lat="43.38729" lon="5.91675">
        <ele>483.3</ele>
        <time>2022-11-13T13:11:07Z</time>
      </trkpt>
      <trkpt lat="43.38738" lon="5.91681">
        <ele>483.8</ele>
        <time>2022-11-13T13:11:16Z</time>
      </trkpt>
      <trkpt lat="43.38745" lon="5.91687">
        <ele>484.7</ele>
        <time>2022-11-13T13:11:24Z</time>
      </trkpt>
      <trkpt lat="43.38753" lon="5.91694">
        <ele>486.6</ele>
        <time>2022-11-13T13:11:33Z</time>
      </trkpt>
      <trkpt lat="43.3876" lon="5.91702">
        <ele>486.9</ele>
        <time>2022-11-13T13:11:42Z</time>
      </trkpt>
      <trkpt lat="43.38765" lon="5.91714">
        <ele>488.3</ele>
        <time>2022-11-13T13:11:51Z</time>
      </trkpt>
      <trkpt lat="43.38769" lon="5.91726">
        <ele>490.2</ele>
        <time>2022-11-13T13:12:00Z</time>
      </trkpt>
      <trkpt lat="43.38775" lon="5.91737">
        <ele>491.1</ele>
        <time>2022-11-13T13:12:09Z</time>
      </trkpt>
      <trkpt lat="43.38781" lon="5.91747">
        <ele>492</ele>
        <time>2022-11-13T13:12:18Z</time>
      </trkpt>
      <trkpt lat="43.38787" lon="5.91754">
        <ele>493.3</ele>
        <time>2022-11-13T13:12:28Z</time>
      </trkpt>
      <trkpt lat="43.38787" lon="5.91755">
        <ele>493.5</ele>
        <time>2022-11-13T13:12:32Z</time>
      </trkpt>
      <trkpt lat="43.38794" lon="5.91764">
        <ele>493.5</ele>
        <time>2022-11-13T13:12:42Z</time>
      </trkpt>
      <trkpt lat="43.38801" lon="5.91774">
        <ele>493.2</ele>
        <time>2022-11-13T13:12:51Z</time>
      </trkpt>
      <trkpt lat="43.38802" lon="5.91775">
        <ele>493.2</ele>
        <time>2022-11-13T13:12:54Z</time>
      </trkpt>
      <trkpt lat="43.38802" lon="5.91775">
        <ele>493.1</ele>
        <time>2022-11-13T13:12:55Z</time>
      </trkpt>
      <trkpt lat="43.38802" lon="5.91775">
        <ele>493.1</ele>
        <time>2022-11-13T13:12:56Z</time>
      </trkpt>
      <trkpt lat="43.38802" lon="5.91775">
        <ele>493.2</ele>
        <time>2022-11-13T13:13:03Z</time>
      </trkpt>
      <trkpt lat="43.38808" lon="5.91783">
        <ele>494</ele>
        <time>2022-11-13T13:13:20Z</time>
      </trkpt>
      <trkpt lat="43.38808" lon="5.91783">
        <ele>494</ele>
        <time>2022-11-13T13:13:21Z</time>
      </trkpt>
      <trkpt lat="43.38808" lon="5.91783">
        <ele>494</ele>
        <time>2022-11-13T13:13:22Z</time>
      </trkpt>
      <trkpt lat="43.38808" lon="5.91783">
        <ele>494</ele>
        <time>2022-11-13T13:13:24Z</time>
      </trkpt>
      <trkpt lat="43.38808" lon="5.91783">
        <ele>494.1</ele>
        <time>2022-11-13T13:13:25Z</time>
      </trkpt>
      <trkpt lat="43.38808" lon="5.91783">
        <ele>494.1</ele>
        <time>2022-11-13T13:13:26Z</time>
      </trkpt>
      <trkpt lat="43.38812" lon="5.91787">
        <ele>494.3</ele>
        <time>2022-11-13T13:13:33Z</time>
      </trkpt>
      <trkpt lat="43.38813" lon="5.91788">
        <ele>494.2</ele>
        <time>2022-11-13T13:13:36Z</time>
      </trkpt>
      <trkpt lat="43.3882" lon="5.91797">
        <ele>494.5</ele>
        <time>2022-11-13T13:13:45Z</time>
      </trkpt>
      <trkpt lat="43.38829" lon="5.91803">
        <ele>495.6</ele>
        <time>2022-11-13T13:13:54Z</time>
      </trkpt>
      <trkpt lat="43.38838" lon="5.91802">
        <ele>495.9</ele>
        <time>2022-11-13T13:14:03Z</time>
      </trkpt>
      <trkpt lat="43.38847" lon="5.91802">
        <ele>496.7</ele>
        <time>2022-11-13T13:14:14Z</time>
      </trkpt>
      <trkpt lat="43.38857" lon="5.918">
        <ele>497.7</ele>
        <time>2022-11-13T13:14:24Z</time>
      </trkpt>
      <trkpt lat="43.38866" lon="5.918">
        <ele>498.5</ele>
        <time>2022-11-13T13:14:33Z</time>
      </trkpt>
      <trkpt lat="43.38875" lon="5.918">
        <ele>498.8</ele>
        <time>2022-11-13T13:14:41Z</time>
      </trkpt>
      <trkpt lat="43.38885" lon="5.91804">
        <ele>499.5</ele>
        <time>2022-11-13T13:14:50Z</time>
      </trkpt>
      <trkpt lat="43.38894" lon="5.91808">
        <ele>499.4</ele>
        <time>2022-11-13T13:14:58Z</time>
      </trkpt>
      <trkpt lat="43.38902" lon="5.91812">
        <ele>499.5</ele>
        <time>2022-11-13T13:15:06Z</time>
      </trkpt>
      <trkpt lat="43.3891" lon="5.91818">
        <ele>499.3</ele>
        <time>2022-11-13T13:15:14Z</time>
      </trkpt>
      <trkpt lat="43.38919" lon="5.91821">
        <ele>498.8</ele>
        <time>2022-11-13T13:15:23Z</time>
      </trkpt>
      <trkpt lat="43.38928" lon="5.91821">
        <ele>499</ele>
        <time>2022-11-13T13:15:33Z</time>
      </trkpt>
      <trkpt lat="43.38937" lon="5.91821">
        <ele>499.5</ele>
        <time>2022-11-13T13:15:43Z</time>
      </trkpt>
      <trkpt lat="43.38947" lon="5.91821">
        <ele>499.8</ele>
        <time>2022-11-13T13:15:52Z</time>
      </trkpt>
      <trkpt lat="43.38956" lon="5.91822">
        <ele>500.5</ele>
        <time>2022-11-13T13:16:01Z</time>
      </trkpt>
      <trkpt lat="43.38965" lon="5.91825">
        <ele>501.1</ele>
        <time>2022-11-13T13:16:10Z</time>
      </trkpt>
      <trkpt lat="43.38968" lon="5.91826">
        <ele>501.3</ele>
        <time>2022-11-13T13:16:16Z</time>
      </trkpt>
      <trkpt lat="43.38968" lon="5.91826">
        <ele>501.5</ele>
        <time>2022-11-13T13:16:17Z</time>
      </trkpt>
      <trkpt lat="43.38978" lon="5.91823">
        <ele>501.9</ele>
        <time>2022-11-13T13:16:27Z</time>
      </trkpt>
      <trkpt lat="43.38987" lon="5.91822">
        <ele>502.5</ele>
        <time>2022-11-13T13:16:35Z</time>
      </trkpt>
      <trkpt lat="43.38996" lon="5.91822">
        <ele>502.5</ele>
        <time>2022-11-13T13:16:43Z</time>
      </trkpt>
      <trkpt lat="43.39005" lon="5.91827">
        <ele>502.6</ele>
        <time>2022-11-13T13:16:51Z</time>
      </trkpt>
      <trkpt lat="43.39011" lon="5.91837">
        <ele>503.1</ele>
        <time>2022-11-13T13:17:01Z</time>
      </trkpt>
      <trkpt lat="43.39016" lon="5.91848">
        <ele>504</ele>
        <time>2022-11-13T13:17:10Z</time>
      </trkpt>
      <trkpt lat="43.39024" lon="5.91853">
        <ele>504.9</ele>
        <time>2022-11-13T13:17:19Z</time>
      </trkpt>
      <trkpt lat="43.39034" lon="5.91855">
        <ele>504.8</ele>
        <time>2022-11-13T13:17:28Z</time>
      </trkpt>
      <trkpt lat="43.39042" lon="5.91861">
        <ele>505.8</ele>
        <time>2022-11-13T13:17:38Z</time>
      </trkpt>
      <trkpt lat="43.3905" lon="5.91868">
        <ele>506.7</ele>
        <time>2022-11-13T13:17:47Z</time>
      </trkpt>
      <trkpt lat="43.39057" lon="5.91875">
        <ele>507.8</ele>
        <time>2022-11-13T13:17:56Z</time>
      </trkpt>
      <trkpt lat="43.39066" lon="5.91882">
        <ele>509.5</ele>
        <time>2022-11-13T13:18:06Z</time>
      </trkpt>
      <trkpt lat="43.39073" lon="5.91888">
        <ele>510.9</ele>
        <time>2022-11-13T13:18:15Z</time>
      </trkpt>
      <trkpt lat="43.39082" lon="5.91896">
        <ele>512</ele>
        <time>2022-11-13T13:18:25Z</time>
      </trkpt>
      <trkpt lat="43.39089" lon="5.91904">
        <ele>512.8</ele>
        <time>2022-11-13T13:18:35Z</time>
      </trkpt>
      <trkpt lat="43.39096" lon="5.91914">
        <ele>512.3</ele>
        <time>2022-11-13T13:18:45Z</time>
      </trkpt>
      <trkpt lat="43.39101" lon="5.91925">
        <ele>512.1</ele>
        <time>2022-11-13T13:18:54Z</time>
      </trkpt>
      <trkpt lat="43.39104" lon="5.91937">
        <ele>512</ele>
        <time>2022-11-13T13:19:03Z</time>
      </trkpt>
      <trkpt lat="43.39108" lon="5.91949">
        <ele>511.6</ele>
        <time>2022-11-13T13:19:12Z</time>
      </trkpt>
      <trkpt lat="43.39111" lon="5.91961">
        <ele>511.3</ele>
        <time>2022-11-13T13:19:21Z</time>
      </trkpt>
      <trkpt lat="43.39114" lon="5.91974">
        <ele>511.5</ele>
        <time>2022-11-13T13:19:30Z</time>
      </trkpt>
      <trkpt lat="43.39115" lon="5.91986">
        <ele>511.3</ele>
        <time>2022-11-13T13:19:39Z</time>
      </trkpt>
      <trkpt lat="43.39117" lon="5.91999">
        <ele>510.2</ele>
        <time>2022-11-13T13:19:48Z</time>
      </trkpt>
      <trkpt lat="43.39117" lon="5.92001">
        <ele>510.1</ele>
        <time>2022-11-13T13:19:53Z</time>
      </trkpt>
      <trkpt lat="43.39117" lon="5.92001">
        <ele>510.3</ele>
        <time>2022-11-13T13:20:00Z</time>
      </trkpt>
      <trkpt lat="43.39117" lon="5.92001">
        <ele>510.3</ele>
        <time>2022-11-13T13:20:01Z</time>
      </trkpt>
      <trkpt lat="43.39117" lon="5.92001">
        <ele>510.2</ele>
        <time>2022-11-13T13:20:06Z</time>
      </trkpt>
      <trkpt lat="43.39118" lon="5.92002">
        <ele>510.2</ele>
        <time>2022-11-13T13:20:09Z</time>
      </trkpt>
      <trkpt lat="43.39118" lon="5.92003">
        <ele>510.1</ele>
        <time>2022-11-13T13:20:14Z</time>
      </trkpt>
      <trkpt lat="43.39118" lon="5.92003">
        <ele>510.2</ele>
        <time>2022-11-13T13:20:15Z</time>
      </trkpt>
      <trkpt lat="43.39118" lon="5.92003">
        <ele>510.2</ele>
        <time>2022-11-13T13:20:16Z</time>
      </trkpt>
      <trkpt lat="43.39118" lon="5.92003">
        <ele>510.2</ele>
        <time>2022-11-13T13:20:17Z</time>
      </trkpt>
      <trkpt lat="43.39117" lon="5.92003">
        <ele>510.2</ele>
        <time>2022-11-13T13:20:21Z</time>
      </trkpt>
      <trkpt lat="43.39117" lon="5.92003">
        <ele>510.2</ele>
        <time>2022-11-13T13:20:22Z</time>
      </trkpt>
      <trkpt lat="43.39118" lon="5.92002">
        <ele>510</ele>
        <time>2022-11-13T13:20:30Z</time>
      </trkpt>
      <trkpt lat="43.39118" lon="5.92002">
        <ele>510.1</ele>
        <time>2022-11-13T13:20:31Z</time>
      </trkpt>
      <trkpt lat="43.39117" lon="5.92003">
        <ele>510</ele>
        <time>2022-11-13T13:20:39Z</time>
      </trkpt>
      <trkpt lat="43.39118" lon="5.9201">
        <ele>510.3</ele>
        <time>2022-11-13T13:20:56Z</time>
      </trkpt>
      <trkpt lat="43.39118" lon="5.92011">
        <ele>510.1</ele>
        <time>2022-11-13T13:20:59Z</time>
      </trkpt>
      <trkpt lat="43.39119" lon="5.92013">
        <ele>510</ele>
        <time>2022-11-13T13:21:04Z</time>
      </trkpt>
      <trkpt lat="43.39119" lon="5.92014">
        <ele>509.8</ele>
        <time>2022-11-13T13:21:44Z</time>
      </trkpt>
      <trkpt lat="43.39119" lon="5.92018">
        <ele>509.8</ele>
        <time>2022-11-13T13:21:54Z</time>
      </trkpt>
      <trkpt lat="43.39119" lon="5.92018">
        <ele>509.7</ele>
        <time>2022-11-13T13:21:55Z</time>
      </trkpt>
      <trkpt lat="43.39119" lon="5.92018">
        <ele>509.6</ele>
        <time>2022-11-13T13:21:56Z</time>
      </trkpt>
      <trkpt lat="43.39119" lon="5.92019">
        <ele>509.4</ele>
        <time>2022-11-13T13:22:00Z</time>
      </trkpt>
      <trkpt lat="43.39119" lon="5.9202">
        <ele>509.6</ele>
        <time>2022-11-13T13:22:04Z</time>
      </trkpt>
      <trkpt lat="43.39119" lon="5.92021">
        <ele>509.6</ele>
        <time>2022-11-13T13:22:05Z</time>
      </trkpt>
      <trkpt lat="43.39121" lon="5.92033">
        <ele>508.7</ele>
        <time>2022-11-13T13:22:20Z</time>
      </trkpt>
      <trkpt lat="43.39124" lon="5.92046">
        <ele>508.2</ele>
        <time>2022-11-13T13:22:37Z</time>
      </trkpt>
      <trkpt lat="43.39127" lon="5.92058">
        <ele>507.1</ele>
        <time>2022-11-13T13:22:50Z</time>
      </trkpt>
      <trkpt lat="43.3913" lon="5.9207">
        <ele>506.6</ele>
        <time>2022-11-13T13:23:03Z</time>
      </trkpt>
      <trkpt lat="43.39132" lon="5.92083">
        <ele>505.9</ele>
        <time>2022-11-13T13:23:16Z</time>
      </trkpt>
      <trkpt lat="43.39133" lon="5.92083">
        <ele>505.8</ele>
        <time>2022-11-13T13:23:19Z</time>
      </trkpt>
      <trkpt lat="43.39133" lon="5.92084">
        <ele>505.7</ele>
        <time>2022-11-13T13:23:20Z</time>
      </trkpt>
      <trkpt lat="43.39138" lon="5.92095">
        <ele>504.4</ele>
        <time>2022-11-13T13:23:30Z</time>
      </trkpt>
      <trkpt lat="43.39144" lon="5.92105">
        <ele>503.5</ele>
        <time>2022-11-13T13:23:41Z</time>
      </trkpt>
      <trkpt lat="43.39145" lon="5.92109">
        <ele>503.4</ele>
        <time>2022-11-13T13:23:47Z</time>
      </trkpt>
      <trkpt lat="43.39146" lon="5.92109">
        <ele>503.5</ele>
        <time>2022-11-13T13:23:50Z</time>
      </trkpt>
      <trkpt lat="43.39149" lon="5.92121">
        <ele>503.9</ele>
        <time>2022-11-13T13:24:01Z</time>
      </trkpt>
      <trkpt lat="43.3915" lon="5.92134">
        <ele>503.9</ele>
        <time>2022-11-13T13:24:12Z</time>
      </trkpt>
      <trkpt lat="43.39154" lon="5.92146">
        <ele>503.7</ele>
        <time>2022-11-13T13:24:23Z</time>
      </trkpt>
      <trkpt lat="43.39158" lon="5.92153">
        <ele>503.5</ele>
        <time>2022-11-13T13:24:34Z</time>
      </trkpt>
      <trkpt lat="43.39158" lon="5.92154">
        <ele>503.5</ele>
        <time>2022-11-13T13:24:38Z</time>
      </trkpt>
      <trkpt lat="43.39161" lon="5.92166">
        <ele>504</ele>
        <time>2022-11-13T13:24:51Z</time>
      </trkpt>
      <trkpt lat="43.39164" lon="5.92178">
        <ele>503.9</ele>
        <time>2022-11-13T13:25:00Z</time>
      </trkpt>
      <trkpt lat="43.39168" lon="5.9219">
        <ele>503.5</ele>
        <time>2022-11-13T13:25:10Z</time>
      </trkpt>
      <trkpt lat="43.39172" lon="5.92202">
        <ele>503.4</ele>
        <time>2022-11-13T13:25:20Z</time>
      </trkpt>
      <trkpt lat="43.39177" lon="5.92214">
        <ele>503.1</ele>
        <time>2022-11-13T13:25:30Z</time>
      </trkpt>
      <trkpt lat="43.39177" lon="5.92214">
        <ele>503.1</ele>
        <time>2022-11-13T13:25:32Z</time>
      </trkpt>
      <trkpt lat="43.39178" lon="5.92214">
        <ele>503.2</ele>
        <time>2022-11-13T13:25:34Z</time>
      </trkpt>
      <trkpt lat="43.39182" lon="5.92226">
        <ele>502.9</ele>
        <time>2022-11-13T13:25:45Z</time>
      </trkpt>
      <trkpt lat="43.39185" lon="5.92238">
        <ele>503</ele>
        <time>2022-11-13T13:25:54Z</time>
      </trkpt>
      <trkpt lat="43.39186" lon="5.92238">
        <ele>503.1</ele>
        <time>2022-11-13T13:25:57Z</time>
      </trkpt>
      <trkpt lat="43.39186" lon="5.92238">
        <ele>503.1</ele>
        <time>2022-11-13T13:25:58Z</time>
      </trkpt>
      <trkpt lat="43.39189" lon="5.92251">
        <ele>502.9</ele>
        <time>2022-11-13T13:26:06Z</time>
      </trkpt>
      <trkpt lat="43.39189" lon="5.92254">
        <ele>503.3</ele>
        <time>2022-11-13T13:26:10Z</time>
      </trkpt>
      <trkpt lat="43.39189" lon="5.92254">
        <ele>503.2</ele>
        <time>2022-11-13T13:26:23Z</time>
      </trkpt>
      <trkpt lat="43.3919" lon="5.92255">
        <ele>503.1</ele>
        <time>2022-11-13T13:26:25Z</time>
      </trkpt>
      <trkpt lat="43.3919" lon="5.92255">
        <ele>503.1</ele>
        <time>2022-11-13T13:26:26Z</time>
      </trkpt>
      <trkpt lat="43.39189" lon="5.92255">
        <ele>503.2</ele>
        <time>2022-11-13T13:26:31Z</time>
      </trkpt>
      <trkpt lat="43.3919" lon="5.92256">
        <ele>503.1</ele>
        <time>2022-11-13T13:26:49Z</time>
      </trkpt>
      <trkpt lat="43.39191" lon="5.92257">
        <ele>503.2</ele>
        <time>2022-11-13T13:26:55Z</time>
      </trkpt>
      <trkpt lat="43.39192" lon="5.92257">
        <ele>503.3</ele>
        <time>2022-11-13T13:26:57Z</time>
      </trkpt>
      <trkpt lat="43.39192" lon="5.92257">
        <ele>503.4</ele>
        <time>2022-11-13T13:27:00Z</time>
      </trkpt>
      <trkpt lat="43.39192" lon="5.92258">
        <ele>503.3</ele>
        <time>2022-11-13T13:27:01Z</time>
      </trkpt>
      <trkpt lat="43.39192" lon="5.92258">
        <ele>503.3</ele>
        <time>2022-11-13T13:27:09Z</time>
      </trkpt>
      <trkpt lat="43.39192" lon="5.92259">
        <ele>503.4</ele>
        <time>2022-11-13T13:27:15Z</time>
      </trkpt>
      <trkpt lat="43.39192" lon="5.92259">
        <ele>503.3</ele>
        <time>2022-11-13T13:27:17Z</time>
      </trkpt>
      <trkpt lat="43.39192" lon="5.92259">
        <ele>503</ele>
        <time>2022-11-13T13:29:07Z</time>
      </trkpt>
      <trkpt lat="43.39191" lon="5.9226">
        <ele>503.7</ele>
        <time>2022-11-13T13:29:14Z</time>
      </trkpt>
      <trkpt lat="43.39191" lon="5.9226">
        <ele>503.7</ele>
        <time>2022-11-13T13:29:37Z</time>
      </trkpt>
      <trkpt lat="43.39191" lon="5.9226">
        <ele>503.7</ele>
        <time>2022-11-13T13:29:39Z</time>
      </trkpt>
      <trkpt lat="43.39191" lon="5.9226">
        <ele>503.5</ele>
        <time>2022-11-13T13:30:12Z</time>
      </trkpt>
      <trkpt lat="43.39191" lon="5.9226">
        <ele>503.5</ele>
        <time>2022-11-13T13:30:13Z</time>
      </trkpt>
      <trkpt lat="43.39191" lon="5.9226">
        <ele>503.4</ele>
        <time>2022-11-13T13:30:33Z</time>
      </trkpt>
      <trkpt lat="43.39191" lon="5.9226">
        <ele>503.4</ele>
        <time>2022-11-13T13:30:34Z</time>
      </trkpt>
      <trkpt lat="43.39192" lon="5.9226">
        <ele>503.4</ele>
        <time>2022-11-13T13:30:43Z</time>
      </trkpt>
      <trkpt lat="43.39192" lon="5.9226">
        <ele>503.4</ele>
        <time>2022-11-13T13:30:44Z</time>
      </trkpt>
      <trkpt lat="43.39192" lon="5.9226">
        <ele>503.4</ele>
        <time>2022-11-13T13:30:46Z</time>
      </trkpt>
      <trkpt lat="43.39192" lon="5.9226">
        <ele>503.3</ele>
        <time>2022-11-13T13:30:47Z</time>
      </trkpt>
      <trkpt lat="43.39192" lon="5.9226">
        <ele>503.3</ele>
        <time>2022-11-13T13:30:48Z</time>
      </trkpt>
      <trkpt lat="43.39192" lon="5.9226">
        <ele>503.3</ele>
        <time>2022-11-13T13:30:49Z</time>
      </trkpt>
      <trkpt lat="43.39192" lon="5.9226">
        <ele>503.2</ele>
        <time>2022-11-13T13:30:50Z</time>
      </trkpt>
      <trkpt lat="43.39192" lon="5.9226">
        <ele>503.3</ele>
        <time>2022-11-13T13:30:59Z</time>
      </trkpt>
      <trkpt lat="43.39192" lon="5.9226">
        <ele>503.3</ele>
        <time>2022-11-13T13:31:08Z</time>
      </trkpt>
      <trkpt lat="43.39193" lon="5.92263">
        <ele>503.2</ele>
        <time>2022-11-13T13:31:13Z</time>
      </trkpt>
      <trkpt lat="43.39193" lon="5.92263">
        <ele>503.3</ele>
        <time>2022-11-13T13:31:14Z</time>
      </trkpt>
      <trkpt lat="43.39196" lon="5.92272">
        <ele>503.2</ele>
        <time>2022-11-13T13:31:26Z</time>
      </trkpt>
      <trkpt lat="43.39195" lon="5.92272">
        <ele>503.2</ele>
        <time>2022-11-13T13:31:31Z</time>
      </trkpt>
      <trkpt lat="43.39199" lon="5.92283">
        <ele>502.4</ele>
        <time>2022-11-13T13:31:43Z</time>
      </trkpt>
      <trkpt lat="43.39205" lon="5.92294">
        <ele>501.9</ele>
        <time>2022-11-13T13:31:56Z</time>
      </trkpt>
      <trkpt lat="43.39207" lon="5.92307">
        <ele>502.3</ele>
        <time>2022-11-13T13:32:09Z</time>
      </trkpt>
      <trkpt lat="43.39208" lon="5.9232">
        <ele>502.1</ele>
        <time>2022-11-13T13:32:21Z</time>
      </trkpt>
      <trkpt lat="43.39209" lon="5.9233">
        <ele>502.4</ele>
        <time>2022-11-13T13:32:33Z</time>
      </trkpt>
      <trkpt lat="43.39209" lon="5.9233">
        <ele>502.4</ele>
        <time>2022-11-13T13:32:36Z</time>
      </trkpt>
      <trkpt lat="43.39209" lon="5.9233">
        <ele>502.4</ele>
        <time>2022-11-13T13:32:37Z</time>
      </trkpt>
      <trkpt lat="43.39209" lon="5.9233">
        <ele>502.4</ele>
        <time>2022-11-13T13:32:39Z</time>
      </trkpt>
      <trkpt lat="43.3921" lon="5.92344">
        <ele>502.9</ele>
        <time>2022-11-13T13:32:50Z</time>
      </trkpt>
      <trkpt lat="43.39212" lon="5.92356">
        <ele>502.6</ele>
        <time>2022-11-13T13:32:59Z</time>
      </trkpt>
      <trkpt lat="43.39214" lon="5.92363">
        <ele>502.4</ele>
        <time>2022-11-13T13:33:06Z</time>
      </trkpt>
      <trkpt lat="43.39214" lon="5.92364">
        <ele>502.5</ele>
        <time>2022-11-13T13:33:12Z</time>
      </trkpt>
      <trkpt lat="43.39218" lon="5.92376">
        <ele>503</ele>
        <time>2022-11-13T13:33:22Z</time>
      </trkpt>
      <trkpt lat="43.39222" lon="5.92387">
        <ele>503.6</ele>
        <time>2022-11-13T13:33:32Z</time>
      </trkpt>
      <trkpt lat="43.39227" lon="5.92399">
        <ele>504.2</ele>
        <time>2022-11-13T13:33:42Z</time>
      </trkpt>
      <trkpt lat="43.39228" lon="5.92411">
        <ele>504.5</ele>
        <time>2022-11-13T13:33:52Z</time>
      </trkpt>
      <trkpt lat="43.39229" lon="5.92425">
        <ele>504.7</ele>
        <time>2022-11-13T13:34:03Z</time>
      </trkpt>
      <trkpt lat="43.3923" lon="5.92438">
        <ele>504.6</ele>
        <time>2022-11-13T13:34:13Z</time>
      </trkpt>
      <trkpt lat="43.39232" lon="5.9245">
        <ele>504.9</ele>
        <time>2022-11-13T13:34:22Z</time>
      </trkpt>
      <trkpt lat="43.39236" lon="5.92461">
        <ele>505</ele>
        <time>2022-11-13T13:34:31Z</time>
      </trkpt>
      <trkpt lat="43.39241" lon="5.92473">
        <ele>505.5</ele>
        <time>2022-11-13T13:34:41Z</time>
      </trkpt>
      <trkpt lat="43.39246" lon="5.92484">
        <ele>506.6</ele>
        <time>2022-11-13T13:34:51Z</time>
      </trkpt>
      <trkpt lat="43.39251" lon="5.92495">
        <ele>507.4</ele>
        <time>2022-11-13T13:35:01Z</time>
      </trkpt>
      <trkpt lat="43.39255" lon="5.92497">
        <ele>507.6</ele>
        <time>2022-11-13T13:35:09Z</time>
      </trkpt>
      <trkpt lat="43.39256" lon="5.92498">
        <ele>507.5</ele>
        <time>2022-11-13T13:35:11Z</time>
      </trkpt>
      <trkpt lat="43.39263" lon="5.92506">
        <ele>507.4</ele>
        <time>2022-11-13T13:35:20Z</time>
      </trkpt>
      <trkpt lat="43.39262" lon="5.92517">
        <ele>507.6</ele>
        <time>2022-11-13T13:35:31Z</time>
      </trkpt>
      <trkpt lat="43.39263" lon="5.92518">
        <ele>508</ele>
        <time>2022-11-13T13:35:33Z</time>
      </trkpt>
      <trkpt lat="43.39271" lon="5.92525">
        <ele>508.1</ele>
        <time>2022-11-13T13:35:42Z</time>
      </trkpt>
      <trkpt lat="43.39279" lon="5.92531">
        <ele>507.7</ele>
        <time>2022-11-13T13:35:51Z</time>
      </trkpt>
      <trkpt lat="43.3928" lon="5.92531">
        <ele>507.6</ele>
        <time>2022-11-13T13:35:56Z</time>
      </trkpt>
      <trkpt lat="43.3928" lon="5.92531">
        <ele>507.6</ele>
        <time>2022-11-13T13:35:59Z</time>
      </trkpt>
      <trkpt lat="43.3928" lon="5.92531">
        <ele>507.5</ele>
        <time>2022-11-13T13:36:00Z</time>
      </trkpt>
      <trkpt lat="43.3928" lon="5.92531">
        <ele>507.5</ele>
        <time>2022-11-13T13:36:01Z</time>
      </trkpt>
      <trkpt lat="43.3928" lon="5.92531">
        <ele>507.5</ele>
        <time>2022-11-13T13:36:02Z</time>
      </trkpt>
      <trkpt lat="43.3928" lon="5.92531">
        <ele>507.3</ele>
        <time>2022-11-13T13:36:18Z</time>
      </trkpt>
      <trkpt lat="43.3928" lon="5.92531">
        <ele>507.3</ele>
        <time>2022-11-13T13:36:19Z</time>
      </trkpt>
      <trkpt lat="43.3928" lon="5.92532">
        <ele>507.2</ele>
        <time>2022-11-13T13:36:25Z</time>
      </trkpt>
      <trkpt lat="43.3928" lon="5.92532">
        <ele>507.2</ele>
        <time>2022-11-13T13:36:26Z</time>
      </trkpt>
      <trkpt lat="43.3928" lon="5.92531">
        <ele>507.2</ele>
        <time>2022-11-13T13:36:31Z</time>
      </trkpt>
      <trkpt lat="43.3928" lon="5.92531">
        <ele>507.2</ele>
        <time>2022-11-13T13:36:32Z</time>
      </trkpt>
      <trkpt lat="43.3928" lon="5.9253">
        <ele>507.1</ele>
        <time>2022-11-13T13:36:34Z</time>
      </trkpt>
      <trkpt lat="43.3928" lon="5.9253">
        <ele>507</ele>
        <time>2022-11-13T13:36:35Z</time>
      </trkpt>
      <trkpt lat="43.3928" lon="5.92531">
        <ele>506.9</ele>
        <time>2022-11-13T13:36:36Z</time>
      </trkpt>
      <trkpt lat="43.3928" lon="5.92532">
        <ele>506.7</ele>
        <time>2022-11-13T13:36:39Z</time>
      </trkpt>
      <trkpt lat="43.3928" lon="5.92532">
        <ele>506.8</ele>
        <time>2022-11-13T13:36:48Z</time>
      </trkpt>
      <trkpt lat="43.39279" lon="5.92533">
        <ele>506.9</ele>
        <time>2022-11-13T13:36:52Z</time>
      </trkpt>
      <trkpt lat="43.39279" lon="5.92533">
        <ele>506.8</ele>
        <time>2022-11-13T13:36:58Z</time>
      </trkpt>
      <trkpt lat="43.3928" lon="5.92533">
        <ele>506.9</ele>
        <time>2022-11-13T13:37:05Z</time>
      </trkpt>
      <trkpt lat="43.3928" lon="5.92534">
        <ele>506.9</ele>
        <time>2022-11-13T13:37:15Z</time>
      </trkpt>
      <trkpt lat="43.3928" lon="5.92534">
        <ele>507</ele>
        <time>2022-11-13T13:37:17Z</time>
      </trkpt>
      <trkpt lat="43.3928" lon="5.92534">
        <ele>507</ele>
        <time>2022-11-13T13:37:18Z</time>
      </trkpt>
      <trkpt lat="43.3928" lon="5.92534">
        <ele>507</ele>
        <time>2022-11-13T13:37:19Z</time>
      </trkpt>
      <trkpt lat="43.3928" lon="5.92534">
        <ele>507.1</ele>
        <time>2022-11-13T13:37:21Z</time>
      </trkpt>
      <trkpt lat="43.3928" lon="5.92534">
        <ele>507</ele>
        <time>2022-11-13T13:37:22Z</time>
      </trkpt>
      <trkpt lat="43.3928" lon="5.92534">
        <ele>507</ele>
        <time>2022-11-13T13:37:23Z</time>
      </trkpt>
      <trkpt lat="43.39283" lon="5.92527">
        <ele>506.9</ele>
        <time>2022-11-13T13:37:43Z</time>
      </trkpt>
      <trkpt lat="43.39283" lon="5.92527">
        <ele>507</ele>
        <time>2022-11-13T13:38:00Z</time>
      </trkpt>
      <trkpt lat="43.39283" lon="5.92528">
        <ele>507.2</ele>
        <time>2022-11-13T13:38:04Z</time>
      </trkpt>
      <trkpt lat="43.39283" lon="5.92528">
        <ele>507.3</ele>
        <time>2022-11-13T13:38:05Z</time>
      </trkpt>
      <trkpt lat="43.39283" lon="5.92528">
        <ele>507.3</ele>
        <time>2022-11-13T13:38:06Z</time>
      </trkpt>
      <trkpt lat="43.39283" lon="5.92528">
        <ele>507.2</ele>
        <time>2022-11-13T13:38:07Z</time>
      </trkpt>
      <trkpt lat="43.39282" lon="5.92528">
        <ele>507</ele>
        <time>2022-11-13T13:38:09Z</time>
      </trkpt>
      <trkpt lat="43.39283" lon="5.92528">
        <ele>506.9</ele>
        <time>2022-11-13T13:38:18Z</time>
      </trkpt>
      <trkpt lat="43.39282" lon="5.92529">
        <ele>506.5</ele>
        <time>2022-11-13T13:38:20Z</time>
      </trkpt>
      <trkpt lat="43.39282" lon="5.92529">
        <ele>506.6</ele>
        <time>2022-11-13T13:38:51Z</time>
      </trkpt>
      <trkpt lat="43.39282" lon="5.92528">
        <ele>506.6</ele>
        <time>2022-11-13T13:38:54Z</time>
      </trkpt>
      <trkpt lat="43.39281" lon="5.92528">
        <ele>506.6</ele>
        <time>2022-11-13T13:38:55Z</time>
      </trkpt>
      <trkpt lat="43.39281" lon="5.92529">
        <ele>506.8</ele>
        <time>2022-11-13T13:38:57Z</time>
      </trkpt>
      <trkpt lat="43.39281" lon="5.92529">
        <ele>506.9</ele>
        <time>2022-11-13T13:38:58Z</time>
      </trkpt>
      <trkpt lat="43.39281" lon="5.92529">
        <ele>507</ele>
        <time>2022-11-13T13:39:00Z</time>
      </trkpt>
      <trkpt lat="43.39281" lon="5.92529">
        <ele>507.1</ele>
        <time>2022-11-13T13:39:02Z</time>
      </trkpt>
      <trkpt lat="43.39277" lon="5.92534">
        <ele>506.4</ele>
        <time>2022-11-13T13:39:15Z</time>
      </trkpt>
      <trkpt lat="43.39278" lon="5.92534">
        <ele>506.5</ele>
        <time>2022-11-13T13:39:16Z</time>
      </trkpt>
      <trkpt lat="43.39274" lon="5.92546">
        <ele>507.7</ele>
        <time>2022-11-13T13:39:39Z</time>
      </trkpt>
      <trkpt lat="43.39273" lon="5.92547">
        <ele>508.1</ele>
        <time>2022-11-13T13:39:44Z</time>
      </trkpt>
      <trkpt lat="43.39273" lon="5.92548">
        <ele>508</ele>
        <time>2022-11-13T13:39:47Z</time>
      </trkpt>
      <trkpt lat="43.39267" lon="5.92557">
        <ele>507.3</ele>
        <time>2022-11-13T13:40:00Z</time>
      </trkpt>
      <trkpt lat="43.39267" lon="5.92557">
        <ele>507</ele>
        <time>2022-11-13T13:40:02Z</time>
      </trkpt>
      <trkpt lat="43.39267" lon="5.92557">
        <ele>507</ele>
        <time>2022-11-13T13:40:04Z</time>
      </trkpt>
      <trkpt lat="43.39263" lon="5.92569">
        <ele>505.2</ele>
        <time>2022-11-13T13:40:24Z</time>
      </trkpt>
      <trkpt lat="43.39254" lon="5.92572">
        <ele>504.8</ele>
        <time>2022-11-13T13:40:42Z</time>
      </trkpt>
      <trkpt lat="43.39263" lon="5.92576">
        <ele>504.4</ele>
        <time>2022-11-13T13:41:04Z</time>
      </trkpt>
      <trkpt lat="43.39262" lon="5.92563">
        <ele>504.8</ele>
        <time>2022-11-13T13:41:20Z</time>
      </trkpt>
      <trkpt lat="43.3926" lon="5.92562">
        <ele>505.3</ele>
        <time>2022-11-13T13:41:26Z</time>
      </trkpt>
      <trkpt lat="43.39261" lon="5.92562">
        <ele>505.3</ele>
        <time>2022-11-13T13:41:40Z</time>
      </trkpt>
      <trkpt lat="43.39261" lon="5.92562">
        <ele>505.2</ele>
        <time>2022-11-13T13:41:41Z</time>
      </trkpt>
      <trkpt lat="43.39261" lon="5.92562">
        <ele>505.2</ele>
        <time>2022-11-13T13:41:42Z</time>
      </trkpt>
      <trkpt lat="43.39261" lon="5.92561">
        <ele>505.2</ele>
        <time>2022-11-13T13:41:45Z</time>
      </trkpt>
      <trkpt lat="43.39261" lon="5.92561">
        <ele>505.2</ele>
        <time>2022-11-13T13:41:52Z</time>
      </trkpt>
      <trkpt lat="43.3927" lon="5.92558">
        <ele>504.3</ele>
        <time>2022-11-13T13:42:08Z</time>
      </trkpt>
      <trkpt lat="43.39276" lon="5.92548">
        <ele>504.3</ele>
        <time>2022-11-13T13:42:19Z</time>
      </trkpt>
      <trkpt lat="43.3928" lon="5.92536">
        <ele>504.7</ele>
        <time>2022-11-13T13:42:29Z</time>
      </trkpt>
      <trkpt lat="43.39274" lon="5.92526">
        <ele>504.9</ele>
        <time>2022-11-13T13:42:38Z</time>
      </trkpt>
      <trkpt lat="43.39265" lon="5.92526">
        <ele>506.1</ele>
        <time>2022-11-13T13:42:51Z</time>
      </trkpt>
      <trkpt lat="43.39256" lon="5.92523">
        <ele>506.7</ele>
        <time>2022-11-13T13:43:13Z</time>
      </trkpt>
      <trkpt lat="43.39256" lon="5.92523">
        <ele>506.9</ele>
        <time>2022-11-13T13:43:16Z</time>
      </trkpt>
      <trkpt lat="43.39256" lon="5.92523">
        <ele>507</ele>
        <time>2022-11-13T13:43:17Z</time>
      </trkpt>
      <trkpt lat="43.39256" lon="5.92523">
        <ele>507.1</ele>
        <time>2022-11-13T13:43:18Z</time>
      </trkpt>
      <trkpt lat="43.39265" lon="5.92528">
        <ele>507.6</ele>
        <time>2022-11-13T13:43:34Z</time>
      </trkpt>
      <trkpt lat="43.39274" lon="5.92529">
        <ele>507.1</ele>
        <time>2022-11-13T13:43:45Z</time>
      </trkpt>
      <trkpt lat="43.39277" lon="5.92532">
        <ele>506.5</ele>
        <time>2022-11-13T13:43:53Z</time>
      </trkpt>
      <trkpt lat="43.39276" lon="5.92532">
        <ele>506.6</ele>
        <time>2022-11-13T13:43:54Z</time>
      </trkpt>
      <trkpt lat="43.39276" lon="5.92533">
        <ele>506.8</ele>
        <time>2022-11-13T13:43:56Z</time>
      </trkpt>
      <trkpt lat="43.39276" lon="5.92532">
        <ele>506.8</ele>
        <time>2022-11-13T13:43:57Z</time>
      </trkpt>
      <trkpt lat="43.39276" lon="5.92532">
        <ele>506.7</ele>
        <time>2022-11-13T13:43:58Z</time>
      </trkpt>
      <trkpt lat="43.39276" lon="5.92532">
        <ele>506.8</ele>
        <time>2022-11-13T13:44:04Z</time>
      </trkpt>
      <trkpt lat="43.39273" lon="5.92531">
        <ele>506.7</ele>
        <time>2022-11-13T13:44:14Z</time>
      </trkpt>
      <trkpt lat="43.39273" lon="5.92532">
        <ele>506.7</ele>
        <time>2022-11-13T13:44:15Z</time>
      </trkpt>
      <trkpt lat="43.39281" lon="5.92537">
        <ele>507.2</ele>
        <time>2022-11-13T13:44:27Z</time>
      </trkpt>
      <trkpt lat="43.39283" lon="5.92534">
        <ele>507.5</ele>
        <time>2022-11-13T13:44:54Z</time>
      </trkpt>
      <trkpt lat="43.39283" lon="5.92534">
        <ele>507.4</ele>
        <time>2022-11-13T13:44:55Z</time>
      </trkpt>
      <trkpt lat="43.39279" lon="5.92534">
        <ele>506.9</ele>
        <time>2022-11-13T13:45:02Z</time>
      </trkpt>
      <trkpt lat="43.39279" lon="5.92534">
        <ele>506.8</ele>
        <time>2022-11-13T13:45:04Z</time>
      </trkpt>
      <trkpt lat="43.39279" lon="5.92533">
        <ele>506.4</ele>
        <time>2022-11-13T13:45:06Z</time>
      </trkpt>
      <trkpt lat="43.39279" lon="5.92534">
        <ele>506.4</ele>
        <time>2022-11-13T13:45:22Z</time>
      </trkpt>
      <trkpt lat="43.39279" lon="5.92534">
        <ele>506.4</ele>
        <time>2022-11-13T13:45:23Z</time>
      </trkpt>
      <trkpt lat="43.39279" lon="5.92534">
        <ele>506.2</ele>
        <time>2022-11-13T13:45:46Z</time>
      </trkpt>
      <trkpt lat="43.39279" lon="5.92534">
        <ele>506.2</ele>
        <time>2022-11-13T13:45:47Z</time>
      </trkpt>
      <trkpt lat="43.39279" lon="5.92534">
        <ele>506</ele>
        <time>2022-11-13T13:46:06Z</time>
      </trkpt>
      <trkpt lat="43.39279" lon="5.92534">
        <ele>505.9</ele>
        <time>2022-11-13T13:46:07Z</time>
      </trkpt>
      <trkpt lat="43.39279" lon="5.92534">
        <ele>505.9</ele>
        <time>2022-11-13T13:46:10Z</time>
      </trkpt>
      <trkpt lat="43.39279" lon="5.92534">
        <ele>505.9</ele>
        <time>2022-11-13T13:46:11Z</time>
      </trkpt>
      <trkpt lat="43.39279" lon="5.92534">
        <ele>505.9</ele>
        <time>2022-11-13T13:46:14Z</time>
      </trkpt>
      <trkpt lat="43.39279" lon="5.92534">
        <ele>505.9</ele>
        <time>2022-11-13T13:46:15Z</time>
      </trkpt>
      <trkpt lat="43.39279" lon="5.92534">
        <ele>505.9</ele>
        <time>2022-11-13T13:46:19Z</time>
      </trkpt>
      <trkpt lat="43.39279" lon="5.92534">
        <ele>505.9</ele>
        <time>2022-11-13T13:46:20Z</time>
      </trkpt>
      <trkpt lat="43.39279" lon="5.92535">
        <ele>505.8</ele>
        <time>2022-11-13T13:46:30Z</time>
      </trkpt>
      <trkpt lat="43.39279" lon="5.92535">
        <ele>505.6</ele>
        <time>2022-11-13T13:46:32Z</time>
      </trkpt>
      <trkpt lat="43.39279" lon="5.92535">
        <ele>505.5</ele>
        <time>2022-11-13T13:48:06Z</time>
      </trkpt>
      <trkpt lat="43.39279" lon="5.92535">
        <ele>505.5</ele>
        <time>2022-11-13T13:48:07Z</time>
      </trkpt>
      <trkpt lat="43.39279" lon="5.92535">
        <ele>505.1</ele>
        <time>2022-11-13T13:50:23Z</time>
      </trkpt>
      <trkpt lat="43.39279" lon="5.92535">
        <ele>505.1</ele>
        <time>2022-11-13T13:50:24Z</time>
      </trkpt>
      <trkpt lat="43.3928" lon="5.92536">
        <ele>505.1</ele>
        <time>2022-11-13T13:50:25Z</time>
      </trkpt>
      <trkpt lat="43.3928" lon="5.92536">
        <ele>505.1</ele>
        <time>2022-11-13T13:50:29Z</time>
      </trkpt>
      <trkpt lat="43.3928" lon="5.92536">
        <ele>505.1</ele>
        <time>2022-11-13T13:50:33Z</time>
      </trkpt>
      <trkpt lat="43.3928" lon="5.92536">
        <ele>505.1</ele>
        <time>2022-11-13T13:50:34Z</time>
      </trkpt>
      <trkpt lat="43.3928" lon="5.92536">
        <ele>504.7</ele>
        <time>2022-11-13T13:50:49Z</time>
      </trkpt>
      <trkpt lat="43.3928" lon="5.92536">
        <ele>504.6</ele>
        <time>2022-11-13T13:50:50Z</time>
      </trkpt>
      <trkpt lat="43.3928" lon="5.92536">
        <ele>504.6</ele>
        <time>2022-11-13T13:51:01Z</time>
      </trkpt>
      <trkpt lat="43.3928" lon="5.92536">
        <ele>504.6</ele>
        <time>2022-11-13T13:51:02Z</time>
      </trkpt>
      <trkpt lat="43.3928" lon="5.92536">
        <ele>504.6</ele>
        <time>2022-11-13T13:53:01Z</time>
      </trkpt>
      <trkpt lat="43.3928" lon="5.92536">
        <ele>504.6</ele>
        <time>2022-11-13T13:53:02Z</time>
      </trkpt>
      <trkpt lat="43.3928" lon="5.92536">
        <ele>504.8</ele>
        <time>2022-11-13T13:53:05Z</time>
      </trkpt>
      <trkpt lat="43.39279" lon="5.92536">
        <ele>504.8</ele>
        <time>2022-11-13T13:53:08Z</time>
      </trkpt>
      <trkpt lat="43.39278" lon="5.92536">
        <ele>504.7</ele>
        <time>2022-11-13T13:53:10Z</time>
      </trkpt>
      <trkpt lat="43.39278" lon="5.92536">
        <ele>504.7</ele>
        <time>2022-11-13T13:53:11Z</time>
      </trkpt>
      <trkpt lat="43.39278" lon="5.92536">
        <ele>504.8</ele>
        <time>2022-11-13T13:53:25Z</time>
      </trkpt>
      <trkpt lat="43.39278" lon="5.92536">
        <ele>505</ele>
        <time>2022-11-13T13:53:27Z</time>
      </trkpt>
      <trkpt lat="43.39278" lon="5.92536">
        <ele>505.2</ele>
        <time>2022-11-13T13:53:30Z</time>
      </trkpt>
      <trkpt lat="43.39278" lon="5.92536">
        <ele>505.2</ele>
        <time>2022-11-13T13:53:31Z</time>
      </trkpt>
      <trkpt lat="43.39278" lon="5.92535">
        <ele>505.3</ele>
        <time>2022-11-13T13:53:37Z</time>
      </trkpt>
      <trkpt lat="43.39278" lon="5.92535">
        <ele>505.3</ele>
        <time>2022-11-13T13:53:38Z</time>
      </trkpt>
      <trkpt lat="43.39277" lon="5.92535">
        <ele>505.2</ele>
        <time>2022-11-13T13:53:39Z</time>
      </trkpt>
      <trkpt lat="43.39277" lon="5.92535">
        <ele>505.2</ele>
        <time>2022-11-13T13:53:40Z</time>
      </trkpt>
      <trkpt lat="43.39278" lon="5.92535">
        <ele>505.3</ele>
        <time>2022-11-13T13:53:43Z</time>
      </trkpt>
      <trkpt lat="43.39278" lon="5.92537">
        <ele>505.2</ele>
        <time>2022-11-13T13:53:54Z</time>
      </trkpt>
      <trkpt lat="43.39278" lon="5.92537">
        <ele>505.2</ele>
        <time>2022-11-13T13:53:55Z</time>
      </trkpt>
      <trkpt lat="43.39278" lon="5.92537">
        <ele>505</ele>
        <time>2022-11-13T13:54:00Z</time>
      </trkpt>
      <trkpt lat="43.39278" lon="5.92537">
        <ele>505</ele>
        <time>2022-11-13T13:54:06Z</time>
      </trkpt>
      <trkpt lat="43.39278" lon="5.92537">
        <ele>505</ele>
        <time>2022-11-13T13:54:07Z</time>
      </trkpt>
      <trkpt lat="43.39278" lon="5.92537">
        <ele>505</ele>
        <time>2022-11-13T13:54:13Z</time>
      </trkpt>
      <trkpt lat="43.39278" lon="5.92537">
        <ele>505</ele>
        <time>2022-11-13T13:54:14Z</time>
      </trkpt>
      <trkpt lat="43.39277" lon="5.92537">
        <ele>505</ele>
        <time>2022-11-13T13:54:26Z</time>
      </trkpt>
      <trkpt lat="43.39277" lon="5.92537">
        <ele>505</ele>
        <time>2022-11-13T13:54:27Z</time>
      </trkpt>
      <trkpt lat="43.39277" lon="5.92537">
        <ele>505</ele>
        <time>2022-11-13T13:54:29Z</time>
      </trkpt>
      <trkpt lat="43.39275" lon="5.92538">
        <ele>504.8</ele>
        <time>2022-11-13T13:54:32Z</time>
      </trkpt>
      <trkpt lat="43.39275" lon="5.92538">
        <ele>504.8</ele>
        <time>2022-11-13T13:54:34Z</time>
      </trkpt>
      <trkpt lat="43.39273" lon="5.92538">
        <ele>504.7</ele>
        <time>2022-11-13T13:54:41Z</time>
      </trkpt>
      <trkpt lat="43.39273" lon="5.92538">
        <ele>504.6</ele>
        <time>2022-11-13T13:54:44Z</time>
      </trkpt>
      <trkpt lat="43.39273" lon="5.92538">
        <ele>504.7</ele>
        <time>2022-11-13T13:54:46Z</time>
      </trkpt>
      <trkpt lat="43.39273" lon="5.92538">
        <ele>504.7</ele>
        <time>2022-11-13T13:54:48Z</time>
      </trkpt>
      <trkpt lat="43.39273" lon="5.92538">
        <ele>504.7</ele>
        <time>2022-11-13T13:54:49Z</time>
      </trkpt>
      <trkpt lat="43.39272" lon="5.92538">
        <ele>504.7</ele>
        <time>2022-11-13T13:54:50Z</time>
      </trkpt>
      <trkpt lat="43.39272" lon="5.92538">
        <ele>504.7</ele>
        <time>2022-11-13T13:54:52Z</time>
      </trkpt>
      <trkpt lat="43.39272" lon="5.92538">
        <ele>504.7</ele>
        <time>2022-11-13T13:54:55Z</time>
      </trkpt>
      <trkpt lat="43.39272" lon="5.92538">
        <ele>504.8</ele>
        <time>2022-11-13T13:54:56Z</time>
      </trkpt>
      <trkpt lat="43.39272" lon="5.92538">
        <ele>504.8</ele>
        <time>2022-11-13T13:54:57Z</time>
      </trkpt>
      <trkpt lat="43.39272" lon="5.92538">
        <ele>504.8</ele>
        <time>2022-11-13T13:54:58Z</time>
      </trkpt>
      <trkpt lat="43.39272" lon="5.92538">
        <ele>504.8</ele>
        <time>2022-11-13T13:55:00Z</time>
      </trkpt>
      <trkpt lat="43.39271" lon="5.92538">
        <ele>504.6</ele>
        <time>2022-11-13T13:55:07Z</time>
      </trkpt>
      <trkpt lat="43.3927" lon="5.92538">
        <ele>504.6</ele>
        <time>2022-11-13T13:55:09Z</time>
      </trkpt>
      <trkpt lat="43.3927" lon="5.92538">
        <ele>504.6</ele>
        <time>2022-11-13T13:55:10Z</time>
      </trkpt>
      <trkpt lat="43.3927" lon="5.92538">
        <ele>504.1</ele>
        <time>2022-11-13T13:55:38Z</time>
      </trkpt>
      <trkpt lat="43.3927" lon="5.92538">
        <ele>503.9</ele>
        <time>2022-11-13T13:55:39Z</time>
      </trkpt>
      <trkpt lat="43.3927" lon="5.92538">
        <ele>503.9</ele>
        <time>2022-11-13T13:55:50Z</time>
      </trkpt>
      <trkpt lat="43.39271" lon="5.92538">
        <ele>504.4</ele>
        <time>2022-11-13T13:55:52Z</time>
      </trkpt>
      <trkpt lat="43.39272" lon="5.92538">
        <ele>504.5</ele>
        <time>2022-11-13T13:55:53Z</time>
      </trkpt>
      <trkpt lat="43.39273" lon="5.92538">
        <ele>505.5</ele>
        <time>2022-11-13T13:55:57Z</time>
      </trkpt>
      <trkpt lat="43.39273" lon="5.92538">
        <ele>505.7</ele>
        <time>2022-11-13T13:56:01Z</time>
      </trkpt>
      <trkpt lat="43.39273" lon="5.92537">
        <ele>505.6</ele>
        <time>2022-11-13T13:56:08Z</time>
      </trkpt>
      <trkpt lat="43.39273" lon="5.92537">
        <ele>505.6</ele>
        <time>2022-11-13T13:56:09Z</time>
      </trkpt>
      <trkpt lat="43.39273" lon="5.92537">
        <ele>505.6</ele>
        <time>2022-11-13T13:56:10Z</time>
      </trkpt>
      <trkpt lat="43.39273" lon="5.92537">
        <ele>505.7</ele>
        <time>2022-11-13T13:56:13Z</time>
      </trkpt>
      <trkpt lat="43.39273" lon="5.92537">
        <ele>505.6</ele>
        <time>2022-11-13T13:56:14Z</time>
      </trkpt>
      <trkpt lat="43.39273" lon="5.92538">
        <ele>505.6</ele>
        <time>2022-11-13T13:56:15Z</time>
      </trkpt>
      <trkpt lat="43.39273" lon="5.92538">
        <ele>505.6</ele>
        <time>2022-11-13T13:56:16Z</time>
      </trkpt>
      <trkpt lat="43.39273" lon="5.92537">
        <ele>505.6</ele>
        <time>2022-11-13T13:56:17Z</time>
      </trkpt>
      <trkpt lat="43.39273" lon="5.92533">
        <ele>505.9</ele>
        <time>2022-11-13T13:56:26Z</time>
      </trkpt>
      <trkpt lat="43.39272" lon="5.92533">
        <ele>505.8</ele>
        <time>2022-11-13T13:56:30Z</time>
      </trkpt>
      <trkpt lat="43.39271" lon="5.92534">
        <ele>505.6</ele>
        <time>2022-11-13T13:56:35Z</time>
      </trkpt>
      <trkpt lat="43.39271" lon="5.92534">
        <ele>505.6</ele>
        <time>2022-11-13T13:56:36Z</time>
      </trkpt>
      <trkpt lat="43.39271" lon="5.92534">
        <ele>505.6</ele>
        <time>2022-11-13T13:56:37Z</time>
      </trkpt>
      <trkpt lat="43.3927" lon="5.92534">
        <ele>505.6</ele>
        <time>2022-11-13T13:56:38Z</time>
      </trkpt>
      <trkpt lat="43.3927" lon="5.92535">
        <ele>505.7</ele>
        <time>2022-11-13T13:56:41Z</time>
      </trkpt>
      <trkpt lat="43.3927" lon="5.92535">
        <ele>505.7</ele>
        <time>2022-11-13T13:56:42Z</time>
      </trkpt>
      <trkpt lat="43.3927" lon="5.92535">
        <ele>505.7</ele>
        <time>2022-11-13T13:56:43Z</time>
      </trkpt>
      <trkpt lat="43.3927" lon="5.92535">
        <ele>505.7</ele>
        <time>2022-11-13T13:56:44Z</time>
      </trkpt>
      <trkpt lat="43.39267" lon="5.92538">
        <ele>505.7</ele>
        <time>2022-11-13T13:56:55Z</time>
      </trkpt>
      <trkpt lat="43.39267" lon="5.92538">
        <ele>505.7</ele>
        <time>2022-11-13T13:56:56Z</time>
      </trkpt>
      <trkpt lat="43.39267" lon="5.92541">
        <ele>505.3</ele>
        <time>2022-11-13T13:57:12Z</time>
      </trkpt>
      <trkpt lat="43.39267" lon="5.9254">
        <ele>505.3</ele>
        <time>2022-11-13T13:57:13Z</time>
      </trkpt>
      <trkpt lat="43.39276" lon="5.92541">
        <ele>504.7</ele>
        <time>2022-11-13T13:57:31Z</time>
      </trkpt>
      <trkpt lat="43.39275" lon="5.92509">
        <ele>505.4</ele>
        <time>2022-11-13T13:57:51Z</time>
      </trkpt>
      <trkpt lat="43.39263" lon="5.92508">
        <ele>506.2</ele>
        <time>2022-11-13T13:57:57Z</time>
      </trkpt>
      <trkpt lat="43.39254" lon="5.92508">
        <ele>507.7</ele>
        <time>2022-11-13T13:58:03Z</time>
      </trkpt>
      <trkpt lat="43.39263" lon="5.92509">
        <ele>508.1</ele>
        <time>2022-11-13T13:58:06Z</time>
      </trkpt>
      <trkpt lat="43.39267" lon="5.92496">
        <ele>507.5</ele>
        <time>2022-11-13T13:58:14Z</time>
      </trkpt>
      <trkpt lat="43.39271" lon="5.9251">
        <ele>504.5</ele>
        <time>2022-11-13T13:58:19Z</time>
      </trkpt>
      <trkpt lat="43.39273" lon="5.92522">
        <ele>502</ele>
        <time>2022-11-13T13:58:32Z</time>
      </trkpt>
      <trkpt lat="43.39271" lon="5.92531">
        <ele>501.4</ele>
        <time>2022-11-13T13:58:56Z</time>
      </trkpt>
      <trkpt lat="43.39271" lon="5.9253">
        <ele>501.5</ele>
        <time>2022-11-13T13:58:57Z</time>
      </trkpt>
      <trkpt lat="43.3928" lon="5.9253">
        <ele>502.6</ele>
        <time>2022-11-13T13:59:20Z</time>
      </trkpt>
      <trkpt lat="43.39274" lon="5.92531">
        <ele>502.9</ele>
        <time>2022-11-13T13:59:35Z</time>
      </trkpt>
      <trkpt lat="43.39273" lon="5.92531">
        <ele>502.8</ele>
        <time>2022-11-13T13:59:36Z</time>
      </trkpt>
      <trkpt lat="43.39273" lon="5.92531">
        <ele>503.5</ele>
        <time>2022-11-13T13:59:38Z</time>
      </trkpt>
      <trkpt lat="43.39273" lon="5.92531">
        <ele>503.7</ele>
        <time>2022-11-13T13:59:43Z</time>
      </trkpt>
      <trkpt lat="43.39275" lon="5.92532">
        <ele>505</ele>
        <time>2022-11-13T13:59:50Z</time>
      </trkpt>
      <trkpt lat="43.39276" lon="5.92532">
        <ele>505.2</ele>
        <time>2022-11-13T13:59:51Z</time>
      </trkpt>
      <trkpt lat="43.39271" lon="5.92543">
        <ele>506.5</ele>
        <time>2022-11-13T14:00:12Z</time>
      </trkpt>
      <trkpt lat="43.39266" lon="5.92553">
        <ele>506.4</ele>
        <time>2022-11-13T14:00:25Z</time>
      </trkpt>
      <trkpt lat="43.39261" lon="5.92564">
        <ele>504.9</ele>
        <time>2022-11-13T14:00:40Z</time>
      </trkpt>
      <trkpt lat="43.39254" lon="5.92564">
        <ele>504</ele>
        <time>2022-11-13T14:00:58Z</time>
      </trkpt>
      <trkpt lat="43.39255" lon="5.92564">
        <ele>503.9</ele>
        <time>2022-11-13T14:00:59Z</time>
      </trkpt>
      <trkpt lat="43.39262" lon="5.92573">
        <ele>504.6</ele>
        <time>2022-11-13T14:01:18Z</time>
      </trkpt>
      <trkpt lat="43.39262" lon="5.92586">
        <ele>504.4</ele>
        <time>2022-11-13T14:01:28Z</time>
      </trkpt>
      <trkpt lat="43.39262" lon="5.9259">
        <ele>505.1</ele>
        <time>2022-11-13T14:01:42Z</time>
      </trkpt>
      <trkpt lat="43.39262" lon="5.9259">
        <ele>505.4</ele>
        <time>2022-11-13T14:01:43Z</time>
      </trkpt>
      <trkpt lat="43.3926" lon="5.92604">
        <ele>504.6</ele>
        <time>2022-11-13T14:02:02Z</time>
      </trkpt>
      <trkpt lat="43.3926" lon="5.92618">
        <ele>504.6</ele>
        <time>2022-11-13T14:02:12Z</time>
      </trkpt>
      <trkpt lat="43.39255" lon="5.9263">
        <ele>504.4</ele>
        <time>2022-11-13T14:02:21Z</time>
      </trkpt>
      <trkpt lat="43.39253" lon="5.92642">
        <ele>503.3</ele>
        <time>2022-11-13T14:02:30Z</time>
      </trkpt>
      <trkpt lat="43.39249" lon="5.92655">
        <ele>501.1</ele>
        <time>2022-11-13T14:02:41Z</time>
      </trkpt>
      <trkpt lat="43.39247" lon="5.92667">
        <ele>499.1</ele>
        <time>2022-11-13T14:02:51Z</time>
      </trkpt>
      <trkpt lat="43.39243" lon="5.92678">
        <ele>497.6</ele>
        <time>2022-11-13T14:03:01Z</time>
      </trkpt>
      <trkpt lat="43.39242" lon="5.92691">
        <ele>496.8</ele>
        <time>2022-11-13T14:03:10Z</time>
      </trkpt>
      <trkpt lat="43.39238" lon="5.92703">
        <ele>495.7</ele>
        <time>2022-11-13T14:03:19Z</time>
      </trkpt>
      <trkpt lat="43.39235" lon="5.92715">
        <ele>494</ele>
        <time>2022-11-13T14:03:28Z</time>
      </trkpt>
      <trkpt lat="43.39226" lon="5.92719">
        <ele>492.9</ele>
        <time>2022-11-13T14:03:38Z</time>
      </trkpt>
      <trkpt lat="43.39216" lon="5.9272">
        <ele>490.6</ele>
        <time>2022-11-13T14:03:49Z</time>
      </trkpt>
      <trkpt lat="43.39207" lon="5.92723">
        <ele>487.6</ele>
        <time>2022-11-13T14:03:58Z</time>
      </trkpt>
      <trkpt lat="43.39201" lon="5.92734">
        <ele>484.4</ele>
        <time>2022-11-13T14:04:10Z</time>
      </trkpt>
      <trkpt lat="43.39201" lon="5.92735">
        <ele>484</ele>
        <time>2022-11-13T14:04:12Z</time>
      </trkpt>
      <trkpt lat="43.39201" lon="5.92735">
        <ele>483.7</ele>
        <time>2022-11-13T14:04:20Z</time>
      </trkpt>
      <trkpt lat="43.39201" lon="5.92735">
        <ele>483.7</ele>
        <time>2022-11-13T14:04:21Z</time>
      </trkpt>
      <trkpt lat="43.39201" lon="5.92735">
        <ele>483.7</ele>
        <time>2022-11-13T14:04:27Z</time>
      </trkpt>
      <trkpt lat="43.39192" lon="5.92738">
        <ele>480.9</ele>
        <time>2022-11-13T14:04:45Z</time>
      </trkpt>
      <trkpt lat="43.39183" lon="5.92741">
        <ele>478.7</ele>
        <time>2022-11-13T14:04:58Z</time>
      </trkpt>
      <trkpt lat="43.39174" lon="5.92745">
        <ele>476.5</ele>
        <time>2022-11-13T14:05:10Z</time>
      </trkpt>
      <trkpt lat="43.39168" lon="5.9275">
        <ele>473.6</ele>
        <time>2022-11-13T14:05:24Z</time>
      </trkpt>
      <trkpt lat="43.39168" lon="5.9275">
        <ele>473.5</ele>
        <time>2022-11-13T14:05:25Z</time>
      </trkpt>
      <trkpt lat="43.39158" lon="5.92751">
        <ele>471</ele>
        <time>2022-11-13T14:05:38Z</time>
      </trkpt>
      <trkpt lat="43.3915" lon="5.92756">
        <ele>466.1</ele>
        <time>2022-11-13T14:05:52Z</time>
      </trkpt>
      <trkpt lat="43.3914" lon="5.92757">
        <ele>464.6</ele>
        <time>2022-11-13T14:06:08Z</time>
      </trkpt>
      <trkpt lat="43.39131" lon="5.92762">
        <ele>462.3</ele>
        <time>2022-11-13T14:06:21Z</time>
      </trkpt>
      <trkpt lat="43.39124" lon="5.92763">
        <ele>459.5</ele>
        <time>2022-11-13T14:06:33Z</time>
      </trkpt>
      <trkpt lat="43.39124" lon="5.92763">
        <ele>459.3</ele>
        <time>2022-11-13T14:06:34Z</time>
      </trkpt>
      <trkpt lat="43.39115" lon="5.92769">
        <ele>456.5</ele>
        <time>2022-11-13T14:06:46Z</time>
      </trkpt>
      <trkpt lat="43.39106" lon="5.92772">
        <ele>453.7</ele>
        <time>2022-11-13T14:06:57Z</time>
      </trkpt>
      <trkpt lat="43.39097" lon="5.92772">
        <ele>449.9</ele>
        <time>2022-11-13T14:07:08Z</time>
      </trkpt>
      <trkpt lat="43.39087" lon="5.92772">
        <ele>446.4</ele>
        <time>2022-11-13T14:07:21Z</time>
      </trkpt>
      <trkpt lat="43.39078" lon="5.92776">
        <ele>443.8</ele>
        <time>2022-11-13T14:07:36Z</time>
      </trkpt>
      <trkpt lat="43.3907" lon="5.92781">
        <ele>440.8</ele>
        <time>2022-11-13T14:07:51Z</time>
      </trkpt>
      <trkpt lat="43.39068" lon="5.92782">
        <ele>439.3</ele>
        <time>2022-11-13T14:07:56Z</time>
      </trkpt>
      <trkpt lat="43.39067" lon="5.92782">
        <ele>439</ele>
        <time>2022-11-13T14:07:57Z</time>
      </trkpt>
      <trkpt lat="43.39059" lon="5.92787">
        <ele>434.9</ele>
        <time>2022-11-13T14:08:11Z</time>
      </trkpt>
      <trkpt lat="43.39054" lon="5.92799">
        <ele>432</ele>
        <time>2022-11-13T14:08:26Z</time>
      </trkpt>
      <trkpt lat="43.39047" lon="5.92806">
        <ele>425.8</ele>
        <time>2022-11-13T14:08:53Z</time>
      </trkpt>
      <trkpt lat="43.39042" lon="5.92811">
        <ele>422.1</ele>
        <time>2022-11-13T14:09:12Z</time>
      </trkpt>
      <trkpt lat="43.39042" lon="5.92812">
        <ele>422</ele>
        <time>2022-11-13T14:09:13Z</time>
      </trkpt>
      <trkpt lat="43.39037" lon="5.92822">
        <ele>418.3</ele>
        <time>2022-11-13T14:09:32Z</time>
      </trkpt>
      <trkpt lat="43.39029" lon="5.92829">
        <ele>413.7</ele>
        <time>2022-11-13T14:09:54Z</time>
      </trkpt>
      <trkpt lat="43.39022" lon="5.92838">
        <ele>411.1</ele>
        <time>2022-11-13T14:10:13Z</time>
      </trkpt>
      <trkpt lat="43.39014" lon="5.92844">
        <ele>407.4</ele>
        <time>2022-11-13T14:10:33Z</time>
      </trkpt>
      <trkpt lat="43.3901" lon="5.92849">
        <ele>404.1</ele>
        <time>2022-11-13T14:10:47Z</time>
      </trkpt>
      <trkpt lat="43.3901" lon="5.92849">
        <ele>403.6</ele>
        <time>2022-11-13T14:10:48Z</time>
      </trkpt>
      <trkpt lat="43.39001" lon="5.92847">
        <ele>399.4</ele>
        <time>2022-11-13T14:11:09Z</time>
      </trkpt>
      <trkpt lat="43.38997" lon="5.92848">
        <ele>396.5</ele>
        <time>2022-11-13T14:11:24Z</time>
      </trkpt>
      <trkpt lat="43.38996" lon="5.92848">
        <ele>396.4</ele>
        <time>2022-11-13T14:11:25Z</time>
      </trkpt>
      <trkpt lat="43.38989" lon="5.92857">
        <ele>392</ele>
        <time>2022-11-13T14:11:43Z</time>
      </trkpt>
      <trkpt lat="43.38985" lon="5.92868">
        <ele>387.6</ele>
        <time>2022-11-13T14:12:00Z</time>
      </trkpt>
      <trkpt lat="43.38982" lon="5.9288">
        <ele>382.2</ele>
        <time>2022-11-13T14:12:21Z</time>
      </trkpt>
      <trkpt lat="43.38978" lon="5.92891">
        <ele>376</ele>
        <time>2022-11-13T14:12:43Z</time>
      </trkpt>
      <trkpt lat="43.38974" lon="5.92902">
        <ele>370.7</ele>
        <time>2022-11-13T14:13:12Z</time>
      </trkpt>
      <trkpt lat="43.38965" lon="5.92907">
        <ele>367</ele>
        <time>2022-11-13T14:13:35Z</time>
      </trkpt>
      <trkpt lat="43.38958" lon="5.92915">
        <ele>361.8</ele>
        <time>2022-11-13T14:14:03Z</time>
      </trkpt>
      <trkpt lat="43.38954" lon="5.92926">
        <ele>358</ele>
        <time>2022-11-13T14:14:22Z</time>
      </trkpt>
      <trkpt lat="43.38949" lon="5.92937">
        <ele>353.6</ele>
        <time>2022-11-13T14:14:47Z</time>
      </trkpt>
      <trkpt lat="43.38949" lon="5.92949">
        <ele>349.2</ele>
        <time>2022-11-13T14:15:05Z</time>
      </trkpt>
      <trkpt lat="43.38948" lon="5.92949">
        <ele>348.3</ele>
        <time>2022-11-13T14:15:07Z</time>
      </trkpt>
      <trkpt lat="43.38946" lon="5.92952">
        <ele>347.1</ele>
        <time>2022-11-13T14:15:16Z</time>
      </trkpt>
      <trkpt lat="43.38946" lon="5.92952">
        <ele>346.9</ele>
        <time>2022-11-13T14:15:17Z</time>
      </trkpt>
      <trkpt lat="43.38936" lon="5.92954">
        <ele>344.4</ele>
        <time>2022-11-13T14:15:31Z</time>
      </trkpt>
      <trkpt lat="43.38933" lon="5.92964">
        <ele>340.2</ele>
        <time>2022-11-13T14:15:51Z</time>
      </trkpt>
      <trkpt lat="43.38933" lon="5.92964">
        <ele>340</ele>
        <time>2022-11-13T14:15:53Z</time>
      </trkpt>
      <trkpt lat="43.38925" lon="5.9297">
        <ele>336.3</ele>
        <time>2022-11-13T14:16:13Z</time>
      </trkpt>
      <trkpt lat="43.38916" lon="5.92975">
        <ele>331</ele>
        <time>2022-11-13T14:16:34Z</time>
      </trkpt>
      <trkpt lat="43.38918" lon="5.92978">
        <ele>328.1</ele>
        <time>2022-11-13T14:16:46Z</time>
      </trkpt>
      <trkpt lat="43.38918" lon="5.92978">
        <ele>328.1</ele>
        <time>2022-11-13T14:16:47Z</time>
      </trkpt>
      <trkpt lat="43.38918" lon="5.92978">
        <ele>328</ele>
        <time>2022-11-13T14:16:48Z</time>
      </trkpt>
      <trkpt lat="43.38918" lon="5.92978">
        <ele>327.8</ele>
        <time>2022-11-13T14:16:49Z</time>
      </trkpt>
      <trkpt lat="43.38919" lon="5.92979">
        <ele>326.7</ele>
        <time>2022-11-13T14:16:56Z</time>
      </trkpt>
      <trkpt lat="43.38918" lon="5.92979">
        <ele>326.6</ele>
        <time>2022-11-13T14:16:58Z</time>
      </trkpt>
      <trkpt lat="43.38912" lon="5.92984">
        <ele>325.6</ele>
        <time>2022-11-13T14:17:13Z</time>
      </trkpt>
      <trkpt lat="43.38912" lon="5.92984">
        <ele>325.5</ele>
        <time>2022-11-13T14:17:15Z</time>
      </trkpt>
      <trkpt lat="43.38911" lon="5.92983">
        <ele>325.1</ele>
        <time>2022-11-13T14:17:20Z</time>
      </trkpt>
      <trkpt lat="43.38911" lon="5.92983">
        <ele>324.5</ele>
        <time>2022-11-13T14:17:24Z</time>
      </trkpt>
      <trkpt lat="43.38902" lon="5.92984">
        <ele>322.1</ele>
        <time>2022-11-13T14:17:45Z</time>
      </trkpt>
      <trkpt lat="43.38897" lon="5.92982">
        <ele>320</ele>
        <time>2022-11-13T14:17:56Z</time>
      </trkpt>
      <trkpt lat="43.38897" lon="5.92982">
        <ele>319.8</ele>
        <time>2022-11-13T14:17:57Z</time>
      </trkpt>
      <trkpt lat="43.38887" lon="5.92982">
        <ele>316.4</ele>
        <time>2022-11-13T14:18:16Z</time>
      </trkpt>
      <trkpt lat="43.38878" lon="5.9298">
        <ele>312.8</ele>
        <time>2022-11-13T14:18:37Z</time>
      </trkpt>
      <trkpt lat="43.38877" lon="5.9298">
        <ele>310.4</ele>
        <time>2022-11-13T14:18:44Z</time>
      </trkpt>
      <trkpt lat="43.38877" lon="5.9298">
        <ele>310.3</ele>
        <time>2022-11-13T14:18:46Z</time>
      </trkpt>
      <trkpt lat="43.38877" lon="5.9298">
        <ele>310.2</ele>
        <time>2022-11-13T14:18:48Z</time>
      </trkpt>
      <trkpt lat="43.38877" lon="5.9298">
        <ele>310.1</ele>
        <time>2022-11-13T14:18:49Z</time>
      </trkpt>
      <trkpt lat="43.38868" lon="5.92982">
        <ele>305.3</ele>
        <time>2022-11-13T14:19:23Z</time>
      </trkpt>
      <trkpt lat="43.38868" lon="5.92982">
        <ele>305.2</ele>
        <time>2022-11-13T14:19:24Z</time>
      </trkpt>
      <trkpt lat="43.38859" lon="5.9298">
        <ele>301.3</ele>
        <time>2022-11-13T14:19:45Z</time>
      </trkpt>
      <trkpt lat="43.38849" lon="5.92976">
        <ele>295.9</ele>
        <time>2022-11-13T14:20:06Z</time>
      </trkpt>
      <trkpt lat="43.38843" lon="5.92976">
        <ele>294.6</ele>
        <time>2022-11-13T14:20:22Z</time>
      </trkpt>
      <trkpt lat="43.38843" lon="5.92975">
        <ele>294.6</ele>
        <time>2022-11-13T14:20:23Z</time>
      </trkpt>
      <trkpt lat="43.38836" lon="5.92984">
        <ele>292</ele>
        <time>2022-11-13T14:20:49Z</time>
      </trkpt>
      <trkpt lat="43.38836" lon="5.92984">
        <ele>291.5</ele>
        <time>2022-11-13T14:20:50Z</time>
      </trkpt>
      <trkpt lat="43.38836" lon="5.92985">
        <ele>291.3</ele>
        <time>2022-11-13T14:20:51Z</time>
      </trkpt>
      <trkpt lat="43.38833" lon="5.92997">
        <ele>289.6</ele>
        <time>2022-11-13T14:21:09Z</time>
      </trkpt>
      <trkpt lat="43.38833" lon="5.92997">
        <ele>289.2</ele>
        <time>2022-11-13T14:21:11Z</time>
      </trkpt>
      <trkpt lat="43.38833" lon="5.92998">
        <ele>289.1</ele>
        <time>2022-11-13T14:21:12Z</time>
      </trkpt>
      <trkpt lat="43.38837" lon="5.93009">
        <ele>286.1</ele>
        <time>2022-11-13T14:21:28Z</time>
      </trkpt>
      <trkpt lat="43.38845" lon="5.93015">
        <ele>284.2</ele>
        <time>2022-11-13T14:21:37Z</time>
      </trkpt>
      <trkpt lat="43.38853" lon="5.93021">
        <ele>283.1</ele>
        <time>2022-11-13T14:21:45Z</time>
      </trkpt>
      <trkpt lat="43.38863" lon="5.93027">
        <ele>282.6</ele>
        <time>2022-11-13T14:21:53Z</time>
      </trkpt>
      <trkpt lat="43.38872" lon="5.93032">
        <ele>280.4</ele>
        <time>2022-11-13T14:22:03Z</time>
      </trkpt>
      <trkpt lat="43.38872" lon="5.93032">
        <ele>280.2</ele>
        <time>2022-11-13T14:22:04Z</time>
      </trkpt>
      <trkpt lat="43.38872" lon="5.93031">
        <ele>280.1</ele>
        <time>2022-11-13T14:22:12Z</time>
      </trkpt>
      <trkpt lat="43.38873" lon="5.93029">
        <ele>279.5</ele>
        <time>2022-11-13T14:22:16Z</time>
      </trkpt>
      <trkpt lat="43.38873" lon="5.93028">
        <ele>279.5</ele>
        <time>2022-11-13T14:22:17Z</time>
      </trkpt>
      <trkpt lat="43.38879" lon="5.93038">
        <ele>279.1</ele>
        <time>2022-11-13T14:22:30Z</time>
      </trkpt>
      <trkpt lat="43.38885" lon="5.93049">
        <ele>278.9</ele>
        <time>2022-11-13T14:22:38Z</time>
      </trkpt>
      <trkpt lat="43.3889" lon="5.9306">
        <ele>279.8</ele>
        <time>2022-11-13T14:22:46Z</time>
      </trkpt>
      <trkpt lat="43.38895" lon="5.93071">
        <ele>280.2</ele>
        <time>2022-11-13T14:22:54Z</time>
      </trkpt>
      <trkpt lat="43.38903" lon="5.93079">
        <ele>280.7</ele>
        <time>2022-11-13T14:23:02Z</time>
      </trkpt>
      <trkpt lat="43.38911" lon="5.93086">
        <ele>280.4</ele>
        <time>2022-11-13T14:23:11Z</time>
      </trkpt>
      <trkpt lat="43.3892" lon="5.93088">
        <ele>279.8</ele>
        <time>2022-11-13T14:23:20Z</time>
      </trkpt>
      <trkpt lat="43.38928" lon="5.93095">
        <ele>279.2</ele>
        <time>2022-11-13T14:23:29Z</time>
      </trkpt>
      <trkpt lat="43.38934" lon="5.93106">
        <ele>280.1</ele>
        <time>2022-11-13T14:23:38Z</time>
      </trkpt>
      <trkpt lat="43.38941" lon="5.93116">
        <ele>280.2</ele>
        <time>2022-11-13T14:23:45Z</time>
      </trkpt>
      <trkpt lat="43.38947" lon="5.93127">
        <ele>279.5</ele>
        <time>2022-11-13T14:23:52Z</time>
      </trkpt>
      <trkpt lat="43.38951" lon="5.93131">
        <ele>279.8</ele>
        <time>2022-11-13T14:23:58Z</time>
      </trkpt>
      <trkpt lat="43.38952" lon="5.93132">
        <ele>279.8</ele>
        <time>2022-11-13T14:23:59Z</time>
      </trkpt>
      <trkpt lat="43.38961" lon="5.93137">
        <ele>279.7</ele>
        <time>2022-11-13T14:24:05Z</time>
      </trkpt>
      <trkpt lat="43.38968" lon="5.93145">
        <ele>279.4</ele>
        <time>2022-11-13T14:24:13Z</time>
      </trkpt>
      <trkpt lat="43.38976" lon="5.93153">
        <ele>278.3</ele>
        <time>2022-11-13T14:24:19Z</time>
      </trkpt>
      <trkpt lat="43.38984" lon="5.93159">
        <ele>277.4</ele>
        <time>2022-11-13T14:24:26Z</time>
      </trkpt>
      <trkpt lat="43.38993" lon="5.93164">
        <ele>277.4</ele>
        <time>2022-11-13T14:24:34Z</time>
      </trkpt>
      <trkpt lat="43.39001" lon="5.93173">
        <ele>277.1</ele>
        <time>2022-11-13T14:24:42Z</time>
      </trkpt>
      <trkpt lat="43.39009" lon="5.9318">
        <ele>275.7</ele>
        <time>2022-11-13T14:24:50Z</time>
      </trkpt>
      <trkpt lat="43.39016" lon="5.93187">
        <ele>276.3</ele>
        <time>2022-11-13T14:24:57Z</time>
      </trkpt>
      <trkpt lat="43.39025" lon="5.93193">
        <ele>276.3</ele>
        <time>2022-11-13T14:25:06Z</time>
      </trkpt>
      <trkpt lat="43.39034" lon="5.93197">
        <ele>276.2</ele>
        <time>2022-11-13T14:25:15Z</time>
      </trkpt>
      <trkpt lat="43.39043" lon="5.93196">
        <ele>276.3</ele>
        <time>2022-11-13T14:25:23Z</time>
      </trkpt>
      <trkpt lat="43.39054" lon="5.93195">
        <ele>277</ele>
        <time>2022-11-13T14:25:33Z</time>
      </trkpt>
      <trkpt lat="43.39061" lon="5.93192">
        <ele>277.6</ele>
        <time>2022-11-13T14:25:48Z</time>
      </trkpt>
      <trkpt lat="43.39061" lon="5.93192">
        <ele>277.5</ele>
        <time>2022-11-13T14:25:50Z</time>
      </trkpt>
      <trkpt lat="43.39062" lon="5.93192">
        <ele>277.1</ele>
        <time>2022-11-13T14:25:53Z</time>
      </trkpt>
      <trkpt lat="43.39062" lon="5.93192">
        <ele>277.1</ele>
        <time>2022-11-13T14:25:57Z</time>
      </trkpt>
      <trkpt lat="43.39062" lon="5.93192">
        <ele>277.1</ele>
        <time>2022-11-13T14:25:57Z</time>
      </trkpt>
      <trkpt lat="43.39062" lon="5.93192">
        <ele>277.1</ele>
        <time>2022-11-13T14:25:57Z</time>
      </trkpt>
      <trkpt lat="43.39062" lon="5.93192">
        <ele>277.1</ele>
        <time>2022-11-13T14:25:57Z</time>
      </trkpt>
    </trkseg>
  </trk>
</gpx>